<?xml version="1.0" encoding="UTF-8" standalone="no" ?>
<gpx xmlns="http://www.topografix.com/GPX/1/1" xmlns:xsi="http://www.w3.org/2001/XMLSchema-instance" xsi:schemaLocation="http://www.topografix.com/GPX/1/1 http://www.topografix.com/GPX/1/1/gpx.xsd" version="1.1" creator="VisuGPX - https://www.visugpx.com">
  <metadata>
    <name>RoadTrip Moto Ecosse Juin 2021</name>
  </metadata>
  <trk>
    <name><![CDATA[J11 - Corran Bunkhouse, Corran - Loans]]></name>
    <trkseg>
      <trkpt lat="56.72109" lon="-5.23408">
        <ele>13.27</ele>
        <time>2021-03-20T14:11:14Z</time>
      </trkpt>
      <trkpt lat="56.72113" lon="-5.23418">
        <ele>12.76</ele>
        <time>2021-03-20T14:11:17Z</time>
      </trkpt>
      <trkpt lat="56.7212" lon="-5.23418">
        <ele>11.73</ele>
        <time>2021-03-20T14:11:20Z</time>
      </trkpt>
      <trkpt lat="56.72144" lon="-5.23408">
        <ele>8.81</ele>
        <time>2021-03-20T14:11:23Z</time>
      </trkpt>
      <trkpt lat="56.72138" lon="-5.23364">
        <ele>10.05</ele>
        <time>2021-03-20T14:11:24Z</time>
      </trkpt>
      <trkpt lat="56.72138" lon="-5.23348">
        <ele>10.06</ele>
        <time>2021-03-20T14:11:25Z</time>
      </trkpt>
      <trkpt lat="56.72141" lon="-5.23321">
        <ele>10.3</ele>
        <time>2021-03-20T14:11:26Z</time>
      </trkpt>
      <trkpt lat="56.7215" lon="-5.23283">
        <ele>11.73</ele>
        <time>2021-03-20T14:11:27Z</time>
      </trkpt>
      <trkpt lat="56.72168" lon="-5.23258">
        <ele>14.13</ele>
        <time>2021-03-20T14:11:28Z</time>
      </trkpt>
      <trkpt lat="56.72181" lon="-5.23254">
        <ele>15.07</ele>
        <time>2021-03-20T14:11:28Z</time>
      </trkpt>
      <trkpt lat="56.72223" lon="-5.23261">
        <ele>14.86</ele>
        <time>2021-03-20T14:11:29Z</time>
      </trkpt>
      <trkpt lat="56.72229" lon="-5.23258">
        <ele>15.23</ele>
        <time>2021-03-20T14:11:30Z</time>
      </trkpt>
      <trkpt lat="56.72234" lon="-5.23249">
        <ele>16.18</ele>
        <time>2021-03-20T14:11:31Z</time>
      </trkpt>
      <trkpt lat="56.72236" lon="-5.23233">
        <ele>18.11</ele>
        <time>2021-03-20T14:11:32Z</time>
      </trkpt>
      <trkpt lat="56.72225" lon="-5.2323">
        <ele>18.88</ele>
        <time>2021-03-20T14:11:36Z</time>
      </trkpt>
      <trkpt lat="56.72184" lon="-5.23226">
        <ele>18.81</ele>
        <time>2021-03-20T14:11:40Z</time>
      </trkpt>
      <trkpt lat="56.72147" lon="-5.23227">
        <ele>17.52</ele>
        <time>2021-03-20T14:11:44Z</time>
      </trkpt>
      <trkpt lat="56.72118" lon="-5.23214">
        <ele>19.03</ele>
        <time>2021-03-20T14:11:48Z</time>
      </trkpt>
      <trkpt lat="56.72102" lon="-5.23204">
        <ele>20.46</ele>
        <time>2021-03-20T14:11:52Z</time>
      </trkpt>
      <trkpt lat="56.72036" lon="-5.23148">
        <ele>21.45</ele>
        <time>2021-03-20T14:11:56Z</time>
      </trkpt>
      <trkpt lat="56.72014" lon="-5.23133">
        <ele>23.6</ele>
        <time>2021-03-20T14:12:00Z</time>
      </trkpt>
      <trkpt lat="56.71996" lon="-5.23128">
        <ele>25.43</ele>
        <time>2021-03-20T14:12:04Z</time>
      </trkpt>
      <trkpt lat="56.71982" lon="-5.2313">
        <ele>26.23</ele>
        <time>2021-03-20T14:12:08Z</time>
      </trkpt>
      <trkpt lat="56.71966" lon="-5.23137">
        <ele>26.41</ele>
        <time>2021-03-20T14:12:12Z</time>
      </trkpt>
      <trkpt lat="56.71952" lon="-5.23148">
        <ele>25.73</ele>
        <time>2021-03-20T14:12:16Z</time>
      </trkpt>
      <trkpt lat="56.71882" lon="-5.23223">
        <ele>24.47</ele>
        <time>2021-03-20T14:12:20Z</time>
      </trkpt>
      <trkpt lat="56.71858" lon="-5.23242">
        <ele>24.49</ele>
        <time>2021-03-20T14:12:24Z</time>
      </trkpt>
      <trkpt lat="56.71831" lon="-5.23257">
        <ele>22.67</ele>
        <time>2021-03-20T14:12:27Z</time>
      </trkpt>
      <trkpt lat="56.71815" lon="-5.23259">
        <ele>22.03</ele>
        <time>2021-03-20T14:12:31Z</time>
      </trkpt>
      <trkpt lat="56.71798" lon="-5.23256">
        <ele>21.27</ele>
        <time>2021-03-20T14:12:35Z</time>
      </trkpt>
      <trkpt lat="56.7178" lon="-5.2325">
        <ele>20.19</ele>
        <time>2021-03-20T14:12:39Z</time>
      </trkpt>
      <trkpt lat="56.71753" lon="-5.23229">
        <ele>18.96</ele>
        <time>2021-03-20T14:12:43Z</time>
      </trkpt>
      <trkpt lat="56.71735" lon="-5.23208">
        <ele>19</ele>
        <time>2021-03-20T14:12:47Z</time>
      </trkpt>
      <trkpt lat="56.71532" lon="-5.22872">
        <ele>15.94</ele>
        <time>2021-03-20T14:12:51Z</time>
      </trkpt>
      <trkpt lat="56.71523" lon="-5.22851">
        <ele>16.89</ele>
        <time>2021-03-20T14:12:55Z</time>
      </trkpt>
      <trkpt lat="56.71516" lon="-5.22827">
        <ele>18.29</ele>
        <time>2021-03-20T14:12:59Z</time>
      </trkpt>
      <trkpt lat="56.71493" lon="-5.22733">
        <ele>20.51</ele>
        <time>2021-03-20T14:13:03Z</time>
      </trkpt>
      <trkpt lat="56.71485" lon="-5.22714">
        <ele>20.63</ele>
        <time>2021-03-20T14:13:07Z</time>
      </trkpt>
      <trkpt lat="56.71466" lon="-5.22682">
        <ele>20.65</ele>
        <time>2021-03-20T14:13:11Z</time>
      </trkpt>
      <trkpt lat="56.71457" lon="-5.22674">
        <ele>20.36</ele>
        <time>2021-03-20T14:13:15Z</time>
      </trkpt>
      <trkpt lat="56.71437" lon="-5.22664">
        <ele>20.64</ele>
        <time>2021-03-20T14:13:19Z</time>
      </trkpt>
      <trkpt lat="56.71425" lon="-5.22662">
        <ele>21.83</ele>
        <time>2021-03-20T14:13:23Z</time>
      </trkpt>
      <trkpt lat="56.71318" lon="-5.22665">
        <ele>24.73</ele>
        <time>2021-03-20T14:13:27Z</time>
      </trkpt>
      <trkpt lat="56.71299" lon="-5.2267">
        <ele>24.06</ele>
        <time>2021-03-20T14:13:31Z</time>
      </trkpt>
      <trkpt lat="56.71284" lon="-5.22678">
        <ele>24.13</ele>
        <time>2021-03-20T14:13:35Z</time>
      </trkpt>
      <trkpt lat="56.71267" lon="-5.22693">
        <ele>24.14</ele>
        <time>2021-03-20T14:13:39Z</time>
      </trkpt>
      <trkpt lat="56.712" lon="-5.22764">
        <ele>27.63</ele>
        <time>2021-03-20T14:13:43Z</time>
      </trkpt>
      <trkpt lat="56.7118" lon="-5.22781">
        <ele>28.91</ele>
        <time>2021-03-20T14:13:46Z</time>
      </trkpt>
      <trkpt lat="56.71157" lon="-5.22795">
        <ele>29.42</ele>
        <time>2021-03-20T14:13:50Z</time>
      </trkpt>
      <trkpt lat="56.7104" lon="-5.2285">
        <ele>25.04</ele>
        <time>2021-03-20T14:13:54Z</time>
      </trkpt>
      <trkpt lat="56.70972" lon="-5.22894">
        <ele>22.51</ele>
        <time>2021-03-20T14:13:58Z</time>
      </trkpt>
      <trkpt lat="56.70944" lon="-5.22917">
        <ele>23.01</ele>
        <time>2021-03-20T14:14:02Z</time>
      </trkpt>
      <trkpt lat="56.70909" lon="-5.22952">
        <ele>21.59</ele>
        <time>2021-03-20T14:14:06Z</time>
      </trkpt>
      <trkpt lat="56.70868" lon="-5.22998">
        <ele>19.48</ele>
        <time>2021-03-20T14:14:10Z</time>
      </trkpt>
      <trkpt lat="56.70788" lon="-5.23085">
        <ele>19.64</ele>
        <time>2021-03-20T14:14:14Z</time>
      </trkpt>
      <trkpt lat="56.70758" lon="-5.23114">
        <ele>20.02</ele>
        <time>2021-03-20T14:14:18Z</time>
      </trkpt>
      <trkpt lat="56.7072" lon="-5.23143">
        <ele>20.14</ele>
        <time>2021-03-20T14:14:22Z</time>
      </trkpt>
      <trkpt lat="56.70683" lon="-5.23168">
        <ele>21.03</ele>
        <time>2021-03-20T14:14:26Z</time>
      </trkpt>
      <trkpt lat="56.70659" lon="-5.23178">
        <ele>20.72</ele>
        <time>2021-03-20T14:14:30Z</time>
      </trkpt>
      <trkpt lat="56.70644" lon="-5.23182">
        <ele>20.19</ele>
        <time>2021-03-20T14:14:34Z</time>
      </trkpt>
      <trkpt lat="56.70627" lon="-5.23181">
        <ele>19.58</ele>
        <time>2021-03-20T14:14:38Z</time>
      </trkpt>
      <trkpt lat="56.7061" lon="-5.23176">
        <ele>18.97</ele>
        <time>2021-03-20T14:14:42Z</time>
      </trkpt>
      <trkpt lat="56.70585" lon="-5.23163">
        <ele>18.18</ele>
        <time>2021-03-20T14:14:46Z</time>
      </trkpt>
      <trkpt lat="56.70561" lon="-5.23143">
        <ele>18.84</ele>
        <time>2021-03-20T14:14:50Z</time>
      </trkpt>
      <trkpt lat="56.70369" lon="-5.22951">
        <ele>16.27</ele>
        <time>2021-03-20T14:14:54Z</time>
      </trkpt>
      <trkpt lat="56.70346" lon="-5.22921">
        <ele>16.3</ele>
        <time>2021-03-20T14:14:58Z</time>
      </trkpt>
      <trkpt lat="56.70331" lon="-5.2289">
        <ele>16.7</ele>
        <time>2021-03-20T14:15:02Z</time>
      </trkpt>
      <trkpt lat="56.7032" lon="-5.22848">
        <ele>16.75</ele>
        <time>2021-03-20T14:15:05Z</time>
      </trkpt>
      <trkpt lat="56.70284" lon="-5.22604">
        <ele>16.74</ele>
        <time>2021-03-20T14:15:09Z</time>
      </trkpt>
      <trkpt lat="56.70281" lon="-5.22559">
        <ele>17.3</ele>
        <time>2021-03-20T14:15:13Z</time>
      </trkpt>
      <trkpt lat="56.70283" lon="-5.22506">
        <ele>18.73</ele>
        <time>2021-03-20T14:15:17Z</time>
      </trkpt>
      <trkpt lat="56.70312" lon="-5.22247">
        <ele>20.07</ele>
        <time>2021-03-20T14:15:21Z</time>
      </trkpt>
      <trkpt lat="56.70313" lon="-5.22198">
        <ele>17.78</ele>
        <time>2021-03-20T14:15:25Z</time>
      </trkpt>
      <trkpt lat="56.7031" lon="-5.22128">
        <ele>14.49</ele>
        <time>2021-03-20T14:15:29Z</time>
      </trkpt>
      <trkpt lat="56.70282" lon="-5.21967">
        <ele>10.89</ele>
        <time>2021-03-20T14:15:33Z</time>
      </trkpt>
      <trkpt lat="56.70279" lon="-5.21936">
        <ele>9.35</ele>
        <time>2021-03-20T14:15:37Z</time>
      </trkpt>
      <trkpt lat="56.70276" lon="-5.21901">
        <ele>9.21</ele>
        <time>2021-03-20T14:15:41Z</time>
      </trkpt>
      <trkpt lat="56.70275" lon="-5.21686">
        <ele>8.51</ele>
        <time>2021-03-20T14:15:45Z</time>
      </trkpt>
      <trkpt lat="56.70272" lon="-5.21643">
        <ele>10.66</ele>
        <time>2021-03-20T14:15:49Z</time>
      </trkpt>
      <trkpt lat="56.70261" lon="-5.21532">
        <ele>14.83</ele>
        <time>2021-03-20T14:15:53Z</time>
      </trkpt>
      <trkpt lat="56.70229" lon="-5.21162">
        <ele>9.94</ele>
        <time>2021-03-20T14:15:57Z</time>
      </trkpt>
      <trkpt lat="56.70228" lon="-5.2113">
        <ele>9.61</ele>
        <time>2021-03-20T14:16:01Z</time>
      </trkpt>
      <trkpt lat="56.70233" lon="-5.21027">
        <ele>13.37</ele>
        <time>2021-03-20T14:16:05Z</time>
      </trkpt>
      <trkpt lat="56.70223" lon="-5.20863">
        <ele>16.48</ele>
        <time>2021-03-20T14:16:09Z</time>
      </trkpt>
      <trkpt lat="56.70224" lon="-5.20824">
        <ele>18.67</ele>
        <time>2021-03-20T14:16:13Z</time>
      </trkpt>
      <trkpt lat="56.70228" lon="-5.2078">
        <ele>21.23</ele>
        <time>2021-03-20T14:16:17Z</time>
      </trkpt>
      <trkpt lat="56.70246" lon="-5.20692">
        <ele>23.69</ele>
        <time>2021-03-20T14:16:20Z</time>
      </trkpt>
      <trkpt lat="56.70249" lon="-5.20664">
        <ele>21.43</ele>
        <time>2021-03-20T14:16:24Z</time>
      </trkpt>
      <trkpt lat="56.70252" lon="-5.20608">
        <ele>15.65</ele>
        <time>2021-03-20T14:16:28Z</time>
      </trkpt>
      <trkpt lat="56.70247" lon="-5.2055">
        <ele>13.64</ele>
        <time>2021-03-20T14:16:32Z</time>
      </trkpt>
      <trkpt lat="56.7024" lon="-5.20514">
        <ele>12.91</ele>
        <time>2021-03-20T14:16:36Z</time>
      </trkpt>
      <trkpt lat="56.70227" lon="-5.20474">
        <ele>9.97</ele>
        <time>2021-03-20T14:16:40Z</time>
      </trkpt>
      <trkpt lat="56.70199" lon="-5.20396">
        <ele>6.35</ele>
        <time>2021-03-20T14:16:44Z</time>
      </trkpt>
      <trkpt lat="56.70183" lon="-5.20342">
        <ele>7.55</ele>
        <time>2021-03-20T14:16:48Z</time>
      </trkpt>
      <trkpt lat="56.70146" lon="-5.20175">
        <ele>4.92</ele>
        <time>2021-03-20T14:16:52Z</time>
      </trkpt>
      <trkpt lat="56.70082" lon="-5.19868">
        <ele>9.32</ele>
        <time>2021-03-20T14:16:56Z</time>
      </trkpt>
      <trkpt lat="56.70038" lon="-5.19674">
        <ele>14.43</ele>
        <time>2021-03-20T14:17:00Z</time>
      </trkpt>
      <trkpt lat="56.70031" lon="-5.19618">
        <ele>13.61</ele>
        <time>2021-03-20T14:17:04Z</time>
      </trkpt>
      <trkpt lat="56.7003" lon="-5.19577">
        <ele>14.74</ele>
        <time>2021-03-20T14:17:08Z</time>
      </trkpt>
      <trkpt lat="56.70036" lon="-5.19204">
        <ele>10.19</ele>
        <time>2021-03-20T14:17:12Z</time>
      </trkpt>
      <trkpt lat="56.7004" lon="-5.19138">
        <ele>13.28</ele>
        <time>2021-03-20T14:17:16Z</time>
      </trkpt>
      <trkpt lat="56.70054" lon="-5.19054">
        <ele>16.66</ele>
        <time>2021-03-20T14:17:20Z</time>
      </trkpt>
      <trkpt lat="56.7006" lon="-5.19009">
        <ele>19</ele>
        <time>2021-03-20T14:17:24Z</time>
      </trkpt>
      <trkpt lat="56.70061" lon="-5.18977">
        <ele>19.64</ele>
        <time>2021-03-20T14:17:28Z</time>
      </trkpt>
      <trkpt lat="56.7006" lon="-5.18928">
        <ele>20.2</ele>
        <time>2021-03-20T14:17:32Z</time>
      </trkpt>
      <trkpt lat="56.70048" lon="-5.18736">
        <ele>14.95</ele>
        <time>2021-03-20T14:17:36Z</time>
      </trkpt>
      <trkpt lat="56.70041" lon="-5.18507">
        <ele>14</ele>
        <time>2021-03-20T14:17:39Z</time>
      </trkpt>
      <trkpt lat="56.70034" lon="-5.18435">
        <ele>13.39</ele>
        <time>2021-03-20T14:17:43Z</time>
      </trkpt>
      <trkpt lat="56.7003" lon="-5.18411">
        <ele>12.96</ele>
        <time>2021-03-20T14:17:47Z</time>
      </trkpt>
      <trkpt lat="56.70023" lon="-5.18388">
        <ele>13.4</ele>
        <time>2021-03-20T14:17:51Z</time>
      </trkpt>
      <trkpt lat="56.70006" lon="-5.18353">
        <ele>13.52</ele>
        <time>2021-03-20T14:17:55Z</time>
      </trkpt>
      <trkpt lat="56.69985" lon="-5.18323">
        <ele>12.76</ele>
        <time>2021-03-20T14:17:59Z</time>
      </trkpt>
      <trkpt lat="56.69872" lon="-5.18231">
        <ele>12.5</ele>
        <time>2021-03-20T14:18:03Z</time>
      </trkpt>
      <trkpt lat="56.69826" lon="-5.18201">
        <ele>12.49</ele>
        <time>2021-03-20T14:18:07Z</time>
      </trkpt>
      <trkpt lat="56.69786" lon="-5.18183">
        <ele>12.51</ele>
        <time>2021-03-20T14:18:11Z</time>
      </trkpt>
      <trkpt lat="56.69758" lon="-5.18173">
        <ele>12.79</ele>
        <time>2021-03-20T14:18:15Z</time>
      </trkpt>
      <trkpt lat="56.6971" lon="-5.18163">
        <ele>13.57</ele>
        <time>2021-03-20T14:18:19Z</time>
      </trkpt>
      <trkpt lat="56.6966" lon="-5.18159">
        <ele>11.75</ele>
        <time>2021-03-20T14:18:23Z</time>
      </trkpt>
      <trkpt lat="56.69627" lon="-5.18162">
        <ele>11</ele>
        <time>2021-03-20T14:18:27Z</time>
      </trkpt>
      <trkpt lat="56.69521" lon="-5.18186">
        <ele>11.46</ele>
        <time>2021-03-20T14:18:31Z</time>
      </trkpt>
      <trkpt lat="56.69449" lon="-5.18206">
        <ele>12.83</ele>
        <time>2021-03-20T14:18:35Z</time>
      </trkpt>
      <trkpt lat="56.69328" lon="-5.1823">
        <ele>11.94</ele>
        <time>2021-03-20T14:18:39Z</time>
      </trkpt>
      <trkpt lat="56.69243" lon="-5.18239">
        <ele>12.39</ele>
        <time>2021-03-20T14:18:43Z</time>
      </trkpt>
      <trkpt lat="56.6904" lon="-5.18237">
        <ele>8.84</ele>
        <time>2021-03-20T14:18:47Z</time>
      </trkpt>
      <trkpt lat="56.68773" lon="-5.18233">
        <ele>11.33</ele>
        <time>2021-03-20T14:18:51Z</time>
      </trkpt>
      <trkpt lat="56.68725" lon="-5.18228">
        <ele>26.67</ele>
        <time>2021-03-20T14:18:54Z</time>
      </trkpt>
      <trkpt lat="56.68685" lon="-5.18208">
        <ele>28.31</ele>
        <time>2021-03-20T14:18:58Z</time>
      </trkpt>
      <trkpt lat="56.68655" lon="-5.1818">
        <ele>25.57</ele>
        <time>2021-03-20T14:19:02Z</time>
      </trkpt>
      <trkpt lat="56.68625" lon="-5.18141">
        <ele>22.54</ele>
        <time>2021-03-20T14:19:06Z</time>
      </trkpt>
      <trkpt lat="56.68595" lon="-5.18091">
        <ele>21</ele>
        <time>2021-03-20T14:19:10Z</time>
      </trkpt>
      <trkpt lat="56.68576" lon="-5.18042">
        <ele>20.38</ele>
        <time>2021-03-20T14:19:14Z</time>
      </trkpt>
      <trkpt lat="56.68557" lon="-5.1798">
        <ele>18.27</ele>
        <time>2021-03-20T14:19:18Z</time>
      </trkpt>
      <trkpt lat="56.68545" lon="-5.17925">
        <ele>17.49</ele>
        <time>2021-03-20T14:19:22Z</time>
      </trkpt>
      <trkpt lat="56.68466" lon="-5.17471">
        <ele>15.83</ele>
        <time>2021-03-20T14:19:26Z</time>
      </trkpt>
      <trkpt lat="56.68467" lon="-5.17446">
        <ele>14.74</ele>
        <time>2021-03-20T14:19:30Z</time>
      </trkpt>
      <trkpt lat="56.6847" lon="-5.17431">
        <ele>14.26</ele>
        <time>2021-03-20T14:19:34Z</time>
      </trkpt>
      <trkpt lat="56.68474" lon="-5.17424">
        <ele>14</ele>
        <time>2021-03-20T14:19:39Z</time>
      </trkpt>
      <trkpt lat="56.68477" lon="-5.17407">
        <ele>13.66</ele>
        <time>2021-03-20T14:19:44Z</time>
      </trkpt>
      <trkpt lat="56.68475" lon="-5.17395">
        <ele>13.2</ele>
        <time>2021-03-20T14:19:49Z</time>
      </trkpt>
      <trkpt lat="56.68471" lon="-5.17387">
        <ele>13.13</ele>
        <time>2021-03-20T14:19:54Z</time>
      </trkpt>
      <trkpt lat="56.68465" lon="-5.1738">
        <ele>14.01</ele>
        <time>2021-03-20T14:19:59Z</time>
      </trkpt>
      <trkpt lat="56.68457" lon="-5.17365">
        <ele>15.19</ele>
        <time>2021-03-20T14:20:04Z</time>
      </trkpt>
      <trkpt lat="56.68446" lon="-5.17337">
        <ele>16</ele>
        <time>2021-03-20T14:20:09Z</time>
      </trkpt>
      <trkpt lat="56.68327" lon="-5.16921">
        <ele>19.82</ele>
        <time>2021-03-20T14:20:14Z</time>
      </trkpt>
      <trkpt lat="56.68204" lon="-5.16577">
        <ele>16.64</ele>
        <time>2021-03-20T14:20:19Z</time>
      </trkpt>
      <trkpt lat="56.68187" lon="-5.16516">
        <ele>17.22</ele>
        <time>2021-03-20T14:20:24Z</time>
      </trkpt>
      <trkpt lat="56.68123" lon="-5.16268">
        <ele>22.89</ele>
        <time>2021-03-20T14:20:29Z</time>
      </trkpt>
      <trkpt lat="56.68061" lon="-5.16056">
        <ele>14.71</ele>
        <time>2021-03-20T14:20:34Z</time>
      </trkpt>
      <trkpt lat="56.6786" lon="-5.15615">
        <ele>13.65</ele>
        <time>2021-03-20T14:20:39Z</time>
      </trkpt>
      <trkpt lat="56.67816" lon="-5.15507">
        <ele>7.35</ele>
        <time>2021-03-20T14:20:44Z</time>
      </trkpt>
      <trkpt lat="56.67798" lon="-5.15455">
        <ele>5.03</ele>
        <time>2021-03-20T14:20:49Z</time>
      </trkpt>
      <trkpt lat="56.67772" lon="-5.15365">
        <ele>6.2</ele>
        <time>2021-03-20T14:20:54Z</time>
      </trkpt>
      <trkpt lat="56.67753" lon="-5.15282">
        <ele>9.4</ele>
        <time>2021-03-20T14:20:59Z</time>
      </trkpt>
      <trkpt lat="56.67704" lon="-5.14962">
        <ele>17.24</ele>
        <time>2021-03-20T14:21:04Z</time>
      </trkpt>
      <trkpt lat="56.67688" lon="-5.14801">
        <ele>5.43</ele>
        <time>2021-03-20T14:21:09Z</time>
      </trkpt>
      <trkpt lat="56.67691" lon="-5.14561">
        <ele>5.24</ele>
        <time>2021-03-20T14:21:14Z</time>
      </trkpt>
      <trkpt lat="56.67694" lon="-5.14473">
        <ele>5.01</ele>
        <time>2021-03-20T14:21:19Z</time>
      </trkpt>
      <trkpt lat="56.67702" lon="-5.14351">
        <ele>4.17</ele>
        <time>2021-03-20T14:21:24Z</time>
      </trkpt>
      <trkpt lat="56.67713" lon="-5.14221">
        <ele>3.35</ele>
        <time>2021-03-20T14:21:29Z</time>
      </trkpt>
      <trkpt lat="56.67727" lon="-5.14079">
        <ele>1.86</ele>
        <time>2021-03-20T14:21:34Z</time>
      </trkpt>
      <trkpt lat="56.67705" lon="-5.14064">
        <ele>2.61</ele>
        <time>2021-03-20T14:21:41Z</time>
      </trkpt>
      <trkpt lat="56.67693" lon="-5.14052">
        <ele>3.06</ele>
        <time>2021-03-20T14:21:47Z</time>
      </trkpt>
      <trkpt lat="56.67682" lon="-5.14021">
        <ele>3.33</ele>
        <time>2021-03-20T14:21:54Z</time>
      </trkpt>
      <trkpt lat="56.67691" lon="-5.13803">
        <ele>4.89</ele>
        <time>2021-03-20T14:22:00Z</time>
      </trkpt>
      <trkpt lat="56.67704" lon="-5.13687">
        <ele>5.51</ele>
        <time>2021-03-20T14:22:07Z</time>
      </trkpt>
      <trkpt lat="56.67712" lon="-5.13575">
        <ele>7.31</ele>
        <time>2021-03-20T14:22:13Z</time>
      </trkpt>
      <trkpt lat="56.67734" lon="-5.13339">
        <ele>8.66</ele>
        <time>2021-03-20T14:22:19Z</time>
      </trkpt>
      <trkpt lat="56.67753" lon="-5.13101">
        <ele>9</ele>
        <time>2021-03-20T14:22:26Z</time>
      </trkpt>
      <trkpt lat="56.67767" lon="-5.13024">
        <ele>11.03</ele>
        <time>2021-03-20T14:22:32Z</time>
      </trkpt>
      <trkpt lat="56.67783" lon="-5.12969">
        <ele>11.73</ele>
        <time>2021-03-20T14:22:39Z</time>
      </trkpt>
      <trkpt lat="56.67831" lon="-5.12904">
        <ele>11.46</ele>
        <time>2021-03-20T14:22:45Z</time>
      </trkpt>
      <trkpt lat="56.67864" lon="-5.12867">
        <ele>13.4</ele>
        <time>2021-03-20T14:22:52Z</time>
      </trkpt>
      <trkpt lat="56.6788" lon="-5.12855">
        <ele>13.1</ele>
        <time>2021-03-20T14:22:58Z</time>
      </trkpt>
      <trkpt lat="56.67902" lon="-5.12845">
        <ele>12.44</ele>
        <time>2021-03-20T14:23:05Z</time>
      </trkpt>
      <trkpt lat="56.67922" lon="-5.12841">
        <ele>11.14</ele>
        <time>2021-03-20T14:23:11Z</time>
      </trkpt>
      <trkpt lat="56.67939" lon="-5.12846">
        <ele>9.14</ele>
        <time>2021-03-20T14:23:18Z</time>
      </trkpt>
      <trkpt lat="56.67951" lon="-5.12854">
        <ele>7.98</ele>
        <time>2021-03-20T14:23:24Z</time>
      </trkpt>
      <trkpt lat="56.67973" lon="-5.12679">
        <ele>12.98</ele>
        <time>2021-03-20T14:23:40Z</time>
      </trkpt>
      <trkpt lat="56.67991" lon="-5.11992">
        <ele>11.14</ele>
        <time>2021-03-20T14:23:56Z</time>
      </trkpt>
      <trkpt lat="56.68" lon="-5.11835">
        <ele>9.08</ele>
        <time>2021-03-20T14:24:11Z</time>
      </trkpt>
      <trkpt lat="56.67988" lon="-5.11833">
        <ele>12.86</ele>
        <time>2021-03-20T14:24:16Z</time>
      </trkpt>
      <trkpt lat="56.67981" lon="-5.11827">
        <ele>15.23</ele>
        <time>2021-03-20T14:24:20Z</time>
      </trkpt>
      <trkpt lat="56.67977" lon="-5.11817">
        <ele>16.6</ele>
        <time>2021-03-20T14:24:24Z</time>
      </trkpt>
      <trkpt lat="56.67978" lon="-5.11805">
        <ele>16.11</ele>
        <time>2021-03-20T14:24:28Z</time>
      </trkpt>
      <trkpt lat="56.67997" lon="-5.11764">
        <ele>10.07</ele>
        <time>2021-03-20T14:24:33Z</time>
      </trkpt>
      <trkpt lat="56.68018" lon="-5.11516">
        <ele>10.31</ele>
        <time>2021-03-20T14:24:37Z</time>
      </trkpt>
      <trkpt lat="56.6803" lon="-5.1141">
        <ele>9.47</ele>
        <time>2021-03-20T14:24:41Z</time>
      </trkpt>
      <trkpt lat="56.68046" lon="-5.11235">
        <ele>6.74</ele>
        <time>2021-03-20T14:24:45Z</time>
      </trkpt>
      <trkpt lat="56.68053" lon="-5.11175">
        <ele>7.12</ele>
        <time>2021-03-20T14:24:50Z</time>
      </trkpt>
      <trkpt lat="56.68065" lon="-5.1112">
        <ele>5.65</ele>
        <time>2021-03-20T14:24:54Z</time>
      </trkpt>
      <trkpt lat="56.6808" lon="-5.11065">
        <ele>4.01</ele>
        <time>2021-03-20T14:24:58Z</time>
      </trkpt>
      <trkpt lat="56.68103" lon="-5.1108">
        <ele>2.39</ele>
        <time>2021-03-20T14:25:01Z</time>
      </trkpt>
      <trkpt lat="56.68112" lon="-5.11036">
        <ele>2.96</ele>
        <time>2021-03-20T14:25:05Z</time>
      </trkpt>
      <trkpt lat="56.6813" lon="-5.10927">
        <ele>3.32</ele>
        <time>2021-03-20T14:25:08Z</time>
      </trkpt>
      <trkpt lat="56.68136" lon="-5.10868">
        <ele>4</ele>
        <time>2021-03-20T14:25:12Z</time>
      </trkpt>
      <trkpt lat="56.6814" lon="-5.10808">
        <ele>3.96</ele>
        <time>2021-03-20T14:25:16Z</time>
      </trkpt>
      <trkpt lat="56.68142" lon="-5.10751">
        <ele>3.91</ele>
        <time>2021-03-20T14:25:20Z</time>
      </trkpt>
      <trkpt lat="56.68151" lon="-5.1075">
        <ele>3.56</ele>
        <time>2021-03-20T14:25:21Z</time>
      </trkpt>
      <trkpt lat="56.68165" lon="-5.10737">
        <ele>3.51</ele>
        <time>2021-03-20T14:25:22Z</time>
      </trkpt>
      <trkpt lat="56.6816" lon="-5.10719">
        <ele>4.22</ele>
        <time>2021-03-20T14:25:38Z</time>
      </trkpt>
      <trkpt lat="56.68159" lon="-5.10705">
        <ele>4.27</ele>
        <time>2021-03-20T14:25:54Z</time>
      </trkpt>
      <trkpt lat="56.68162" lon="-5.10687">
        <ele>4.45</ele>
        <time>2021-03-20T14:26:10Z</time>
      </trkpt>
      <trkpt lat="56.68272" lon="-5.10143">
        <ele>12.81</ele>
        <time>2021-03-20T14:26:26Z</time>
      </trkpt>
      <trkpt lat="56.68272" lon="-5.10143">
        <ele>12.81</ele>
        <time>2021-03-20T14:26:26Z</time>
      </trkpt>
      <trkpt lat="56.68324" lon="-5.09886">
        <ele>12</ele>
        <time>2021-03-20T14:26:30Z</time>
      </trkpt>
      <trkpt lat="56.68354" lon="-5.09752">
        <ele>12.26</ele>
        <time>2021-03-20T14:26:34Z</time>
      </trkpt>
      <trkpt lat="56.68366" lon="-5.09709">
        <ele>13.18</ele>
        <time>2021-03-20T14:26:38Z</time>
      </trkpt>
      <trkpt lat="56.68371" lon="-5.09681">
        <ele>13.85</ele>
        <time>2021-03-20T14:26:42Z</time>
      </trkpt>
      <trkpt lat="56.68372" lon="-5.09657">
        <ele>14.72</ele>
        <time>2021-03-20T14:26:46Z</time>
      </trkpt>
      <trkpt lat="56.68368" lon="-5.09635">
        <ele>15.43</ele>
        <time>2021-03-20T14:26:50Z</time>
      </trkpt>
      <trkpt lat="56.68286" lon="-5.09387">
        <ele>26.75</ele>
        <time>2021-03-20T14:26:54Z</time>
      </trkpt>
      <trkpt lat="56.6825" lon="-5.09308">
        <ele>20.08</ele>
        <time>2021-03-20T14:26:57Z</time>
      </trkpt>
      <trkpt lat="56.68224" lon="-5.09215">
        <ele>20.02</ele>
        <time>2021-03-20T14:27:01Z</time>
      </trkpt>
      <trkpt lat="56.68178" lon="-5.08977">
        <ele>19.24</ele>
        <time>2021-03-20T14:27:05Z</time>
      </trkpt>
      <trkpt lat="56.68062" lon="-5.0858">
        <ele>21.06</ele>
        <time>2021-03-20T14:27:09Z</time>
      </trkpt>
      <trkpt lat="56.68012" lon="-5.08435">
        <ele>22.78</ele>
        <time>2021-03-20T14:27:13Z</time>
      </trkpt>
      <trkpt lat="56.67991" lon="-5.08406">
        <ele>23.44</ele>
        <time>2021-03-20T14:27:17Z</time>
      </trkpt>
      <trkpt lat="56.67959" lon="-5.08379">
        <ele>23.36</ele>
        <time>2021-03-20T14:27:21Z</time>
      </trkpt>
      <trkpt lat="56.67725" lon="-5.08055">
        <ele>25.53</ele>
        <time>2021-03-20T14:27:25Z</time>
      </trkpt>
      <trkpt lat="56.6766" lon="-5.07876">
        <ele>34.69</ele>
        <time>2021-03-20T14:27:28Z</time>
      </trkpt>
      <trkpt lat="56.67605" lon="-5.07742">
        <ele>30.75</ele>
        <time>2021-03-20T14:27:32Z</time>
      </trkpt>
      <trkpt lat="56.67548" lon="-5.07672">
        <ele>29.94</ele>
        <time>2021-03-20T14:27:36Z</time>
      </trkpt>
      <trkpt lat="56.67408" lon="-5.07572">
        <ele>38.63</ele>
        <time>2021-03-20T14:27:40Z</time>
      </trkpt>
      <trkpt lat="56.67374" lon="-5.07537">
        <ele>39.05</ele>
        <time>2021-03-20T14:27:44Z</time>
      </trkpt>
      <trkpt lat="56.67344" lon="-5.07482">
        <ele>38.85</ele>
        <time>2021-03-20T14:27:48Z</time>
      </trkpt>
      <trkpt lat="56.67301" lon="-5.0742">
        <ele>39.17</ele>
        <time>2021-03-20T14:27:52Z</time>
      </trkpt>
      <trkpt lat="56.67277" lon="-5.0739">
        <ele>39.89</ele>
        <time>2021-03-20T14:27:56Z</time>
      </trkpt>
      <trkpt lat="56.67202" lon="-5.07341">
        <ele>42.56</ele>
        <time>2021-03-20T14:27:59Z</time>
      </trkpt>
      <trkpt lat="56.67169" lon="-5.07294">
        <ele>43.12</ele>
        <time>2021-03-20T14:28:03Z</time>
      </trkpt>
      <trkpt lat="56.67131" lon="-5.07181">
        <ele>40.35</ele>
        <time>2021-03-20T14:28:07Z</time>
      </trkpt>
      <trkpt lat="56.67095" lon="-5.07099">
        <ele>39.36</ele>
        <time>2021-03-20T14:28:11Z</time>
      </trkpt>
      <trkpt lat="56.67057" lon="-5.06963">
        <ele>42.67</ele>
        <time>2021-03-20T14:28:15Z</time>
      </trkpt>
      <trkpt lat="56.66884" lon="-5.06501">
        <ele>46.44</ele>
        <time>2021-03-20T14:28:19Z</time>
      </trkpt>
      <trkpt lat="56.66824" lon="-5.0631">
        <ele>49.46</ele>
        <time>2021-03-20T14:28:23Z</time>
      </trkpt>
      <trkpt lat="56.66793" lon="-5.06224">
        <ele>49.67</ele>
        <time>2021-03-20T14:28:27Z</time>
      </trkpt>
      <trkpt lat="56.66754" lon="-5.0615">
        <ele>53.65</ele>
        <time>2021-03-20T14:28:30Z</time>
      </trkpt>
      <trkpt lat="56.66731" lon="-5.06114">
        <ele>58.62</ele>
        <time>2021-03-20T14:28:34Z</time>
      </trkpt>
      <trkpt lat="56.66694" lon="-5.06062">
        <ele>62.53</ele>
        <time>2021-03-20T14:28:38Z</time>
      </trkpt>
      <trkpt lat="56.66651" lon="-5.05987">
        <ele>64.96</ele>
        <time>2021-03-20T14:28:42Z</time>
      </trkpt>
      <trkpt lat="56.66634" lon="-5.05948">
        <ele>66.08</ele>
        <time>2021-03-20T14:28:46Z</time>
      </trkpt>
      <trkpt lat="56.66612" lon="-5.05869">
        <ele>70.53</ele>
        <time>2021-03-20T14:28:50Z</time>
      </trkpt>
      <trkpt lat="56.66591" lon="-5.0581">
        <ele>74.33</ele>
        <time>2021-03-20T14:28:54Z</time>
      </trkpt>
      <trkpt lat="56.66573" lon="-5.05761">
        <ele>75.37</ele>
        <time>2021-03-20T14:28:58Z</time>
      </trkpt>
      <trkpt lat="56.66555" lon="-5.05725">
        <ele>74.17</ele>
        <time>2021-03-20T14:29:02Z</time>
      </trkpt>
      <trkpt lat="56.66531" lon="-5.05687">
        <ele>74.56</ele>
        <time>2021-03-20T14:29:05Z</time>
      </trkpt>
      <trkpt lat="56.66473" lon="-5.05612">
        <ele>69.04</ele>
        <time>2021-03-20T14:29:09Z</time>
      </trkpt>
      <trkpt lat="56.66446" lon="-5.0556">
        <ele>67.24</ele>
        <time>2021-03-20T14:29:13Z</time>
      </trkpt>
      <trkpt lat="56.66411" lon="-5.05474">
        <ele>65.19</ele>
        <time>2021-03-20T14:29:17Z</time>
      </trkpt>
      <trkpt lat="56.66388" lon="-5.05407">
        <ele>66.67</ele>
        <time>2021-03-20T14:29:21Z</time>
      </trkpt>
      <trkpt lat="56.66382" lon="-5.05381">
        <ele>66.25</ele>
        <time>2021-03-20T14:29:25Z</time>
      </trkpt>
      <trkpt lat="56.66367" lon="-5.05291">
        <ele>66.8</ele>
        <time>2021-03-20T14:29:29Z</time>
      </trkpt>
      <trkpt lat="56.66358" lon="-5.05254">
        <ele>67.1</ele>
        <time>2021-03-20T14:29:33Z</time>
      </trkpt>
      <trkpt lat="56.6633" lon="-5.05153">
        <ele>64.11</ele>
        <time>2021-03-20T14:29:36Z</time>
      </trkpt>
      <trkpt lat="56.66316" lon="-5.05094">
        <ele>65.23</ele>
        <time>2021-03-20T14:29:40Z</time>
      </trkpt>
      <trkpt lat="56.66309" lon="-5.05047">
        <ele>66.11</ele>
        <time>2021-03-20T14:29:44Z</time>
      </trkpt>
      <trkpt lat="56.66308" lon="-5.04923">
        <ele>67.85</ele>
        <time>2021-03-20T14:29:48Z</time>
      </trkpt>
      <trkpt lat="56.66311" lon="-5.04893">
        <ele>69.03</ele>
        <time>2021-03-20T14:29:52Z</time>
      </trkpt>
      <trkpt lat="56.66375" lon="-5.04621">
        <ele>75.4</ele>
        <time>2021-03-20T14:29:56Z</time>
      </trkpt>
      <trkpt lat="56.66404" lon="-5.04565">
        <ele>78.93</ele>
        <time>2021-03-20T14:30:00Z</time>
      </trkpt>
      <trkpt lat="56.66415" lon="-5.04534">
        <ele>79.76</ele>
        <time>2021-03-20T14:30:04Z</time>
      </trkpt>
      <trkpt lat="56.66423" lon="-5.04502">
        <ele>80.9</ele>
        <time>2021-03-20T14:30:07Z</time>
      </trkpt>
      <trkpt lat="56.66428" lon="-5.04466">
        <ele>81.03</ele>
        <time>2021-03-20T14:30:11Z</time>
      </trkpt>
      <trkpt lat="56.66434" lon="-5.04386">
        <ele>82.46</ele>
        <time>2021-03-20T14:30:15Z</time>
      </trkpt>
      <trkpt lat="56.66439" lon="-5.04333">
        <ele>84.24</ele>
        <time>2021-03-20T14:30:19Z</time>
      </trkpt>
      <trkpt lat="56.66452" lon="-5.04218">
        <ele>85.05</ele>
        <time>2021-03-20T14:30:23Z</time>
      </trkpt>
      <trkpt lat="56.66458" lon="-5.0418">
        <ele>86.18</ele>
        <time>2021-03-20T14:30:27Z</time>
      </trkpt>
      <trkpt lat="56.66457" lon="-5.04144">
        <ele>86.78</ele>
        <time>2021-03-20T14:30:31Z</time>
      </trkpt>
      <trkpt lat="56.6645" lon="-5.04099">
        <ele>87.02</ele>
        <time>2021-03-20T14:30:35Z</time>
      </trkpt>
      <trkpt lat="56.6645" lon="-5.04061">
        <ele>89.21</ele>
        <time>2021-03-20T14:30:38Z</time>
      </trkpt>
      <trkpt lat="56.66446" lon="-5.04049">
        <ele>89.13</ele>
        <time>2021-03-20T14:30:42Z</time>
      </trkpt>
      <trkpt lat="56.66436" lon="-5.0404">
        <ele>88.7</ele>
        <time>2021-03-20T14:30:46Z</time>
      </trkpt>
      <trkpt lat="56.66461" lon="-5.03937">
        <ele>91.01</ele>
        <time>2021-03-20T14:30:50Z</time>
      </trkpt>
      <trkpt lat="56.66475" lon="-5.03884">
        <ele>90.21</ele>
        <time>2021-03-20T14:30:54Z</time>
      </trkpt>
      <trkpt lat="56.66492" lon="-5.03838">
        <ele>91.45</ele>
        <time>2021-03-20T14:30:58Z</time>
      </trkpt>
      <trkpt lat="56.66511" lon="-5.03799">
        <ele>93.13</ele>
        <time>2021-03-20T14:31:02Z</time>
      </trkpt>
      <trkpt lat="56.66535" lon="-5.03761">
        <ele>94.11</ele>
        <time>2021-03-20T14:31:06Z</time>
      </trkpt>
      <trkpt lat="56.6656" lon="-5.03727">
        <ele>93.57</ele>
        <time>2021-03-20T14:31:09Z</time>
      </trkpt>
      <trkpt lat="56.6659" lon="-5.03682">
        <ele>96.05</ele>
        <time>2021-03-20T14:31:13Z</time>
      </trkpt>
      <trkpt lat="56.66619" lon="-5.03611">
        <ele>98.79</ele>
        <time>2021-03-20T14:31:17Z</time>
      </trkpt>
      <trkpt lat="56.66632" lon="-5.03563">
        <ele>97.72</ele>
        <time>2021-03-20T14:31:21Z</time>
      </trkpt>
      <trkpt lat="56.66658" lon="-5.03441">
        <ele>94.56</ele>
        <time>2021-03-20T14:31:25Z</time>
      </trkpt>
      <trkpt lat="56.66671" lon="-5.03388">
        <ele>94.16</ele>
        <time>2021-03-20T14:31:29Z</time>
      </trkpt>
      <trkpt lat="56.66698" lon="-5.03302">
        <ele>94.7</ele>
        <time>2021-03-20T14:31:33Z</time>
      </trkpt>
      <trkpt lat="56.66794" lon="-5.03023">
        <ele>96.28</ele>
        <time>2021-03-20T14:31:37Z</time>
      </trkpt>
      <trkpt lat="56.66825" lon="-5.02921">
        <ele>96.7</ele>
        <time>2021-03-20T14:31:40Z</time>
      </trkpt>
      <trkpt lat="56.66858" lon="-5.02796">
        <ele>94.85</ele>
        <time>2021-03-20T14:31:44Z</time>
      </trkpt>
      <trkpt lat="56.6689" lon="-5.02661">
        <ele>96.99</ele>
        <time>2021-03-20T14:31:48Z</time>
      </trkpt>
      <trkpt lat="56.66923" lon="-5.0249">
        <ele>92.97</ele>
        <time>2021-03-20T14:31:52Z</time>
      </trkpt>
      <trkpt lat="56.66948" lon="-5.0233">
        <ele>96.39</ele>
        <time>2021-03-20T14:31:56Z</time>
      </trkpt>
      <trkpt lat="56.66965" lon="-5.02196">
        <ele>96.93</ele>
        <time>2021-03-20T14:32:00Z</time>
      </trkpt>
      <trkpt lat="56.66984" lon="-5.01977">
        <ele>100.31</ele>
        <time>2021-03-20T14:32:04Z</time>
      </trkpt>
      <trkpt lat="56.66994" lon="-5.01786">
        <ele>103.5</ele>
        <time>2021-03-20T14:32:07Z</time>
      </trkpt>
      <trkpt lat="56.66997" lon="-5.01647">
        <ele>105.17</ele>
        <time>2021-03-20T14:32:11Z</time>
      </trkpt>
      <trkpt lat="56.66996" lon="-5.01525">
        <ele>105.3</ele>
        <time>2021-03-20T14:32:15Z</time>
      </trkpt>
      <trkpt lat="56.66991" lon="-5.01393">
        <ele>106.55</ele>
        <time>2021-03-20T14:32:19Z</time>
      </trkpt>
      <trkpt lat="56.66979" lon="-5.0117">
        <ele>109.43</ele>
        <time>2021-03-20T14:32:23Z</time>
      </trkpt>
      <trkpt lat="56.66947" lon="-5.0068">
        <ele>118.14</ele>
        <time>2021-03-20T14:32:27Z</time>
      </trkpt>
      <trkpt lat="56.66926" lon="-5.00327">
        <ele>127.31</ele>
        <time>2021-03-20T14:32:31Z</time>
      </trkpt>
      <trkpt lat="56.6692" lon="-4.99971">
        <ele>143.08</ele>
        <time>2021-03-20T14:32:35Z</time>
      </trkpt>
      <trkpt lat="56.66916" lon="-4.99916">
        <ele>142.91</ele>
        <time>2021-03-20T14:32:38Z</time>
      </trkpt>
      <trkpt lat="56.66906" lon="-4.99858">
        <ele>143.23</ele>
        <time>2021-03-20T14:32:42Z</time>
      </trkpt>
      <trkpt lat="56.66895" lon="-4.99823">
        <ele>143.25</ele>
        <time>2021-03-20T14:32:46Z</time>
      </trkpt>
      <trkpt lat="56.6688" lon="-4.99787">
        <ele>144.35</ele>
        <time>2021-03-20T14:32:50Z</time>
      </trkpt>
      <trkpt lat="56.66839" lon="-4.9971">
        <ele>150.15</ele>
        <time>2021-03-20T14:32:54Z</time>
      </trkpt>
      <trkpt lat="56.66823" lon="-4.9967">
        <ele>152.24</ele>
        <time>2021-03-20T14:32:58Z</time>
      </trkpt>
      <trkpt lat="56.66813" lon="-4.99634">
        <ele>151.29</ele>
        <time>2021-03-20T14:33:02Z</time>
      </trkpt>
      <trkpt lat="56.66804" lon="-4.99576">
        <ele>150.96</ele>
        <time>2021-03-20T14:33:06Z</time>
      </trkpt>
      <trkpt lat="56.66802" lon="-4.99522">
        <ele>152.14</ele>
        <time>2021-03-20T14:33:09Z</time>
      </trkpt>
      <trkpt lat="56.66805" lon="-4.9946">
        <ele>153.76</ele>
        <time>2021-03-20T14:33:13Z</time>
      </trkpt>
      <trkpt lat="56.66823" lon="-4.99308">
        <ele>156.68</ele>
        <time>2021-03-20T14:33:17Z</time>
      </trkpt>
      <trkpt lat="56.66827" lon="-4.99247">
        <ele>157.5</ele>
        <time>2021-03-20T14:33:21Z</time>
      </trkpt>
      <trkpt lat="56.66826" lon="-4.99198">
        <ele>157.63</ele>
        <time>2021-03-20T14:33:25Z</time>
      </trkpt>
      <trkpt lat="56.66793" lon="-4.98697">
        <ele>173.52</ele>
        <time>2021-03-20T14:33:29Z</time>
      </trkpt>
      <trkpt lat="56.66782" lon="-4.98554">
        <ele>176.24</ele>
        <time>2021-03-20T14:33:33Z</time>
      </trkpt>
      <trkpt lat="56.66772" lon="-4.98497">
        <ele>176.73</ele>
        <time>2021-03-20T14:33:36Z</time>
      </trkpt>
      <trkpt lat="56.66763" lon="-4.98459">
        <ele>174.35</ele>
        <time>2021-03-20T14:33:40Z</time>
      </trkpt>
      <trkpt lat="56.66751" lon="-4.98416">
        <ele>175.65</ele>
        <time>2021-03-20T14:33:44Z</time>
      </trkpt>
      <trkpt lat="56.66733" lon="-4.98368">
        <ele>179.82</ele>
        <time>2021-03-20T14:33:48Z</time>
      </trkpt>
      <trkpt lat="56.66709" lon="-4.98321">
        <ele>183.72</ele>
        <time>2021-03-20T14:33:52Z</time>
      </trkpt>
      <trkpt lat="56.66687" lon="-4.98286">
        <ele>183.38</ele>
        <time>2021-03-20T14:33:56Z</time>
      </trkpt>
      <trkpt lat="56.66665" lon="-4.98257">
        <ele>183.62</ele>
        <time>2021-03-20T14:34:00Z</time>
      </trkpt>
      <trkpt lat="56.66601" lon="-4.98187">
        <ele>182.86</ele>
        <time>2021-03-20T14:34:04Z</time>
      </trkpt>
      <trkpt lat="56.66589" lon="-4.9817">
        <ele>183.58</ele>
        <time>2021-03-20T14:34:07Z</time>
      </trkpt>
      <trkpt lat="56.66577" lon="-4.98144">
        <ele>183.29</ele>
        <time>2021-03-20T14:34:11Z</time>
      </trkpt>
      <trkpt lat="56.66569" lon="-4.9812">
        <ele>183.55</ele>
        <time>2021-03-20T14:34:15Z</time>
      </trkpt>
      <trkpt lat="56.66562" lon="-4.98093">
        <ele>183.9</ele>
        <time>2021-03-20T14:34:19Z</time>
      </trkpt>
      <trkpt lat="56.66547" lon="-4.98022">
        <ele>186.65</ele>
        <time>2021-03-20T14:34:23Z</time>
      </trkpt>
      <trkpt lat="56.66535" lon="-4.97947">
        <ele>190.03</ele>
        <time>2021-03-20T14:34:27Z</time>
      </trkpt>
      <trkpt lat="56.66532" lon="-4.97918">
        <ele>189.44</ele>
        <time>2021-03-20T14:34:31Z</time>
      </trkpt>
      <trkpt lat="56.66533" lon="-4.97876">
        <ele>189.52</ele>
        <time>2021-03-20T14:34:35Z</time>
      </trkpt>
      <trkpt lat="56.66536" lon="-4.97854">
        <ele>189.86</ele>
        <time>2021-03-20T14:34:38Z</time>
      </trkpt>
      <trkpt lat="56.66551" lon="-4.97788">
        <ele>194.59</ele>
        <time>2021-03-20T14:34:42Z</time>
      </trkpt>
      <trkpt lat="56.66553" lon="-4.97764">
        <ele>195.34</ele>
        <time>2021-03-20T14:34:46Z</time>
      </trkpt>
      <trkpt lat="56.66553" lon="-4.97737">
        <ele>195.9</ele>
        <time>2021-03-20T14:34:50Z</time>
      </trkpt>
      <trkpt lat="56.66549" lon="-4.97702">
        <ele>195.95</ele>
        <time>2021-03-20T14:34:54Z</time>
      </trkpt>
      <trkpt lat="56.66506" lon="-4.97542">
        <ele>200.1</ele>
        <time>2021-03-20T14:34:58Z</time>
      </trkpt>
      <trkpt lat="56.66501" lon="-4.97513">
        <ele>199.7</ele>
        <time>2021-03-20T14:35:02Z</time>
      </trkpt>
      <trkpt lat="56.66492" lon="-4.97453">
        <ele>199.07</ele>
        <time>2021-03-20T14:35:05Z</time>
      </trkpt>
      <trkpt lat="56.6649" lon="-4.97406">
        <ele>200.52</ele>
        <time>2021-03-20T14:35:09Z</time>
      </trkpt>
      <trkpt lat="56.6649" lon="-4.97225">
        <ele>209.36</ele>
        <time>2021-03-20T14:35:13Z</time>
      </trkpt>
      <trkpt lat="56.66488" lon="-4.97193">
        <ele>211.36</ele>
        <time>2021-03-20T14:35:17Z</time>
      </trkpt>
      <trkpt lat="56.66483" lon="-4.9716">
        <ele>212.97</ele>
        <time>2021-03-20T14:35:21Z</time>
      </trkpt>
      <trkpt lat="56.66477" lon="-4.97138">
        <ele>213.88</ele>
        <time>2021-03-20T14:35:25Z</time>
      </trkpt>
      <trkpt lat="56.66468" lon="-4.97119">
        <ele>213.66</ele>
        <time>2021-03-20T14:35:29Z</time>
      </trkpt>
      <trkpt lat="56.66457" lon="-4.971">
        <ele>213.77</ele>
        <time>2021-03-20T14:35:33Z</time>
      </trkpt>
      <trkpt lat="56.66443" lon="-4.97085">
        <ele>213.42</ele>
        <time>2021-03-20T14:35:36Z</time>
      </trkpt>
      <trkpt lat="56.66412" lon="-4.97061">
        <ele>210.84</ele>
        <time>2021-03-20T14:35:40Z</time>
      </trkpt>
      <trkpt lat="56.66396" lon="-4.97043">
        <ele>212.01</ele>
        <time>2021-03-20T14:35:44Z</time>
      </trkpt>
      <trkpt lat="56.66372" lon="-4.97003">
        <ele>215.57</ele>
        <time>2021-03-20T14:35:48Z</time>
      </trkpt>
      <trkpt lat="56.66272" lon="-4.96756">
        <ele>229.06</ele>
        <time>2021-03-20T14:35:52Z</time>
      </trkpt>
      <trkpt lat="56.66258" lon="-4.96711">
        <ele>228.65</ele>
        <time>2021-03-20T14:35:56Z</time>
      </trkpt>
      <trkpt lat="56.66252" lon="-4.96683">
        <ele>228.29</ele>
        <time>2021-03-20T14:36:00Z</time>
      </trkpt>
      <trkpt lat="56.66251" lon="-4.96642">
        <ele>227.21</ele>
        <time>2021-03-20T14:36:04Z</time>
      </trkpt>
      <trkpt lat="56.66252" lon="-4.96615">
        <ele>228.37</ele>
        <time>2021-03-20T14:36:07Z</time>
      </trkpt>
      <trkpt lat="56.66257" lon="-4.96582">
        <ele>229.78</ele>
        <time>2021-03-20T14:36:11Z</time>
      </trkpt>
      <trkpt lat="56.66265" lon="-4.96554">
        <ele>231</ele>
        <time>2021-03-20T14:36:15Z</time>
      </trkpt>
      <trkpt lat="56.6628" lon="-4.9652">
        <ele>232.52</ele>
        <time>2021-03-20T14:36:19Z</time>
      </trkpt>
      <trkpt lat="56.66404" lon="-4.96278">
        <ele>246.4</ele>
        <time>2021-03-20T14:36:23Z</time>
      </trkpt>
      <trkpt lat="56.66413" lon="-4.96249">
        <ele>245.93</ele>
        <time>2021-03-20T14:36:27Z</time>
      </trkpt>
      <trkpt lat="56.66416" lon="-4.96208">
        <ele>247.86</ele>
        <time>2021-03-20T14:36:31Z</time>
      </trkpt>
      <trkpt lat="56.66412" lon="-4.9615">
        <ele>252.7</ele>
        <time>2021-03-20T14:36:34Z</time>
      </trkpt>
      <trkpt lat="56.66407" lon="-4.96131">
        <ele>253.98</ele>
        <time>2021-03-20T14:36:38Z</time>
      </trkpt>
      <trkpt lat="56.66388" lon="-4.96084">
        <ele>254.2</ele>
        <time>2021-03-20T14:36:42Z</time>
      </trkpt>
      <trkpt lat="56.66369" lon="-4.96048">
        <ele>254.53</ele>
        <time>2021-03-20T14:36:46Z</time>
      </trkpt>
      <trkpt lat="56.66339" lon="-4.95972">
        <ele>253.6</ele>
        <time>2021-03-20T14:36:50Z</time>
      </trkpt>
      <trkpt lat="56.66231" lon="-4.95647">
        <ele>254.03</ele>
        <time>2021-03-20T14:36:54Z</time>
      </trkpt>
      <trkpt lat="56.66216" lon="-4.95586">
        <ele>255.09</ele>
        <time>2021-03-20T14:36:58Z</time>
      </trkpt>
      <trkpt lat="56.66209" lon="-4.95521">
        <ele>257.59</ele>
        <time>2021-03-20T14:37:02Z</time>
      </trkpt>
      <trkpt lat="56.66208" lon="-4.95483">
        <ele>258.63</ele>
        <time>2021-03-20T14:37:05Z</time>
      </trkpt>
      <trkpt lat="56.66212" lon="-4.9543">
        <ele>259.48</ele>
        <time>2021-03-20T14:37:09Z</time>
      </trkpt>
      <trkpt lat="56.66221" lon="-4.95386">
        <ele>260.55</ele>
        <time>2021-03-20T14:37:13Z</time>
      </trkpt>
      <trkpt lat="56.66242" lon="-4.95321">
        <ele>261.77</ele>
        <time>2021-03-20T14:37:17Z</time>
      </trkpt>
      <trkpt lat="56.66268" lon="-4.95247">
        <ele>262.29</ele>
        <time>2021-03-20T14:37:21Z</time>
      </trkpt>
      <trkpt lat="56.66362" lon="-4.95001">
        <ele>272.92</ele>
        <time>2021-03-20T14:37:25Z</time>
      </trkpt>
      <trkpt lat="56.66371" lon="-4.94974">
        <ele>273.56</ele>
        <time>2021-03-20T14:37:29Z</time>
      </trkpt>
      <trkpt lat="56.66408" lon="-4.94851">
        <ele>276.04</ele>
        <time>2021-03-20T14:37:32Z</time>
      </trkpt>
      <trkpt lat="56.66424" lon="-4.94783">
        <ele>277.21</ele>
        <time>2021-03-20T14:37:36Z</time>
      </trkpt>
      <trkpt lat="56.66434" lon="-4.94709">
        <ele>279.67</ele>
        <time>2021-03-20T14:37:40Z</time>
      </trkpt>
      <trkpt lat="56.66438" lon="-4.94658">
        <ele>281.57</ele>
        <time>2021-03-20T14:37:44Z</time>
      </trkpt>
      <trkpt lat="56.66443" lon="-4.94544">
        <ele>284.35</ele>
        <time>2021-03-20T14:37:48Z</time>
      </trkpt>
      <trkpt lat="56.66441" lon="-4.94482">
        <ele>285.7</ele>
        <time>2021-03-20T14:37:52Z</time>
      </trkpt>
      <trkpt lat="56.66434" lon="-4.94398">
        <ele>286.23</ele>
        <time>2021-03-20T14:37:56Z</time>
      </trkpt>
      <trkpt lat="56.66154" lon="-4.9174">
        <ele>314.02</ele>
        <time>2021-03-20T14:38:00Z</time>
      </trkpt>
      <trkpt lat="56.66145" lon="-4.91644">
        <ele>311.6</ele>
        <time>2021-03-20T14:38:03Z</time>
      </trkpt>
      <trkpt lat="56.66139" lon="-4.91554">
        <ele>309.03</ele>
        <time>2021-03-20T14:38:07Z</time>
      </trkpt>
      <trkpt lat="56.66141" lon="-4.91455">
        <ele>310.09</ele>
        <time>2021-03-20T14:38:11Z</time>
      </trkpt>
      <trkpt lat="56.66149" lon="-4.91368">
        <ele>310.09</ele>
        <time>2021-03-20T14:38:15Z</time>
      </trkpt>
      <trkpt lat="56.66163" lon="-4.91275">
        <ele>307.88</ele>
        <time>2021-03-20T14:38:19Z</time>
      </trkpt>
      <trkpt lat="56.66193" lon="-4.9117">
        <ele>304.03</ele>
        <time>2021-03-20T14:38:23Z</time>
      </trkpt>
      <trkpt lat="56.66211" lon="-4.91114">
        <ele>304.14</ele>
        <time>2021-03-20T14:38:27Z</time>
      </trkpt>
      <trkpt lat="56.66235" lon="-4.91059">
        <ele>302.27</ele>
        <time>2021-03-20T14:38:31Z</time>
      </trkpt>
      <trkpt lat="56.66259" lon="-4.91015">
        <ele>300.58</ele>
        <time>2021-03-20T14:38:34Z</time>
      </trkpt>
      <trkpt lat="56.66369" lon="-4.90849">
        <ele>295.6</ele>
        <time>2021-03-20T14:38:38Z</time>
      </trkpt>
      <trkpt lat="56.66407" lon="-4.90782">
        <ele>296.76</ele>
        <time>2021-03-20T14:38:42Z</time>
      </trkpt>
      <trkpt lat="56.66444" lon="-4.9068">
        <ele>295.33</ele>
        <time>2021-03-20T14:38:46Z</time>
      </trkpt>
      <trkpt lat="56.66455" lon="-4.90632">
        <ele>292.9</ele>
        <time>2021-03-20T14:38:50Z</time>
      </trkpt>
      <trkpt lat="56.66468" lon="-4.90548">
        <ele>291.44</ele>
        <time>2021-03-20T14:38:54Z</time>
      </trkpt>
      <trkpt lat="56.66472" lon="-4.9049">
        <ele>291.99</ele>
        <time>2021-03-20T14:38:58Z</time>
      </trkpt>
      <trkpt lat="56.66473" lon="-4.90449">
        <ele>292.21</ele>
        <time>2021-03-20T14:39:01Z</time>
      </trkpt>
      <trkpt lat="56.6647" lon="-4.90372">
        <ele>291.61</ele>
        <time>2021-03-20T14:39:05Z</time>
      </trkpt>
      <trkpt lat="56.66463" lon="-4.90311">
        <ele>290.87</ele>
        <time>2021-03-20T14:39:09Z</time>
      </trkpt>
      <trkpt lat="56.66436" lon="-4.90192">
        <ele>288.29</ele>
        <time>2021-03-20T14:39:13Z</time>
      </trkpt>
      <trkpt lat="56.66401" lon="-4.90061">
        <ele>283.13</ele>
        <time>2021-03-20T14:39:17Z</time>
      </trkpt>
      <trkpt lat="56.65831" lon="-4.88064">
        <ele>272.48</ele>
        <time>2021-03-20T14:39:21Z</time>
      </trkpt>
      <trkpt lat="56.65816" lon="-4.88018">
        <ele>272.85</ele>
        <time>2021-03-20T14:39:25Z</time>
      </trkpt>
      <trkpt lat="56.65783" lon="-4.87941">
        <ele>274.59</ele>
        <time>2021-03-20T14:39:29Z</time>
      </trkpt>
      <trkpt lat="56.65746" lon="-4.87876">
        <ele>274.99</ele>
        <time>2021-03-20T14:39:32Z</time>
      </trkpt>
      <trkpt lat="56.65701" lon="-4.87777">
        <ele>273.68</ele>
        <time>2021-03-20T14:39:36Z</time>
      </trkpt>
      <trkpt lat="56.65692" lon="-4.87749">
        <ele>272.72</ele>
        <time>2021-03-20T14:39:40Z</time>
      </trkpt>
      <trkpt lat="56.65673" lon="-4.87679">
        <ele>271.66</ele>
        <time>2021-03-20T14:39:44Z</time>
      </trkpt>
      <trkpt lat="56.6566" lon="-4.87618">
        <ele>270.29</ele>
        <time>2021-03-20T14:39:48Z</time>
      </trkpt>
      <trkpt lat="56.65655" lon="-4.87584">
        <ele>269.76</ele>
        <time>2021-03-20T14:39:52Z</time>
      </trkpt>
      <trkpt lat="56.65649" lon="-4.87481">
        <ele>268.38</ele>
        <time>2021-03-20T14:39:56Z</time>
      </trkpt>
      <trkpt lat="56.65649" lon="-4.87426">
        <ele>266.39</ele>
        <time>2021-03-20T14:40:00Z</time>
      </trkpt>
      <trkpt lat="56.65654" lon="-4.87329">
        <ele>264.49</ele>
        <time>2021-03-20T14:40:03Z</time>
      </trkpt>
      <trkpt lat="56.65657" lon="-4.87203">
        <ele>260.93</ele>
        <time>2021-03-20T14:40:07Z</time>
      </trkpt>
      <trkpt lat="56.65655" lon="-4.87154">
        <ele>260.15</ele>
        <time>2021-03-20T14:40:11Z</time>
      </trkpt>
      <trkpt lat="56.65651" lon="-4.87107">
        <ele>259.82</ele>
        <time>2021-03-20T14:40:15Z</time>
      </trkpt>
      <trkpt lat="56.65642" lon="-4.87054">
        <ele>260.46</ele>
        <time>2021-03-20T14:40:19Z</time>
      </trkpt>
      <trkpt lat="56.6563" lon="-4.87">
        <ele>260.7</ele>
        <time>2021-03-20T14:40:23Z</time>
      </trkpt>
      <trkpt lat="56.65608" lon="-4.86913">
        <ele>258.79</ele>
        <time>2021-03-20T14:40:27Z</time>
      </trkpt>
      <trkpt lat="56.65425" lon="-4.86224">
        <ele>253.61</ele>
        <time>2021-03-20T14:40:31Z</time>
      </trkpt>
      <trkpt lat="56.65417" lon="-4.86135">
        <ele>252.87</ele>
        <time>2021-03-20T14:40:33Z</time>
      </trkpt>
      <trkpt lat="56.65404" lon="-4.86147">
        <ele>252.11</ele>
        <time>2021-03-20T14:40:35Z</time>
      </trkpt>
      <trkpt lat="56.6507" lon="-4.84902">
        <ele>243.47</ele>
        <time>2021-03-20T14:40:41Z</time>
      </trkpt>
      <trkpt lat="56.65032" lon="-4.84806">
        <ele>247.5</ele>
        <time>2021-03-20T14:40:47Z</time>
      </trkpt>
      <trkpt lat="56.64964" lon="-4.84681">
        <ele>249.06</ele>
        <time>2021-03-20T14:40:53Z</time>
      </trkpt>
      <trkpt lat="56.64844" lon="-4.84512">
        <ele>252.88</ele>
        <time>2021-03-20T14:40:59Z</time>
      </trkpt>
      <trkpt lat="56.64752" lon="-4.84375">
        <ele>255.83</ele>
        <time>2021-03-20T14:41:05Z</time>
      </trkpt>
      <trkpt lat="56.64725" lon="-4.84316">
        <ele>255.94</ele>
        <time>2021-03-20T14:41:11Z</time>
      </trkpt>
      <trkpt lat="56.64702" lon="-4.84259">
        <ele>257.47</ele>
        <time>2021-03-20T14:41:17Z</time>
      </trkpt>
      <trkpt lat="56.64686" lon="-4.84191">
        <ele>258.61</ele>
        <time>2021-03-20T14:41:23Z</time>
      </trkpt>
      <trkpt lat="56.64673" lon="-4.84078">
        <ele>261.55</ele>
        <time>2021-03-20T14:41:29Z</time>
      </trkpt>
      <trkpt lat="56.6467" lon="-4.83858">
        <ele>264.88</ele>
        <time>2021-03-20T14:41:35Z</time>
      </trkpt>
      <trkpt lat="56.64658" lon="-4.83731">
        <ele>270.28</ele>
        <time>2021-03-20T14:41:41Z</time>
      </trkpt>
      <trkpt lat="56.64639" lon="-4.83616">
        <ele>273.96</ele>
        <time>2021-03-20T14:41:47Z</time>
      </trkpt>
      <trkpt lat="56.64607" lon="-4.83482">
        <ele>275.29</ele>
        <time>2021-03-20T14:41:53Z</time>
      </trkpt>
      <trkpt lat="56.64508" lon="-4.83225">
        <ele>281.7</ele>
        <time>2021-03-20T14:41:59Z</time>
      </trkpt>
      <trkpt lat="56.6449" lon="-4.83176">
        <ele>282.79</ele>
        <time>2021-03-20T14:42:05Z</time>
      </trkpt>
      <trkpt lat="56.64323" lon="-4.82748">
        <ele>290.39</ele>
        <time>2021-03-20T14:42:11Z</time>
      </trkpt>
      <trkpt lat="56.64303" lon="-4.827">
        <ele>292.1</ele>
        <time>2021-03-20T14:42:17Z</time>
      </trkpt>
      <trkpt lat="56.64151" lon="-4.82303">
        <ele>300.55</ele>
        <time>2021-03-20T14:42:23Z</time>
      </trkpt>
      <trkpt lat="56.63834" lon="-4.81489">
        <ele>308.98</ele>
        <time>2021-03-20T14:42:29Z</time>
      </trkpt>
      <trkpt lat="56.63754" lon="-4.81266">
        <ele>309.87</ele>
        <time>2021-03-20T14:42:35Z</time>
      </trkpt>
      <trkpt lat="56.63678" lon="-4.81022">
        <ele>312.37</ele>
        <time>2021-03-20T14:42:41Z</time>
      </trkpt>
      <trkpt lat="56.63594" lon="-4.80663">
        <ele>318.62</ele>
        <time>2021-03-20T14:42:47Z</time>
      </trkpt>
      <trkpt lat="56.63492" lon="-4.80194">
        <ele>323.64</ele>
        <time>2021-03-20T14:42:53Z</time>
      </trkpt>
      <trkpt lat="56.63412" lon="-4.7985">
        <ele>328.14</ele>
        <time>2021-03-20T14:43:00Z</time>
      </trkpt>
      <trkpt lat="56.63353" lon="-4.79581">
        <ele>330.22</ele>
        <time>2021-03-20T14:43:06Z</time>
      </trkpt>
      <trkpt lat="56.63326" lon="-4.79445">
        <ele>328.57</ele>
        <time>2021-03-20T14:43:12Z</time>
      </trkpt>
      <trkpt lat="56.63245" lon="-4.79096">
        <ele>332.39</ele>
        <time>2021-03-20T14:43:18Z</time>
      </trkpt>
      <trkpt lat="56.63213" lon="-4.78924">
        <ele>335.67</ele>
        <time>2021-03-20T14:43:24Z</time>
      </trkpt>
      <trkpt lat="56.63107" lon="-4.78451">
        <ele>340.26</ele>
        <time>2021-03-20T14:43:30Z</time>
      </trkpt>
      <trkpt lat="56.63059" lon="-4.78228">
        <ele>342.65</ele>
        <time>2021-03-20T14:43:36Z</time>
      </trkpt>
      <trkpt lat="56.63007" lon="-4.77971">
        <ele>340.47</ele>
        <time>2021-03-20T14:43:42Z</time>
      </trkpt>
      <trkpt lat="56.62947" lon="-4.77731">
        <ele>342.02</ele>
        <time>2021-03-20T14:43:48Z</time>
      </trkpt>
      <trkpt lat="56.62873" lon="-4.77397">
        <ele>342.86</ele>
        <time>2021-03-20T14:43:54Z</time>
      </trkpt>
      <trkpt lat="56.62812" lon="-4.77137">
        <ele>344.85</ele>
        <time>2021-03-20T14:44:00Z</time>
      </trkpt>
      <trkpt lat="56.62771" lon="-4.77005">
        <ele>347.64</ele>
        <time>2021-03-20T14:44:06Z</time>
      </trkpt>
      <trkpt lat="56.62719" lon="-4.76894">
        <ele>348.12</ele>
        <time>2021-03-20T14:44:12Z</time>
      </trkpt>
      <trkpt lat="56.62646" lon="-4.76779">
        <ele>347.04</ele>
        <time>2021-03-20T14:44:18Z</time>
      </trkpt>
      <trkpt lat="56.62542" lon="-4.76674">
        <ele>346.75</ele>
        <time>2021-03-20T14:44:24Z</time>
      </trkpt>
      <trkpt lat="56.62325" lon="-4.76559">
        <ele>343.27</ele>
        <time>2021-03-20T14:44:30Z</time>
      </trkpt>
      <trkpt lat="56.62238" lon="-4.76539">
        <ele>343</ele>
        <time>2021-03-20T14:44:36Z</time>
      </trkpt>
      <trkpt lat="56.62163" lon="-4.76555">
        <ele>341.76</ele>
        <time>2021-03-20T14:44:42Z</time>
      </trkpt>
      <trkpt lat="56.62082" lon="-4.7661">
        <ele>338.89</ele>
        <time>2021-03-20T14:44:48Z</time>
      </trkpt>
      <trkpt lat="56.61992" lon="-4.76634">
        <ele>335.57</ele>
        <time>2021-03-20T14:44:54Z</time>
      </trkpt>
      <trkpt lat="56.61918" lon="-4.7662">
        <ele>333.98</ele>
        <time>2021-03-20T14:45:00Z</time>
      </trkpt>
      <trkpt lat="56.61805" lon="-4.76546">
        <ele>326.68</ele>
        <time>2021-03-20T14:45:06Z</time>
      </trkpt>
      <trkpt lat="56.61578" lon="-4.7635">
        <ele>321.4</ele>
        <time>2021-03-20T14:45:12Z</time>
      </trkpt>
      <trkpt lat="56.6132" lon="-4.76151">
        <ele>309.01</ele>
        <time>2021-03-20T14:45:18Z</time>
      </trkpt>
      <trkpt lat="56.60801" lon="-4.75732">
        <ele>296.65</ele>
        <time>2021-03-20T14:45:24Z</time>
      </trkpt>
      <trkpt lat="56.60662" lon="-4.75627">
        <ele>294</ele>
        <time>2021-03-20T14:45:30Z</time>
      </trkpt>
      <trkpt lat="56.6055" lon="-4.75535">
        <ele>295</ele>
        <time>2021-03-20T14:45:36Z</time>
      </trkpt>
      <trkpt lat="56.60476" lon="-4.75463">
        <ele>293</ele>
        <time>2021-03-20T14:45:42Z</time>
      </trkpt>
      <trkpt lat="56.60385" lon="-4.75361">
        <ele>297</ele>
        <time>2021-03-20T14:45:48Z</time>
      </trkpt>
      <trkpt lat="56.6031" lon="-4.75266">
        <ele>296.64</ele>
        <time>2021-03-20T14:45:54Z</time>
      </trkpt>
      <trkpt lat="56.60256" lon="-4.75188">
        <ele>294.95</ele>
        <time>2021-03-20T14:46:00Z</time>
      </trkpt>
      <trkpt lat="56.60206" lon="-4.75112">
        <ele>296.57</ele>
        <time>2021-03-20T14:46:06Z</time>
      </trkpt>
      <trkpt lat="56.60114" lon="-4.7495">
        <ele>296.93</ele>
        <time>2021-03-20T14:46:12Z</time>
      </trkpt>
      <trkpt lat="56.59934" lon="-4.74617">
        <ele>297</ele>
        <time>2021-03-20T14:46:18Z</time>
      </trkpt>
      <trkpt lat="56.59876" lon="-4.74516">
        <ele>297.7</ele>
        <time>2021-03-20T14:46:24Z</time>
      </trkpt>
      <trkpt lat="56.59828" lon="-4.74455">
        <ele>298</ele>
        <time>2021-03-20T14:46:30Z</time>
      </trkpt>
      <trkpt lat="56.5978" lon="-4.74409">
        <ele>298</ele>
        <time>2021-03-20T14:46:36Z</time>
      </trkpt>
      <trkpt lat="56.59723" lon="-4.7437">
        <ele>298</ele>
        <time>2021-03-20T14:46:42Z</time>
      </trkpt>
      <trkpt lat="56.59667" lon="-4.74345">
        <ele>296.57</ele>
        <time>2021-03-20T14:46:49Z</time>
      </trkpt>
      <trkpt lat="56.59625" lon="-4.74336">
        <ele>296.44</ele>
        <time>2021-03-20T14:46:55Z</time>
      </trkpt>
      <trkpt lat="56.59576" lon="-4.74336">
        <ele>296</ele>
        <time>2021-03-20T14:47:01Z</time>
      </trkpt>
      <trkpt lat="56.59517" lon="-4.74349">
        <ele>295.65</ele>
        <time>2021-03-20T14:47:07Z</time>
      </trkpt>
      <trkpt lat="56.58846" lon="-4.74628">
        <ele>306.14</ele>
        <time>2021-03-20T14:47:13Z</time>
      </trkpt>
      <trkpt lat="56.58788" lon="-4.74656">
        <ele>306.65</ele>
        <time>2021-03-20T14:47:19Z</time>
      </trkpt>
      <trkpt lat="56.58631" lon="-4.74712">
        <ele>313.28</ele>
        <time>2021-03-20T14:47:25Z</time>
      </trkpt>
      <trkpt lat="56.58529" lon="-4.7479">
        <ele>315.83</ele>
        <time>2021-03-20T14:47:31Z</time>
      </trkpt>
      <trkpt lat="56.58464" lon="-4.7485">
        <ele>315.69</ele>
        <time>2021-03-20T14:47:37Z</time>
      </trkpt>
      <trkpt lat="56.58358" lon="-4.74989">
        <ele>313.35</ele>
        <time>2021-03-20T14:47:43Z</time>
      </trkpt>
      <trkpt lat="56.58244" lon="-4.75168">
        <ele>311.41</ele>
        <time>2021-03-20T14:47:49Z</time>
      </trkpt>
      <trkpt lat="56.58131" lon="-4.75323">
        <ele>305.86</ele>
        <time>2021-03-20T14:47:55Z</time>
      </trkpt>
      <trkpt lat="56.58034" lon="-4.75445">
        <ele>302.46</ele>
        <time>2021-03-20T14:48:01Z</time>
      </trkpt>
      <trkpt lat="56.57941" lon="-4.75546">
        <ele>297.75</ele>
        <time>2021-03-20T14:48:07Z</time>
      </trkpt>
      <trkpt lat="56.57746" lon="-4.75671">
        <ele>294.53</ele>
        <time>2021-03-20T14:48:13Z</time>
      </trkpt>
      <trkpt lat="56.57489" lon="-4.7582">
        <ele>289</ele>
        <time>2021-03-20T14:48:19Z</time>
      </trkpt>
      <trkpt lat="56.57284" lon="-4.7593">
        <ele>283.64</ele>
        <time>2021-03-20T14:48:25Z</time>
      </trkpt>
      <trkpt lat="56.5727" lon="-4.75936">
        <ele>283.03</ele>
        <time>2021-03-20T14:48:31Z</time>
      </trkpt>
      <trkpt lat="56.57252" lon="-4.75939">
        <ele>282.25</ele>
        <time>2021-03-20T14:48:37Z</time>
      </trkpt>
      <trkpt lat="56.57223" lon="-4.75939">
        <ele>281.21</ele>
        <time>2021-03-20T14:48:43Z</time>
      </trkpt>
      <trkpt lat="56.5721" lon="-4.75937">
        <ele>280.83</ele>
        <time>2021-03-20T14:48:49Z</time>
      </trkpt>
      <trkpt lat="56.57175" lon="-4.75923">
        <ele>279.42</ele>
        <time>2021-03-20T14:48:55Z</time>
      </trkpt>
      <trkpt lat="56.57163" lon="-4.75915">
        <ele>278.46</ele>
        <time>2021-03-20T14:49:01Z</time>
      </trkpt>
      <trkpt lat="56.57139" lon="-4.75895">
        <ele>275.86</ele>
        <time>2021-03-20T14:49:07Z</time>
      </trkpt>
      <trkpt lat="56.57114" lon="-4.75865">
        <ele>273.35</ele>
        <time>2021-03-20T14:49:13Z</time>
      </trkpt>
      <trkpt lat="56.57102" lon="-4.75846">
        <ele>273.08</ele>
        <time>2021-03-20T14:49:19Z</time>
      </trkpt>
      <trkpt lat="56.57081" lon="-4.75805">
        <ele>271.7</ele>
        <time>2021-03-20T14:49:25Z</time>
      </trkpt>
      <trkpt lat="56.57017" lon="-4.75654">
        <ele>261.9</ele>
        <time>2021-03-20T14:49:31Z</time>
      </trkpt>
      <trkpt lat="56.57007" lon="-4.75634">
        <ele>261.35</ele>
        <time>2021-03-20T14:49:37Z</time>
      </trkpt>
      <trkpt lat="56.56988" lon="-4.756">
        <ele>260.14</ele>
        <time>2021-03-20T14:49:43Z</time>
      </trkpt>
      <trkpt lat="56.56961" lon="-4.75565">
        <ele>257.72</ele>
        <time>2021-03-20T14:49:49Z</time>
      </trkpt>
      <trkpt lat="56.56944" lon="-4.75547">
        <ele>256.32</ele>
        <time>2021-03-20T14:49:55Z</time>
      </trkpt>
      <trkpt lat="56.56909" lon="-4.75516">
        <ele>256.47</ele>
        <time>2021-03-20T14:50:01Z</time>
      </trkpt>
      <trkpt lat="56.56855" lon="-4.75473">
        <ele>254.27</ele>
        <time>2021-03-20T14:50:07Z</time>
      </trkpt>
      <trkpt lat="56.56829" lon="-4.7544">
        <ele>252.65</ele>
        <time>2021-03-20T14:50:13Z</time>
      </trkpt>
      <trkpt lat="56.56817" lon="-4.75417">
        <ele>251.84</ele>
        <time>2021-03-20T14:50:19Z</time>
      </trkpt>
      <trkpt lat="56.56809" lon="-4.75393">
        <ele>252.13</ele>
        <time>2021-03-20T14:50:25Z</time>
      </trkpt>
      <trkpt lat="56.56803" lon="-4.75361">
        <ele>250.68</ele>
        <time>2021-03-20T14:50:32Z</time>
      </trkpt>
      <trkpt lat="56.568" lon="-4.75327">
        <ele>249.13</ele>
        <time>2021-03-20T14:50:38Z</time>
      </trkpt>
      <trkpt lat="56.56803" lon="-4.75275">
        <ele>247.27</ele>
        <time>2021-03-20T14:50:44Z</time>
      </trkpt>
      <trkpt lat="56.56819" lon="-4.75097">
        <ele>241.4</ele>
        <time>2021-03-20T14:50:50Z</time>
      </trkpt>
      <trkpt lat="56.56822" lon="-4.75022">
        <ele>239</ele>
        <time>2021-03-20T14:50:56Z</time>
      </trkpt>
      <trkpt lat="56.56818" lon="-4.74946">
        <ele>235.97</ele>
        <time>2021-03-20T14:51:02Z</time>
      </trkpt>
      <trkpt lat="56.56811" lon="-4.74896">
        <ele>234.6</ele>
        <time>2021-03-20T14:51:08Z</time>
      </trkpt>
      <trkpt lat="56.5675" lon="-4.74655">
        <ele>225.93</ele>
        <time>2021-03-20T14:51:14Z</time>
      </trkpt>
      <trkpt lat="56.56744" lon="-4.74628">
        <ele>224.51</ele>
        <time>2021-03-20T14:51:20Z</time>
      </trkpt>
      <trkpt lat="56.56739" lon="-4.74599">
        <ele>223.07</ele>
        <time>2021-03-20T14:51:26Z</time>
      </trkpt>
      <trkpt lat="56.56735" lon="-4.74537">
        <ele>220.55</ele>
        <time>2021-03-20T14:51:32Z</time>
      </trkpt>
      <trkpt lat="56.56735" lon="-4.74486">
        <ele>219.07</ele>
        <time>2021-03-20T14:51:38Z</time>
      </trkpt>
      <trkpt lat="56.56741" lon="-4.74422">
        <ele>218.67</ele>
        <time>2021-03-20T14:51:44Z</time>
      </trkpt>
      <trkpt lat="56.5679" lon="-4.74008">
        <ele>210.94</ele>
        <time>2021-03-20T14:51:50Z</time>
      </trkpt>
      <trkpt lat="56.56791" lon="-4.73965">
        <ele>209.02</ele>
        <time>2021-03-20T14:51:56Z</time>
      </trkpt>
      <trkpt lat="56.56786" lon="-4.73925">
        <ele>206.74</ele>
        <time>2021-03-20T14:52:02Z</time>
      </trkpt>
      <trkpt lat="56.56782" lon="-4.73908">
        <ele>205.35</ele>
        <time>2021-03-20T14:52:08Z</time>
      </trkpt>
      <trkpt lat="56.56769" lon="-4.73876">
        <ele>203.07</ele>
        <time>2021-03-20T14:52:14Z</time>
      </trkpt>
      <trkpt lat="56.56755" lon="-4.73851">
        <ele>201.2</ele>
        <time>2021-03-20T14:52:20Z</time>
      </trkpt>
      <trkpt lat="56.56745" lon="-4.73839">
        <ele>199.89</ele>
        <time>2021-03-20T14:52:26Z</time>
      </trkpt>
      <trkpt lat="56.56723" lon="-4.73822">
        <ele>198.05</ele>
        <time>2021-03-20T14:52:32Z</time>
      </trkpt>
      <trkpt lat="56.56711" lon="-4.73818">
        <ele>197.17</ele>
        <time>2021-03-20T14:52:38Z</time>
      </trkpt>
      <trkpt lat="56.56687" lon="-4.73817">
        <ele>195.19</ele>
        <time>2021-03-20T14:52:44Z</time>
      </trkpt>
      <trkpt lat="56.56673" lon="-4.73823">
        <ele>193.7</ele>
        <time>2021-03-20T14:52:50Z</time>
      </trkpt>
      <trkpt lat="56.56658" lon="-4.73834">
        <ele>192.37</ele>
        <time>2021-03-20T14:52:56Z</time>
      </trkpt>
      <trkpt lat="56.56644" lon="-4.7385">
        <ele>191.97</ele>
        <time>2021-03-20T14:53:02Z</time>
      </trkpt>
      <trkpt lat="56.5663" lon="-4.73874">
        <ele>191.68</ele>
        <time>2021-03-20T14:53:08Z</time>
      </trkpt>
      <trkpt lat="56.56619" lon="-4.73903">
        <ele>191.4</ele>
        <time>2021-03-20T14:53:14Z</time>
      </trkpt>
      <trkpt lat="56.5659" lon="-4.7401">
        <ele>187.69</ele>
        <time>2021-03-20T14:53:20Z</time>
      </trkpt>
      <trkpt lat="56.56566" lon="-4.74086">
        <ele>186.73</ele>
        <time>2021-03-20T14:53:26Z</time>
      </trkpt>
      <trkpt lat="56.5654" lon="-4.74159">
        <ele>184.86</ele>
        <time>2021-03-20T14:53:32Z</time>
      </trkpt>
      <trkpt lat="56.56492" lon="-4.74264">
        <ele>180.45</ele>
        <time>2021-03-20T14:53:38Z</time>
      </trkpt>
      <trkpt lat="56.56464" lon="-4.74315">
        <ele>179.13</ele>
        <time>2021-03-20T14:53:44Z</time>
      </trkpt>
      <trkpt lat="56.56427" lon="-4.74376">
        <ele>176.92</ele>
        <time>2021-03-20T14:53:50Z</time>
      </trkpt>
      <trkpt lat="56.56368" lon="-4.74451">
        <ele>171.48</ele>
        <time>2021-03-20T14:53:56Z</time>
      </trkpt>
      <trkpt lat="56.56321" lon="-4.74495">
        <ele>169.55</ele>
        <time>2021-03-20T14:54:02Z</time>
      </trkpt>
      <trkpt lat="56.56286" lon="-4.7452">
        <ele>168.51</ele>
        <time>2021-03-20T14:54:08Z</time>
      </trkpt>
      <trkpt lat="56.56205" lon="-4.74565">
        <ele>167.38</ele>
        <time>2021-03-20T14:54:15Z</time>
      </trkpt>
      <trkpt lat="56.55367" lon="-4.74942">
        <ele>168.66</ele>
        <time>2021-03-20T14:54:21Z</time>
      </trkpt>
      <trkpt lat="56.55331" lon="-4.74961">
        <ele>168.45</ele>
        <time>2021-03-20T14:54:27Z</time>
      </trkpt>
      <trkpt lat="56.55287" lon="-4.74989">
        <ele>169.37</ele>
        <time>2021-03-20T14:54:33Z</time>
      </trkpt>
      <trkpt lat="56.55237" lon="-4.75032">
        <ele>170.71</ele>
        <time>2021-03-20T14:54:39Z</time>
      </trkpt>
      <trkpt lat="56.55192" lon="-4.7508">
        <ele>171.46</ele>
        <time>2021-03-20T14:54:45Z</time>
      </trkpt>
      <trkpt lat="56.55155" lon="-4.75125">
        <ele>172.5</ele>
        <time>2021-03-20T14:54:51Z</time>
      </trkpt>
      <trkpt lat="56.55113" lon="-4.75188">
        <ele>172.55</ele>
        <time>2021-03-20T14:54:57Z</time>
      </trkpt>
      <trkpt lat="56.55083" lon="-4.75238">
        <ele>171.95</ele>
        <time>2021-03-20T14:55:03Z</time>
      </trkpt>
      <trkpt lat="56.54983" lon="-4.75435">
        <ele>174.15</ele>
        <time>2021-03-20T14:55:09Z</time>
      </trkpt>
      <trkpt lat="56.5495" lon="-4.7549">
        <ele>175.14</ele>
        <time>2021-03-20T14:55:15Z</time>
      </trkpt>
      <trkpt lat="56.54923" lon="-4.7553">
        <ele>178.85</ele>
        <time>2021-03-20T14:55:21Z</time>
      </trkpt>
      <trkpt lat="56.54886" lon="-4.7558">
        <ele>180.07</ele>
        <time>2021-03-20T14:55:27Z</time>
      </trkpt>
      <trkpt lat="56.54817" lon="-4.75659">
        <ele>184.4</ele>
        <time>2021-03-20T14:55:33Z</time>
      </trkpt>
      <trkpt lat="56.54712" lon="-4.75772">
        <ele>183.63</ele>
        <time>2021-03-20T14:55:39Z</time>
      </trkpt>
      <trkpt lat="56.54511" lon="-4.76009">
        <ele>186.16</ele>
        <time>2021-03-20T14:55:45Z</time>
      </trkpt>
      <trkpt lat="56.54413" lon="-4.76117">
        <ele>187.67</ele>
        <time>2021-03-20T14:55:51Z</time>
      </trkpt>
      <trkpt lat="56.5421" lon="-4.7635">
        <ele>190.25</ele>
        <time>2021-03-20T14:55:57Z</time>
      </trkpt>
      <trkpt lat="56.54131" lon="-4.76437">
        <ele>192</ele>
        <time>2021-03-20T14:56:03Z</time>
      </trkpt>
      <trkpt lat="56.54086" lon="-4.76481">
        <ele>193.81</ele>
        <time>2021-03-20T14:56:09Z</time>
      </trkpt>
      <trkpt lat="56.54039" lon="-4.76522">
        <ele>193.2</ele>
        <time>2021-03-20T14:56:15Z</time>
      </trkpt>
      <trkpt lat="56.53962" lon="-4.76574">
        <ele>191.95</ele>
        <time>2021-03-20T14:56:21Z</time>
      </trkpt>
      <trkpt lat="56.53918" lon="-4.76598">
        <ele>191</ele>
        <time>2021-03-20T14:56:27Z</time>
      </trkpt>
      <trkpt lat="56.53864" lon="-4.76621">
        <ele>190.42</ele>
        <time>2021-03-20T14:56:33Z</time>
      </trkpt>
      <trkpt lat="56.53821" lon="-4.76635">
        <ele>188.43</ele>
        <time>2021-03-20T14:56:39Z</time>
      </trkpt>
      <trkpt lat="56.53741" lon="-4.76655">
        <ele>185.33</ele>
        <time>2021-03-20T14:56:45Z</time>
      </trkpt>
      <trkpt lat="56.5215" lon="-4.76713">
        <ele>161.81</ele>
        <time>2021-03-20T14:56:51Z</time>
      </trkpt>
      <trkpt lat="56.52087" lon="-4.76722">
        <ele>163.79</ele>
        <time>2021-03-20T14:56:57Z</time>
      </trkpt>
      <trkpt lat="56.52055" lon="-4.7673">
        <ele>163.71</ele>
        <time>2021-03-20T14:57:03Z</time>
      </trkpt>
      <trkpt lat="56.52" lon="-4.76752">
        <ele>162.95</ele>
        <time>2021-03-20T14:57:09Z</time>
      </trkpt>
      <trkpt lat="56.51886" lon="-4.76813">
        <ele>161.83</ele>
        <time>2021-03-20T14:57:15Z</time>
      </trkpt>
      <trkpt lat="56.51879" lon="-4.76817">
        <ele>161.95</ele>
        <time>2021-03-20T14:57:21Z</time>
      </trkpt>
      <trkpt lat="56.5183" lon="-4.76843">
        <ele>162.31</ele>
        <time>2021-03-20T14:57:27Z</time>
      </trkpt>
      <trkpt lat="56.51786" lon="-4.76863">
        <ele>161.64</ele>
        <time>2021-03-20T14:57:33Z</time>
      </trkpt>
      <trkpt lat="56.51757" lon="-4.76873">
        <ele>162.32</ele>
        <time>2021-03-20T14:57:39Z</time>
      </trkpt>
      <trkpt lat="56.51727" lon="-4.76879">
        <ele>163.18</ele>
        <time>2021-03-20T14:57:45Z</time>
      </trkpt>
      <trkpt lat="56.51661" lon="-4.76886">
        <ele>160.99</ele>
        <time>2021-03-20T14:57:51Z</time>
      </trkpt>
      <trkpt lat="56.51619" lon="-4.76882">
        <ele>159.6</ele>
        <time>2021-03-20T14:57:58Z</time>
      </trkpt>
      <trkpt lat="56.51572" lon="-4.76873">
        <ele>158</ele>
        <time>2021-03-20T14:58:04Z</time>
      </trkpt>
      <trkpt lat="56.51445" lon="-4.76839">
        <ele>158.55</ele>
        <time>2021-03-20T14:58:10Z</time>
      </trkpt>
      <trkpt lat="56.51345" lon="-4.76809">
        <ele>156.28</ele>
        <time>2021-03-20T14:58:16Z</time>
      </trkpt>
      <trkpt lat="56.5126" lon="-4.76803">
        <ele>154.52</ele>
        <time>2021-03-20T14:58:22Z</time>
      </trkpt>
      <trkpt lat="56.50804" lon="-4.76825">
        <ele>160.35</ele>
        <time>2021-03-20T14:58:28Z</time>
      </trkpt>
      <trkpt lat="56.50843" lon="-4.77049">
        <ele>154.91</ele>
        <time>2021-03-20T14:58:30Z</time>
      </trkpt>
      <trkpt lat="56.50845" lon="-4.7708">
        <ele>152.82</ele>
        <time>2021-03-20T14:58:32Z</time>
      </trkpt>
      <trkpt lat="56.50845" lon="-4.77114">
        <ele>151.44</ele>
        <time>2021-03-20T14:58:34Z</time>
      </trkpt>
      <trkpt lat="56.5084" lon="-4.77143">
        <ele>149.84</ele>
        <time>2021-03-20T14:58:36Z</time>
      </trkpt>
      <trkpt lat="56.50829" lon="-4.77179">
        <ele>149.16</ele>
        <time>2021-03-20T14:58:39Z</time>
      </trkpt>
      <trkpt lat="56.50776" lon="-4.77272">
        <ele>152.14</ele>
        <time>2021-03-20T14:58:41Z</time>
      </trkpt>
      <trkpt lat="56.50758" lon="-4.77307">
        <ele>152.66</ele>
        <time>2021-03-20T14:58:43Z</time>
      </trkpt>
      <trkpt lat="56.50749" lon="-4.77331">
        <ele>152.2</ele>
        <time>2021-03-20T14:58:45Z</time>
      </trkpt>
      <trkpt lat="56.50713" lon="-4.77454">
        <ele>150.57</ele>
        <time>2021-03-20T14:58:47Z</time>
      </trkpt>
      <trkpt lat="56.50657" lon="-4.77604">
        <ele>151</ele>
        <time>2021-03-20T14:58:50Z</time>
      </trkpt>
      <trkpt lat="56.50575" lon="-4.77815">
        <ele>149.76</ele>
        <time>2021-03-20T14:58:52Z</time>
      </trkpt>
      <trkpt lat="56.50558" lon="-4.77849">
        <ele>149.79</ele>
        <time>2021-03-20T14:58:54Z</time>
      </trkpt>
      <trkpt lat="56.50539" lon="-4.77876">
        <ele>149.64</ele>
        <time>2021-03-20T14:58:56Z</time>
      </trkpt>
      <trkpt lat="56.50519" lon="-4.77901">
        <ele>147.84</ele>
        <time>2021-03-20T14:58:58Z</time>
      </trkpt>
      <trkpt lat="56.50494" lon="-4.77927">
        <ele>145.24</ele>
        <time>2021-03-20T14:59:00Z</time>
      </trkpt>
      <trkpt lat="56.50464" lon="-4.77948">
        <ele>145.34</ele>
        <time>2021-03-20T14:59:03Z</time>
      </trkpt>
      <trkpt lat="56.50437" lon="-4.77971">
        <ele>145.66</ele>
        <time>2021-03-20T14:59:05Z</time>
      </trkpt>
      <trkpt lat="56.50385" lon="-4.77996">
        <ele>145.58</ele>
        <time>2021-03-20T14:59:07Z</time>
      </trkpt>
      <trkpt lat="56.50312" lon="-4.7806">
        <ele>146.15</ele>
        <time>2021-03-20T14:59:09Z</time>
      </trkpt>
      <trkpt lat="56.50193" lon="-4.78173">
        <ele>138.04</ele>
        <time>2021-03-20T14:59:11Z</time>
      </trkpt>
      <trkpt lat="56.5011" lon="-4.78228">
        <ele>137.7</ele>
        <time>2021-03-20T14:59:14Z</time>
      </trkpt>
      <trkpt lat="56.50073" lon="-4.78247">
        <ele>136.94</ele>
        <time>2021-03-20T14:59:16Z</time>
      </trkpt>
      <trkpt lat="56.50047" lon="-4.7826">
        <ele>137.32</ele>
        <time>2021-03-20T14:59:18Z</time>
      </trkpt>
      <trkpt lat="56.49938" lon="-4.78296">
        <ele>138.49</ele>
        <time>2021-03-20T14:59:20Z</time>
      </trkpt>
      <trkpt lat="56.49915" lon="-4.78308">
        <ele>138</ele>
        <time>2021-03-20T14:59:22Z</time>
      </trkpt>
      <trkpt lat="56.49869" lon="-4.78339">
        <ele>138.22</ele>
        <time>2021-03-20T14:59:24Z</time>
      </trkpt>
      <trkpt lat="56.49845" lon="-4.78363">
        <ele>139</ele>
        <time>2021-03-20T14:59:27Z</time>
      </trkpt>
      <trkpt lat="56.49825" lon="-4.78381">
        <ele>139.63</ele>
        <time>2021-03-20T14:59:29Z</time>
      </trkpt>
      <trkpt lat="56.49812" lon="-4.78389">
        <ele>140.54</ele>
        <time>2021-03-20T14:59:31Z</time>
      </trkpt>
      <trkpt lat="56.498" lon="-4.78401">
        <ele>141.12</ele>
        <time>2021-03-20T14:59:33Z</time>
      </trkpt>
      <trkpt lat="56.49788" lon="-4.78423">
        <ele>141</ele>
        <time>2021-03-20T14:59:35Z</time>
      </trkpt>
      <trkpt lat="56.4978" lon="-4.78449">
        <ele>140.83</ele>
        <time>2021-03-20T14:59:38Z</time>
      </trkpt>
      <trkpt lat="56.49768" lon="-4.78528">
        <ele>141.35</ele>
        <time>2021-03-20T14:59:40Z</time>
      </trkpt>
      <trkpt lat="56.49765" lon="-4.78541">
        <ele>141.47</ele>
        <time>2021-03-20T14:59:42Z</time>
      </trkpt>
      <trkpt lat="56.49756" lon="-4.78556">
        <ele>141.79</ele>
        <time>2021-03-20T14:59:44Z</time>
      </trkpt>
      <trkpt lat="56.49745" lon="-4.7857">
        <ele>142</ele>
        <time>2021-03-20T14:59:46Z</time>
      </trkpt>
      <trkpt lat="56.49722" lon="-4.78591">
        <ele>142</ele>
        <time>2021-03-20T14:59:48Z</time>
      </trkpt>
      <trkpt lat="56.49718" lon="-4.78601">
        <ele>142</ele>
        <time>2021-03-20T14:59:51Z</time>
      </trkpt>
      <trkpt lat="56.49707" lon="-4.78643">
        <ele>141</ele>
        <time>2021-03-20T14:59:53Z</time>
      </trkpt>
      <trkpt lat="56.497" lon="-4.78657">
        <ele>141</ele>
        <time>2021-03-20T14:59:55Z</time>
      </trkpt>
      <trkpt lat="56.49689" lon="-4.78672">
        <ele>140.99</ele>
        <time>2021-03-20T14:59:57Z</time>
      </trkpt>
      <trkpt lat="56.49661" lon="-4.7872">
        <ele>140.5</ele>
        <time>2021-03-20T14:59:59Z</time>
      </trkpt>
      <trkpt lat="56.49639" lon="-4.78752">
        <ele>140.91</ele>
        <time>2021-03-20T15:00:01Z</time>
      </trkpt>
      <trkpt lat="56.49623" lon="-4.78767">
        <ele>140.74</ele>
        <time>2021-03-20T15:00:04Z</time>
      </trkpt>
      <trkpt lat="56.49603" lon="-4.78794">
        <ele>141.96</ele>
        <time>2021-03-20T15:00:06Z</time>
      </trkpt>
      <trkpt lat="56.49552" lon="-4.78901">
        <ele>142.58</ele>
        <time>2021-03-20T15:00:08Z</time>
      </trkpt>
      <trkpt lat="56.4954" lon="-4.78915">
        <ele>142.77</ele>
        <time>2021-03-20T15:00:10Z</time>
      </trkpt>
      <trkpt lat="56.49506" lon="-4.78923">
        <ele>144.3</ele>
        <time>2021-03-20T15:00:12Z</time>
      </trkpt>
      <trkpt lat="56.49473" lon="-4.78954">
        <ele>142.64</ele>
        <time>2021-03-20T15:00:15Z</time>
      </trkpt>
      <trkpt lat="56.49466" lon="-4.78973">
        <ele>142.72</ele>
        <time>2021-03-20T15:00:17Z</time>
      </trkpt>
      <trkpt lat="56.49461" lon="-4.79">
        <ele>143.18</ele>
        <time>2021-03-20T15:00:19Z</time>
      </trkpt>
      <trkpt lat="56.49462" lon="-4.79027">
        <ele>145.07</ele>
        <time>2021-03-20T15:00:21Z</time>
      </trkpt>
      <trkpt lat="56.49466" lon="-4.79057">
        <ele>145.62</ele>
        <time>2021-03-20T15:00:23Z</time>
      </trkpt>
      <trkpt lat="56.49468" lon="-4.79084">
        <ele>144.76</ele>
        <time>2021-03-20T15:00:25Z</time>
      </trkpt>
      <trkpt lat="56.49469" lon="-4.79119">
        <ele>144.47</ele>
        <time>2021-03-20T15:00:28Z</time>
      </trkpt>
      <trkpt lat="56.49467" lon="-4.79147">
        <ele>143.74</ele>
        <time>2021-03-20T15:00:30Z</time>
      </trkpt>
      <trkpt lat="56.49455" lon="-4.79201">
        <ele>143.17</ele>
        <time>2021-03-20T15:00:32Z</time>
      </trkpt>
      <trkpt lat="56.49432" lon="-4.79259">
        <ele>143.16</ele>
        <time>2021-03-20T15:00:34Z</time>
      </trkpt>
      <trkpt lat="56.49411" lon="-4.79336">
        <ele>140.02</ele>
        <time>2021-03-20T15:00:36Z</time>
      </trkpt>
      <trkpt lat="56.49392" lon="-4.79382">
        <ele>140.01</ele>
        <time>2021-03-20T15:00:39Z</time>
      </trkpt>
      <trkpt lat="56.49386" lon="-4.7941">
        <ele>139.11</ele>
        <time>2021-03-20T15:00:41Z</time>
      </trkpt>
      <trkpt lat="56.49382" lon="-4.79491">
        <ele>134.7</ele>
        <time>2021-03-20T15:00:43Z</time>
      </trkpt>
      <trkpt lat="56.49377" lon="-4.79535">
        <ele>132.74</ele>
        <time>2021-03-20T15:00:45Z</time>
      </trkpt>
      <trkpt lat="56.4937" lon="-4.79567">
        <ele>131.58</ele>
        <time>2021-03-20T15:00:47Z</time>
      </trkpt>
      <trkpt lat="56.4936" lon="-4.79624">
        <ele>130.56</ele>
        <time>2021-03-20T15:00:49Z</time>
      </trkpt>
      <trkpt lat="56.4934" lon="-4.79686">
        <ele>130.23</ele>
        <time>2021-03-20T15:00:52Z</time>
      </trkpt>
      <trkpt lat="56.4933" lon="-4.79709">
        <ele>130</ele>
        <time>2021-03-20T15:00:54Z</time>
      </trkpt>
      <trkpt lat="56.49318" lon="-4.79725">
        <ele>130.13</ele>
        <time>2021-03-20T15:00:56Z</time>
      </trkpt>
      <trkpt lat="56.49252" lon="-4.79775">
        <ele>129.19</ele>
        <time>2021-03-20T15:00:58Z</time>
      </trkpt>
      <trkpt lat="56.49218" lon="-4.79806">
        <ele>131</ele>
        <time>2021-03-20T15:01:00Z</time>
      </trkpt>
      <trkpt lat="56.4918" lon="-4.7985">
        <ele>131</ele>
        <time>2021-03-20T15:01:02Z</time>
      </trkpt>
      <trkpt lat="56.49154" lon="-4.79855">
        <ele>131.1</ele>
        <time>2021-03-20T15:01:05Z</time>
      </trkpt>
      <trkpt lat="56.49142" lon="-4.79862">
        <ele>131</ele>
        <time>2021-03-20T15:01:07Z</time>
      </trkpt>
      <trkpt lat="56.49136" lon="-4.79883">
        <ele>131.09</ele>
        <time>2021-03-20T15:01:09Z</time>
      </trkpt>
      <trkpt lat="56.49135" lon="-4.79898">
        <ele>131.42</ele>
        <time>2021-03-20T15:01:11Z</time>
      </trkpt>
      <trkpt lat="56.49134" lon="-4.79929">
        <ele>132</ele>
        <time>2021-03-20T15:01:13Z</time>
      </trkpt>
      <trkpt lat="56.49141" lon="-4.79957">
        <ele>131.56</ele>
        <time>2021-03-20T15:01:16Z</time>
      </trkpt>
      <trkpt lat="56.49145" lon="-4.80004">
        <ele>129.85</ele>
        <time>2021-03-20T15:01:18Z</time>
      </trkpt>
      <trkpt lat="56.49149" lon="-4.80088">
        <ele>127.63</ele>
        <time>2021-03-20T15:01:20Z</time>
      </trkpt>
      <trkpt lat="56.49147" lon="-4.80126">
        <ele>127.17</ele>
        <time>2021-03-20T15:01:22Z</time>
      </trkpt>
      <trkpt lat="56.49143" lon="-4.80165">
        <ele>126.85</ele>
        <time>2021-03-20T15:01:24Z</time>
      </trkpt>
      <trkpt lat="56.49136" lon="-4.80187">
        <ele>127.1</ele>
        <time>2021-03-20T15:01:26Z</time>
      </trkpt>
      <trkpt lat="56.49074" lon="-4.8031">
        <ele>128.66</ele>
        <time>2021-03-20T15:01:29Z</time>
      </trkpt>
      <trkpt lat="56.49043" lon="-4.80389">
        <ele>127.55</ele>
        <time>2021-03-20T15:01:31Z</time>
      </trkpt>
      <trkpt lat="56.49029" lon="-4.8042">
        <ele>127.07</ele>
        <time>2021-03-20T15:01:33Z</time>
      </trkpt>
      <trkpt lat="56.49007" lon="-4.80461">
        <ele>126.68</ele>
        <time>2021-03-20T15:01:35Z</time>
      </trkpt>
      <trkpt lat="56.48956" lon="-4.80577">
        <ele>125.72</ele>
        <time>2021-03-20T15:01:37Z</time>
      </trkpt>
      <trkpt lat="56.48832" lon="-4.8085">
        <ele>123.4</ele>
        <time>2021-03-20T15:01:40Z</time>
      </trkpt>
      <trkpt lat="56.48816" lon="-4.80887">
        <ele>123</ele>
        <time>2021-03-20T15:01:42Z</time>
      </trkpt>
      <trkpt lat="56.48807" lon="-4.80915">
        <ele>124</ele>
        <time>2021-03-20T15:01:44Z</time>
      </trkpt>
      <trkpt lat="56.48795" lon="-4.80961">
        <ele>125.55</ele>
        <time>2021-03-20T15:01:46Z</time>
      </trkpt>
      <trkpt lat="56.48753" lon="-4.81093">
        <ele>128.51</ele>
        <time>2021-03-20T15:01:48Z</time>
      </trkpt>
      <trkpt lat="56.48726" lon="-4.81159">
        <ele>128.24</ele>
        <time>2021-03-20T15:01:50Z</time>
      </trkpt>
      <trkpt lat="56.48714" lon="-4.8118">
        <ele>127.85</ele>
        <time>2021-03-20T15:01:53Z</time>
      </trkpt>
      <trkpt lat="56.48668" lon="-4.81232">
        <ele>123.9</ele>
        <time>2021-03-20T15:01:55Z</time>
      </trkpt>
      <trkpt lat="56.48656" lon="-4.81239">
        <ele>123.98</ele>
        <time>2021-03-20T15:01:57Z</time>
      </trkpt>
      <trkpt lat="56.48564" lon="-4.81259">
        <ele>122.08</ele>
        <time>2021-03-20T15:01:59Z</time>
      </trkpt>
      <trkpt lat="56.48502" lon="-4.81281">
        <ele>121.2</ele>
        <time>2021-03-20T15:02:01Z</time>
      </trkpt>
      <trkpt lat="56.48449" lon="-4.81297">
        <ele>121.33</ele>
        <time>2021-03-20T15:02:04Z</time>
      </trkpt>
      <trkpt lat="56.4833" lon="-4.81337">
        <ele>121</ele>
        <time>2021-03-20T15:02:06Z</time>
      </trkpt>
      <trkpt lat="56.4829" lon="-4.81354">
        <ele>120.57</ele>
        <time>2021-03-20T15:02:08Z</time>
      </trkpt>
      <trkpt lat="56.4825" lon="-4.81366">
        <ele>119.82</ele>
        <time>2021-03-20T15:02:10Z</time>
      </trkpt>
      <trkpt lat="56.48235" lon="-4.81383">
        <ele>120.18</ele>
        <time>2021-03-20T15:02:12Z</time>
      </trkpt>
      <trkpt lat="56.48199" lon="-4.81434">
        <ele>120.3</ele>
        <time>2021-03-20T15:02:14Z</time>
      </trkpt>
      <trkpt lat="56.48169" lon="-4.81482">
        <ele>120.6</ele>
        <time>2021-03-20T15:02:17Z</time>
      </trkpt>
      <trkpt lat="56.48153" lon="-4.81511">
        <ele>121.77</ele>
        <time>2021-03-20T15:02:19Z</time>
      </trkpt>
      <trkpt lat="56.48084" lon="-4.81678">
        <ele>117.61</ele>
        <time>2021-03-20T15:02:21Z</time>
      </trkpt>
      <trkpt lat="56.48056" lon="-4.81733">
        <ele>115.63</ele>
        <time>2021-03-20T15:02:23Z</time>
      </trkpt>
      <trkpt lat="56.48018" lon="-4.8179">
        <ele>115.58</ele>
        <time>2021-03-20T15:02:25Z</time>
      </trkpt>
      <trkpt lat="56.47961" lon="-4.81866">
        <ele>115.22</ele>
        <time>2021-03-20T15:02:27Z</time>
      </trkpt>
      <trkpt lat="56.47906" lon="-4.81925">
        <ele>112.88</ele>
        <time>2021-03-20T15:02:30Z</time>
      </trkpt>
      <trkpt lat="56.47851" lon="-4.82">
        <ele>111</ele>
        <time>2021-03-20T15:02:32Z</time>
      </trkpt>
      <trkpt lat="56.47811" lon="-4.8206">
        <ele>109.88</ele>
        <time>2021-03-20T15:02:34Z</time>
      </trkpt>
      <trkpt lat="56.47785" lon="-4.82094">
        <ele>108.61</ele>
        <time>2021-03-20T15:02:36Z</time>
      </trkpt>
      <trkpt lat="56.47757" lon="-4.82122">
        <ele>108.37</ele>
        <time>2021-03-20T15:02:38Z</time>
      </trkpt>
      <trkpt lat="56.47741" lon="-4.82142">
        <ele>107.92</ele>
        <time>2021-03-20T15:02:41Z</time>
      </trkpt>
      <trkpt lat="56.47731" lon="-4.82166">
        <ele>107.67</ele>
        <time>2021-03-20T15:02:43Z</time>
      </trkpt>
      <trkpt lat="56.47704" lon="-4.82255">
        <ele>107</ele>
        <time>2021-03-20T15:02:45Z</time>
      </trkpt>
      <trkpt lat="56.47655" lon="-4.82436">
        <ele>107.57</ele>
        <time>2021-03-20T15:02:47Z</time>
      </trkpt>
      <trkpt lat="56.47638" lon="-4.82488">
        <ele>106.96</ele>
        <time>2021-03-20T15:02:49Z</time>
      </trkpt>
      <trkpt lat="56.4763" lon="-4.82507">
        <ele>106.59</ele>
        <time>2021-03-20T15:02:51Z</time>
      </trkpt>
      <trkpt lat="56.4762" lon="-4.82522">
        <ele>105.8</ele>
        <time>2021-03-20T15:02:54Z</time>
      </trkpt>
      <trkpt lat="56.47581" lon="-4.8257">
        <ele>104.46</ele>
        <time>2021-03-20T15:02:56Z</time>
      </trkpt>
      <trkpt lat="56.47551" lon="-4.826">
        <ele>104</ele>
        <time>2021-03-20T15:02:58Z</time>
      </trkpt>
      <trkpt lat="56.47515" lon="-4.82623">
        <ele>104.89</ele>
        <time>2021-03-20T15:03:00Z</time>
      </trkpt>
      <trkpt lat="56.47457" lon="-4.82667">
        <ele>106.03</ele>
        <time>2021-03-20T15:03:02Z</time>
      </trkpt>
      <trkpt lat="56.4743" lon="-4.82679">
        <ele>106.43</ele>
        <time>2021-03-20T15:03:05Z</time>
      </trkpt>
      <trkpt lat="56.47415" lon="-4.82681">
        <ele>106.45</ele>
        <time>2021-03-20T15:03:07Z</time>
      </trkpt>
      <trkpt lat="56.47367" lon="-4.82662">
        <ele>104.23</ele>
        <time>2021-03-20T15:03:09Z</time>
      </trkpt>
      <trkpt lat="56.47299" lon="-4.82652">
        <ele>107.62</ele>
        <time>2021-03-20T15:03:11Z</time>
      </trkpt>
      <trkpt lat="56.47286" lon="-4.82646">
        <ele>108.6</ele>
        <time>2021-03-20T15:03:13Z</time>
      </trkpt>
      <trkpt lat="56.47263" lon="-4.82594">
        <ele>108.55</ele>
        <time>2021-03-20T15:03:15Z</time>
      </trkpt>
      <trkpt lat="56.4725" lon="-4.82583">
        <ele>109</ele>
        <time>2021-03-20T15:03:18Z</time>
      </trkpt>
      <trkpt lat="56.47235" lon="-4.8258">
        <ele>109.06</ele>
        <time>2021-03-20T15:03:20Z</time>
      </trkpt>
      <trkpt lat="56.47223" lon="-4.82584">
        <ele>109</ele>
        <time>2021-03-20T15:03:22Z</time>
      </trkpt>
      <trkpt lat="56.47215" lon="-4.82595">
        <ele>109.27</ele>
        <time>2021-03-20T15:03:24Z</time>
      </trkpt>
      <trkpt lat="56.47189" lon="-4.82657">
        <ele>110.19</ele>
        <time>2021-03-20T15:03:26Z</time>
      </trkpt>
      <trkpt lat="56.47159" lon="-4.8272">
        <ele>110.74</ele>
        <time>2021-03-20T15:03:28Z</time>
      </trkpt>
      <trkpt lat="56.47156" lon="-4.8274">
        <ele>109.96</ele>
        <time>2021-03-20T15:03:31Z</time>
      </trkpt>
      <trkpt lat="56.47154" lon="-4.82788">
        <ele>108.78</ele>
        <time>2021-03-20T15:03:33Z</time>
      </trkpt>
      <trkpt lat="56.47155" lon="-4.82854">
        <ele>105.25</ele>
        <time>2021-03-20T15:03:35Z</time>
      </trkpt>
      <trkpt lat="56.47153" lon="-4.82884">
        <ele>104.58</ele>
        <time>2021-03-20T15:03:37Z</time>
      </trkpt>
      <trkpt lat="56.47144" lon="-4.82928">
        <ele>104</ele>
        <time>2021-03-20T15:03:39Z</time>
      </trkpt>
      <trkpt lat="56.4714" lon="-4.8294">
        <ele>104</ele>
        <time>2021-03-20T15:03:42Z</time>
      </trkpt>
      <trkpt lat="56.47132" lon="-4.82955">
        <ele>103.63</ele>
        <time>2021-03-20T15:03:44Z</time>
      </trkpt>
      <trkpt lat="56.47082" lon="-4.83012">
        <ele>102.54</ele>
        <time>2021-03-20T15:03:46Z</time>
      </trkpt>
      <trkpt lat="56.47071" lon="-4.83017">
        <ele>102.21</ele>
        <time>2021-03-20T15:03:48Z</time>
      </trkpt>
      <trkpt lat="56.47038" lon="-4.83021">
        <ele>102.17</ele>
        <time>2021-03-20T15:03:50Z</time>
      </trkpt>
      <trkpt lat="56.4701" lon="-4.83027">
        <ele>102.64</ele>
        <time>2021-03-20T15:03:52Z</time>
      </trkpt>
      <trkpt lat="56.4699" lon="-4.83034">
        <ele>103.61</ele>
        <time>2021-03-20T15:03:55Z</time>
      </trkpt>
      <trkpt lat="56.46979" lon="-4.83042">
        <ele>104.37</ele>
        <time>2021-03-20T15:03:57Z</time>
      </trkpt>
      <trkpt lat="56.46755" lon="-4.83312">
        <ele>110.36</ele>
        <time>2021-03-20T15:03:59Z</time>
      </trkpt>
      <trkpt lat="56.46727" lon="-4.83341">
        <ele>110.33</ele>
        <time>2021-03-20T15:04:01Z</time>
      </trkpt>
      <trkpt lat="56.46703" lon="-4.83373">
        <ele>109.25</ele>
        <time>2021-03-20T15:04:03Z</time>
      </trkpt>
      <trkpt lat="56.46627" lon="-4.83436">
        <ele>112.42</ele>
        <time>2021-03-20T15:04:06Z</time>
      </trkpt>
      <trkpt lat="56.4656" lon="-4.83513">
        <ele>114.43</ele>
        <time>2021-03-20T15:04:08Z</time>
      </trkpt>
      <trkpt lat="56.46554" lon="-4.83527">
        <ele>114.5</ele>
        <time>2021-03-20T15:04:10Z</time>
      </trkpt>
      <trkpt lat="56.46549" lon="-4.83544">
        <ele>114.17</ele>
        <time>2021-03-20T15:04:12Z</time>
      </trkpt>
      <trkpt lat="56.46533" lon="-4.83637">
        <ele>112.21</ele>
        <time>2021-03-20T15:04:14Z</time>
      </trkpt>
      <trkpt lat="56.46522" lon="-4.8368">
        <ele>112.95</ele>
        <time>2021-03-20T15:04:16Z</time>
      </trkpt>
      <trkpt lat="56.46517" lon="-4.83694">
        <ele>113.97</ele>
        <time>2021-03-20T15:04:19Z</time>
      </trkpt>
      <trkpt lat="56.46509" lon="-4.83705">
        <ele>115.36</ele>
        <time>2021-03-20T15:04:21Z</time>
      </trkpt>
      <trkpt lat="56.4645" lon="-4.83743">
        <ele>115.59</ele>
        <time>2021-03-20T15:04:23Z</time>
      </trkpt>
      <trkpt lat="56.46442" lon="-4.8375">
        <ele>115.08</ele>
        <time>2021-03-20T15:04:25Z</time>
      </trkpt>
      <trkpt lat="56.46435" lon="-4.83764">
        <ele>115.34</ele>
        <time>2021-03-20T15:04:27Z</time>
      </trkpt>
      <trkpt lat="56.46428" lon="-4.83787">
        <ele>114.93</ele>
        <time>2021-03-20T15:04:29Z</time>
      </trkpt>
      <trkpt lat="56.4642" lon="-4.83807">
        <ele>113.79</ele>
        <time>2021-03-20T15:04:32Z</time>
      </trkpt>
      <trkpt lat="56.4641" lon="-4.83819">
        <ele>113.41</ele>
        <time>2021-03-20T15:04:34Z</time>
      </trkpt>
      <trkpt lat="56.464" lon="-4.83825">
        <ele>113.63</ele>
        <time>2021-03-20T15:04:36Z</time>
      </trkpt>
      <trkpt lat="56.46377" lon="-4.83811">
        <ele>115.7</ele>
        <time>2021-03-20T15:04:38Z</time>
      </trkpt>
      <trkpt lat="56.46369" lon="-4.83812">
        <ele>116.22</ele>
        <time>2021-03-20T15:04:40Z</time>
      </trkpt>
      <trkpt lat="56.46334" lon="-4.83847">
        <ele>116.98</ele>
        <time>2021-03-20T15:04:43Z</time>
      </trkpt>
      <trkpt lat="56.46287" lon="-4.83868">
        <ele>116.86</ele>
        <time>2021-03-20T15:04:45Z</time>
      </trkpt>
      <trkpt lat="56.46273" lon="-4.83871">
        <ele>117.92</ele>
        <time>2021-03-20T15:04:47Z</time>
      </trkpt>
      <trkpt lat="56.46233" lon="-4.83871">
        <ele>122.26</ele>
        <time>2021-03-20T15:04:49Z</time>
      </trkpt>
      <trkpt lat="56.46175" lon="-4.83898">
        <ele>123.04</ele>
        <time>2021-03-20T15:04:51Z</time>
      </trkpt>
      <trkpt lat="56.46129" lon="-4.83901">
        <ele>124.27</ele>
        <time>2021-03-20T15:04:53Z</time>
      </trkpt>
      <trkpt lat="56.46087" lon="-4.83899">
        <ele>126.4</ele>
        <time>2021-03-20T15:04:56Z</time>
      </trkpt>
      <trkpt lat="56.46058" lon="-4.83894">
        <ele>127.71</ele>
        <time>2021-03-20T15:04:58Z</time>
      </trkpt>
      <trkpt lat="56.46047" lon="-4.83895">
        <ele>128.08</ele>
        <time>2021-03-20T15:05:00Z</time>
      </trkpt>
      <trkpt lat="56.46032" lon="-4.839">
        <ele>128.42</ele>
        <time>2021-03-20T15:05:02Z</time>
      </trkpt>
      <trkpt lat="56.46011" lon="-4.83915">
        <ele>129.24</ele>
        <time>2021-03-20T15:05:04Z</time>
      </trkpt>
      <trkpt lat="56.45949" lon="-4.83987">
        <ele>127.69</ele>
        <time>2021-03-20T15:05:07Z</time>
      </trkpt>
      <trkpt lat="56.45941" lon="-4.83992">
        <ele>127.46</ele>
        <time>2021-03-20T15:05:09Z</time>
      </trkpt>
      <trkpt lat="56.45903" lon="-4.84001">
        <ele>125.36</ele>
        <time>2021-03-20T15:05:11Z</time>
      </trkpt>
      <trkpt lat="56.45851" lon="-4.8399">
        <ele>125.09</ele>
        <time>2021-03-20T15:05:13Z</time>
      </trkpt>
      <trkpt lat="56.45748" lon="-4.8399">
        <ele>121.17</ele>
        <time>2021-03-20T15:05:15Z</time>
      </trkpt>
      <trkpt lat="56.45731" lon="-4.83995">
        <ele>121.75</ele>
        <time>2021-03-20T15:05:17Z</time>
      </trkpt>
      <trkpt lat="56.45722" lon="-4.84004">
        <ele>121.9</ele>
        <time>2021-03-20T15:05:20Z</time>
      </trkpt>
      <trkpt lat="56.45712" lon="-4.84019">
        <ele>122.14</ele>
        <time>2021-03-20T15:05:22Z</time>
      </trkpt>
      <trkpt lat="56.45704" lon="-4.84037">
        <ele>122.08</ele>
        <time>2021-03-20T15:05:24Z</time>
      </trkpt>
      <trkpt lat="56.45665" lon="-4.84087">
        <ele>121.72</ele>
        <time>2021-03-20T15:05:26Z</time>
      </trkpt>
      <trkpt lat="56.4565" lon="-4.84097">
        <ele>120.35</ele>
        <time>2021-03-20T15:05:28Z</time>
      </trkpt>
      <trkpt lat="56.45627" lon="-4.84105">
        <ele>119.65</ele>
        <time>2021-03-20T15:05:31Z</time>
      </trkpt>
      <trkpt lat="56.45613" lon="-4.84115">
        <ele>119.79</ele>
        <time>2021-03-20T15:05:33Z</time>
      </trkpt>
      <trkpt lat="56.45603" lon="-4.84133">
        <ele>120.77</ele>
        <time>2021-03-20T15:05:35Z</time>
      </trkpt>
      <trkpt lat="56.45549" lon="-4.84287">
        <ele>113.78</ele>
        <time>2021-03-20T15:05:37Z</time>
      </trkpt>
      <trkpt lat="56.45537" lon="-4.84303">
        <ele>112.92</ele>
        <time>2021-03-20T15:05:39Z</time>
      </trkpt>
      <trkpt lat="56.45501" lon="-4.84346">
        <ele>110.09</ele>
        <time>2021-03-20T15:05:41Z</time>
      </trkpt>
      <trkpt lat="56.45465" lon="-4.84397">
        <ele>107.88</ele>
        <time>2021-03-20T15:05:44Z</time>
      </trkpt>
      <trkpt lat="56.45428" lon="-4.84432">
        <ele>105.35</ele>
        <time>2021-03-20T15:05:46Z</time>
      </trkpt>
      <trkpt lat="56.45394" lon="-4.84471">
        <ele>102.95</ele>
        <time>2021-03-20T15:05:48Z</time>
      </trkpt>
      <trkpt lat="56.45387" lon="-4.84486">
        <ele>101.72</ele>
        <time>2021-03-20T15:05:50Z</time>
      </trkpt>
      <trkpt lat="56.45382" lon="-4.84506">
        <ele>100.29</ele>
        <time>2021-03-20T15:05:52Z</time>
      </trkpt>
      <trkpt lat="56.45372" lon="-4.84651">
        <ele>90.76</ele>
        <time>2021-03-20T15:05:54Z</time>
      </trkpt>
      <trkpt lat="56.45372" lon="-4.84679">
        <ele>88.29</ele>
        <time>2021-03-20T15:05:57Z</time>
      </trkpt>
      <trkpt lat="56.4537" lon="-4.84691">
        <ele>87.01</ele>
        <time>2021-03-20T15:05:59Z</time>
      </trkpt>
      <trkpt lat="56.45366" lon="-4.84704">
        <ele>86.11</ele>
        <time>2021-03-20T15:06:01Z</time>
      </trkpt>
      <trkpt lat="56.45337" lon="-4.84746">
        <ele>86.12</ele>
        <time>2021-03-20T15:06:03Z</time>
      </trkpt>
      <trkpt lat="56.45268" lon="-4.84829">
        <ele>84.7</ele>
        <time>2021-03-20T15:06:05Z</time>
      </trkpt>
      <trkpt lat="56.45211" lon="-4.84876">
        <ele>84.25</ele>
        <time>2021-03-20T15:06:08Z</time>
      </trkpt>
      <trkpt lat="56.45134" lon="-4.84959">
        <ele>83.75</ele>
        <time>2021-03-20T15:06:10Z</time>
      </trkpt>
      <trkpt lat="56.44989" lon="-4.85082">
        <ele>81.15</ele>
        <time>2021-03-20T15:06:12Z</time>
      </trkpt>
      <trkpt lat="56.4497" lon="-4.85094">
        <ele>80.35</ele>
        <time>2021-03-20T15:06:14Z</time>
      </trkpt>
      <trkpt lat="56.4489" lon="-4.85127">
        <ele>79.87</ele>
        <time>2021-03-20T15:06:16Z</time>
      </trkpt>
      <trkpt lat="56.44833" lon="-4.85163">
        <ele>76.47</ele>
        <time>2021-03-20T15:06:18Z</time>
      </trkpt>
      <trkpt lat="56.44735" lon="-4.85241">
        <ele>76.62</ele>
        <time>2021-03-20T15:06:21Z</time>
      </trkpt>
      <trkpt lat="56.44695" lon="-4.85264">
        <ele>75</ele>
        <time>2021-03-20T15:06:23Z</time>
      </trkpt>
      <trkpt lat="56.44607" lon="-4.8527">
        <ele>76.14</ele>
        <time>2021-03-20T15:06:25Z</time>
      </trkpt>
      <trkpt lat="56.44563" lon="-4.85294">
        <ele>76.75</ele>
        <time>2021-03-20T15:06:27Z</time>
      </trkpt>
      <trkpt lat="56.44433" lon="-4.85383">
        <ele>71.45</ele>
        <time>2021-03-20T15:06:29Z</time>
      </trkpt>
      <trkpt lat="56.44393" lon="-4.85405">
        <ele>70.43</ele>
        <time>2021-03-20T15:06:32Z</time>
      </trkpt>
      <trkpt lat="56.44374" lon="-4.85408">
        <ele>70.84</ele>
        <time>2021-03-20T15:06:34Z</time>
      </trkpt>
      <trkpt lat="56.4432" lon="-4.85406">
        <ele>72.87</ele>
        <time>2021-03-20T15:06:36Z</time>
      </trkpt>
      <trkpt lat="56.44269" lon="-4.85413">
        <ele>73.11</ele>
        <time>2021-03-20T15:06:38Z</time>
      </trkpt>
      <trkpt lat="56.44247" lon="-4.85424">
        <ele>73.07</ele>
        <time>2021-03-20T15:06:40Z</time>
      </trkpt>
      <trkpt lat="56.44237" lon="-4.85432">
        <ele>73.2</ele>
        <time>2021-03-20T15:06:42Z</time>
      </trkpt>
      <trkpt lat="56.44215" lon="-4.85459">
        <ele>72.5</ele>
        <time>2021-03-20T15:06:45Z</time>
      </trkpt>
      <trkpt lat="56.442" lon="-4.85473">
        <ele>71.97</ele>
        <time>2021-03-20T15:06:47Z</time>
      </trkpt>
      <trkpt lat="56.44184" lon="-4.85485">
        <ele>71.17</ele>
        <time>2021-03-20T15:06:49Z</time>
      </trkpt>
      <trkpt lat="56.44166" lon="-4.85492">
        <ele>70.28</ele>
        <time>2021-03-20T15:06:51Z</time>
      </trkpt>
      <trkpt lat="56.44129" lon="-4.85501">
        <ele>70.32</ele>
        <time>2021-03-20T15:06:53Z</time>
      </trkpt>
      <trkpt lat="56.44104" lon="-4.85502">
        <ele>70.92</ele>
        <time>2021-03-20T15:06:55Z</time>
      </trkpt>
      <trkpt lat="56.44081" lon="-4.85497">
        <ele>71.21</ele>
        <time>2021-03-20T15:06:58Z</time>
      </trkpt>
      <trkpt lat="56.4406" lon="-4.85483">
        <ele>72.26</ele>
        <time>2021-03-20T15:07:00Z</time>
      </trkpt>
      <trkpt lat="56.4405" lon="-4.85482">
        <ele>72.65</ele>
        <time>2021-03-20T15:07:02Z</time>
      </trkpt>
      <trkpt lat="56.43994" lon="-4.85514">
        <ele>73.98</ele>
        <time>2021-03-20T15:07:04Z</time>
      </trkpt>
      <trkpt lat="56.43982" lon="-4.85525">
        <ele>73.17</ele>
        <time>2021-03-20T15:07:06Z</time>
      </trkpt>
      <trkpt lat="56.43973" lon="-4.85538">
        <ele>72.64</ele>
        <time>2021-03-20T15:07:09Z</time>
      </trkpt>
      <trkpt lat="56.43964" lon="-4.85556">
        <ele>72.26</ele>
        <time>2021-03-20T15:07:11Z</time>
      </trkpt>
      <trkpt lat="56.43958" lon="-4.85617">
        <ele>70.28</ele>
        <time>2021-03-20T15:07:13Z</time>
      </trkpt>
      <trkpt lat="56.43941" lon="-4.85696">
        <ele>67.97</ele>
        <time>2021-03-20T15:07:15Z</time>
      </trkpt>
      <trkpt lat="56.43929" lon="-4.85727">
        <ele>67.46</ele>
        <time>2021-03-20T15:07:17Z</time>
      </trkpt>
      <trkpt lat="56.43915" lon="-4.85756">
        <ele>67.07</ele>
        <time>2021-03-20T15:07:19Z</time>
      </trkpt>
      <trkpt lat="56.43875" lon="-4.85814">
        <ele>68</ele>
        <time>2021-03-20T15:07:22Z</time>
      </trkpt>
      <trkpt lat="56.43831" lon="-4.85874">
        <ele>68</ele>
        <time>2021-03-20T15:07:24Z</time>
      </trkpt>
      <trkpt lat="56.43751" lon="-4.85961">
        <ele>65.58</ele>
        <time>2021-03-20T15:07:26Z</time>
      </trkpt>
      <trkpt lat="56.43729" lon="-4.85974">
        <ele>66</ele>
        <time>2021-03-20T15:07:28Z</time>
      </trkpt>
      <trkpt lat="56.43717" lon="-4.85985">
        <ele>66</ele>
        <time>2021-03-20T15:07:30Z</time>
      </trkpt>
      <trkpt lat="56.43705" lon="-4.86001">
        <ele>65.98</ele>
        <time>2021-03-20T15:07:33Z</time>
      </trkpt>
      <trkpt lat="56.43664" lon="-4.8608">
        <ele>65.09</ele>
        <time>2021-03-20T15:07:35Z</time>
      </trkpt>
      <trkpt lat="56.4364" lon="-4.86121">
        <ele>65.61</ele>
        <time>2021-03-20T15:07:37Z</time>
      </trkpt>
      <trkpt lat="56.43619" lon="-4.86164">
        <ele>65</ele>
        <time>2021-03-20T15:07:39Z</time>
      </trkpt>
      <trkpt lat="56.43605" lon="-4.86219">
        <ele>64.79</ele>
        <time>2021-03-20T15:07:41Z</time>
      </trkpt>
      <trkpt lat="56.43594" lon="-4.86273">
        <ele>65</ele>
        <time>2021-03-20T15:07:43Z</time>
      </trkpt>
      <trkpt lat="56.43592" lon="-4.863">
        <ele>65</ele>
        <time>2021-03-20T15:07:46Z</time>
      </trkpt>
      <trkpt lat="56.43591" lon="-4.86347">
        <ele>65</ele>
        <time>2021-03-20T15:07:48Z</time>
      </trkpt>
      <trkpt lat="56.43588" lon="-4.86389">
        <ele>65</ele>
        <time>2021-03-20T15:07:50Z</time>
      </trkpt>
      <trkpt lat="56.43582" lon="-4.8645">
        <ele>64.81</ele>
        <time>2021-03-20T15:07:52Z</time>
      </trkpt>
      <trkpt lat="56.43576" lon="-4.8648">
        <ele>64</ele>
        <time>2021-03-20T15:07:54Z</time>
      </trkpt>
      <trkpt lat="56.43537" lon="-4.86619">
        <ele>62.66</ele>
        <time>2021-03-20T15:07:56Z</time>
      </trkpt>
      <trkpt lat="56.43517" lon="-4.86682">
        <ele>62.28</ele>
        <time>2021-03-20T15:07:59Z</time>
      </trkpt>
      <trkpt lat="56.43503" lon="-4.86718">
        <ele>62</ele>
        <time>2021-03-20T15:08:01Z</time>
      </trkpt>
      <trkpt lat="56.4349" lon="-4.86736">
        <ele>62.31</ele>
        <time>2021-03-20T15:08:03Z</time>
      </trkpt>
      <trkpt lat="56.43473" lon="-4.86756">
        <ele>62.01</ele>
        <time>2021-03-20T15:08:05Z</time>
      </trkpt>
      <trkpt lat="56.43362" lon="-4.86868">
        <ele>62.01</ele>
        <time>2021-03-20T15:08:07Z</time>
      </trkpt>
      <trkpt lat="56.43342" lon="-4.86885">
        <ele>61.31</ele>
        <time>2021-03-20T15:08:10Z</time>
      </trkpt>
      <trkpt lat="56.43332" lon="-4.86901">
        <ele>61.47</ele>
        <time>2021-03-20T15:08:12Z</time>
      </trkpt>
      <trkpt lat="56.43303" lon="-4.86978">
        <ele>62.89</ele>
        <time>2021-03-20T15:08:14Z</time>
      </trkpt>
      <trkpt lat="56.43283" lon="-4.8705">
        <ele>62.18</ele>
        <time>2021-03-20T15:08:16Z</time>
      </trkpt>
      <trkpt lat="56.43265" lon="-4.87129">
        <ele>62.35</ele>
        <time>2021-03-20T15:08:18Z</time>
      </trkpt>
      <trkpt lat="56.4321" lon="-4.87517">
        <ele>61.49</ele>
        <time>2021-03-20T15:08:20Z</time>
      </trkpt>
      <trkpt lat="56.43195" lon="-4.87585">
        <ele>61.97</ele>
        <time>2021-03-20T15:08:23Z</time>
      </trkpt>
      <trkpt lat="56.43188" lon="-4.87611">
        <ele>62.22</ele>
        <time>2021-03-20T15:08:25Z</time>
      </trkpt>
      <trkpt lat="56.4318" lon="-4.87634">
        <ele>62.1</ele>
        <time>2021-03-20T15:08:27Z</time>
      </trkpt>
      <trkpt lat="56.4313" lon="-4.87741">
        <ele>59.77</ele>
        <time>2021-03-20T15:08:29Z</time>
      </trkpt>
      <trkpt lat="56.43049" lon="-4.87988">
        <ele>60.22</ele>
        <time>2021-03-20T15:08:31Z</time>
      </trkpt>
      <trkpt lat="56.43028" lon="-4.88033">
        <ele>61.99</ele>
        <time>2021-03-20T15:08:34Z</time>
      </trkpt>
      <trkpt lat="56.43004" lon="-4.88074">
        <ele>62.1</ele>
        <time>2021-03-20T15:08:36Z</time>
      </trkpt>
      <trkpt lat="56.4297" lon="-4.88118">
        <ele>61.92</ele>
        <time>2021-03-20T15:08:38Z</time>
      </trkpt>
      <trkpt lat="56.42878" lon="-4.88185">
        <ele>60.86</ele>
        <time>2021-03-20T15:08:40Z</time>
      </trkpt>
      <trkpt lat="56.42845" lon="-4.88203">
        <ele>60.4</ele>
        <time>2021-03-20T15:08:42Z</time>
      </trkpt>
      <trkpt lat="56.42769" lon="-4.88256">
        <ele>57</ele>
        <time>2021-03-20T15:08:44Z</time>
      </trkpt>
      <trkpt lat="56.42706" lon="-4.88282">
        <ele>59.97</ele>
        <time>2021-03-20T15:08:47Z</time>
      </trkpt>
      <trkpt lat="56.42693" lon="-4.88292">
        <ele>60.15</ele>
        <time>2021-03-20T15:08:49Z</time>
      </trkpt>
      <trkpt lat="56.42684" lon="-4.88304">
        <ele>60.31</ele>
        <time>2021-03-20T15:08:51Z</time>
      </trkpt>
      <trkpt lat="56.42665" lon="-4.88337">
        <ele>60.25</ele>
        <time>2021-03-20T15:08:53Z</time>
      </trkpt>
      <trkpt lat="56.42648" lon="-4.88393">
        <ele>62.8</ele>
        <time>2021-03-20T15:08:55Z</time>
      </trkpt>
      <trkpt lat="56.42634" lon="-4.88455">
        <ele>64.73</ele>
        <time>2021-03-20T15:08:58Z</time>
      </trkpt>
      <trkpt lat="56.42587" lon="-4.88613">
        <ele>62.5</ele>
        <time>2021-03-20T15:09:00Z</time>
      </trkpt>
      <trkpt lat="56.42544" lon="-4.88772">
        <ele>59.96</ele>
        <time>2021-03-20T15:09:02Z</time>
      </trkpt>
      <trkpt lat="56.42522" lon="-4.88844">
        <ele>60.05</ele>
        <time>2021-03-20T15:09:04Z</time>
      </trkpt>
      <trkpt lat="56.42508" lon="-4.88895">
        <ele>60.92</ele>
        <time>2021-03-20T15:09:06Z</time>
      </trkpt>
      <trkpt lat="56.42477" lon="-4.88967">
        <ele>60.19</ele>
        <time>2021-03-20T15:09:08Z</time>
      </trkpt>
      <trkpt lat="56.4247" lon="-4.88987">
        <ele>59.66</ele>
        <time>2021-03-20T15:09:11Z</time>
      </trkpt>
      <trkpt lat="56.42443" lon="-4.89113">
        <ele>59.98</ele>
        <time>2021-03-20T15:09:13Z</time>
      </trkpt>
      <trkpt lat="56.42434" lon="-4.89142">
        <ele>59.37</ele>
        <time>2021-03-20T15:09:15Z</time>
      </trkpt>
      <trkpt lat="56.42421" lon="-4.89173">
        <ele>59.62</ele>
        <time>2021-03-20T15:09:17Z</time>
      </trkpt>
      <trkpt lat="56.42379" lon="-4.89247">
        <ele>59.51</ele>
        <time>2021-03-20T15:09:19Z</time>
      </trkpt>
      <trkpt lat="56.4234" lon="-4.89294">
        <ele>60.09</ele>
        <time>2021-03-20T15:09:21Z</time>
      </trkpt>
      <trkpt lat="56.42332" lon="-4.89307">
        <ele>60.21</ele>
        <time>2021-03-20T15:09:24Z</time>
      </trkpt>
      <trkpt lat="56.42325" lon="-4.89322">
        <ele>60.47</ele>
        <time>2021-03-20T15:09:26Z</time>
      </trkpt>
      <trkpt lat="56.42297" lon="-4.8941">
        <ele>61.96</ele>
        <time>2021-03-20T15:09:28Z</time>
      </trkpt>
      <trkpt lat="56.42289" lon="-4.89481">
        <ele>61.02</ele>
        <time>2021-03-20T15:09:30Z</time>
      </trkpt>
      <trkpt lat="56.4228" lon="-4.89526">
        <ele>59.97</ele>
        <time>2021-03-20T15:09:32Z</time>
      </trkpt>
      <trkpt lat="56.4223" lon="-4.89654">
        <ele>58.72</ele>
        <time>2021-03-20T15:09:35Z</time>
      </trkpt>
      <trkpt lat="56.42212" lon="-4.89689">
        <ele>59.37</ele>
        <time>2021-03-20T15:09:37Z</time>
      </trkpt>
      <trkpt lat="56.42206" lon="-4.89706">
        <ele>59.57</ele>
        <time>2021-03-20T15:09:39Z</time>
      </trkpt>
      <trkpt lat="56.42198" lon="-4.89741">
        <ele>59.21</ele>
        <time>2021-03-20T15:09:41Z</time>
      </trkpt>
      <trkpt lat="56.42184" lon="-4.89779">
        <ele>59.32</ele>
        <time>2021-03-20T15:09:43Z</time>
      </trkpt>
      <trkpt lat="56.42138" lon="-4.89872">
        <ele>59.03</ele>
        <time>2021-03-20T15:09:45Z</time>
      </trkpt>
      <trkpt lat="56.42075" lon="-4.8997">
        <ele>59.67</ele>
        <time>2021-03-20T15:09:48Z</time>
      </trkpt>
      <trkpt lat="56.42024" lon="-4.90087">
        <ele>59.99</ele>
        <time>2021-03-20T15:09:50Z</time>
      </trkpt>
      <trkpt lat="56.4197" lon="-4.90182">
        <ele>61.74</ele>
        <time>2021-03-20T15:09:52Z</time>
      </trkpt>
      <trkpt lat="56.41935" lon="-4.90257">
        <ele>61.01</ele>
        <time>2021-03-20T15:09:54Z</time>
      </trkpt>
      <trkpt lat="56.4192" lon="-4.9028">
        <ele>59.93</ele>
        <time>2021-03-20T15:09:56Z</time>
      </trkpt>
      <trkpt lat="56.4188" lon="-4.90319">
        <ele>60.83</ele>
        <time>2021-03-20T15:09:59Z</time>
      </trkpt>
      <trkpt lat="56.41867" lon="-4.90338">
        <ele>61.41</ele>
        <time>2021-03-20T15:10:01Z</time>
      </trkpt>
      <trkpt lat="56.41856" lon="-4.90363">
        <ele>61.53</ele>
        <time>2021-03-20T15:10:03Z</time>
      </trkpt>
      <trkpt lat="56.41824" lon="-4.90457">
        <ele>61.86</ele>
        <time>2021-03-20T15:10:05Z</time>
      </trkpt>
      <trkpt lat="56.41808" lon="-4.90511">
        <ele>62.47</ele>
        <time>2021-03-20T15:10:07Z</time>
      </trkpt>
      <trkpt lat="56.41793" lon="-4.90574">
        <ele>62.67</ele>
        <time>2021-03-20T15:10:09Z</time>
      </trkpt>
      <trkpt lat="56.41783" lon="-4.90637">
        <ele>61.71</ele>
        <time>2021-03-20T15:10:12Z</time>
      </trkpt>
      <trkpt lat="56.41766" lon="-4.90723">
        <ele>59.83</ele>
        <time>2021-03-20T15:10:14Z</time>
      </trkpt>
      <trkpt lat="56.41751" lon="-4.90759">
        <ele>58.63</ele>
        <time>2021-03-20T15:10:16Z</time>
      </trkpt>
      <trkpt lat="56.41729" lon="-4.90783">
        <ele>59.33</ele>
        <time>2021-03-20T15:10:18Z</time>
      </trkpt>
      <trkpt lat="56.41713" lon="-4.90794">
        <ele>59.76</ele>
        <time>2021-03-20T15:10:20Z</time>
      </trkpt>
      <trkpt lat="56.41702" lon="-4.90808">
        <ele>59.64</ele>
        <time>2021-03-20T15:10:22Z</time>
      </trkpt>
      <trkpt lat="56.41694" lon="-4.90833">
        <ele>59.08</ele>
        <time>2021-03-20T15:10:25Z</time>
      </trkpt>
      <trkpt lat="56.41683" lon="-4.90894">
        <ele>59.19</ele>
        <time>2021-03-20T15:10:27Z</time>
      </trkpt>
      <trkpt lat="56.41639" lon="-4.90986">
        <ele>60.01</ele>
        <time>2021-03-20T15:10:29Z</time>
      </trkpt>
      <trkpt lat="56.41581" lon="-4.91134">
        <ele>59.64</ele>
        <time>2021-03-20T15:10:31Z</time>
      </trkpt>
      <trkpt lat="56.41561" lon="-4.91167">
        <ele>61.16</ele>
        <time>2021-03-20T15:10:33Z</time>
      </trkpt>
      <trkpt lat="56.41533" lon="-4.91201">
        <ele>62.11</ele>
        <time>2021-03-20T15:10:36Z</time>
      </trkpt>
      <trkpt lat="56.41513" lon="-4.91234">
        <ele>61.68</ele>
        <time>2021-03-20T15:10:38Z</time>
      </trkpt>
      <trkpt lat="56.4148" lon="-4.91278">
        <ele>59.71</ele>
        <time>2021-03-20T15:10:40Z</time>
      </trkpt>
      <trkpt lat="56.41471" lon="-4.9131">
        <ele>59.12</ele>
        <time>2021-03-20T15:10:42Z</time>
      </trkpt>
      <trkpt lat="56.41459" lon="-4.91366">
        <ele>58.87</ele>
        <time>2021-03-20T15:10:44Z</time>
      </trkpt>
      <trkpt lat="56.4145" lon="-4.91432">
        <ele>57.69</ele>
        <time>2021-03-20T15:10:46Z</time>
      </trkpt>
      <trkpt lat="56.41443" lon="-4.91462">
        <ele>57.4</ele>
        <time>2021-03-20T15:10:49Z</time>
      </trkpt>
      <trkpt lat="56.41433" lon="-4.91488">
        <ele>57.42</ele>
        <time>2021-03-20T15:10:51Z</time>
      </trkpt>
      <trkpt lat="56.41402" lon="-4.91544">
        <ele>56.19</ele>
        <time>2021-03-20T15:10:53Z</time>
      </trkpt>
      <trkpt lat="56.4139" lon="-4.91564">
        <ele>55.99</ele>
        <time>2021-03-20T15:10:55Z</time>
      </trkpt>
      <trkpt lat="56.41374" lon="-4.91581">
        <ele>56.54</ele>
        <time>2021-03-20T15:10:57Z</time>
      </trkpt>
      <trkpt lat="56.41313" lon="-4.91614">
        <ele>60.03</ele>
        <time>2021-03-20T15:11:00Z</time>
      </trkpt>
      <trkpt lat="56.41248" lon="-4.91656">
        <ele>63.82</ele>
        <time>2021-03-20T15:11:02Z</time>
      </trkpt>
      <trkpt lat="56.41211" lon="-4.91691">
        <ele>64.6</ele>
        <time>2021-03-20T15:11:04Z</time>
      </trkpt>
      <trkpt lat="56.41201" lon="-4.91703">
        <ele>64.35</ele>
        <time>2021-03-20T15:11:06Z</time>
      </trkpt>
      <trkpt lat="56.4119" lon="-4.91721">
        <ele>63.74</ele>
        <time>2021-03-20T15:11:08Z</time>
      </trkpt>
      <trkpt lat="56.41098" lon="-4.91962">
        <ele>59.24</ele>
        <time>2021-03-20T15:11:10Z</time>
      </trkpt>
      <trkpt lat="56.41074" lon="-4.92031">
        <ele>59.83</ele>
        <time>2021-03-20T15:11:13Z</time>
      </trkpt>
      <trkpt lat="56.41052" lon="-4.92103">
        <ele>59.11</ele>
        <time>2021-03-20T15:11:15Z</time>
      </trkpt>
      <trkpt lat="56.41033" lon="-4.92134">
        <ele>59.8</ele>
        <time>2021-03-20T15:11:17Z</time>
      </trkpt>
      <trkpt lat="56.40968" lon="-4.9226">
        <ele>57.42</ele>
        <time>2021-03-20T15:11:19Z</time>
      </trkpt>
      <trkpt lat="56.40897" lon="-4.92383">
        <ele>58.61</ele>
        <time>2021-03-20T15:11:21Z</time>
      </trkpt>
      <trkpt lat="56.40883" lon="-4.92413">
        <ele>58.78</ele>
        <time>2021-03-20T15:11:24Z</time>
      </trkpt>
      <trkpt lat="56.40848" lon="-4.92528">
        <ele>56.46</ele>
        <time>2021-03-20T15:11:26Z</time>
      </trkpt>
      <trkpt lat="56.40835" lon="-4.92553">
        <ele>56.05</ele>
        <time>2021-03-20T15:11:28Z</time>
      </trkpt>
      <trkpt lat="56.40826" lon="-4.92564">
        <ele>55.88</ele>
        <time>2021-03-20T15:11:30Z</time>
      </trkpt>
      <trkpt lat="56.40811" lon="-4.92571">
        <ele>55.83</ele>
        <time>2021-03-20T15:11:32Z</time>
      </trkpt>
      <trkpt lat="56.40797" lon="-4.92569">
        <ele>55.86</ele>
        <time>2021-03-20T15:11:34Z</time>
      </trkpt>
      <trkpt lat="56.40784" lon="-4.92561">
        <ele>55.97</ele>
        <time>2021-03-20T15:11:37Z</time>
      </trkpt>
      <trkpt lat="56.40675" lon="-4.92458">
        <ele>54.99</ele>
        <time>2021-03-20T15:11:39Z</time>
      </trkpt>
      <trkpt lat="56.40658" lon="-4.92444">
        <ele>55.01</ele>
        <time>2021-03-20T15:11:41Z</time>
      </trkpt>
      <trkpt lat="56.40631" lon="-4.9243">
        <ele>55</ele>
        <time>2021-03-20T15:11:43Z</time>
      </trkpt>
      <trkpt lat="56.40576" lon="-4.92412">
        <ele>54.63</ele>
        <time>2021-03-20T15:11:46Z</time>
      </trkpt>
      <trkpt lat="56.4055" lon="-4.92949">
        <ele>56.83</ele>
        <time>2021-03-20T15:11:50Z</time>
      </trkpt>
      <trkpt lat="56.40546" lon="-4.92997">
        <ele>55.1</ele>
        <time>2021-03-20T15:11:55Z</time>
      </trkpt>
      <trkpt lat="56.40535" lon="-4.93083">
        <ele>53.74</ele>
        <time>2021-03-20T15:12:00Z</time>
      </trkpt>
      <trkpt lat="56.40486" lon="-4.93355">
        <ele>52.21</ele>
        <time>2021-03-20T15:12:05Z</time>
      </trkpt>
      <trkpt lat="56.40483" lon="-4.93394">
        <ele>51.6</ele>
        <time>2021-03-20T15:12:10Z</time>
      </trkpt>
      <trkpt lat="56.40483" lon="-4.93617">
        <ele>51.76</ele>
        <time>2021-03-20T15:12:14Z</time>
      </trkpt>
      <trkpt lat="56.40488" lon="-4.94011">
        <ele>52.06</ele>
        <time>2021-03-20T15:12:19Z</time>
      </trkpt>
      <trkpt lat="56.40486" lon="-4.94059">
        <ele>52.42</ele>
        <time>2021-03-20T15:12:24Z</time>
      </trkpt>
      <trkpt lat="56.40482" lon="-4.94103">
        <ele>51.96</ele>
        <time>2021-03-20T15:12:29Z</time>
      </trkpt>
      <trkpt lat="56.40474" lon="-4.94145">
        <ele>51.33</ele>
        <time>2021-03-20T15:12:34Z</time>
      </trkpt>
      <trkpt lat="56.4044" lon="-4.94272">
        <ele>49.2</ele>
        <time>2021-03-20T15:12:38Z</time>
      </trkpt>
      <trkpt lat="56.40427" lon="-4.94329">
        <ele>46.01</ele>
        <time>2021-03-20T15:12:43Z</time>
      </trkpt>
      <trkpt lat="56.40417" lon="-4.94391">
        <ele>44.06</ele>
        <time>2021-03-20T15:12:48Z</time>
      </trkpt>
      <trkpt lat="56.40395" lon="-4.94683">
        <ele>49.6</ele>
        <time>2021-03-20T15:12:53Z</time>
      </trkpt>
      <trkpt lat="56.40365" lon="-4.95011">
        <ele>52.21</ele>
        <time>2021-03-20T15:12:58Z</time>
      </trkpt>
      <trkpt lat="56.40291" lon="-4.95613">
        <ele>50.48</ele>
        <time>2021-03-20T15:13:02Z</time>
      </trkpt>
      <trkpt lat="56.40285" lon="-4.9568">
        <ele>50.02</ele>
        <time>2021-03-20T15:13:07Z</time>
      </trkpt>
      <trkpt lat="56.40282" lon="-4.95757">
        <ele>48.43</ele>
        <time>2021-03-20T15:13:12Z</time>
      </trkpt>
      <trkpt lat="56.40291" lon="-4.95936">
        <ele>47.52</ele>
        <time>2021-03-20T15:13:17Z</time>
      </trkpt>
      <trkpt lat="56.40297" lon="-4.96037">
        <ele>49</ele>
        <time>2021-03-20T15:13:21Z</time>
      </trkpt>
      <trkpt lat="56.40301" lon="-4.96168">
        <ele>49.03</ele>
        <time>2021-03-20T15:13:26Z</time>
      </trkpt>
      <trkpt lat="56.40301" lon="-4.96187">
        <ele>49.61</ele>
        <time>2021-03-20T15:13:31Z</time>
      </trkpt>
      <trkpt lat="56.40297" lon="-4.96232">
        <ele>49.55</ele>
        <time>2021-03-20T15:13:36Z</time>
      </trkpt>
      <trkpt lat="56.4026" lon="-4.96442">
        <ele>47.94</ele>
        <time>2021-03-20T15:13:41Z</time>
      </trkpt>
      <trkpt lat="56.40259" lon="-4.96476">
        <ele>47.99</ele>
        <time>2021-03-20T15:13:45Z</time>
      </trkpt>
      <trkpt lat="56.40264" lon="-4.96557">
        <ele>50.09</ele>
        <time>2021-03-20T15:13:50Z</time>
      </trkpt>
      <trkpt lat="56.40272" lon="-4.96643">
        <ele>52.43</ele>
        <time>2021-03-20T15:13:55Z</time>
      </trkpt>
      <trkpt lat="56.40271" lon="-4.96669">
        <ele>52.31</ele>
        <time>2021-03-20T15:14:00Z</time>
      </trkpt>
      <trkpt lat="56.40268" lon="-4.96705">
        <ele>50.74</ele>
        <time>2021-03-20T15:14:05Z</time>
      </trkpt>
      <trkpt lat="56.40261" lon="-4.96742">
        <ele>49.17</ele>
        <time>2021-03-20T15:14:09Z</time>
      </trkpt>
      <trkpt lat="56.40232" lon="-4.96862">
        <ele>46.31</ele>
        <time>2021-03-20T15:14:14Z</time>
      </trkpt>
      <trkpt lat="56.40224" lon="-4.9691">
        <ele>46.77</ele>
        <time>2021-03-20T15:14:19Z</time>
      </trkpt>
      <trkpt lat="56.4022" lon="-4.96988">
        <ele>48.1</ele>
        <time>2021-03-20T15:14:24Z</time>
      </trkpt>
      <trkpt lat="56.40221" lon="-4.97035">
        <ele>49</ele>
        <time>2021-03-20T15:14:29Z</time>
      </trkpt>
      <trkpt lat="56.40232" lon="-4.97057">
        <ele>48.69</ele>
        <time>2021-03-20T15:14:29Z</time>
      </trkpt>
      <trkpt lat="56.40242" lon="-4.97068">
        <ele>48.42</ele>
        <time>2021-03-20T15:14:30Z</time>
      </trkpt>
      <trkpt lat="56.40251" lon="-4.97072">
        <ele>47.93</ele>
        <time>2021-03-20T15:14:31Z</time>
      </trkpt>
      <trkpt lat="56.40238" lon="-4.97084">
        <ele>48.9</ele>
        <time>2021-03-20T15:14:32Z</time>
      </trkpt>
      <trkpt lat="56.40228" lon="-4.97104">
        <ele>49.62</ele>
        <time>2021-03-20T15:14:32Z</time>
      </trkpt>
      <trkpt lat="56.40243" lon="-4.97193">
        <ele>47.31</ele>
        <time>2021-03-20T15:14:36Z</time>
      </trkpt>
      <trkpt lat="56.40254" lon="-4.97275">
        <ele>45.86</ele>
        <time>2021-03-20T15:14:41Z</time>
      </trkpt>
      <trkpt lat="56.40259" lon="-4.97326">
        <ele>44.69</ele>
        <time>2021-03-20T15:14:45Z</time>
      </trkpt>
      <trkpt lat="56.40261" lon="-4.97432">
        <ele>45.6</ele>
        <time>2021-03-20T15:14:49Z</time>
      </trkpt>
      <trkpt lat="56.40259" lon="-4.97513">
        <ele>45.37</ele>
        <time>2021-03-20T15:14:53Z</time>
      </trkpt>
      <trkpt lat="56.40251" lon="-4.97592">
        <ele>43.67</ele>
        <time>2021-03-20T15:14:57Z</time>
      </trkpt>
      <trkpt lat="56.40225" lon="-4.97763">
        <ele>42.23</ele>
        <time>2021-03-20T15:15:01Z</time>
      </trkpt>
      <trkpt lat="56.40213" lon="-4.97756">
        <ele>44.34</ele>
        <time>2021-03-20T15:15:04Z</time>
      </trkpt>
      <trkpt lat="56.40205" lon="-4.97757">
        <ele>45.72</ele>
        <time>2021-03-20T15:15:06Z</time>
      </trkpt>
      <trkpt lat="56.40193" lon="-4.97768">
        <ele>46.93</ele>
        <time>2021-03-20T15:15:09Z</time>
      </trkpt>
      <trkpt lat="56.40181" lon="-4.97787">
        <ele>49.08</ele>
        <time>2021-03-20T15:15:11Z</time>
      </trkpt>
      <trkpt lat="56.40175" lon="-4.97814">
        <ele>51.24</ele>
        <time>2021-03-20T15:15:14Z</time>
      </trkpt>
      <trkpt lat="56.40175" lon="-4.97845">
        <ele>52.16</ele>
        <time>2021-03-20T15:15:17Z</time>
      </trkpt>
      <trkpt lat="56.40177" lon="-4.97879">
        <ele>52.03</ele>
        <time>2021-03-20T15:15:19Z</time>
      </trkpt>
      <trkpt lat="56.40176" lon="-4.97904">
        <ele>52.13</ele>
        <time>2021-03-20T15:15:22Z</time>
      </trkpt>
      <trkpt lat="56.40169" lon="-4.97929">
        <ele>53.47</ele>
        <time>2021-03-20T15:15:24Z</time>
      </trkpt>
      <trkpt lat="56.40155" lon="-4.9796">
        <ele>54.59</ele>
        <time>2021-03-20T15:15:27Z</time>
      </trkpt>
      <trkpt lat="56.40132" lon="-4.98017">
        <ele>55.6</ele>
        <time>2021-03-20T15:15:29Z</time>
      </trkpt>
      <trkpt lat="56.40131" lon="-4.98046">
        <ele>56.38</ele>
        <time>2021-03-20T15:15:32Z</time>
      </trkpt>
      <trkpt lat="56.40141" lon="-4.98109">
        <ele>57.31</ele>
        <time>2021-03-20T15:15:35Z</time>
      </trkpt>
      <trkpt lat="56.40151" lon="-4.98149">
        <ele>55.66</ele>
        <time>2021-03-20T15:15:37Z</time>
      </trkpt>
      <trkpt lat="56.40149" lon="-4.98181">
        <ele>55.88</ele>
        <time>2021-03-20T15:15:40Z</time>
      </trkpt>
      <trkpt lat="56.40144" lon="-4.98229">
        <ele>57.2</ele>
        <time>2021-03-20T15:15:42Z</time>
      </trkpt>
      <trkpt lat="56.40143" lon="-4.98251">
        <ele>58.24</ele>
        <time>2021-03-20T15:15:45Z</time>
      </trkpt>
      <trkpt lat="56.4015" lon="-4.98319">
        <ele>58.04</ele>
        <time>2021-03-20T15:15:48Z</time>
      </trkpt>
      <trkpt lat="56.40145" lon="-4.98406">
        <ele>61.62</ele>
        <time>2021-03-20T15:15:50Z</time>
      </trkpt>
      <trkpt lat="56.40147" lon="-4.98439">
        <ele>62.99</ele>
        <time>2021-03-20T15:15:53Z</time>
      </trkpt>
      <trkpt lat="56.40144" lon="-4.98464">
        <ele>64.15</ele>
        <time>2021-03-20T15:15:55Z</time>
      </trkpt>
      <trkpt lat="56.40138" lon="-4.9849">
        <ele>65.06</ele>
        <time>2021-03-20T15:15:58Z</time>
      </trkpt>
      <trkpt lat="56.40132" lon="-4.98509">
        <ele>65.52</ele>
        <time>2021-03-20T15:16:01Z</time>
      </trkpt>
      <trkpt lat="56.40129" lon="-4.98528">
        <ele>65.71</ele>
        <time>2021-03-20T15:16:03Z</time>
      </trkpt>
      <trkpt lat="56.40132" lon="-4.98601">
        <ele>64.52</ele>
        <time>2021-03-20T15:16:06Z</time>
      </trkpt>
      <trkpt lat="56.40138" lon="-4.98702">
        <ele>61.52</ele>
        <time>2021-03-20T15:16:08Z</time>
      </trkpt>
      <trkpt lat="56.40143" lon="-4.98723">
        <ele>59.78</ele>
        <time>2021-03-20T15:16:11Z</time>
      </trkpt>
      <trkpt lat="56.40168" lon="-4.98774">
        <ele>56.06</ele>
        <time>2021-03-20T15:16:13Z</time>
      </trkpt>
      <trkpt lat="56.40187" lon="-4.9881">
        <ele>53.51</ele>
        <time>2021-03-20T15:16:16Z</time>
      </trkpt>
      <trkpt lat="56.40195" lon="-4.98815">
        <ele>52.97</ele>
        <time>2021-03-20T15:16:19Z</time>
      </trkpt>
      <trkpt lat="56.40214" lon="-4.98818">
        <ele>52.28</ele>
        <time>2021-03-20T15:16:21Z</time>
      </trkpt>
      <trkpt lat="56.40212" lon="-4.98893">
        <ele>51.2</ele>
        <time>2021-03-20T15:16:24Z</time>
      </trkpt>
      <trkpt lat="56.4021" lon="-4.9893">
        <ele>49.96</ele>
        <time>2021-03-20T15:16:27Z</time>
      </trkpt>
      <trkpt lat="56.40206" lon="-4.98966">
        <ele>48.83</ele>
        <time>2021-03-20T15:16:31Z</time>
      </trkpt>
      <trkpt lat="56.40192" lon="-4.99052">
        <ele>49.21</ele>
        <time>2021-03-20T15:16:34Z</time>
      </trkpt>
      <trkpt lat="56.40183" lon="-4.99129">
        <ele>48.22</ele>
        <time>2021-03-20T15:16:37Z</time>
      </trkpt>
      <trkpt lat="56.40182" lon="-4.99159">
        <ele>47.47</ele>
        <time>2021-03-20T15:16:40Z</time>
      </trkpt>
      <trkpt lat="56.40185" lon="-4.99213">
        <ele>47.69</ele>
        <time>2021-03-20T15:16:43Z</time>
      </trkpt>
      <trkpt lat="56.40196" lon="-4.9927">
        <ele>46.92</ele>
        <time>2021-03-20T15:16:46Z</time>
      </trkpt>
      <trkpt lat="56.40204" lon="-4.99303">
        <ele>45.38</ele>
        <time>2021-03-20T15:16:49Z</time>
      </trkpt>
      <trkpt lat="56.40377" lon="-4.99842">
        <ele>49.01</ele>
        <time>2021-03-20T15:16:52Z</time>
      </trkpt>
      <trkpt lat="56.40389" lon="-4.9989">
        <ele>49.05</ele>
        <time>2021-03-20T15:16:55Z</time>
      </trkpt>
      <trkpt lat="56.40396" lon="-4.99942">
        <ele>47.67</ele>
        <time>2021-03-20T15:16:59Z</time>
      </trkpt>
      <trkpt lat="56.40424" lon="-5.00171">
        <ele>43.96</ele>
        <time>2021-03-20T15:17:02Z</time>
      </trkpt>
      <trkpt lat="56.40426" lon="-5.00203">
        <ele>44.08</ele>
        <time>2021-03-20T15:17:05Z</time>
      </trkpt>
      <trkpt lat="56.40426" lon="-5.0024">
        <ele>44.33</ele>
        <time>2021-03-20T15:17:08Z</time>
      </trkpt>
      <trkpt lat="56.40423" lon="-5.00275">
        <ele>44.51</ele>
        <time>2021-03-20T15:17:11Z</time>
      </trkpt>
      <trkpt lat="56.40399" lon="-5.00421">
        <ele>45.4</ele>
        <time>2021-03-20T15:17:14Z</time>
      </trkpt>
      <trkpt lat="56.40393" lon="-5.00496">
        <ele>43.48</ele>
        <time>2021-03-20T15:17:17Z</time>
      </trkpt>
      <trkpt lat="56.40393" lon="-5.00541">
        <ele>43.47</ele>
        <time>2021-03-20T15:17:20Z</time>
      </trkpt>
      <trkpt lat="56.40395" lon="-5.00583">
        <ele>42.08</ele>
        <time>2021-03-20T15:17:23Z</time>
      </trkpt>
      <trkpt lat="56.40408" lon="-5.00689">
        <ele>40.51</ele>
        <time>2021-03-20T15:17:27Z</time>
      </trkpt>
      <trkpt lat="56.40441" lon="-5.00873">
        <ele>43.56</ele>
        <time>2021-03-20T15:17:30Z</time>
      </trkpt>
      <trkpt lat="56.40458" lon="-5.00943">
        <ele>44.05</ele>
        <time>2021-03-20T15:17:33Z</time>
      </trkpt>
      <trkpt lat="56.40479" lon="-5.01015">
        <ele>43.74</ele>
        <time>2021-03-20T15:17:36Z</time>
      </trkpt>
      <trkpt lat="56.40554" lon="-5.0123">
        <ele>40.04</ele>
        <time>2021-03-20T15:17:39Z</time>
      </trkpt>
      <trkpt lat="56.40546" lon="-5.01237">
        <ele>40.33</ele>
        <time>2021-03-20T15:17:43Z</time>
      </trkpt>
      <trkpt lat="56.40516" lon="-5.01235">
        <ele>41.84</ele>
        <time>2021-03-20T15:17:47Z</time>
      </trkpt>
      <trkpt lat="56.40495" lon="-5.01243">
        <ele>43.53</ele>
        <time>2021-03-20T15:17:51Z</time>
      </trkpt>
      <trkpt lat="56.40464" lon="-5.01279">
        <ele>46.56</ele>
        <time>2021-03-20T15:17:55Z</time>
      </trkpt>
      <trkpt lat="56.40381" lon="-5.01393">
        <ele>47.55</ele>
        <time>2021-03-20T15:17:59Z</time>
      </trkpt>
      <trkpt lat="56.40358" lon="-5.01431">
        <ele>49.19</ele>
        <time>2021-03-20T15:18:03Z</time>
      </trkpt>
      <trkpt lat="56.4034" lon="-5.01469">
        <ele>51.41</ele>
        <time>2021-03-20T15:18:07Z</time>
      </trkpt>
      <trkpt lat="56.40311" lon="-5.01545">
        <ele>55.46</ele>
        <time>2021-03-20T15:18:11Z</time>
      </trkpt>
      <trkpt lat="56.40282" lon="-5.01651">
        <ele>55</ele>
        <time>2021-03-20T15:18:14Z</time>
      </trkpt>
      <trkpt lat="56.40254" lon="-5.01737">
        <ele>56.48</ele>
        <time>2021-03-20T15:18:18Z</time>
      </trkpt>
      <trkpt lat="56.40235" lon="-5.01781">
        <ele>56.36</ele>
        <time>2021-03-20T15:18:22Z</time>
      </trkpt>
      <trkpt lat="56.40214" lon="-5.01826">
        <ele>56.39</ele>
        <time>2021-03-20T15:18:26Z</time>
      </trkpt>
      <trkpt lat="56.40155" lon="-5.01923">
        <ele>56.76</ele>
        <time>2021-03-20T15:18:30Z</time>
      </trkpt>
      <trkpt lat="56.40116" lon="-5.02014">
        <ele>56.73</ele>
        <time>2021-03-20T15:18:34Z</time>
      </trkpt>
      <trkpt lat="56.39998" lon="-5.0245">
        <ele>49.15</ele>
        <time>2021-03-20T15:18:38Z</time>
      </trkpt>
      <trkpt lat="56.39907" lon="-5.02769">
        <ele>54.82</ele>
        <time>2021-03-20T15:18:42Z</time>
      </trkpt>
      <trkpt lat="56.39881" lon="-5.02887">
        <ele>52.45</ele>
        <time>2021-03-20T15:18:46Z</time>
      </trkpt>
      <trkpt lat="56.39875" lon="-5.02968">
        <ele>48.66</ele>
        <time>2021-03-20T15:18:50Z</time>
      </trkpt>
      <trkpt lat="56.39879" lon="-5.03201">
        <ele>48.61</ele>
        <time>2021-03-20T15:18:54Z</time>
      </trkpt>
      <trkpt lat="56.39867" lon="-5.03296">
        <ele>45.11</ele>
        <time>2021-03-20T15:18:58Z</time>
      </trkpt>
      <trkpt lat="56.39845" lon="-5.03389">
        <ele>42.4</ele>
        <time>2021-03-20T15:19:02Z</time>
      </trkpt>
      <trkpt lat="56.39697" lon="-5.03774">
        <ele>56.65</ele>
        <time>2021-03-20T15:19:06Z</time>
      </trkpt>
      <trkpt lat="56.39655" lon="-5.03847">
        <ele>52.03</ele>
        <time>2021-03-20T15:19:10Z</time>
      </trkpt>
      <trkpt lat="56.39604" lon="-5.03896">
        <ele>55.38</ele>
        <time>2021-03-20T15:19:13Z</time>
      </trkpt>
      <trkpt lat="56.39523" lon="-5.03943">
        <ele>56.13</ele>
        <time>2021-03-20T15:19:17Z</time>
      </trkpt>
      <trkpt lat="56.39393" lon="-5.04005">
        <ele>50.94</ele>
        <time>2021-03-20T15:19:21Z</time>
      </trkpt>
      <trkpt lat="56.39339" lon="-5.0406">
        <ele>47.74</ele>
        <time>2021-03-20T15:19:25Z</time>
      </trkpt>
      <trkpt lat="56.39298" lon="-5.04124">
        <ele>52.8</ele>
        <time>2021-03-20T15:19:29Z</time>
      </trkpt>
      <trkpt lat="56.39245" lon="-5.04235">
        <ele>54.65</ele>
        <time>2021-03-20T15:19:33Z</time>
      </trkpt>
      <trkpt lat="56.39175" lon="-5.04373">
        <ele>58.72</ele>
        <time>2021-03-20T15:19:37Z</time>
      </trkpt>
      <trkpt lat="56.39145" lon="-5.04412">
        <ele>59.67</ele>
        <time>2021-03-20T15:19:41Z</time>
      </trkpt>
      <trkpt lat="56.39107" lon="-5.04437">
        <ele>60.02</ele>
        <time>2021-03-20T15:19:45Z</time>
      </trkpt>
      <trkpt lat="56.39078" lon="-5.04442">
        <ele>62.48</ele>
        <time>2021-03-20T15:19:49Z</time>
      </trkpt>
      <trkpt lat="56.39038" lon="-5.04439">
        <ele>64.58</ele>
        <time>2021-03-20T15:19:53Z</time>
      </trkpt>
      <trkpt lat="56.39013" lon="-5.04426">
        <ele>62.98</ele>
        <time>2021-03-20T15:19:57Z</time>
      </trkpt>
      <trkpt lat="56.38991" lon="-5.0441">
        <ele>60.39</ele>
        <time>2021-03-20T15:20:01Z</time>
      </trkpt>
      <trkpt lat="56.38953" lon="-5.04371">
        <ele>55.35</ele>
        <time>2021-03-20T15:20:05Z</time>
      </trkpt>
      <trkpt lat="56.38869" lon="-5.042">
        <ele>59.67</ele>
        <time>2021-03-20T15:20:09Z</time>
      </trkpt>
      <trkpt lat="56.38811" lon="-5.04095">
        <ele>61.34</ele>
        <time>2021-03-20T15:20:13Z</time>
      </trkpt>
      <trkpt lat="56.38759" lon="-5.04029">
        <ele>58.31</ele>
        <time>2021-03-20T15:20:16Z</time>
      </trkpt>
      <trkpt lat="56.38697" lon="-5.03984">
        <ele>56.76</ele>
        <time>2021-03-20T15:20:20Z</time>
      </trkpt>
      <trkpt lat="56.38668" lon="-5.0395">
        <ele>55.9</ele>
        <time>2021-03-20T15:20:24Z</time>
      </trkpt>
      <trkpt lat="56.38643" lon="-5.03903">
        <ele>53.1</ele>
        <time>2021-03-20T15:20:28Z</time>
      </trkpt>
      <trkpt lat="56.386" lon="-5.03805">
        <ele>47.06</ele>
        <time>2021-03-20T15:20:32Z</time>
      </trkpt>
      <trkpt lat="56.38582" lon="-5.03785">
        <ele>43.85</ele>
        <time>2021-03-20T15:20:36Z</time>
      </trkpt>
      <trkpt lat="56.3856" lon="-5.03769">
        <ele>43.48</ele>
        <time>2021-03-20T15:20:40Z</time>
      </trkpt>
      <trkpt lat="56.38528" lon="-5.03766">
        <ele>43.86</ele>
        <time>2021-03-20T15:20:44Z</time>
      </trkpt>
      <trkpt lat="56.38496" lon="-5.03777">
        <ele>44.19</ele>
        <time>2021-03-20T15:20:48Z</time>
      </trkpt>
      <trkpt lat="56.3843" lon="-5.03823">
        <ele>45.06</ele>
        <time>2021-03-20T15:20:52Z</time>
      </trkpt>
      <trkpt lat="56.38395" lon="-5.03844">
        <ele>48.76</ele>
        <time>2021-03-20T15:20:56Z</time>
      </trkpt>
      <trkpt lat="56.38227" lon="-5.039">
        <ele>56.69</ele>
        <time>2021-03-20T15:21:00Z</time>
      </trkpt>
      <trkpt lat="56.38186" lon="-5.03928">
        <ele>51.94</ele>
        <time>2021-03-20T15:21:04Z</time>
      </trkpt>
      <trkpt lat="56.38153" lon="-5.03959">
        <ele>45.52</ele>
        <time>2021-03-20T15:21:08Z</time>
      </trkpt>
      <trkpt lat="56.38123" lon="-5.03997">
        <ele>42.53</ele>
        <time>2021-03-20T15:21:12Z</time>
      </trkpt>
      <trkpt lat="56.38087" lon="-5.04052">
        <ele>41</ele>
        <time>2021-03-20T15:21:15Z</time>
      </trkpt>
      <trkpt lat="56.38048" lon="-5.04142">
        <ele>40.72</ele>
        <time>2021-03-20T15:21:19Z</time>
      </trkpt>
      <trkpt lat="56.3802" lon="-5.04223">
        <ele>40</ele>
        <time>2021-03-20T15:21:23Z</time>
      </trkpt>
      <trkpt lat="56.38002" lon="-5.04267">
        <ele>40</ele>
        <time>2021-03-20T15:21:27Z</time>
      </trkpt>
      <trkpt lat="56.37984" lon="-5.04305">
        <ele>39.58</ele>
        <time>2021-03-20T15:21:31Z</time>
      </trkpt>
      <trkpt lat="56.37964" lon="-5.04334">
        <ele>39.99</ele>
        <time>2021-03-20T15:21:35Z</time>
      </trkpt>
      <trkpt lat="56.37933" lon="-5.04365">
        <ele>40.42</ele>
        <time>2021-03-20T15:21:39Z</time>
      </trkpt>
      <trkpt lat="56.37686" lon="-5.04558">
        <ele>54.21</ele>
        <time>2021-03-20T15:21:43Z</time>
      </trkpt>
      <trkpt lat="56.37454" lon="-5.04729">
        <ele>64.28</ele>
        <time>2021-03-20T15:21:47Z</time>
      </trkpt>
      <trkpt lat="56.37426" lon="-5.04755">
        <ele>63.88</ele>
        <time>2021-03-20T15:21:51Z</time>
      </trkpt>
      <trkpt lat="56.37408" lon="-5.04776">
        <ele>64.35</ele>
        <time>2021-03-20T15:21:55Z</time>
      </trkpt>
      <trkpt lat="56.37395" lon="-5.04798">
        <ele>64.1</ele>
        <time>2021-03-20T15:21:59Z</time>
      </trkpt>
      <trkpt lat="56.37385" lon="-5.04818">
        <ele>63.69</ele>
        <time>2021-03-20T15:22:03Z</time>
      </trkpt>
      <trkpt lat="56.37366" lon="-5.04874">
        <ele>62.36</ele>
        <time>2021-03-20T15:22:07Z</time>
      </trkpt>
      <trkpt lat="56.37359" lon="-5.04906">
        <ele>61.23</ele>
        <time>2021-03-20T15:22:11Z</time>
      </trkpt>
      <trkpt lat="56.37322" lon="-5.05139">
        <ele>55.58</ele>
        <time>2021-03-20T15:22:14Z</time>
      </trkpt>
      <trkpt lat="56.37304" lon="-5.05226">
        <ele>55.16</ele>
        <time>2021-03-20T15:22:18Z</time>
      </trkpt>
      <trkpt lat="56.37204" lon="-5.05597">
        <ele>57.6</ele>
        <time>2021-03-20T15:22:22Z</time>
      </trkpt>
      <trkpt lat="56.3712" lon="-5.05853">
        <ele>54.53</ele>
        <time>2021-03-20T15:22:26Z</time>
      </trkpt>
      <trkpt lat="56.37105" lon="-5.05883">
        <ele>55.14</ele>
        <time>2021-03-20T15:22:30Z</time>
      </trkpt>
      <trkpt lat="56.37042" lon="-5.05991">
        <ele>52.54</ele>
        <time>2021-03-20T15:22:34Z</time>
      </trkpt>
      <trkpt lat="56.37023" lon="-5.06013">
        <ele>54.11</ele>
        <time>2021-03-20T15:22:38Z</time>
      </trkpt>
      <trkpt lat="56.37008" lon="-5.06023">
        <ele>54.5</ele>
        <time>2021-03-20T15:22:42Z</time>
      </trkpt>
      <trkpt lat="56.36974" lon="-5.0603">
        <ele>54.91</ele>
        <time>2021-03-20T15:22:46Z</time>
      </trkpt>
      <trkpt lat="56.36959" lon="-5.06026">
        <ele>54.07</ele>
        <time>2021-03-20T15:22:50Z</time>
      </trkpt>
      <trkpt lat="56.36941" lon="-5.06018">
        <ele>53.09</ele>
        <time>2021-03-20T15:22:54Z</time>
      </trkpt>
      <trkpt lat="56.36916" lon="-5.05999">
        <ele>51.99</ele>
        <time>2021-03-20T15:22:58Z</time>
      </trkpt>
      <trkpt lat="56.3683" lon="-5.05925">
        <ele>48.83</ele>
        <time>2021-03-20T15:23:02Z</time>
      </trkpt>
      <trkpt lat="56.3677" lon="-5.05876">
        <ele>47.94</ele>
        <time>2021-03-20T15:23:06Z</time>
      </trkpt>
      <trkpt lat="56.36754" lon="-5.05866">
        <ele>48.62</ele>
        <time>2021-03-20T15:23:10Z</time>
      </trkpt>
      <trkpt lat="56.36734" lon="-5.0586">
        <ele>48.49</ele>
        <time>2021-03-20T15:23:13Z</time>
      </trkpt>
      <trkpt lat="56.36671" lon="-5.05859">
        <ele>48.29</ele>
        <time>2021-03-20T15:23:17Z</time>
      </trkpt>
      <trkpt lat="56.36574" lon="-5.05867">
        <ele>45.43</ele>
        <time>2021-03-20T15:23:21Z</time>
      </trkpt>
      <trkpt lat="56.36558" lon="-5.0587">
        <ele>44.75</ele>
        <time>2021-03-20T15:23:25Z</time>
      </trkpt>
      <trkpt lat="56.36543" lon="-5.05878">
        <ele>44.4</ele>
        <time>2021-03-20T15:23:29Z</time>
      </trkpt>
      <trkpt lat="56.36519" lon="-5.05897">
        <ele>44.38</ele>
        <time>2021-03-20T15:23:33Z</time>
      </trkpt>
      <trkpt lat="56.36507" lon="-5.05912">
        <ele>44.69</ele>
        <time>2021-03-20T15:23:37Z</time>
      </trkpt>
      <trkpt lat="56.36497" lon="-5.05929">
        <ele>45.04</ele>
        <time>2021-03-20T15:23:41Z</time>
      </trkpt>
      <trkpt lat="56.36484" lon="-5.05959">
        <ele>45.82</ele>
        <time>2021-03-20T15:23:45Z</time>
      </trkpt>
      <trkpt lat="56.36464" lon="-5.06038">
        <ele>48.68</ele>
        <time>2021-03-20T15:23:49Z</time>
      </trkpt>
      <trkpt lat="56.36451" lon="-5.06117">
        <ele>49.17</ele>
        <time>2021-03-20T15:23:53Z</time>
      </trkpt>
      <trkpt lat="56.36439" lon="-5.06168">
        <ele>49.43</ele>
        <time>2021-03-20T15:23:57Z</time>
      </trkpt>
      <trkpt lat="56.36374" lon="-5.06379">
        <ele>62.42</ele>
        <time>2021-03-20T15:24:01Z</time>
      </trkpt>
      <trkpt lat="56.36361" lon="-5.06415">
        <ele>65.1</ele>
        <time>2021-03-20T15:24:05Z</time>
      </trkpt>
      <trkpt lat="56.36348" lon="-5.0644">
        <ele>67.24</ele>
        <time>2021-03-20T15:24:09Z</time>
      </trkpt>
      <trkpt lat="56.36284" lon="-5.06545">
        <ele>70.65</ele>
        <time>2021-03-20T15:24:12Z</time>
      </trkpt>
      <trkpt lat="56.36203" lon="-5.06735">
        <ele>72.88</ele>
        <time>2021-03-20T15:24:16Z</time>
      </trkpt>
      <trkpt lat="56.36178" lon="-5.06783">
        <ele>74.54</ele>
        <time>2021-03-20T15:24:20Z</time>
      </trkpt>
      <trkpt lat="56.36145" lon="-5.06836">
        <ele>77.42</ele>
        <time>2021-03-20T15:24:24Z</time>
      </trkpt>
      <trkpt lat="56.36101" lon="-5.06898">
        <ele>85.64</ele>
        <time>2021-03-20T15:24:28Z</time>
      </trkpt>
      <trkpt lat="56.35984" lon="-5.07049">
        <ele>90.63</ele>
        <time>2021-03-20T15:24:32Z</time>
      </trkpt>
      <trkpt lat="56.35861" lon="-5.07185">
        <ele>89.38</ele>
        <time>2021-03-20T15:24:36Z</time>
      </trkpt>
      <trkpt lat="56.35846" lon="-5.07205">
        <ele>90.63</ele>
        <time>2021-03-20T15:24:40Z</time>
      </trkpt>
      <trkpt lat="56.35818" lon="-5.07255">
        <ele>93.28</ele>
        <time>2021-03-20T15:24:44Z</time>
      </trkpt>
      <trkpt lat="56.35791" lon="-5.07312">
        <ele>94.42</ele>
        <time>2021-03-20T15:24:48Z</time>
      </trkpt>
      <trkpt lat="56.35777" lon="-5.07339">
        <ele>94.43</ele>
        <time>2021-03-20T15:24:52Z</time>
      </trkpt>
      <trkpt lat="56.3576" lon="-5.07365">
        <ele>92.47</ele>
        <time>2021-03-20T15:24:56Z</time>
      </trkpt>
      <trkpt lat="56.35696" lon="-5.07441">
        <ele>96.2</ele>
        <time>2021-03-20T15:25:00Z</time>
      </trkpt>
      <trkpt lat="56.35677" lon="-5.07469">
        <ele>97.21</ele>
        <time>2021-03-20T15:25:04Z</time>
      </trkpt>
      <trkpt lat="56.35651" lon="-5.07513">
        <ele>97.91</ele>
        <time>2021-03-20T15:25:08Z</time>
      </trkpt>
      <trkpt lat="56.35633" lon="-5.07539">
        <ele>99.27</ele>
        <time>2021-03-20T15:25:11Z</time>
      </trkpt>
      <trkpt lat="56.35602" lon="-5.07568">
        <ele>101.29</ele>
        <time>2021-03-20T15:25:15Z</time>
      </trkpt>
      <trkpt lat="56.35564" lon="-5.07595">
        <ele>102</ele>
        <time>2021-03-20T15:25:19Z</time>
      </trkpt>
      <trkpt lat="56.35546" lon="-5.07613">
        <ele>99.82</ele>
        <time>2021-03-20T15:25:23Z</time>
      </trkpt>
      <trkpt lat="56.35529" lon="-5.07642">
        <ele>96.68</ele>
        <time>2021-03-20T15:25:27Z</time>
      </trkpt>
      <trkpt lat="56.35475" lon="-5.07769">
        <ele>91.13</ele>
        <time>2021-03-20T15:25:31Z</time>
      </trkpt>
      <trkpt lat="56.35461" lon="-5.07796">
        <ele>90.36</ele>
        <time>2021-03-20T15:25:35Z</time>
      </trkpt>
      <trkpt lat="56.35448" lon="-5.07815">
        <ele>90.37</ele>
        <time>2021-03-20T15:25:39Z</time>
      </trkpt>
      <trkpt lat="56.35439" lon="-5.07826">
        <ele>90.46</ele>
        <time>2021-03-20T15:25:43Z</time>
      </trkpt>
      <trkpt lat="56.35426" lon="-5.07836">
        <ele>90.56</ele>
        <time>2021-03-20T15:25:47Z</time>
      </trkpt>
      <trkpt lat="56.35411" lon="-5.07844">
        <ele>90.42</ele>
        <time>2021-03-20T15:25:51Z</time>
      </trkpt>
      <trkpt lat="56.35398" lon="-5.07846">
        <ele>89.88</ele>
        <time>2021-03-20T15:25:55Z</time>
      </trkpt>
      <trkpt lat="56.35375" lon="-5.07842">
        <ele>89.17</ele>
        <time>2021-03-20T15:25:59Z</time>
      </trkpt>
      <trkpt lat="56.3535" lon="-5.07828">
        <ele>88.22</ele>
        <time>2021-03-20T15:26:03Z</time>
      </trkpt>
      <trkpt lat="56.35327" lon="-5.078">
        <ele>86.57</ele>
        <time>2021-03-20T15:26:07Z</time>
      </trkpt>
      <trkpt lat="56.35292" lon="-5.07745">
        <ele>86.69</ele>
        <time>2021-03-20T15:26:10Z</time>
      </trkpt>
      <trkpt lat="56.35265" lon="-5.07713">
        <ele>87.65</ele>
        <time>2021-03-20T15:26:14Z</time>
      </trkpt>
      <trkpt lat="56.35253" lon="-5.07702">
        <ele>88.46</ele>
        <time>2021-03-20T15:26:18Z</time>
      </trkpt>
      <trkpt lat="56.35242" lon="-5.07695">
        <ele>88.66</ele>
        <time>2021-03-20T15:26:22Z</time>
      </trkpt>
      <trkpt lat="56.35216" lon="-5.07686">
        <ele>88.62</ele>
        <time>2021-03-20T15:26:26Z</time>
      </trkpt>
      <trkpt lat="56.3519" lon="-5.07686">
        <ele>88.73</ele>
        <time>2021-03-20T15:26:30Z</time>
      </trkpt>
      <trkpt lat="56.35164" lon="-5.07695">
        <ele>89.16</ele>
        <time>2021-03-20T15:26:34Z</time>
      </trkpt>
      <trkpt lat="56.3514" lon="-5.07712">
        <ele>90.32</ele>
        <time>2021-03-20T15:26:38Z</time>
      </trkpt>
      <trkpt lat="56.34999" lon="-5.07826">
        <ele>94.41</ele>
        <time>2021-03-20T15:26:42Z</time>
      </trkpt>
      <trkpt lat="56.34959" lon="-5.07853">
        <ele>98.05</ele>
        <time>2021-03-20T15:26:46Z</time>
      </trkpt>
      <trkpt lat="56.34942" lon="-5.07861">
        <ele>100.15</ele>
        <time>2021-03-20T15:26:50Z</time>
      </trkpt>
      <trkpt lat="56.34919" lon="-5.07866">
        <ele>101.86</ele>
        <time>2021-03-20T15:26:54Z</time>
      </trkpt>
      <trkpt lat="56.34822" lon="-5.07862">
        <ele>109.01</ele>
        <time>2021-03-20T15:26:58Z</time>
      </trkpt>
      <trkpt lat="56.34798" lon="-5.07867">
        <ele>109.48</ele>
        <time>2021-03-20T15:27:02Z</time>
      </trkpt>
      <trkpt lat="56.34779" lon="-5.07878">
        <ele>110.54</ele>
        <time>2021-03-20T15:27:06Z</time>
      </trkpt>
      <trkpt lat="56.34683" lon="-5.07986">
        <ele>118.76</ele>
        <time>2021-03-20T15:27:10Z</time>
      </trkpt>
      <trkpt lat="56.34662" lon="-5.07996">
        <ele>119.04</ele>
        <time>2021-03-20T15:27:13Z</time>
      </trkpt>
      <trkpt lat="56.34637" lon="-5.07987">
        <ele>119.59</ele>
        <time>2021-03-20T15:27:17Z</time>
      </trkpt>
      <trkpt lat="56.34604" lon="-5.0797">
        <ele>120.64</ele>
        <time>2021-03-20T15:27:21Z</time>
      </trkpt>
      <trkpt lat="56.34412" lon="-5.07738">
        <ele>132.72</ele>
        <time>2021-03-20T15:27:25Z</time>
      </trkpt>
      <trkpt lat="56.34369" lon="-5.07703">
        <ele>133.71</ele>
        <time>2021-03-20T15:27:29Z</time>
      </trkpt>
      <trkpt lat="56.34332" lon="-5.07683">
        <ele>136.75</ele>
        <time>2021-03-20T15:27:33Z</time>
      </trkpt>
      <trkpt lat="56.34285" lon="-5.0767">
        <ele>141.71</ele>
        <time>2021-03-20T15:27:37Z</time>
      </trkpt>
      <trkpt lat="56.34235" lon="-5.07668">
        <ele>144.66</ele>
        <time>2021-03-20T15:27:41Z</time>
      </trkpt>
      <trkpt lat="56.34196" lon="-5.07687">
        <ele>148.85</ele>
        <time>2021-03-20T15:27:45Z</time>
      </trkpt>
      <trkpt lat="56.34108" lon="-5.07744">
        <ele>156.86</ele>
        <time>2021-03-20T15:27:49Z</time>
      </trkpt>
      <trkpt lat="56.34064" lon="-5.07754">
        <ele>163.56</ele>
        <time>2021-03-20T15:27:53Z</time>
      </trkpt>
      <trkpt lat="56.34026" lon="-5.07741">
        <ele>166.08</ele>
        <time>2021-03-20T15:27:57Z</time>
      </trkpt>
      <trkpt lat="56.33988" lon="-5.07707">
        <ele>167.81</ele>
        <time>2021-03-20T15:28:01Z</time>
      </trkpt>
      <trkpt lat="56.3386" lon="-5.07537">
        <ele>175.31</ele>
        <time>2021-03-20T15:28:05Z</time>
      </trkpt>
      <trkpt lat="56.33817" lon="-5.07497">
        <ele>181.49</ele>
        <time>2021-03-20T15:28:09Z</time>
      </trkpt>
      <trkpt lat="56.33708" lon="-5.07467">
        <ele>188.68</ele>
        <time>2021-03-20T15:28:12Z</time>
      </trkpt>
      <trkpt lat="56.33676" lon="-5.07447">
        <ele>190.62</ele>
        <time>2021-03-20T15:28:16Z</time>
      </trkpt>
      <trkpt lat="56.33611" lon="-5.0738">
        <ele>195.59</ele>
        <time>2021-03-20T15:28:20Z</time>
      </trkpt>
      <trkpt lat="56.33584" lon="-5.07371">
        <ele>194.7</ele>
        <time>2021-03-20T15:28:24Z</time>
      </trkpt>
      <trkpt lat="56.33544" lon="-5.07366">
        <ele>195.68</ele>
        <time>2021-03-20T15:28:28Z</time>
      </trkpt>
      <trkpt lat="56.33372" lon="-5.07394">
        <ele>203.21</ele>
        <time>2021-03-20T15:28:32Z</time>
      </trkpt>
      <trkpt lat="56.33338" lon="-5.07404">
        <ele>205</ele>
        <time>2021-03-20T15:28:36Z</time>
      </trkpt>
      <trkpt lat="56.33175" lon="-5.07398">
        <ele>208</ele>
        <time>2021-03-20T15:28:40Z</time>
      </trkpt>
      <trkpt lat="56.33016" lon="-5.07403">
        <ele>213</ele>
        <time>2021-03-20T15:28:44Z</time>
      </trkpt>
      <trkpt lat="56.32977" lon="-5.07418">
        <ele>213</ele>
        <time>2021-03-20T15:28:48Z</time>
      </trkpt>
      <trkpt lat="56.32941" lon="-5.07442">
        <ele>212.77</ele>
        <time>2021-03-20T15:28:52Z</time>
      </trkpt>
      <trkpt lat="56.32871" lon="-5.07532">
        <ele>209.24</ele>
        <time>2021-03-20T15:28:56Z</time>
      </trkpt>
      <trkpt lat="56.32842" lon="-5.07558">
        <ele>207.14</ele>
        <time>2021-03-20T15:29:00Z</time>
      </trkpt>
      <trkpt lat="56.32658" lon="-5.07688">
        <ele>206.39</ele>
        <time>2021-03-20T15:29:04Z</time>
      </trkpt>
      <trkpt lat="56.32607" lon="-5.07714">
        <ele>202.25</ele>
        <time>2021-03-20T15:29:08Z</time>
      </trkpt>
      <trkpt lat="56.3247" lon="-5.07766">
        <ele>192.91</ele>
        <time>2021-03-20T15:29:11Z</time>
      </trkpt>
      <trkpt lat="56.32288" lon="-5.07888">
        <ele>186.81</ele>
        <time>2021-03-20T15:29:15Z</time>
      </trkpt>
      <trkpt lat="56.32243" lon="-5.07924">
        <ele>184.61</ele>
        <time>2021-03-20T15:29:19Z</time>
      </trkpt>
      <trkpt lat="56.32171" lon="-5.07994">
        <ele>180.65</ele>
        <time>2021-03-20T15:29:23Z</time>
      </trkpt>
      <trkpt lat="56.32129" lon="-5.08043">
        <ele>177.93</ele>
        <time>2021-03-20T15:29:27Z</time>
      </trkpt>
      <trkpt lat="56.32068" lon="-5.08135">
        <ele>175.9</ele>
        <time>2021-03-20T15:29:31Z</time>
      </trkpt>
      <trkpt lat="56.32016" lon="-5.0827">
        <ele>176.07</ele>
        <time>2021-03-20T15:29:35Z</time>
      </trkpt>
      <trkpt lat="56.31981" lon="-5.08379">
        <ele>169.13</ele>
        <time>2021-03-20T15:29:39Z</time>
      </trkpt>
      <trkpt lat="56.31963" lon="-5.08419">
        <ele>167.44</ele>
        <time>2021-03-20T15:29:43Z</time>
      </trkpt>
      <trkpt lat="56.31945" lon="-5.08451">
        <ele>165.35</ele>
        <time>2021-03-20T15:29:47Z</time>
      </trkpt>
      <trkpt lat="56.31923" lon="-5.08476">
        <ele>166.26</ele>
        <time>2021-03-20T15:29:51Z</time>
      </trkpt>
      <trkpt lat="56.31873" lon="-5.0851">
        <ele>162.61</ele>
        <time>2021-03-20T15:29:55Z</time>
      </trkpt>
      <trkpt lat="56.31819" lon="-5.08509">
        <ele>158.13</ele>
        <time>2021-03-20T15:29:59Z</time>
      </trkpt>
      <trkpt lat="56.31757" lon="-5.08467">
        <ele>154.99</ele>
        <time>2021-03-20T15:30:03Z</time>
      </trkpt>
      <trkpt lat="56.31726" lon="-5.08453">
        <ele>154.04</ele>
        <time>2021-03-20T15:30:07Z</time>
      </trkpt>
      <trkpt lat="56.31564" lon="-5.0843">
        <ele>148.45</ele>
        <time>2021-03-20T15:30:10Z</time>
      </trkpt>
      <trkpt lat="56.3145" lon="-5.08394">
        <ele>144.35</ele>
        <time>2021-03-20T15:30:14Z</time>
      </trkpt>
      <trkpt lat="56.31417" lon="-5.0839">
        <ele>144.03</ele>
        <time>2021-03-20T15:30:18Z</time>
      </trkpt>
      <trkpt lat="56.31386" lon="-5.08399">
        <ele>143.24</ele>
        <time>2021-03-20T15:30:22Z</time>
      </trkpt>
      <trkpt lat="56.31353" lon="-5.08416">
        <ele>142.38</ele>
        <time>2021-03-20T15:30:26Z</time>
      </trkpt>
      <trkpt lat="56.31324" lon="-5.08447">
        <ele>140.8</ele>
        <time>2021-03-20T15:30:30Z</time>
      </trkpt>
      <trkpt lat="56.31266" lon="-5.08515">
        <ele>140.84</ele>
        <time>2021-03-20T15:30:34Z</time>
      </trkpt>
      <trkpt lat="56.31245" lon="-5.08527">
        <ele>139.96</ele>
        <time>2021-03-20T15:30:38Z</time>
      </trkpt>
      <trkpt lat="56.31217" lon="-5.0853">
        <ele>140.28</ele>
        <time>2021-03-20T15:30:42Z</time>
      </trkpt>
      <trkpt lat="56.31158" lon="-5.08508">
        <ele>140.81</ele>
        <time>2021-03-20T15:30:46Z</time>
      </trkpt>
      <trkpt lat="56.31131" lon="-5.08504">
        <ele>139.96</ele>
        <time>2021-03-20T15:30:50Z</time>
      </trkpt>
      <trkpt lat="56.31016" lon="-5.08525">
        <ele>139.56</ele>
        <time>2021-03-20T15:30:54Z</time>
      </trkpt>
      <trkpt lat="56.3099" lon="-5.08518">
        <ele>138.53</ele>
        <time>2021-03-20T15:30:58Z</time>
      </trkpt>
      <trkpt lat="56.30961" lon="-5.08494">
        <ele>135.71</ele>
        <time>2021-03-20T15:31:02Z</time>
      </trkpt>
      <trkpt lat="56.30914" lon="-5.08443">
        <ele>132</ele>
        <time>2021-03-20T15:31:06Z</time>
      </trkpt>
      <trkpt lat="56.30872" lon="-5.08433">
        <ele>130.76</ele>
        <time>2021-03-20T15:31:09Z</time>
      </trkpt>
      <trkpt lat="56.30844" lon="-5.08442">
        <ele>128.8</ele>
        <time>2021-03-20T15:31:13Z</time>
      </trkpt>
      <trkpt lat="56.30736" lon="-5.0851">
        <ele>128.87</ele>
        <time>2021-03-20T15:31:17Z</time>
      </trkpt>
      <trkpt lat="56.30631" lon="-5.08524">
        <ele>126.27</ele>
        <time>2021-03-20T15:31:21Z</time>
      </trkpt>
      <trkpt lat="56.30584" lon="-5.08543">
        <ele>124.57</ele>
        <time>2021-03-20T15:31:25Z</time>
      </trkpt>
      <trkpt lat="56.30457" lon="-5.08645">
        <ele>122.32</ele>
        <time>2021-03-20T15:31:29Z</time>
      </trkpt>
      <trkpt lat="56.30427" lon="-5.08661">
        <ele>121.95</ele>
        <time>2021-03-20T15:31:33Z</time>
      </trkpt>
      <trkpt lat="56.30307" lon="-5.08691">
        <ele>121.68</ele>
        <time>2021-03-20T15:31:37Z</time>
      </trkpt>
      <trkpt lat="56.30167" lon="-5.08749">
        <ele>116.89</ele>
        <time>2021-03-20T15:31:41Z</time>
      </trkpt>
      <trkpt lat="56.30128" lon="-5.08768">
        <ele>117.17</ele>
        <time>2021-03-20T15:31:45Z</time>
      </trkpt>
      <trkpt lat="56.29978" lon="-5.08859">
        <ele>115.07</ele>
        <time>2021-03-20T15:31:49Z</time>
      </trkpt>
      <trkpt lat="56.29429" lon="-5.09059">
        <ele>106.55</ele>
        <time>2021-03-20T15:31:53Z</time>
      </trkpt>
      <trkpt lat="56.29396" lon="-5.09067">
        <ele>104.96</ele>
        <time>2021-03-20T15:31:57Z</time>
      </trkpt>
      <trkpt lat="56.29357" lon="-5.09067">
        <ele>103.36</ele>
        <time>2021-03-20T15:32:01Z</time>
      </trkpt>
      <trkpt lat="56.29211" lon="-5.09046">
        <ele>103</ele>
        <time>2021-03-20T15:32:05Z</time>
      </trkpt>
      <trkpt lat="56.29169" lon="-5.09049">
        <ele>103</ele>
        <time>2021-03-20T15:32:08Z</time>
      </trkpt>
      <trkpt lat="56.29113" lon="-5.09066">
        <ele>103.66</ele>
        <time>2021-03-20T15:32:12Z</time>
      </trkpt>
      <trkpt lat="56.28738" lon="-5.09232">
        <ele>96.83</ele>
        <time>2021-03-20T15:32:16Z</time>
      </trkpt>
      <trkpt lat="56.28686" lon="-5.09241">
        <ele>94.47</ele>
        <time>2021-03-20T15:32:20Z</time>
      </trkpt>
      <trkpt lat="56.28607" lon="-5.09232">
        <ele>94.95</ele>
        <time>2021-03-20T15:32:24Z</time>
      </trkpt>
      <trkpt lat="56.28548" lon="-5.09249">
        <ele>95.32</ele>
        <time>2021-03-20T15:32:28Z</time>
      </trkpt>
      <trkpt lat="56.28376" lon="-5.094">
        <ele>93.66</ele>
        <time>2021-03-20T15:32:32Z</time>
      </trkpt>
      <trkpt lat="56.28336" lon="-5.09416">
        <ele>91.2</ele>
        <time>2021-03-20T15:32:36Z</time>
      </trkpt>
      <trkpt lat="56.28132" lon="-5.0943">
        <ele>90.72</ele>
        <time>2021-03-20T15:32:40Z</time>
      </trkpt>
      <trkpt lat="56.28097" lon="-5.09426">
        <ele>90</ele>
        <time>2021-03-20T15:32:44Z</time>
      </trkpt>
      <trkpt lat="56.28055" lon="-5.09406">
        <ele>90.26</ele>
        <time>2021-03-20T15:32:48Z</time>
      </trkpt>
      <trkpt lat="56.28001" lon="-5.09364">
        <ele>93.96</ele>
        <time>2021-03-20T15:32:52Z</time>
      </trkpt>
      <trkpt lat="56.27946" lon="-5.09273">
        <ele>93.06</ele>
        <time>2021-03-20T15:32:56Z</time>
      </trkpt>
      <trkpt lat="56.27839" lon="-5.09064">
        <ele>93.3</ele>
        <time>2021-03-20T15:33:00Z</time>
      </trkpt>
      <trkpt lat="56.27771" lon="-5.08968">
        <ele>91.05</ele>
        <time>2021-03-20T15:33:04Z</time>
      </trkpt>
      <trkpt lat="56.27693" lon="-5.08889">
        <ele>90.07</ele>
        <time>2021-03-20T15:33:07Z</time>
      </trkpt>
      <trkpt lat="56.2763" lon="-5.08835">
        <ele>89.13</ele>
        <time>2021-03-20T15:33:11Z</time>
      </trkpt>
      <trkpt lat="56.2749" lon="-5.08748">
        <ele>87.89</ele>
        <time>2021-03-20T15:33:15Z</time>
      </trkpt>
      <trkpt lat="56.2743" lon="-5.08727">
        <ele>87.26</ele>
        <time>2021-03-20T15:33:19Z</time>
      </trkpt>
      <trkpt lat="56.2737" lon="-5.08713">
        <ele>84.99</ele>
        <time>2021-03-20T15:33:23Z</time>
      </trkpt>
      <trkpt lat="56.27297" lon="-5.08708">
        <ele>81.89</ele>
        <time>2021-03-20T15:33:27Z</time>
      </trkpt>
      <trkpt lat="56.27228" lon="-5.08711">
        <ele>78</ele>
        <time>2021-03-20T15:33:31Z</time>
      </trkpt>
      <trkpt lat="56.2697" lon="-5.08807">
        <ele>67.94</ele>
        <time>2021-03-20T15:33:35Z</time>
      </trkpt>
      <trkpt lat="56.26867" lon="-5.08853">
        <ele>67.06</ele>
        <time>2021-03-20T15:33:39Z</time>
      </trkpt>
      <trkpt lat="56.26815" lon="-5.08866">
        <ele>67.82</ele>
        <time>2021-03-20T15:33:43Z</time>
      </trkpt>
      <trkpt lat="56.2676" lon="-5.08867">
        <ele>67.63</ele>
        <time>2021-03-20T15:33:47Z</time>
      </trkpt>
      <trkpt lat="56.26711" lon="-5.08854">
        <ele>64.12</ele>
        <time>2021-03-20T15:33:51Z</time>
      </trkpt>
      <trkpt lat="56.26269" lon="-5.08681">
        <ele>57.7</ele>
        <time>2021-03-20T15:33:55Z</time>
      </trkpt>
      <trkpt lat="56.26189" lon="-5.08659">
        <ele>58.63</ele>
        <time>2021-03-20T15:33:59Z</time>
      </trkpt>
      <trkpt lat="56.26105" lon="-5.0866">
        <ele>58.65</ele>
        <time>2021-03-20T15:34:03Z</time>
      </trkpt>
      <trkpt lat="56.26027" lon="-5.08675">
        <ele>57.38</ele>
        <time>2021-03-20T15:34:07Z</time>
      </trkpt>
      <trkpt lat="56.25966" lon="-5.08698">
        <ele>54.78</ele>
        <time>2021-03-20T15:34:10Z</time>
      </trkpt>
      <trkpt lat="56.25906" lon="-5.08731">
        <ele>52.23</ele>
        <time>2021-03-20T15:34:14Z</time>
      </trkpt>
      <trkpt lat="56.25838" lon="-5.08794">
        <ele>51.76</ele>
        <time>2021-03-20T15:34:18Z</time>
      </trkpt>
      <trkpt lat="56.25755" lon="-5.08885">
        <ele>50.47</ele>
        <time>2021-03-20T15:34:22Z</time>
      </trkpt>
      <trkpt lat="56.25547" lon="-5.09159">
        <ele>53.02</ele>
        <time>2021-03-20T15:34:26Z</time>
      </trkpt>
      <trkpt lat="56.25462" lon="-5.09299">
        <ele>59.66</ele>
        <time>2021-03-20T15:34:30Z</time>
      </trkpt>
      <trkpt lat="56.25448" lon="-5.09317">
        <ele>60.46</ele>
        <time>2021-03-20T15:34:34Z</time>
      </trkpt>
      <trkpt lat="56.25421" lon="-5.09347">
        <ele>57.51</ele>
        <time>2021-03-20T15:34:38Z</time>
      </trkpt>
      <trkpt lat="56.25385" lon="-5.09372">
        <ele>51.29</ele>
        <time>2021-03-20T15:34:42Z</time>
      </trkpt>
      <trkpt lat="56.25354" lon="-5.09386">
        <ele>48.22</ele>
        <time>2021-03-20T15:34:46Z</time>
      </trkpt>
      <trkpt lat="56.25334" lon="-5.0939">
        <ele>47.18</ele>
        <time>2021-03-20T15:34:50Z</time>
      </trkpt>
      <trkpt lat="56.25296" lon="-5.09387">
        <ele>44.57</ele>
        <time>2021-03-20T15:34:54Z</time>
      </trkpt>
      <trkpt lat="56.25278" lon="-5.09381">
        <ele>43.72</ele>
        <time>2021-03-20T15:34:58Z</time>
      </trkpt>
      <trkpt lat="56.25248" lon="-5.09361">
        <ele>44.09</ele>
        <time>2021-03-20T15:35:02Z</time>
      </trkpt>
      <trkpt lat="56.25218" lon="-5.09331">
        <ele>44.19</ele>
        <time>2021-03-20T15:35:06Z</time>
      </trkpt>
      <trkpt lat="56.25175" lon="-5.09275">
        <ele>46.77</ele>
        <time>2021-03-20T15:35:09Z</time>
      </trkpt>
      <trkpt lat="56.25078" lon="-5.0914">
        <ele>48.45</ele>
        <time>2021-03-20T15:35:13Z</time>
      </trkpt>
      <trkpt lat="56.2503" lon="-5.09094">
        <ele>42.13</ele>
        <time>2021-03-20T15:35:17Z</time>
      </trkpt>
      <trkpt lat="56.24988" lon="-5.09078">
        <ele>42.72</ele>
        <time>2021-03-20T15:35:21Z</time>
      </trkpt>
      <trkpt lat="56.24925" lon="-5.09079">
        <ele>43.62</ele>
        <time>2021-03-20T15:35:25Z</time>
      </trkpt>
      <trkpt lat="56.24671" lon="-5.09161">
        <ele>29.34</ele>
        <time>2021-03-20T15:35:29Z</time>
      </trkpt>
      <trkpt lat="56.24521" lon="-5.09196">
        <ele>33.11</ele>
        <time>2021-03-20T15:35:33Z</time>
      </trkpt>
      <trkpt lat="56.24461" lon="-5.09176">
        <ele>30.42</ele>
        <time>2021-03-20T15:35:37Z</time>
      </trkpt>
      <trkpt lat="56.24317" lon="-5.09009">
        <ele>34.58</ele>
        <time>2021-03-20T15:35:41Z</time>
      </trkpt>
      <trkpt lat="56.24221" lon="-5.08886">
        <ele>43.76</ele>
        <time>2021-03-20T15:35:45Z</time>
      </trkpt>
      <trkpt lat="56.24183" lon="-5.08817">
        <ele>41.01</ele>
        <time>2021-03-20T15:35:49Z</time>
      </trkpt>
      <trkpt lat="56.24157" lon="-5.08759">
        <ele>40.7</ele>
        <time>2021-03-20T15:35:53Z</time>
      </trkpt>
      <trkpt lat="56.24122" lon="-5.08681">
        <ele>40.49</ele>
        <time>2021-03-20T15:35:57Z</time>
      </trkpt>
      <trkpt lat="56.24089" lon="-5.08583">
        <ele>38.88</ele>
        <time>2021-03-20T15:36:01Z</time>
      </trkpt>
      <trkpt lat="56.24018" lon="-5.08336">
        <ele>42.14</ele>
        <time>2021-03-20T15:36:05Z</time>
      </trkpt>
      <trkpt lat="56.24003" lon="-5.0829">
        <ele>43.74</ele>
        <time>2021-03-20T15:36:08Z</time>
      </trkpt>
      <trkpt lat="56.23978" lon="-5.08234">
        <ele>46.46</ele>
        <time>2021-03-20T15:36:12Z</time>
      </trkpt>
      <trkpt lat="56.2395" lon="-5.08191">
        <ele>48.23</ele>
        <time>2021-03-20T15:36:16Z</time>
      </trkpt>
      <trkpt lat="56.23899" lon="-5.08118">
        <ele>47.35</ele>
        <time>2021-03-20T15:36:20Z</time>
      </trkpt>
      <trkpt lat="56.23749" lon="-5.07986">
        <ele>44.16</ele>
        <time>2021-03-20T15:36:24Z</time>
      </trkpt>
      <trkpt lat="56.23688" lon="-5.07913">
        <ele>39.77</ele>
        <time>2021-03-20T15:36:28Z</time>
      </trkpt>
      <trkpt lat="56.23656" lon="-5.07901">
        <ele>38.03</ele>
        <time>2021-03-20T15:36:32Z</time>
      </trkpt>
      <trkpt lat="56.23631" lon="-5.07904">
        <ele>38.83</ele>
        <time>2021-03-20T15:36:36Z</time>
      </trkpt>
      <trkpt lat="56.23481" lon="-5.07975">
        <ele>43.5</ele>
        <time>2021-03-20T15:36:40Z</time>
      </trkpt>
      <trkpt lat="56.23429" lon="-5.08019">
        <ele>46.05</ele>
        <time>2021-03-20T15:36:44Z</time>
      </trkpt>
      <trkpt lat="56.23376" lon="-5.0805">
        <ele>41.33</ele>
        <time>2021-03-20T15:36:48Z</time>
      </trkpt>
      <trkpt lat="56.23363" lon="-5.08051">
        <ele>38.76</ele>
        <time>2021-03-20T15:36:52Z</time>
      </trkpt>
      <trkpt lat="56.23352" lon="-5.08045">
        <ele>36.22</ele>
        <time>2021-03-20T15:36:56Z</time>
      </trkpt>
      <trkpt lat="56.23343" lon="-5.08029">
        <ele>32.48</ele>
        <time>2021-03-20T15:37:00Z</time>
      </trkpt>
      <trkpt lat="56.23308" lon="-5.07951">
        <ele>19.01</ele>
        <time>2021-03-20T15:37:04Z</time>
      </trkpt>
      <trkpt lat="56.23256" lon="-5.07785">
        <ele>10.43</ele>
        <time>2021-03-20T15:37:07Z</time>
      </trkpt>
      <trkpt lat="56.23167" lon="-5.075">
        <ele>7.05</ele>
        <time>2021-03-20T15:37:11Z</time>
      </trkpt>
      <trkpt lat="56.23165" lon="-5.07466">
        <ele>7</ele>
        <time>2021-03-20T15:37:15Z</time>
      </trkpt>
      <trkpt lat="56.2317" lon="-5.07437">
        <ele>7.08</ele>
        <time>2021-03-20T15:37:19Z</time>
      </trkpt>
      <trkpt lat="56.23177" lon="-5.07411">
        <ele>6.78</ele>
        <time>2021-03-20T15:37:23Z</time>
      </trkpt>
      <trkpt lat="56.23194" lon="-5.07374">
        <ele>5.47</ele>
        <time>2021-03-20T15:37:27Z</time>
      </trkpt>
      <trkpt lat="56.23203" lon="-5.07386">
        <ele>5.89</ele>
        <time>2021-03-20T15:37:31Z</time>
      </trkpt>
      <trkpt lat="56.2322" lon="-5.07388">
        <ele>5.95</ele>
        <time>2021-03-20T15:37:35Z</time>
      </trkpt>
      <trkpt lat="56.23263" lon="-5.07376">
        <ele>6.09</ele>
        <time>2021-03-20T15:37:38Z</time>
      </trkpt>
      <trkpt lat="56.23351" lon="-5.07348">
        <ele>8.17</ele>
        <time>2021-03-20T15:37:42Z</time>
      </trkpt>
      <trkpt lat="56.23374" lon="-5.07337">
        <ele>8.74</ele>
        <time>2021-03-20T15:37:46Z</time>
      </trkpt>
      <trkpt lat="56.23415" lon="-5.07304">
        <ele>8.64</ele>
        <time>2021-03-20T15:37:49Z</time>
      </trkpt>
      <trkpt lat="56.23457" lon="-5.07252">
        <ele>5.95</ele>
        <time>2021-03-20T15:37:53Z</time>
      </trkpt>
      <trkpt lat="56.23489" lon="-5.07198">
        <ele>6.56</ele>
        <time>2021-03-20T15:37:57Z</time>
      </trkpt>
      <trkpt lat="56.23566" lon="-5.0705">
        <ele>6.37</ele>
        <time>2021-03-20T15:38:00Z</time>
      </trkpt>
      <trkpt lat="56.23616" lon="-5.06939">
        <ele>4</ele>
        <time>2021-03-20T15:38:04Z</time>
      </trkpt>
      <trkpt lat="56.23717" lon="-5.06725">
        <ele>1.92</ele>
        <time>2021-03-20T15:38:08Z</time>
      </trkpt>
      <trkpt lat="56.23743" lon="-5.06673">
        <ele>0.47</ele>
        <time>2021-03-20T15:38:11Z</time>
      </trkpt>
      <trkpt lat="56.23755" lon="-5.06657">
        <ele>0.36</ele>
        <time>2021-03-20T15:38:15Z</time>
      </trkpt>
      <trkpt lat="56.23772" lon="-5.0664">
        <ele>1.56</ele>
        <time>2021-03-20T15:38:19Z</time>
      </trkpt>
      <trkpt lat="56.23823" lon="-5.06596">
        <ele>2.92</ele>
        <time>2021-03-20T15:38:22Z</time>
      </trkpt>
      <trkpt lat="56.2384" lon="-5.06576">
        <ele>2.53</ele>
        <time>2021-03-20T15:38:26Z</time>
      </trkpt>
      <trkpt lat="56.23858" lon="-5.06551">
        <ele>1.9</ele>
        <time>2021-03-20T15:38:30Z</time>
      </trkpt>
      <trkpt lat="56.23895" lon="-5.06483">
        <ele>4.18</ele>
        <time>2021-03-20T15:38:33Z</time>
      </trkpt>
      <trkpt lat="56.23952" lon="-5.06371">
        <ele>4.35</ele>
        <time>2021-03-20T15:38:37Z</time>
      </trkpt>
      <trkpt lat="56.23975" lon="-5.06334">
        <ele>4.24</ele>
        <time>2021-03-20T15:38:41Z</time>
      </trkpt>
      <trkpt lat="56.24016" lon="-5.06284">
        <ele>5.13</ele>
        <time>2021-03-20T15:38:44Z</time>
      </trkpt>
      <trkpt lat="56.24047" lon="-5.06241">
        <ele>5.39</ele>
        <time>2021-03-20T15:38:48Z</time>
      </trkpt>
      <trkpt lat="56.24147" lon="-5.06068">
        <ele>10.85</ele>
        <time>2021-03-20T15:38:52Z</time>
      </trkpt>
      <trkpt lat="56.24181" lon="-5.06022">
        <ele>11.37</ele>
        <time>2021-03-20T15:38:55Z</time>
      </trkpt>
      <trkpt lat="56.24315" lon="-5.05852">
        <ele>11.03</ele>
        <time>2021-03-20T15:38:59Z</time>
      </trkpt>
      <trkpt lat="56.24365" lon="-5.05803">
        <ele>11.15</ele>
        <time>2021-03-20T15:39:03Z</time>
      </trkpt>
      <trkpt lat="56.24414" lon="-5.05771">
        <ele>13.43</ele>
        <time>2021-03-20T15:39:06Z</time>
      </trkpt>
      <trkpt lat="56.24427" lon="-5.05759">
        <ele>14.09</ele>
        <time>2021-03-20T15:39:10Z</time>
      </trkpt>
      <trkpt lat="56.24479" lon="-5.05673">
        <ele>7.76</ele>
        <time>2021-03-20T15:39:14Z</time>
      </trkpt>
      <trkpt lat="56.24542" lon="-5.05578">
        <ele>20.07</ele>
        <time>2021-03-20T15:39:17Z</time>
      </trkpt>
      <trkpt lat="56.24598" lon="-5.05488">
        <ele>14.37</ele>
        <time>2021-03-20T15:39:21Z</time>
      </trkpt>
      <trkpt lat="56.24666" lon="-5.05393">
        <ele>12.45</ele>
        <time>2021-03-20T15:39:24Z</time>
      </trkpt>
      <trkpt lat="56.24707" lon="-5.05327">
        <ele>7.33</ele>
        <time>2021-03-20T15:39:28Z</time>
      </trkpt>
      <trkpt lat="56.24725" lon="-5.05293">
        <ele>7.64</ele>
        <time>2021-03-20T15:39:32Z</time>
      </trkpt>
      <trkpt lat="56.24718" lon="-5.05288">
        <ele>7.13</ele>
        <time>2021-03-20T15:39:35Z</time>
      </trkpt>
      <trkpt lat="56.24704" lon="-5.05268">
        <ele>6.36</ele>
        <time>2021-03-20T15:39:38Z</time>
      </trkpt>
      <trkpt lat="56.2473" lon="-5.05179">
        <ele>7.54</ele>
        <time>2021-03-20T15:39:45Z</time>
      </trkpt>
      <trkpt lat="56.24734" lon="-5.05159">
        <ele>8.26</ele>
        <time>2021-03-20T15:39:53Z</time>
      </trkpt>
      <trkpt lat="56.24734" lon="-5.05145">
        <ele>8.77</ele>
        <time>2021-03-20T15:40:05Z</time>
      </trkpt>
      <trkpt lat="56.24712" lon="-5.05051">
        <ele>10.24</ele>
        <time>2021-03-20T15:40:17Z</time>
      </trkpt>
      <trkpt lat="56.2462" lon="-5.04684">
        <ele>6.66</ele>
        <time>2021-03-20T15:40:29Z</time>
      </trkpt>
      <trkpt lat="56.24603" lon="-5.04618">
        <ele>5.44</ele>
        <time>2021-03-20T15:40:41Z</time>
      </trkpt>
      <trkpt lat="56.24597" lon="-5.04602">
        <ele>4.63</ele>
        <time>2021-03-20T15:40:53Z</time>
      </trkpt>
      <trkpt lat="56.24573" lon="-5.04504">
        <ele>5.69</ele>
        <time>2021-03-20T15:41:04Z</time>
      </trkpt>
      <trkpt lat="56.24571" lon="-5.04494">
        <ele>6.45</ele>
        <time>2021-03-20T15:41:16Z</time>
      </trkpt>
      <trkpt lat="56.2457" lon="-5.04479">
        <ele>7.51</ele>
        <time>2021-03-20T15:41:28Z</time>
      </trkpt>
      <trkpt lat="56.2453" lon="-5.04471">
        <ele>8.17</ele>
        <time>2021-03-20T15:41:33Z</time>
      </trkpt>
      <trkpt lat="56.24499" lon="-5.04471">
        <ele>10.27</ele>
        <time>2021-03-20T15:41:38Z</time>
      </trkpt>
      <trkpt lat="56.24469" lon="-5.04475">
        <ele>12.02</ele>
        <time>2021-03-20T15:41:43Z</time>
      </trkpt>
      <trkpt lat="56.24113" lon="-5.04609">
        <ele>15.28</ele>
        <time>2021-03-20T15:41:47Z</time>
      </trkpt>
      <trkpt lat="56.23899" lon="-5.04658">
        <ele>12.14</ele>
        <time>2021-03-20T15:41:52Z</time>
      </trkpt>
      <trkpt lat="56.23861" lon="-5.04659">
        <ele>14.71</ele>
        <time>2021-03-20T15:41:57Z</time>
      </trkpt>
      <trkpt lat="56.23809" lon="-5.04665">
        <ele>14.5</ele>
        <time>2021-03-20T15:42:02Z</time>
      </trkpt>
      <trkpt lat="56.2373" lon="-5.04682">
        <ele>15.43</ele>
        <time>2021-03-20T15:42:06Z</time>
      </trkpt>
      <trkpt lat="56.2366" lon="-5.04693">
        <ele>11.88</ele>
        <time>2021-03-20T15:42:11Z</time>
      </trkpt>
      <trkpt lat="56.23619" lon="-5.04693">
        <ele>14.04</ele>
        <time>2021-03-20T15:42:16Z</time>
      </trkpt>
      <trkpt lat="56.23521" lon="-5.04674">
        <ele>17.64</ele>
        <time>2021-03-20T15:42:21Z</time>
      </trkpt>
      <trkpt lat="56.23481" lon="-5.04663">
        <ele>15.87</ele>
        <time>2021-03-20T15:42:26Z</time>
      </trkpt>
      <trkpt lat="56.23445" lon="-5.04646">
        <ele>11.26</ele>
        <time>2021-03-20T15:42:30Z</time>
      </trkpt>
      <trkpt lat="56.23427" lon="-5.04632">
        <ele>9.07</ele>
        <time>2021-03-20T15:42:35Z</time>
      </trkpt>
      <trkpt lat="56.23414" lon="-5.04613">
        <ele>8.22</ele>
        <time>2021-03-20T15:42:40Z</time>
      </trkpt>
      <trkpt lat="56.23406" lon="-5.04587">
        <ele>7.7</ele>
        <time>2021-03-20T15:42:45Z</time>
      </trkpt>
      <trkpt lat="56.23394" lon="-5.04528">
        <ele>6.84</ele>
        <time>2021-03-20T15:42:49Z</time>
      </trkpt>
      <trkpt lat="56.23392" lon="-5.04492">
        <ele>7.35</ele>
        <time>2021-03-20T15:42:54Z</time>
      </trkpt>
      <trkpt lat="56.23412" lon="-5.04328">
        <ele>15.36</ele>
        <time>2021-03-20T15:42:59Z</time>
      </trkpt>
      <trkpt lat="56.23441" lon="-5.04074">
        <ele>14.6</ele>
        <time>2021-03-20T15:43:04Z</time>
      </trkpt>
      <trkpt lat="56.2345" lon="-5.04018">
        <ele>16.43</ele>
        <time>2021-03-20T15:43:09Z</time>
      </trkpt>
      <trkpt lat="56.23478" lon="-5.03888">
        <ele>15.96</ele>
        <time>2021-03-20T15:43:13Z</time>
      </trkpt>
      <trkpt lat="56.2351" lon="-5.03748">
        <ele>14.18</ele>
        <time>2021-03-20T15:43:18Z</time>
      </trkpt>
      <trkpt lat="56.23544" lon="-5.03604">
        <ele>16.83</ele>
        <time>2021-03-20T15:43:23Z</time>
      </trkpt>
      <trkpt lat="56.23578" lon="-5.03467">
        <ele>14.66</ele>
        <time>2021-03-20T15:43:28Z</time>
      </trkpt>
      <trkpt lat="56.23703" lon="-5.0313">
        <ele>15.24</ele>
        <time>2021-03-20T15:43:32Z</time>
      </trkpt>
      <trkpt lat="56.23837" lon="-5.0275">
        <ele>12.01</ele>
        <time>2021-03-20T15:43:37Z</time>
      </trkpt>
      <trkpt lat="56.23977" lon="-5.02379">
        <ele>17.97</ele>
        <time>2021-03-20T15:43:42Z</time>
      </trkpt>
      <trkpt lat="56.24015" lon="-5.02249">
        <ele>20.23</ele>
        <time>2021-03-20T15:43:47Z</time>
      </trkpt>
      <trkpt lat="56.24022" lon="-5.02173">
        <ele>19.45</ele>
        <time>2021-03-20T15:43:51Z</time>
      </trkpt>
      <trkpt lat="56.24031" lon="-5.02032">
        <ele>12.99</ele>
        <time>2021-03-20T15:43:56Z</time>
      </trkpt>
      <trkpt lat="56.24071" lon="-5.01804">
        <ele>15.34</ele>
        <time>2021-03-20T15:44:01Z</time>
      </trkpt>
      <trkpt lat="56.24178" lon="-5.0133">
        <ele>14.06</ele>
        <time>2021-03-20T15:44:06Z</time>
      </trkpt>
      <trkpt lat="56.24228" lon="-5.01138">
        <ele>17.86</ele>
        <time>2021-03-20T15:44:11Z</time>
      </trkpt>
      <trkpt lat="56.24264" lon="-5.01011">
        <ele>17.39</ele>
        <time>2021-03-20T15:44:15Z</time>
      </trkpt>
      <trkpt lat="56.24283" lon="-5.00923">
        <ele>17.84</ele>
        <time>2021-03-20T15:44:20Z</time>
      </trkpt>
      <trkpt lat="56.24305" lon="-5.00767">
        <ele>19.86</ele>
        <time>2021-03-20T15:44:25Z</time>
      </trkpt>
      <trkpt lat="56.24322" lon="-5.00592">
        <ele>16.49</ele>
        <time>2021-03-20T15:44:30Z</time>
      </trkpt>
      <trkpt lat="56.24328" lon="-5.00251">
        <ele>13.1</ele>
        <time>2021-03-20T15:44:34Z</time>
      </trkpt>
      <trkpt lat="56.24359" lon="-4.99814">
        <ele>18.02</ele>
        <time>2021-03-20T15:44:39Z</time>
      </trkpt>
      <trkpt lat="56.24362" lon="-4.9975">
        <ele>16.1</ele>
        <time>2021-03-20T15:44:44Z</time>
      </trkpt>
      <trkpt lat="56.24371" lon="-4.9964">
        <ele>13.85</ele>
        <time>2021-03-20T15:44:49Z</time>
      </trkpt>
      <trkpt lat="56.24378" lon="-4.99593">
        <ele>13.14</ele>
        <time>2021-03-20T15:44:53Z</time>
      </trkpt>
      <trkpt lat="56.24388" lon="-4.99538">
        <ele>12.3</ele>
        <time>2021-03-20T15:44:58Z</time>
      </trkpt>
      <trkpt lat="56.24428" lon="-4.99418">
        <ele>14.25</ele>
        <time>2021-03-20T15:45:03Z</time>
      </trkpt>
      <trkpt lat="56.24498" lon="-4.99187">
        <ele>10.68</ele>
        <time>2021-03-20T15:45:08Z</time>
      </trkpt>
      <trkpt lat="56.24529" lon="-4.99106">
        <ele>12.12</ele>
        <time>2021-03-20T15:45:13Z</time>
      </trkpt>
      <trkpt lat="56.2455" lon="-4.99028">
        <ele>10.97</ele>
        <time>2021-03-20T15:45:17Z</time>
      </trkpt>
      <trkpt lat="56.24571" lon="-4.98958">
        <ele>9.66</ele>
        <time>2021-03-20T15:45:22Z</time>
      </trkpt>
      <trkpt lat="56.24678" lon="-4.98736">
        <ele>16.05</ele>
        <time>2021-03-20T15:45:27Z</time>
      </trkpt>
      <trkpt lat="56.24715" lon="-4.98652">
        <ele>15.3</ele>
        <time>2021-03-20T15:45:32Z</time>
      </trkpt>
      <trkpt lat="56.24773" lon="-4.98506">
        <ele>15.63</ele>
        <time>2021-03-20T15:45:36Z</time>
      </trkpt>
      <trkpt lat="56.24834" lon="-4.98337">
        <ele>12.58</ele>
        <time>2021-03-20T15:45:41Z</time>
      </trkpt>
      <trkpt lat="56.249" lon="-4.98175">
        <ele>12.85</ele>
        <time>2021-03-20T15:45:46Z</time>
      </trkpt>
      <trkpt lat="56.24964" lon="-4.98025">
        <ele>10.47</ele>
        <time>2021-03-20T15:45:51Z</time>
      </trkpt>
      <trkpt lat="56.24995" lon="-4.97977">
        <ele>12.65</ele>
        <time>2021-03-20T15:45:56Z</time>
      </trkpt>
      <trkpt lat="56.2507" lon="-4.97884">
        <ele>15.36</ele>
        <time>2021-03-20T15:46:00Z</time>
      </trkpt>
      <trkpt lat="56.25101" lon="-4.97837">
        <ele>19.54</ele>
        <time>2021-03-20T15:46:05Z</time>
      </trkpt>
      <trkpt lat="56.25134" lon="-4.97777">
        <ele>19.88</ele>
        <time>2021-03-20T15:46:10Z</time>
      </trkpt>
      <trkpt lat="56.25333" lon="-4.97298">
        <ele>21.81</ele>
        <time>2021-03-20T15:46:15Z</time>
      </trkpt>
      <trkpt lat="56.25391" lon="-4.97141">
        <ele>21.98</ele>
        <time>2021-03-20T15:46:19Z</time>
      </trkpt>
      <trkpt lat="56.25411" lon="-4.97084">
        <ele>24.08</ele>
        <time>2021-03-20T15:46:24Z</time>
      </trkpt>
      <trkpt lat="56.25434" lon="-4.97025">
        <ele>25.57</ele>
        <time>2021-03-20T15:46:29Z</time>
      </trkpt>
      <trkpt lat="56.25459" lon="-4.96966">
        <ele>27.76</ele>
        <time>2021-03-20T15:46:34Z</time>
      </trkpt>
      <trkpt lat="56.25494" lon="-4.96893">
        <ele>31.47</ele>
        <time>2021-03-20T15:46:38Z</time>
      </trkpt>
      <trkpt lat="56.25521" lon="-4.9682">
        <ele>30.97</ele>
        <time>2021-03-20T15:46:43Z</time>
      </trkpt>
      <trkpt lat="56.25532" lon="-4.96778">
        <ele>30.64</ele>
        <time>2021-03-20T15:46:48Z</time>
      </trkpt>
      <trkpt lat="56.25573" lon="-4.96544">
        <ele>23.39</ele>
        <time>2021-03-20T15:46:53Z</time>
      </trkpt>
      <trkpt lat="56.25585" lon="-4.96494">
        <ele>23.32</ele>
        <time>2021-03-20T15:46:58Z</time>
      </trkpt>
      <trkpt lat="56.25597" lon="-4.96455">
        <ele>26</ele>
        <time>2021-03-20T15:47:02Z</time>
      </trkpt>
      <trkpt lat="56.25697" lon="-4.96186">
        <ele>28.48</ele>
        <time>2021-03-20T15:47:07Z</time>
      </trkpt>
      <trkpt lat="56.25712" lon="-4.96139">
        <ele>28.08</ele>
        <time>2021-03-20T15:47:12Z</time>
      </trkpt>
      <trkpt lat="56.2572" lon="-4.96104">
        <ele>26.85</ele>
        <time>2021-03-20T15:47:17Z</time>
      </trkpt>
      <trkpt lat="56.25726" lon="-4.96068">
        <ele>25.77</ele>
        <time>2021-03-20T15:47:21Z</time>
      </trkpt>
      <trkpt lat="56.25739" lon="-4.95949">
        <ele>23.61</ele>
        <time>2021-03-20T15:47:26Z</time>
      </trkpt>
      <trkpt lat="56.25767" lon="-4.95786">
        <ele>22.07</ele>
        <time>2021-03-20T15:47:31Z</time>
      </trkpt>
      <trkpt lat="56.25778" lon="-4.9571">
        <ele>23.1</ele>
        <time>2021-03-20T15:47:36Z</time>
      </trkpt>
      <trkpt lat="56.25808" lon="-4.95436">
        <ele>18.46</ele>
        <time>2021-03-20T15:47:41Z</time>
      </trkpt>
      <trkpt lat="56.25825" lon="-4.95311">
        <ele>18.75</ele>
        <time>2021-03-20T15:47:45Z</time>
      </trkpt>
      <trkpt lat="56.25869" lon="-4.95048">
        <ele>10.92</ele>
        <time>2021-03-20T15:47:50Z</time>
      </trkpt>
      <trkpt lat="56.25883" lon="-4.95001">
        <ele>9.19</ele>
        <time>2021-03-20T15:47:55Z</time>
      </trkpt>
      <trkpt lat="56.25892" lon="-4.94973">
        <ele>9.67</ele>
        <time>2021-03-20T15:48:00Z</time>
      </trkpt>
      <trkpt lat="56.25905" lon="-4.94944">
        <ele>9.31</ele>
        <time>2021-03-20T15:48:04Z</time>
      </trkpt>
      <trkpt lat="56.26026" lon="-4.94721">
        <ele>10.49</ele>
        <time>2021-03-20T15:48:09Z</time>
      </trkpt>
      <trkpt lat="56.26136" lon="-4.94513">
        <ele>12.3</ele>
        <time>2021-03-20T15:48:14Z</time>
      </trkpt>
      <trkpt lat="56.26204" lon="-4.94377">
        <ele>8.77</ele>
        <time>2021-03-20T15:48:19Z</time>
      </trkpt>
      <trkpt lat="56.26249" lon="-4.94283">
        <ele>5.51</ele>
        <time>2021-03-20T15:48:23Z</time>
      </trkpt>
      <trkpt lat="56.26289" lon="-4.94204">
        <ele>7.64</ele>
        <time>2021-03-20T15:48:28Z</time>
      </trkpt>
      <trkpt lat="56.26306" lon="-4.9418">
        <ele>9.09</ele>
        <time>2021-03-20T15:48:33Z</time>
      </trkpt>
      <trkpt lat="56.26355" lon="-4.94127">
        <ele>11.35</ele>
        <time>2021-03-20T15:48:38Z</time>
      </trkpt>
      <trkpt lat="56.26375" lon="-4.941">
        <ele>12.48</ele>
        <time>2021-03-20T15:48:43Z</time>
      </trkpt>
      <trkpt lat="56.26449" lon="-4.9398">
        <ele>8.63</ele>
        <time>2021-03-20T15:48:47Z</time>
      </trkpt>
      <trkpt lat="56.26502" lon="-4.93903">
        <ele>5.86</ele>
        <time>2021-03-20T15:48:52Z</time>
      </trkpt>
      <trkpt lat="56.26653" lon="-4.93699">
        <ele>9.59</ele>
        <time>2021-03-20T15:48:57Z</time>
      </trkpt>
      <trkpt lat="56.26794" lon="-4.93504">
        <ele>8.29</ele>
        <time>2021-03-20T15:49:02Z</time>
      </trkpt>
      <trkpt lat="56.26934" lon="-4.93279">
        <ele>5.53</ele>
        <time>2021-03-20T15:49:06Z</time>
      </trkpt>
      <trkpt lat="56.26974" lon="-4.93202">
        <ele>5.48</ele>
        <time>2021-03-20T15:49:11Z</time>
      </trkpt>
      <trkpt lat="56.27054" lon="-4.9303">
        <ele>4.95</ele>
        <time>2021-03-20T15:49:16Z</time>
      </trkpt>
      <trkpt lat="56.27089" lon="-4.92952">
        <ele>6.68</ele>
        <time>2021-03-20T15:49:21Z</time>
      </trkpt>
      <trkpt lat="56.27144" lon="-4.92819">
        <ele>9.63</ele>
        <time>2021-03-20T15:49:25Z</time>
      </trkpt>
      <trkpt lat="56.27159" lon="-4.92771">
        <ele>7.39</ele>
        <time>2021-03-20T15:49:30Z</time>
      </trkpt>
      <trkpt lat="56.27172" lon="-4.92717">
        <ele>5.03</ele>
        <time>2021-03-20T15:49:35Z</time>
      </trkpt>
      <trkpt lat="56.2719" lon="-4.92617">
        <ele>4.87</ele>
        <time>2021-03-20T15:49:40Z</time>
      </trkpt>
      <trkpt lat="56.27212" lon="-4.92489">
        <ele>2.39</ele>
        <time>2021-03-20T15:49:45Z</time>
      </trkpt>
      <trkpt lat="56.27274" lon="-4.9214">
        <ele>4</ele>
        <time>2021-03-20T15:49:49Z</time>
      </trkpt>
      <trkpt lat="56.27279" lon="-4.9208">
        <ele>3</ele>
        <time>2021-03-20T15:49:54Z</time>
      </trkpt>
      <trkpt lat="56.27278" lon="-4.92029">
        <ele>3.01</ele>
        <time>2021-03-20T15:49:59Z</time>
      </trkpt>
      <trkpt lat="56.27291" lon="-4.92021">
        <ele>3.23</ele>
        <time>2021-03-20T15:50:03Z</time>
      </trkpt>
      <trkpt lat="56.27296" lon="-4.92015">
        <ele>3.47</ele>
        <time>2021-03-20T15:50:07Z</time>
      </trkpt>
      <trkpt lat="56.27299" lon="-4.92004">
        <ele>3.86</ele>
        <time>2021-03-20T15:50:11Z</time>
      </trkpt>
      <trkpt lat="56.27303" lon="-4.91987">
        <ele>4</ele>
        <time>2021-03-20T15:50:15Z</time>
      </trkpt>
      <trkpt lat="56.27308" lon="-4.91944">
        <ele>4.17</ele>
        <time>2021-03-20T15:50:19Z</time>
      </trkpt>
      <trkpt lat="56.27308" lon="-4.91896">
        <ele>4.15</ele>
        <time>2021-03-20T15:50:23Z</time>
      </trkpt>
      <trkpt lat="56.27231" lon="-4.91658">
        <ele>6.22</ele>
        <time>2021-03-20T15:50:27Z</time>
      </trkpt>
      <trkpt lat="56.27218" lon="-4.91652">
        <ele>7.33</ele>
        <time>2021-03-20T15:50:30Z</time>
      </trkpt>
      <trkpt lat="56.27207" lon="-4.91655">
        <ele>7.9</ele>
        <time>2021-03-20T15:50:33Z</time>
      </trkpt>
      <trkpt lat="56.2713" lon="-4.9172">
        <ele>7.42</ele>
        <time>2021-03-20T15:50:36Z</time>
      </trkpt>
      <trkpt lat="56.27123" lon="-4.91731">
        <ele>6.95</ele>
        <time>2021-03-20T15:50:39Z</time>
      </trkpt>
      <trkpt lat="56.2712" lon="-4.91759">
        <ele>5.36</ele>
        <time>2021-03-20T15:50:42Z</time>
      </trkpt>
      <trkpt lat="56.27089" lon="-4.9176">
        <ele>6.14</ele>
        <time>2021-03-20T15:50:49Z</time>
      </trkpt>
      <trkpt lat="56.27069" lon="-4.91766">
        <ele>6.37</ele>
        <time>2021-03-20T15:50:57Z</time>
      </trkpt>
      <trkpt lat="56.2705" lon="-4.91776">
        <ele>6.57</ele>
        <time>2021-03-20T15:51:04Z</time>
      </trkpt>
      <trkpt lat="56.27034" lon="-4.91786">
        <ele>6.99</ele>
        <time>2021-03-20T15:51:11Z</time>
      </trkpt>
      <trkpt lat="56.26999" lon="-4.91823">
        <ele>6.86</ele>
        <time>2021-03-20T15:51:18Z</time>
      </trkpt>
      <trkpt lat="56.26607" lon="-4.92379">
        <ele>5.66</ele>
        <time>2021-03-20T15:51:25Z</time>
      </trkpt>
      <trkpt lat="56.26571" lon="-4.92432">
        <ele>5.05</ele>
        <time>2021-03-20T15:51:32Z</time>
      </trkpt>
      <trkpt lat="56.2647" lon="-4.92597">
        <ele>3.18</ele>
        <time>2021-03-20T15:51:40Z</time>
      </trkpt>
      <trkpt lat="56.2599" lon="-4.93244">
        <ele>4.11</ele>
        <time>2021-03-20T15:51:47Z</time>
      </trkpt>
      <trkpt lat="56.25968" lon="-4.9327">
        <ele>5.49</ele>
        <time>2021-03-20T15:51:54Z</time>
      </trkpt>
      <trkpt lat="56.2595" lon="-4.93287">
        <ele>8.26</ele>
        <time>2021-03-20T15:52:01Z</time>
      </trkpt>
      <trkpt lat="56.25947" lon="-4.93305">
        <ele>7.46</ele>
        <time>2021-03-20T15:52:07Z</time>
      </trkpt>
      <trkpt lat="56.25902" lon="-4.9337">
        <ele>4.23</ele>
        <time>2021-03-20T15:52:14Z</time>
      </trkpt>
      <trkpt lat="56.25872" lon="-4.93407">
        <ele>3.07</ele>
        <time>2021-03-20T15:52:20Z</time>
      </trkpt>
      <trkpt lat="56.25642" lon="-4.93719">
        <ele>3.84</ele>
        <time>2021-03-20T15:52:26Z</time>
      </trkpt>
      <trkpt lat="56.25605" lon="-4.93761">
        <ele>5.68</ele>
        <time>2021-03-20T15:52:33Z</time>
      </trkpt>
      <trkpt lat="56.25521" lon="-4.93853">
        <ele>6.01</ele>
        <time>2021-03-20T15:52:39Z</time>
      </trkpt>
      <trkpt lat="56.25504" lon="-4.93876">
        <ele>6.19</ele>
        <time>2021-03-20T15:52:45Z</time>
      </trkpt>
      <trkpt lat="56.25481" lon="-4.93897">
        <ele>6.79</ele>
        <time>2021-03-20T15:52:52Z</time>
      </trkpt>
      <trkpt lat="56.25435" lon="-4.93911">
        <ele>9.77</ele>
        <time>2021-03-20T15:52:58Z</time>
      </trkpt>
      <trkpt lat="56.25386" lon="-4.93937">
        <ele>10.63</ele>
        <time>2021-03-20T15:53:04Z</time>
      </trkpt>
      <trkpt lat="56.25327" lon="-4.93968">
        <ele>10.7</ele>
        <time>2021-03-20T15:53:11Z</time>
      </trkpt>
      <trkpt lat="56.25305" lon="-4.93991">
        <ele>11.41</ele>
        <time>2021-03-20T15:53:21Z</time>
      </trkpt>
      <trkpt lat="56.25278" lon="-4.94039">
        <ele>13.99</ele>
        <time>2021-03-20T15:53:31Z</time>
      </trkpt>
      <trkpt lat="56.25243" lon="-4.94051">
        <ele>18.41</ele>
        <time>2021-03-20T15:53:41Z</time>
      </trkpt>
      <trkpt lat="56.25197" lon="-4.94042">
        <ele>20.87</ele>
        <time>2021-03-20T15:53:51Z</time>
      </trkpt>
      <trkpt lat="56.25173" lon="-4.94029">
        <ele>22.69</ele>
        <time>2021-03-20T15:54:01Z</time>
      </trkpt>
      <trkpt lat="56.25153" lon="-4.94025">
        <ele>24.87</ele>
        <time>2021-03-20T15:54:11Z</time>
      </trkpt>
      <trkpt lat="56.2514" lon="-4.94031">
        <ele>25.57</ele>
        <time>2021-03-20T15:54:21Z</time>
      </trkpt>
      <trkpt lat="56.25125" lon="-4.94057">
        <ele>24.87</ele>
        <time>2021-03-20T15:54:31Z</time>
      </trkpt>
      <trkpt lat="56.25094" lon="-4.9415">
        <ele>22.48</ele>
        <time>2021-03-20T15:54:41Z</time>
      </trkpt>
      <trkpt lat="56.25081" lon="-4.94183">
        <ele>21.69</ele>
        <time>2021-03-20T15:54:51Z</time>
      </trkpt>
      <trkpt lat="56.25062" lon="-4.94201">
        <ele>22.18</ele>
        <time>2021-03-20T15:55:01Z</time>
      </trkpt>
      <trkpt lat="56.25007" lon="-4.94199">
        <ele>27.02</ele>
        <time>2021-03-20T15:55:11Z</time>
      </trkpt>
      <trkpt lat="56.24994" lon="-4.94195">
        <ele>28</ele>
        <time>2021-03-20T15:55:21Z</time>
      </trkpt>
      <trkpt lat="56.24919" lon="-4.94126">
        <ele>37.33</ele>
        <time>2021-03-20T15:55:31Z</time>
      </trkpt>
      <trkpt lat="56.24905" lon="-4.94133">
        <ele>38.76</ele>
        <time>2021-03-20T15:55:41Z</time>
      </trkpt>
      <trkpt lat="56.24889" lon="-4.94169">
        <ele>43.06</ele>
        <time>2021-03-20T15:55:51Z</time>
      </trkpt>
      <trkpt lat="56.24851" lon="-4.94109">
        <ele>48.06</ele>
        <time>2021-03-20T15:56:04Z</time>
      </trkpt>
      <trkpt lat="56.24828" lon="-4.94057">
        <ele>47.95</ele>
        <time>2021-03-20T15:56:16Z</time>
      </trkpt>
      <trkpt lat="56.24809" lon="-4.94012">
        <ele>47.02</ele>
        <time>2021-03-20T15:56:29Z</time>
      </trkpt>
      <trkpt lat="56.24796" lon="-4.93959">
        <ele>46.46</ele>
        <time>2021-03-20T15:56:41Z</time>
      </trkpt>
      <trkpt lat="56.24785" lon="-4.93903">
        <ele>45.25</ele>
        <time>2021-03-20T15:56:53Z</time>
      </trkpt>
      <trkpt lat="56.24775" lon="-4.93874">
        <ele>44.58</ele>
        <time>2021-03-20T15:57:06Z</time>
      </trkpt>
      <trkpt lat="56.24768" lon="-4.93817">
        <ele>43.19</ele>
        <time>2021-03-20T15:57:18Z</time>
      </trkpt>
      <trkpt lat="56.24753" lon="-4.93746">
        <ele>45.88</ele>
        <time>2021-03-20T15:57:31Z</time>
      </trkpt>
      <trkpt lat="56.24742" lon="-4.93679">
        <ele>48.23</ele>
        <time>2021-03-20T15:57:43Z</time>
      </trkpt>
      <trkpt lat="56.24697" lon="-4.93491">
        <ele>54.32</ele>
        <time>2021-03-20T15:57:56Z</time>
      </trkpt>
      <trkpt lat="56.24677" lon="-4.93431">
        <ele>56.13</ele>
        <time>2021-03-20T15:58:08Z</time>
      </trkpt>
      <trkpt lat="56.24665" lon="-4.93387">
        <ele>56.51</ele>
        <time>2021-03-20T15:58:21Z</time>
      </trkpt>
      <trkpt lat="56.24641" lon="-4.93355">
        <ele>62.19</ele>
        <time>2021-03-20T15:58:33Z</time>
      </trkpt>
      <trkpt lat="56.24655" lon="-4.93848">
        <ele>69.79</ele>
        <time>2021-03-20T15:58:39Z</time>
      </trkpt>
      <trkpt lat="56.2465" lon="-4.9397">
        <ele>67.48</ele>
        <time>2021-03-20T15:58:45Z</time>
      </trkpt>
      <trkpt lat="56.2464" lon="-4.94063">
        <ele>68.5</ele>
        <time>2021-03-20T15:58:51Z</time>
      </trkpt>
      <trkpt lat="56.24614" lon="-4.9418">
        <ele>70.41</ele>
        <time>2021-03-20T15:58:57Z</time>
      </trkpt>
      <trkpt lat="56.24584" lon="-4.94278">
        <ele>71.91</ele>
        <time>2021-03-20T15:59:03Z</time>
      </trkpt>
      <trkpt lat="56.24536" lon="-4.9441">
        <ele>71.37</ele>
        <time>2021-03-20T15:59:10Z</time>
      </trkpt>
      <trkpt lat="56.24475" lon="-4.94566">
        <ele>73.17</ele>
        <time>2021-03-20T15:59:16Z</time>
      </trkpt>
      <trkpt lat="56.24277" lon="-4.95087">
        <ele>75</ele>
        <time>2021-03-20T15:59:22Z</time>
      </trkpt>
      <trkpt lat="56.2422" lon="-4.95228">
        <ele>77.13</ele>
        <time>2021-03-20T15:59:28Z</time>
      </trkpt>
      <trkpt lat="56.2417" lon="-4.95344">
        <ele>78.26</ele>
        <time>2021-03-20T15:59:34Z</time>
      </trkpt>
      <trkpt lat="56.23949" lon="-4.95804">
        <ele>87.47</ele>
        <time>2021-03-20T15:59:40Z</time>
      </trkpt>
      <trkpt lat="56.23695" lon="-4.9638">
        <ele>104.21</ele>
        <time>2021-03-20T15:59:46Z</time>
      </trkpt>
      <trkpt lat="56.2367" lon="-4.96445">
        <ele>108.43</ele>
        <time>2021-03-20T15:59:52Z</time>
      </trkpt>
      <trkpt lat="56.23639" lon="-4.96538">
        <ele>110.04</ele>
        <time>2021-03-20T15:59:58Z</time>
      </trkpt>
      <trkpt lat="56.23589" lon="-4.9672">
        <ele>113.32</ele>
        <time>2021-03-20T16:00:04Z</time>
      </trkpt>
      <trkpt lat="56.23553" lon="-4.96838">
        <ele>117.15</ele>
        <time>2021-03-20T16:00:10Z</time>
      </trkpt>
      <trkpt lat="56.23519" lon="-4.96932">
        <ele>118.25</ele>
        <time>2021-03-20T16:00:16Z</time>
      </trkpt>
      <trkpt lat="56.23499" lon="-4.96982">
        <ele>117.41</ele>
        <time>2021-03-20T16:00:23Z</time>
      </trkpt>
      <trkpt lat="56.23444" lon="-4.97093">
        <ele>119.01</ele>
        <time>2021-03-20T16:00:29Z</time>
      </trkpt>
      <trkpt lat="56.23379" lon="-4.97202">
        <ele>118.48</ele>
        <time>2021-03-20T16:00:35Z</time>
      </trkpt>
      <trkpt lat="56.23337" lon="-4.97259">
        <ele>115.43</ele>
        <time>2021-03-20T16:00:41Z</time>
      </trkpt>
      <trkpt lat="56.23288" lon="-4.97315">
        <ele>110.32</ele>
        <time>2021-03-20T16:00:47Z</time>
      </trkpt>
      <trkpt lat="56.23252" lon="-4.97353">
        <ele>109.46</ele>
        <time>2021-03-20T16:00:53Z</time>
      </trkpt>
      <trkpt lat="56.23095" lon="-4.97491">
        <ele>105.67</ele>
        <time>2021-03-20T16:00:59Z</time>
      </trkpt>
      <trkpt lat="56.23074" lon="-4.97516">
        <ele>104.22</ele>
        <time>2021-03-20T16:01:05Z</time>
      </trkpt>
      <trkpt lat="56.2302" lon="-4.97586">
        <ele>103.56</ele>
        <time>2021-03-20T16:01:11Z</time>
      </trkpt>
      <trkpt lat="56.22981" lon="-4.97656">
        <ele>101.14</ele>
        <time>2021-03-20T16:01:17Z</time>
      </trkpt>
      <trkpt lat="56.22715" lon="-4.982">
        <ele>92.12</ele>
        <time>2021-03-20T16:01:23Z</time>
      </trkpt>
      <trkpt lat="56.22699" lon="-4.98234">
        <ele>91.89</ele>
        <time>2021-03-20T16:01:30Z</time>
      </trkpt>
      <trkpt lat="56.22654" lon="-4.98351">
        <ele>90.27</ele>
        <time>2021-03-20T16:01:36Z</time>
      </trkpt>
      <trkpt lat="56.22633" lon="-4.98456">
        <ele>87.21</ele>
        <time>2021-03-20T16:01:42Z</time>
      </trkpt>
      <trkpt lat="56.22622" lon="-4.98555">
        <ele>81.81</ele>
        <time>2021-03-20T16:01:48Z</time>
      </trkpt>
      <trkpt lat="56.22622" lon="-4.98648">
        <ele>77.74</ele>
        <time>2021-03-20T16:01:54Z</time>
      </trkpt>
      <trkpt lat="56.22625" lon="-4.98697">
        <ele>76.94</ele>
        <time>2021-03-20T16:02:00Z</time>
      </trkpt>
      <trkpt lat="56.22641" lon="-4.98805">
        <ele>72.88</ele>
        <time>2021-03-20T16:02:06Z</time>
      </trkpt>
      <trkpt lat="56.22723" lon="-4.99187">
        <ele>59.47</ele>
        <time>2021-03-20T16:02:12Z</time>
      </trkpt>
      <trkpt lat="56.22739" lon="-4.99256">
        <ele>54.36</ele>
        <time>2021-03-20T16:02:18Z</time>
      </trkpt>
      <trkpt lat="56.2275" lon="-4.99293">
        <ele>52.57</ele>
        <time>2021-03-20T16:02:24Z</time>
      </trkpt>
      <trkpt lat="56.2276" lon="-4.99322">
        <ele>52.25</ele>
        <time>2021-03-20T16:02:30Z</time>
      </trkpt>
      <trkpt lat="56.22778" lon="-4.99361">
        <ele>52.02</ele>
        <time>2021-03-20T16:02:36Z</time>
      </trkpt>
      <trkpt lat="56.229" lon="-4.99583">
        <ele>48.56</ele>
        <time>2021-03-20T16:02:43Z</time>
      </trkpt>
      <trkpt lat="56.2291" lon="-4.99609">
        <ele>49.14</ele>
        <time>2021-03-20T16:02:49Z</time>
      </trkpt>
      <trkpt lat="56.22931" lon="-4.99678">
        <ele>49.48</ele>
        <time>2021-03-20T16:02:55Z</time>
      </trkpt>
      <trkpt lat="56.2294" lon="-4.99723">
        <ele>48.49</ele>
        <time>2021-03-20T16:03:01Z</time>
      </trkpt>
      <trkpt lat="56.22944" lon="-4.99766">
        <ele>47.08</ele>
        <time>2021-03-20T16:03:07Z</time>
      </trkpt>
      <trkpt lat="56.22946" lon="-4.99806">
        <ele>45.75</ele>
        <time>2021-03-20T16:03:13Z</time>
      </trkpt>
      <trkpt lat="56.22946" lon="-4.99863">
        <ele>43.69</ele>
        <time>2021-03-20T16:03:19Z</time>
      </trkpt>
      <trkpt lat="56.22911" lon="-5.0047">
        <ele>42.32</ele>
        <time>2021-03-20T16:03:25Z</time>
      </trkpt>
      <trkpt lat="56.22901" lon="-5.00601">
        <ele>39.47</ele>
        <time>2021-03-20T16:03:31Z</time>
      </trkpt>
      <trkpt lat="56.22757" lon="-5.01606">
        <ele>14.35</ele>
        <time>2021-03-20T16:03:37Z</time>
      </trkpt>
      <trkpt lat="56.227" lon="-5.01919">
        <ele>4.93</ele>
        <time>2021-03-20T16:03:43Z</time>
      </trkpt>
      <trkpt lat="56.22681" lon="-5.02013">
        <ele>6.81</ele>
        <time>2021-03-20T16:03:50Z</time>
      </trkpt>
      <trkpt lat="56.2265" lon="-5.02131">
        <ele>3.89</ele>
        <time>2021-03-20T16:03:56Z</time>
      </trkpt>
      <trkpt lat="56.22628" lon="-5.02207">
        <ele>5.58</ele>
        <time>2021-03-20T16:04:02Z</time>
      </trkpt>
      <trkpt lat="56.22601" lon="-5.02288">
        <ele>6.74</ele>
        <time>2021-03-20T16:04:08Z</time>
      </trkpt>
      <trkpt lat="56.22579" lon="-5.02346">
        <ele>6.95</ele>
        <time>2021-03-20T16:04:14Z</time>
      </trkpt>
      <trkpt lat="56.22527" lon="-5.02465">
        <ele>8.91</ele>
        <time>2021-03-20T16:04:20Z</time>
      </trkpt>
      <trkpt lat="56.22461" lon="-5.02636">
        <ele>10.48</ele>
        <time>2021-03-20T16:04:26Z</time>
      </trkpt>
      <trkpt lat="56.22307" lon="-5.03149">
        <ele>4.77</ele>
        <time>2021-03-20T16:04:32Z</time>
      </trkpt>
      <trkpt lat="56.22278" lon="-5.03227">
        <ele>5.64</ele>
        <time>2021-03-20T16:04:38Z</time>
      </trkpt>
      <trkpt lat="56.22258" lon="-5.0326">
        <ele>3.31</ele>
        <time>2021-03-20T16:04:44Z</time>
      </trkpt>
      <trkpt lat="56.22201" lon="-5.03327">
        <ele>6.03</ele>
        <time>2021-03-20T16:04:50Z</time>
      </trkpt>
      <trkpt lat="56.2216" lon="-5.03387">
        <ele>8.79</ele>
        <time>2021-03-20T16:04:57Z</time>
      </trkpt>
      <trkpt lat="56.22143" lon="-5.03416">
        <ele>9.47</ele>
        <time>2021-03-20T16:05:03Z</time>
      </trkpt>
      <trkpt lat="56.21988" lon="-5.03721">
        <ele>2.78</ele>
        <time>2021-03-20T16:05:09Z</time>
      </trkpt>
      <trkpt lat="56.21954" lon="-5.03777">
        <ele>5.8</ele>
        <time>2021-03-20T16:05:15Z</time>
      </trkpt>
      <trkpt lat="56.21903" lon="-5.03848">
        <ele>8.77</ele>
        <time>2021-03-20T16:05:21Z</time>
      </trkpt>
      <trkpt lat="56.21884" lon="-5.03883">
        <ele>9.67</ele>
        <time>2021-03-20T16:05:27Z</time>
      </trkpt>
      <trkpt lat="56.2184" lon="-5.03991">
        <ele>6.77</ele>
        <time>2021-03-20T16:05:33Z</time>
      </trkpt>
      <trkpt lat="56.21815" lon="-5.04043">
        <ele>4.91</ele>
        <time>2021-03-20T16:05:39Z</time>
      </trkpt>
      <trkpt lat="56.21792" lon="-5.04083">
        <ele>4.89</ele>
        <time>2021-03-20T16:05:45Z</time>
      </trkpt>
      <trkpt lat="56.21635" lon="-5.04297">
        <ele>8.13</ele>
        <time>2021-03-20T16:05:51Z</time>
      </trkpt>
      <trkpt lat="56.21606" lon="-5.04341">
        <ele>8.91</ele>
        <time>2021-03-20T16:05:57Z</time>
      </trkpt>
      <trkpt lat="56.21573" lon="-5.04397">
        <ele>7.69</ele>
        <time>2021-03-20T16:06:03Z</time>
      </trkpt>
      <trkpt lat="56.21507" lon="-5.04534">
        <ele>7.68</ele>
        <time>2021-03-20T16:06:10Z</time>
      </trkpt>
      <trkpt lat="56.2147" lon="-5.04599">
        <ele>7.31</ele>
        <time>2021-03-20T16:06:16Z</time>
      </trkpt>
      <trkpt lat="56.21388" lon="-5.04731">
        <ele>6.42</ele>
        <time>2021-03-20T16:06:22Z</time>
      </trkpt>
      <trkpt lat="56.21335" lon="-5.0482">
        <ele>10.02</ele>
        <time>2021-03-20T16:06:28Z</time>
      </trkpt>
      <trkpt lat="56.21306" lon="-5.04881">
        <ele>13.28</ele>
        <time>2021-03-20T16:06:34Z</time>
      </trkpt>
      <trkpt lat="56.21291" lon="-5.04918">
        <ele>12.63</ele>
        <time>2021-03-20T16:06:40Z</time>
      </trkpt>
      <trkpt lat="56.21232" lon="-5.05094">
        <ele>10.08</ele>
        <time>2021-03-20T16:06:46Z</time>
      </trkpt>
      <trkpt lat="56.21215" lon="-5.05135">
        <ele>10.03</ele>
        <time>2021-03-20T16:06:52Z</time>
      </trkpt>
      <trkpt lat="56.20974" lon="-5.05635">
        <ele>10.63</ele>
        <time>2021-03-20T16:06:58Z</time>
      </trkpt>
      <trkpt lat="56.20938" lon="-5.05698">
        <ele>8.48</ele>
        <time>2021-03-20T16:07:04Z</time>
      </trkpt>
      <trkpt lat="56.20914" lon="-5.05731">
        <ele>9.15</ele>
        <time>2021-03-20T16:07:10Z</time>
      </trkpt>
      <trkpt lat="56.20869" lon="-5.05778">
        <ele>9.1</ele>
        <time>2021-03-20T16:07:17Z</time>
      </trkpt>
      <trkpt lat="56.20791" lon="-5.05843">
        <ele>14.77</ele>
        <time>2021-03-20T16:07:23Z</time>
      </trkpt>
      <trkpt lat="56.20712" lon="-5.05894">
        <ele>21.65</ele>
        <time>2021-03-20T16:07:29Z</time>
      </trkpt>
      <trkpt lat="56.20664" lon="-5.05901">
        <ele>19.92</ele>
        <time>2021-03-20T16:07:35Z</time>
      </trkpt>
      <trkpt lat="56.20592" lon="-5.05885">
        <ele>14.72</ele>
        <time>2021-03-20T16:07:41Z</time>
      </trkpt>
      <trkpt lat="56.20529" lon="-5.05888">
        <ele>14.03</ele>
        <time>2021-03-20T16:07:47Z</time>
      </trkpt>
      <trkpt lat="56.20463" lon="-5.0592">
        <ele>13.77</ele>
        <time>2021-03-20T16:07:53Z</time>
      </trkpt>
      <trkpt lat="56.20392" lon="-5.06006">
        <ele>14.16</ele>
        <time>2021-03-20T16:07:59Z</time>
      </trkpt>
      <trkpt lat="56.2026" lon="-5.06234">
        <ele>14.35</ele>
        <time>2021-03-20T16:08:05Z</time>
      </trkpt>
      <trkpt lat="56.20001" lon="-5.06576">
        <ele>18.1</ele>
        <time>2021-03-20T16:08:11Z</time>
      </trkpt>
      <trkpt lat="56.19834" lon="-5.06752">
        <ele>19.59</ele>
        <time>2021-03-20T16:08:17Z</time>
      </trkpt>
      <trkpt lat="56.19636" lon="-5.06947">
        <ele>21.99</ele>
        <time>2021-03-20T16:08:24Z</time>
      </trkpt>
      <trkpt lat="56.1955" lon="-5.07039">
        <ele>15.19</ele>
        <time>2021-03-20T16:08:30Z</time>
      </trkpt>
      <trkpt lat="56.19197" lon="-5.07276">
        <ele>16.94</ele>
        <time>2021-03-20T16:08:36Z</time>
      </trkpt>
      <trkpt lat="56.18794" lon="-5.07541">
        <ele>15.83</ele>
        <time>2021-03-20T16:08:42Z</time>
      </trkpt>
      <trkpt lat="56.18604" lon="-5.07691">
        <ele>14.75</ele>
        <time>2021-03-20T16:08:48Z</time>
      </trkpt>
      <trkpt lat="56.18468" lon="-5.07781">
        <ele>12.1</ele>
        <time>2021-03-20T16:08:54Z</time>
      </trkpt>
      <trkpt lat="56.18323" lon="-5.07891">
        <ele>13.16</ele>
        <time>2021-03-20T16:09:00Z</time>
      </trkpt>
      <trkpt lat="56.18169" lon="-5.07985">
        <ele>13.08</ele>
        <time>2021-03-20T16:09:06Z</time>
      </trkpt>
      <trkpt lat="56.17953" lon="-5.08071">
        <ele>11.23</ele>
        <time>2021-03-20T16:09:12Z</time>
      </trkpt>
      <trkpt lat="56.17797" lon="-5.08197">
        <ele>7.1</ele>
        <time>2021-03-20T16:09:18Z</time>
      </trkpt>
      <trkpt lat="56.17757" lon="-5.08221">
        <ele>8.44</ele>
        <time>2021-03-20T16:09:24Z</time>
      </trkpt>
      <trkpt lat="56.17696" lon="-5.08251">
        <ele>8.71</ele>
        <time>2021-03-20T16:09:30Z</time>
      </trkpt>
      <trkpt lat="56.17646" lon="-5.08284">
        <ele>6.56</ele>
        <time>2021-03-20T16:09:37Z</time>
      </trkpt>
      <trkpt lat="56.1761" lon="-5.08314">
        <ele>7.37</ele>
        <time>2021-03-20T16:09:43Z</time>
      </trkpt>
      <trkpt lat="56.17581" lon="-5.08335">
        <ele>6</ele>
        <time>2021-03-20T16:09:49Z</time>
      </trkpt>
      <trkpt lat="56.1756" lon="-5.08346">
        <ele>5.91</ele>
        <time>2021-03-20T16:09:55Z</time>
      </trkpt>
      <trkpt lat="56.17537" lon="-5.08351">
        <ele>6.81</ele>
        <time>2021-03-20T16:10:01Z</time>
      </trkpt>
      <trkpt lat="56.17491" lon="-5.08342">
        <ele>6.81</ele>
        <time>2021-03-20T16:10:07Z</time>
      </trkpt>
      <trkpt lat="56.17408" lon="-5.08312">
        <ele>6.9</ele>
        <time>2021-03-20T16:10:13Z</time>
      </trkpt>
      <trkpt lat="56.17227" lon="-5.08256">
        <ele>4.97</ele>
        <time>2021-03-20T16:10:19Z</time>
      </trkpt>
      <trkpt lat="56.17176" lon="-5.08226">
        <ele>4.92</ele>
        <time>2021-03-20T16:10:25Z</time>
      </trkpt>
      <trkpt lat="56.1703" lon="-5.0813">
        <ele>9.31</ele>
        <time>2021-03-20T16:10:31Z</time>
      </trkpt>
      <trkpt lat="56.16873" lon="-5.08014">
        <ele>7.07</ele>
        <time>2021-03-20T16:10:37Z</time>
      </trkpt>
      <trkpt lat="56.16848" lon="-5.07989">
        <ele>6.36</ele>
        <time>2021-03-20T16:10:44Z</time>
      </trkpt>
      <trkpt lat="56.16824" lon="-5.07955">
        <ele>6.77</ele>
        <time>2021-03-20T16:10:50Z</time>
      </trkpt>
      <trkpt lat="56.16796" lon="-5.0789">
        <ele>10.57</ele>
        <time>2021-03-20T16:10:56Z</time>
      </trkpt>
      <trkpt lat="56.16788" lon="-5.07863">
        <ele>11.31</ele>
        <time>2021-03-20T16:11:02Z</time>
      </trkpt>
      <trkpt lat="56.16778" lon="-5.07804">
        <ele>13.1</ele>
        <time>2021-03-20T16:11:08Z</time>
      </trkpt>
      <trkpt lat="56.16774" lon="-5.07733">
        <ele>17.46</ele>
        <time>2021-03-20T16:11:14Z</time>
      </trkpt>
      <trkpt lat="56.16798" lon="-5.07471">
        <ele>32</ele>
        <time>2021-03-20T16:11:20Z</time>
      </trkpt>
      <trkpt lat="56.16797" lon="-5.07412">
        <ele>30.67</ele>
        <time>2021-03-20T16:11:26Z</time>
      </trkpt>
      <trkpt lat="56.1679" lon="-5.07338">
        <ele>26.34</ele>
        <time>2021-03-20T16:11:32Z</time>
      </trkpt>
      <trkpt lat="56.16768" lon="-5.07217">
        <ele>22.74</ele>
        <time>2021-03-20T16:11:38Z</time>
      </trkpt>
      <trkpt lat="56.16544" lon="-5.06418">
        <ele>48.82</ele>
        <time>2021-03-20T16:11:44Z</time>
      </trkpt>
      <trkpt lat="56.16475" lon="-5.06302">
        <ele>49.71</ele>
        <time>2021-03-20T16:11:51Z</time>
      </trkpt>
      <trkpt lat="56.16465" lon="-5.06328">
        <ele>51.32</ele>
        <time>2021-03-20T16:11:57Z</time>
      </trkpt>
      <trkpt lat="56.16458" lon="-5.06342">
        <ele>52.52</ele>
        <time>2021-03-20T16:12:02Z</time>
      </trkpt>
      <trkpt lat="56.1645" lon="-5.06348">
        <ele>53.52</ele>
        <time>2021-03-20T16:12:08Z</time>
      </trkpt>
      <trkpt lat="56.16439" lon="-5.06349">
        <ele>54.29</ele>
        <time>2021-03-20T16:12:14Z</time>
      </trkpt>
      <trkpt lat="56.16411" lon="-5.06335">
        <ele>54.31</ele>
        <time>2021-03-20T16:12:20Z</time>
      </trkpt>
      <trkpt lat="56.16392" lon="-5.06331">
        <ele>54.8</ele>
        <time>2021-03-20T16:12:26Z</time>
      </trkpt>
      <trkpt lat="56.16325" lon="-5.06334">
        <ele>57.33</ele>
        <time>2021-03-20T16:12:32Z</time>
      </trkpt>
      <trkpt lat="56.16212" lon="-5.06324">
        <ele>61.36</ele>
        <time>2021-03-20T16:12:38Z</time>
      </trkpt>
      <trkpt lat="56.16093" lon="-5.06342">
        <ele>63.19</ele>
        <time>2021-03-20T16:12:44Z</time>
      </trkpt>
      <trkpt lat="56.15974" lon="-5.06366">
        <ele>65.58</ele>
        <time>2021-03-20T16:12:50Z</time>
      </trkpt>
      <trkpt lat="56.15882" lon="-5.06342">
        <ele>60.03</ele>
        <time>2021-03-20T16:12:56Z</time>
      </trkpt>
      <trkpt lat="56.15801" lon="-5.0631">
        <ele>55.02</ele>
        <time>2021-03-20T16:13:02Z</time>
      </trkpt>
      <trkpt lat="56.15749" lon="-5.06301">
        <ele>51.66</ele>
        <time>2021-03-20T16:13:08Z</time>
      </trkpt>
      <trkpt lat="56.15617" lon="-5.06328">
        <ele>48.41</ele>
        <time>2021-03-20T16:13:13Z</time>
      </trkpt>
      <trkpt lat="56.15586" lon="-5.06332">
        <ele>48</ele>
        <time>2021-03-20T16:13:19Z</time>
      </trkpt>
      <trkpt lat="56.15528" lon="-5.06313">
        <ele>47.99</ele>
        <time>2021-03-20T16:13:25Z</time>
      </trkpt>
      <trkpt lat="56.15474" lon="-5.0631">
        <ele>44.44</ele>
        <time>2021-03-20T16:13:31Z</time>
      </trkpt>
      <trkpt lat="56.15396" lon="-5.06327">
        <ele>42.78</ele>
        <time>2021-03-20T16:13:37Z</time>
      </trkpt>
      <trkpt lat="56.15329" lon="-5.06355">
        <ele>41.57</ele>
        <time>2021-03-20T16:13:43Z</time>
      </trkpt>
      <trkpt lat="56.15214" lon="-5.06426">
        <ele>45.83</ele>
        <time>2021-03-20T16:13:49Z</time>
      </trkpt>
      <trkpt lat="56.15171" lon="-5.06389">
        <ele>46.02</ele>
        <time>2021-03-20T16:13:55Z</time>
      </trkpt>
      <trkpt lat="56.15138" lon="-5.06353">
        <ele>45.03</ele>
        <time>2021-03-20T16:14:01Z</time>
      </trkpt>
      <trkpt lat="56.14887" lon="-5.05974">
        <ele>39.22</ele>
        <time>2021-03-20T16:14:07Z</time>
      </trkpt>
      <trkpt lat="56.14845" lon="-5.05902">
        <ele>39.56</ele>
        <time>2021-03-20T16:14:13Z</time>
      </trkpt>
      <trkpt lat="56.14823" lon="-5.05835">
        <ele>40.83</ele>
        <time>2021-03-20T16:14:19Z</time>
      </trkpt>
      <trkpt lat="56.14604" lon="-5.05365">
        <ele>39.05</ele>
        <time>2021-03-20T16:14:25Z</time>
      </trkpt>
      <trkpt lat="56.14594" lon="-5.05295">
        <ele>40.28</ele>
        <time>2021-03-20T16:14:30Z</time>
      </trkpt>
      <trkpt lat="56.14434" lon="-5.04739">
        <ele>37.82</ele>
        <time>2021-03-20T16:14:36Z</time>
      </trkpt>
      <trkpt lat="56.14422" lon="-5.04626">
        <ele>43.04</ele>
        <time>2021-03-20T16:14:42Z</time>
      </trkpt>
      <trkpt lat="56.14355" lon="-5.04504">
        <ele>43.16</ele>
        <time>2021-03-20T16:14:48Z</time>
      </trkpt>
      <trkpt lat="56.14332" lon="-5.0445">
        <ele>41.25</ele>
        <time>2021-03-20T16:14:54Z</time>
      </trkpt>
      <trkpt lat="56.14317" lon="-5.0437">
        <ele>39.1</ele>
        <time>2021-03-20T16:15:00Z</time>
      </trkpt>
      <trkpt lat="56.14272" lon="-5.04259">
        <ele>38.07</ele>
        <time>2021-03-20T16:15:06Z</time>
      </trkpt>
      <trkpt lat="56.14224" lon="-5.04169">
        <ele>35.07</ele>
        <time>2021-03-20T16:15:12Z</time>
      </trkpt>
      <trkpt lat="56.14176" lon="-5.04089">
        <ele>35</ele>
        <time>2021-03-20T16:15:18Z</time>
      </trkpt>
      <trkpt lat="56.14107" lon="-5.04009">
        <ele>36.78</ele>
        <time>2021-03-20T16:15:24Z</time>
      </trkpt>
      <trkpt lat="56.14067" lon="-5.03955">
        <ele>38.03</ele>
        <time>2021-03-20T16:15:30Z</time>
      </trkpt>
      <trkpt lat="56.14022" lon="-5.03914">
        <ele>38.57</ele>
        <time>2021-03-20T16:15:36Z</time>
      </trkpt>
      <trkpt lat="56.1385" lon="-5.03907">
        <ele>42.72</ele>
        <time>2021-03-20T16:15:41Z</time>
      </trkpt>
      <trkpt lat="56.13747" lon="-5.03823">
        <ele>33.1</ele>
        <time>2021-03-20T16:15:47Z</time>
      </trkpt>
      <trkpt lat="56.13741" lon="-5.03807">
        <ele>31.77</ele>
        <time>2021-03-20T16:15:53Z</time>
      </trkpt>
      <trkpt lat="56.13737" lon="-5.03788">
        <ele>30.59</ele>
        <time>2021-03-20T16:15:59Z</time>
      </trkpt>
      <trkpt lat="56.13737" lon="-5.03775">
        <ele>29.95</ele>
        <time>2021-03-20T16:16:05Z</time>
      </trkpt>
      <trkpt lat="56.13741" lon="-5.03731">
        <ele>29.47</ele>
        <time>2021-03-20T16:16:11Z</time>
      </trkpt>
      <trkpt lat="56.13745" lon="-5.03709">
        <ele>30.52</ele>
        <time>2021-03-20T16:16:17Z</time>
      </trkpt>
      <trkpt lat="56.13761" lon="-5.03681">
        <ele>35.03</ele>
        <time>2021-03-20T16:16:23Z</time>
      </trkpt>
      <trkpt lat="56.13574" lon="-5.03339">
        <ele>31.56</ele>
        <time>2021-03-20T16:16:28Z</time>
      </trkpt>
      <trkpt lat="56.13535" lon="-5.03246">
        <ele>35.72</ele>
        <time>2021-03-20T16:16:33Z</time>
      </trkpt>
      <trkpt lat="56.13512" lon="-5.03149">
        <ele>34.03</ele>
        <time>2021-03-20T16:16:39Z</time>
      </trkpt>
      <trkpt lat="56.13474" lon="-5.02871">
        <ele>28.2</ele>
        <time>2021-03-20T16:16:44Z</time>
      </trkpt>
      <trkpt lat="56.13445" lon="-5.02742">
        <ele>29.02</ele>
        <time>2021-03-20T16:16:49Z</time>
      </trkpt>
      <trkpt lat="56.13425" lon="-5.02671">
        <ele>28.56</ele>
        <time>2021-03-20T16:16:54Z</time>
      </trkpt>
      <trkpt lat="56.13275" lon="-5.02256">
        <ele>41.98</ele>
        <time>2021-03-20T16:16:59Z</time>
      </trkpt>
      <trkpt lat="56.13224" lon="-5.02139">
        <ele>45.06</ele>
        <time>2021-03-20T16:17:04Z</time>
      </trkpt>
      <trkpt lat="56.13181" lon="-5.02062">
        <ele>44.56</ele>
        <time>2021-03-20T16:17:10Z</time>
      </trkpt>
      <trkpt lat="56.13103" lon="-5.01951">
        <ele>51.1</ele>
        <time>2021-03-20T16:17:15Z</time>
      </trkpt>
      <trkpt lat="56.12935" lon="-5.01743">
        <ele>31.21</ele>
        <time>2021-03-20T16:17:20Z</time>
      </trkpt>
      <trkpt lat="56.12867" lon="-5.01682">
        <ele>27.92</ele>
        <time>2021-03-20T16:17:25Z</time>
      </trkpt>
      <trkpt lat="56.12799" lon="-5.0164">
        <ele>31.33</ele>
        <time>2021-03-20T16:17:30Z</time>
      </trkpt>
      <trkpt lat="56.12634" lon="-5.01473">
        <ele>33.99</ele>
        <time>2021-03-20T16:17:36Z</time>
      </trkpt>
      <trkpt lat="56.12531" lon="-5.01353">
        <ele>30.56</ele>
        <time>2021-03-20T16:17:41Z</time>
      </trkpt>
      <trkpt lat="56.1243" lon="-5.01171">
        <ele>32.83</ele>
        <time>2021-03-20T16:17:46Z</time>
      </trkpt>
      <trkpt lat="56.1237" lon="-5.01054">
        <ele>32.65</ele>
        <time>2021-03-20T16:17:51Z</time>
      </trkpt>
      <trkpt lat="56.12318" lon="-5.00902">
        <ele>31.49</ele>
        <time>2021-03-20T16:17:56Z</time>
      </trkpt>
      <trkpt lat="56.12302" lon="-5.00806">
        <ele>30.38</ele>
        <time>2021-03-20T16:18:02Z</time>
      </trkpt>
      <trkpt lat="56.12293" lon="-5.00665">
        <ele>34.13</ele>
        <time>2021-03-20T16:18:07Z</time>
      </trkpt>
      <trkpt lat="56.1229" lon="-5.00572">
        <ele>33.86</ele>
        <time>2021-03-20T16:18:12Z</time>
      </trkpt>
      <trkpt lat="56.12281" lon="-5.00505">
        <ele>36.15</ele>
        <time>2021-03-20T16:18:17Z</time>
      </trkpt>
      <trkpt lat="56.12252" lon="-5.00461">
        <ele>35.75</ele>
        <time>2021-03-20T16:18:22Z</time>
      </trkpt>
      <trkpt lat="56.12139" lon="-5.00351">
        <ele>36.13</ele>
        <time>2021-03-20T16:18:27Z</time>
      </trkpt>
      <trkpt lat="56.12058" lon="-5.00234">
        <ele>35.45</ele>
        <time>2021-03-20T16:18:33Z</time>
      </trkpt>
      <trkpt lat="56.12005" lon="-5.00171">
        <ele>32.48</ele>
        <time>2021-03-20T16:18:38Z</time>
      </trkpt>
      <trkpt lat="56.11964" lon="-5.00103">
        <ele>34.87</ele>
        <time>2021-03-20T16:18:43Z</time>
      </trkpt>
      <trkpt lat="56.11924" lon="-5">
        <ele>43.28</ele>
        <time>2021-03-20T16:18:48Z</time>
      </trkpt>
      <trkpt lat="56.11901" lon="-4.99909">
        <ele>48.35</ele>
        <time>2021-03-20T16:18:53Z</time>
      </trkpt>
      <trkpt lat="56.11867" lon="-4.99859">
        <ele>45.11</ele>
        <time>2021-03-20T16:18:59Z</time>
      </trkpt>
      <trkpt lat="56.11829" lon="-4.99852">
        <ele>39.74</ele>
        <time>2021-03-20T16:19:04Z</time>
      </trkpt>
      <trkpt lat="56.11787" lon="-4.9983">
        <ele>37.7</ele>
        <time>2021-03-20T16:19:09Z</time>
      </trkpt>
      <trkpt lat="56.1169" lon="-4.99754">
        <ele>40.56</ele>
        <time>2021-03-20T16:19:14Z</time>
      </trkpt>
      <trkpt lat="56.11422" lon="-4.99604">
        <ele>38.85</ele>
        <time>2021-03-20T16:19:19Z</time>
      </trkpt>
      <trkpt lat="56.11357" lon="-4.9952">
        <ele>40.62</ele>
        <time>2021-03-20T16:19:25Z</time>
      </trkpt>
      <trkpt lat="56.11262" lon="-4.99408">
        <ele>37.37</ele>
        <time>2021-03-20T16:19:30Z</time>
      </trkpt>
      <trkpt lat="56.11229" lon="-4.99349">
        <ele>42.73</ele>
        <time>2021-03-20T16:19:35Z</time>
      </trkpt>
      <trkpt lat="56.11121" lon="-4.99202">
        <ele>37.53</ele>
        <time>2021-03-20T16:19:40Z</time>
      </trkpt>
      <trkpt lat="56.1107" lon="-4.9915">
        <ele>36.53</ele>
        <time>2021-03-20T16:19:45Z</time>
      </trkpt>
      <trkpt lat="56.10915" lon="-4.99108">
        <ele>30.27</ele>
        <time>2021-03-20T16:19:50Z</time>
      </trkpt>
      <trkpt lat="56.1088" lon="-4.99081">
        <ele>30.35</ele>
        <time>2021-03-20T16:19:56Z</time>
      </trkpt>
      <trkpt lat="56.1085" lon="-4.99034">
        <ele>30.78</ele>
        <time>2021-03-20T16:20:01Z</time>
      </trkpt>
      <trkpt lat="56.10826" lon="-4.98966">
        <ele>33.68</ele>
        <time>2021-03-20T16:20:06Z</time>
      </trkpt>
      <trkpt lat="56.10808" lon="-4.98928">
        <ele>34.3</ele>
        <time>2021-03-20T16:20:11Z</time>
      </trkpt>
      <trkpt lat="56.10784" lon="-4.98896">
        <ele>34.81</ele>
        <time>2021-03-20T16:20:16Z</time>
      </trkpt>
      <trkpt lat="56.10758" lon="-4.98883">
        <ele>34.49</ele>
        <time>2021-03-20T16:20:22Z</time>
      </trkpt>
      <trkpt lat="56.10573" lon="-4.98739">
        <ele>35.92</ele>
        <time>2021-03-20T16:20:27Z</time>
      </trkpt>
      <trkpt lat="56.10467" lon="-4.98648">
        <ele>27.94</ele>
        <time>2021-03-20T16:20:32Z</time>
      </trkpt>
      <trkpt lat="56.10412" lon="-4.98623">
        <ele>28.74</ele>
        <time>2021-03-20T16:20:37Z</time>
      </trkpt>
      <trkpt lat="56.10206" lon="-4.98606">
        <ele>32.87</ele>
        <time>2021-03-20T16:20:42Z</time>
      </trkpt>
      <trkpt lat="56.10119" lon="-4.98591">
        <ele>32.64</ele>
        <time>2021-03-20T16:20:48Z</time>
      </trkpt>
      <trkpt lat="56.10083" lon="-4.9858">
        <ele>35.86</ele>
        <time>2021-03-20T16:20:53Z</time>
      </trkpt>
      <trkpt lat="56.10051" lon="-4.98587">
        <ele>35.14</ele>
        <time>2021-03-20T16:20:58Z</time>
      </trkpt>
      <trkpt lat="56.09943" lon="-4.98585">
        <ele>32.8</ele>
        <time>2021-03-20T16:21:03Z</time>
      </trkpt>
      <trkpt lat="56.09828" lon="-4.986">
        <ele>29.93</ele>
        <time>2021-03-20T16:21:08Z</time>
      </trkpt>
      <trkpt lat="56.09668" lon="-4.98652">
        <ele>29.11</ele>
        <time>2021-03-20T16:21:13Z</time>
      </trkpt>
      <trkpt lat="56.09193" lon="-4.9884">
        <ele>33.34</ele>
        <time>2021-03-20T16:21:19Z</time>
      </trkpt>
      <trkpt lat="56.09146" lon="-4.98851">
        <ele>31.25</ele>
        <time>2021-03-20T16:21:24Z</time>
      </trkpt>
      <trkpt lat="56.09109" lon="-4.98853">
        <ele>29.24</ele>
        <time>2021-03-20T16:21:29Z</time>
      </trkpt>
      <trkpt lat="56.09064" lon="-4.98846">
        <ele>30.91</ele>
        <time>2021-03-20T16:21:34Z</time>
      </trkpt>
      <trkpt lat="56.09003" lon="-4.98832">
        <ele>31.47</ele>
        <time>2021-03-20T16:21:39Z</time>
      </trkpt>
      <trkpt lat="56.0892" lon="-4.98838">
        <ele>29.39</ele>
        <time>2021-03-20T16:21:45Z</time>
      </trkpt>
      <trkpt lat="56.08836" lon="-4.98854">
        <ele>32.41</ele>
        <time>2021-03-20T16:21:50Z</time>
      </trkpt>
      <trkpt lat="56.08703" lon="-4.98813">
        <ele>32.73</ele>
        <time>2021-03-20T16:21:55Z</time>
      </trkpt>
      <trkpt lat="56.08625" lon="-4.98837">
        <ele>28.88</ele>
        <time>2021-03-20T16:22:00Z</time>
      </trkpt>
      <trkpt lat="56.08299" lon="-4.98867">
        <ele>28.56</ele>
        <time>2021-03-20T16:22:05Z</time>
      </trkpt>
      <trkpt lat="56.08172" lon="-4.98855">
        <ele>30.24</ele>
        <time>2021-03-20T16:22:11Z</time>
      </trkpt>
      <trkpt lat="56.07824" lon="-4.98941">
        <ele>27.25</ele>
        <time>2021-03-20T16:22:16Z</time>
      </trkpt>
      <trkpt lat="56.07637" lon="-4.9895">
        <ele>28.84</ele>
        <time>2021-03-20T16:22:21Z</time>
      </trkpt>
      <trkpt lat="56.07565" lon="-4.98976">
        <ele>32.18</ele>
        <time>2021-03-20T16:22:26Z</time>
      </trkpt>
      <trkpt lat="56.07479" lon="-4.98985">
        <ele>31.57</ele>
        <time>2021-03-20T16:22:31Z</time>
      </trkpt>
      <trkpt lat="56.07395" lon="-4.98977">
        <ele>27.91</ele>
        <time>2021-03-20T16:22:36Z</time>
      </trkpt>
      <trkpt lat="56.07319" lon="-4.98892">
        <ele>28.8</ele>
        <time>2021-03-20T16:22:42Z</time>
      </trkpt>
      <trkpt lat="56.07164" lon="-4.98834">
        <ele>33.07</ele>
        <time>2021-03-20T16:22:47Z</time>
      </trkpt>
      <trkpt lat="56.07012" lon="-4.98797">
        <ele>36.19</ele>
        <time>2021-03-20T16:22:52Z</time>
      </trkpt>
      <trkpt lat="56.06846" lon="-4.98721">
        <ele>40.73</ele>
        <time>2021-03-20T16:22:57Z</time>
      </trkpt>
      <trkpt lat="56.06652" lon="-4.98709">
        <ele>35.56</ele>
        <time>2021-03-20T16:23:02Z</time>
      </trkpt>
      <trkpt lat="56.06572" lon="-4.98718">
        <ele>32.31</ele>
        <time>2021-03-20T16:23:08Z</time>
      </trkpt>
      <trkpt lat="56.06512" lon="-4.98701">
        <ele>32.97</ele>
        <time>2021-03-20T16:23:13Z</time>
      </trkpt>
      <trkpt lat="56.06473" lon="-4.98659">
        <ele>31.65</ele>
        <time>2021-03-20T16:23:18Z</time>
      </trkpt>
      <trkpt lat="56.06382" lon="-4.98551">
        <ele>28.9</ele>
        <time>2021-03-20T16:23:23Z</time>
      </trkpt>
      <trkpt lat="56.06246" lon="-4.9843">
        <ele>28.65</ele>
        <time>2021-03-20T16:23:28Z</time>
      </trkpt>
      <trkpt lat="56.062" lon="-4.98397">
        <ele>32.97</ele>
        <time>2021-03-20T16:23:34Z</time>
      </trkpt>
      <trkpt lat="56.0607" lon="-4.9835">
        <ele>37.28</ele>
        <time>2021-03-20T16:23:39Z</time>
      </trkpt>
      <trkpt lat="56.05965" lon="-4.98457">
        <ele>32.34</ele>
        <time>2021-03-20T16:23:44Z</time>
      </trkpt>
      <trkpt lat="56.05869" lon="-4.98483">
        <ele>28.16</ele>
        <time>2021-03-20T16:23:49Z</time>
      </trkpt>
      <trkpt lat="56.05783" lon="-4.98453">
        <ele>32.32</ele>
        <time>2021-03-20T16:23:54Z</time>
      </trkpt>
      <trkpt lat="56.05669" lon="-4.98357">
        <ele>26.14</ele>
        <time>2021-03-20T16:24:00Z</time>
      </trkpt>
      <trkpt lat="56.05606" lon="-4.9834">
        <ele>24.86</ele>
        <time>2021-03-20T16:24:05Z</time>
      </trkpt>
      <trkpt lat="56.05484" lon="-4.98395">
        <ele>26.02</ele>
        <time>2021-03-20T16:24:10Z</time>
      </trkpt>
      <trkpt lat="56.05421" lon="-4.98387">
        <ele>28.19</ele>
        <time>2021-03-20T16:24:15Z</time>
      </trkpt>
      <trkpt lat="56.05371" lon="-4.98399">
        <ele>35.23</ele>
        <time>2021-03-20T16:24:20Z</time>
      </trkpt>
      <trkpt lat="56.05227" lon="-4.98495">
        <ele>28.66</ele>
        <time>2021-03-20T16:24:25Z</time>
      </trkpt>
      <trkpt lat="56.05172" lon="-4.985">
        <ele>31.06</ele>
        <time>2021-03-20T16:24:31Z</time>
      </trkpt>
      <trkpt lat="56.05141" lon="-4.98495">
        <ele>30.97</ele>
        <time>2021-03-20T16:24:36Z</time>
      </trkpt>
      <trkpt lat="56.05102" lon="-4.98464">
        <ele>33.73</ele>
        <time>2021-03-20T16:24:41Z</time>
      </trkpt>
      <trkpt lat="56.05058" lon="-4.98419">
        <ele>35.99</ele>
        <time>2021-03-20T16:24:46Z</time>
      </trkpt>
      <trkpt lat="56.05008" lon="-4.98357">
        <ele>35.69</ele>
        <time>2021-03-20T16:24:51Z</time>
      </trkpt>
      <trkpt lat="56.04931" lon="-4.98312">
        <ele>37.02</ele>
        <time>2021-03-20T16:24:57Z</time>
      </trkpt>
      <trkpt lat="56.04845" lon="-4.98305">
        <ele>36.59</ele>
        <time>2021-03-20T16:25:02Z</time>
      </trkpt>
      <trkpt lat="56.04768" lon="-4.98347">
        <ele>35.21</ele>
        <time>2021-03-20T16:25:07Z</time>
      </trkpt>
      <trkpt lat="56.0466" lon="-4.98374">
        <ele>37.56</ele>
        <time>2021-03-20T16:25:12Z</time>
      </trkpt>
      <trkpt lat="56.04547" lon="-4.98363">
        <ele>38.79</ele>
        <time>2021-03-20T16:25:17Z</time>
      </trkpt>
      <trkpt lat="56.04474" lon="-4.98384">
        <ele>30.96</ele>
        <time>2021-03-20T16:25:23Z</time>
      </trkpt>
      <trkpt lat="56.0424" lon="-4.98326">
        <ele>30</ele>
        <time>2021-03-20T16:25:28Z</time>
      </trkpt>
      <trkpt lat="56.04113" lon="-4.98281">
        <ele>29.86</ele>
        <time>2021-03-20T16:25:33Z</time>
      </trkpt>
      <trkpt lat="56.0403" lon="-4.98256">
        <ele>25.21</ele>
        <time>2021-03-20T16:25:38Z</time>
      </trkpt>
      <trkpt lat="56.03941" lon="-4.98217">
        <ele>26</ele>
        <time>2021-03-20T16:25:43Z</time>
      </trkpt>
      <trkpt lat="56.03893" lon="-4.98181">
        <ele>27.34</ele>
        <time>2021-03-20T16:25:48Z</time>
      </trkpt>
      <trkpt lat="56.03841" lon="-4.98128">
        <ele>26.56</ele>
        <time>2021-03-20T16:25:54Z</time>
      </trkpt>
      <trkpt lat="56.03804" lon="-4.98081">
        <ele>29.21</ele>
        <time>2021-03-20T16:25:59Z</time>
      </trkpt>
      <trkpt lat="56.03762" lon="-4.98041">
        <ele>32.62</ele>
        <time>2021-03-20T16:26:04Z</time>
      </trkpt>
      <trkpt lat="56.03718" lon="-4.98011">
        <ele>34.53</ele>
        <time>2021-03-20T16:26:09Z</time>
      </trkpt>
      <trkpt lat="56.03668" lon="-4.97994">
        <ele>32.56</ele>
        <time>2021-03-20T16:26:14Z</time>
      </trkpt>
      <trkpt lat="56.03432" lon="-4.9796">
        <ele>30.32</ele>
        <time>2021-03-20T16:26:20Z</time>
      </trkpt>
      <trkpt lat="56.03375" lon="-4.97957">
        <ele>33.44</ele>
        <time>2021-03-20T16:26:25Z</time>
      </trkpt>
      <trkpt lat="56.03208" lon="-4.98031">
        <ele>29.98</ele>
        <time>2021-03-20T16:26:30Z</time>
      </trkpt>
      <trkpt lat="56.03149" lon="-4.98055">
        <ele>27.49</ele>
        <time>2021-03-20T16:26:35Z</time>
      </trkpt>
      <trkpt lat="56.03111" lon="-4.98051">
        <ele>25.33</ele>
        <time>2021-03-20T16:26:40Z</time>
      </trkpt>
      <trkpt lat="56.03066" lon="-4.98043">
        <ele>28.22</ele>
        <time>2021-03-20T16:26:46Z</time>
      </trkpt>
      <trkpt lat="56.02996" lon="-4.98013">
        <ele>27.27</ele>
        <time>2021-03-20T16:26:51Z</time>
      </trkpt>
      <trkpt lat="56.02946" lon="-4.98003">
        <ele>28.49</ele>
        <time>2021-03-20T16:26:56Z</time>
      </trkpt>
      <trkpt lat="56.02899" lon="-4.98011">
        <ele>31.61</ele>
        <time>2021-03-20T16:27:01Z</time>
      </trkpt>
      <trkpt lat="56.02826" lon="-4.98041">
        <ele>34.51</ele>
        <time>2021-03-20T16:27:06Z</time>
      </trkpt>
      <trkpt lat="56.028" lon="-4.9805">
        <ele>34.09</ele>
        <time>2021-03-20T16:27:11Z</time>
      </trkpt>
      <trkpt lat="56.02762" lon="-4.98057">
        <ele>29.92</ele>
        <time>2021-03-20T16:27:17Z</time>
      </trkpt>
      <trkpt lat="56.02666" lon="-4.98042">
        <ele>26.43</ele>
        <time>2021-03-20T16:27:22Z</time>
      </trkpt>
      <trkpt lat="56.02624" lon="-4.9804">
        <ele>25.11</ele>
        <time>2021-03-20T16:27:27Z</time>
      </trkpt>
      <trkpt lat="56.02603" lon="-4.98041">
        <ele>23.98</ele>
        <time>2021-03-20T16:27:32Z</time>
      </trkpt>
      <trkpt lat="56.02516" lon="-4.9807">
        <ele>26.3</ele>
        <time>2021-03-20T16:27:37Z</time>
      </trkpt>
      <trkpt lat="56.02468" lon="-4.98075">
        <ele>29.96</ele>
        <time>2021-03-20T16:27:43Z</time>
      </trkpt>
      <trkpt lat="56.02422" lon="-4.98066">
        <ele>26.68</ele>
        <time>2021-03-20T16:27:48Z</time>
      </trkpt>
      <trkpt lat="56.0231" lon="-4.98016">
        <ele>22.37</ele>
        <time>2021-03-20T16:27:53Z</time>
      </trkpt>
      <trkpt lat="56.02148" lon="-4.97934">
        <ele>17.65</ele>
        <time>2021-03-20T16:27:58Z</time>
      </trkpt>
      <trkpt lat="56.02057" lon="-4.97882">
        <ele>15</ele>
        <time>2021-03-20T16:28:03Z</time>
      </trkpt>
      <trkpt lat="56.01875" lon="-4.9777">
        <ele>14.49</ele>
        <time>2021-03-20T16:28:09Z</time>
      </trkpt>
      <trkpt lat="56.01686" lon="-4.97649">
        <ele>14.31</ele>
        <time>2021-03-20T16:28:14Z</time>
      </trkpt>
      <trkpt lat="56.01616" lon="-4.97619">
        <ele>15</ele>
        <time>2021-03-20T16:28:19Z</time>
      </trkpt>
      <trkpt lat="56.01523" lon="-4.97617">
        <ele>14</ele>
        <time>2021-03-20T16:28:24Z</time>
      </trkpt>
      <trkpt lat="56.0148" lon="-4.9761">
        <ele>11.57</ele>
        <time>2021-03-20T16:28:29Z</time>
      </trkpt>
      <trkpt lat="56.01433" lon="-4.97588">
        <ele>9.58</ele>
        <time>2021-03-20T16:28:34Z</time>
      </trkpt>
      <trkpt lat="56.01336" lon="-4.97523">
        <ele>10.67</ele>
        <time>2021-03-20T16:28:40Z</time>
      </trkpt>
      <trkpt lat="56.01306" lon="-4.97508">
        <ele>12.1</ele>
        <time>2021-03-20T16:28:45Z</time>
      </trkpt>
      <trkpt lat="56.01273" lon="-4.97497">
        <ele>10.26</ele>
        <time>2021-03-20T16:28:50Z</time>
      </trkpt>
      <trkpt lat="56.0119" lon="-4.97482">
        <ele>14.26</ele>
        <time>2021-03-20T16:28:55Z</time>
      </trkpt>
      <trkpt lat="56.01151" lon="-4.97471">
        <ele>17.77</ele>
        <time>2021-03-20T16:29:00Z</time>
      </trkpt>
      <trkpt lat="56.01104" lon="-4.97447">
        <ele>16.77</ele>
        <time>2021-03-20T16:29:06Z</time>
      </trkpt>
      <trkpt lat="56.01049" lon="-4.97409">
        <ele>18.14</ele>
        <time>2021-03-20T16:29:11Z</time>
      </trkpt>
      <trkpt lat="56.00997" lon="-4.97353">
        <ele>15.44</ele>
        <time>2021-03-20T16:29:16Z</time>
      </trkpt>
      <trkpt lat="56.00964" lon="-4.97273">
        <ele>16.15</ele>
        <time>2021-03-20T16:29:21Z</time>
      </trkpt>
      <trkpt lat="56.00952" lon="-4.97225">
        <ele>17.29</ele>
        <time>2021-03-20T16:29:26Z</time>
      </trkpt>
      <trkpt lat="56.00942" lon="-4.97169">
        <ele>15.56</ele>
        <time>2021-03-20T16:29:32Z</time>
      </trkpt>
      <trkpt lat="56.00938" lon="-4.97109">
        <ele>11.55</ele>
        <time>2021-03-20T16:29:37Z</time>
      </trkpt>
      <trkpt lat="56.00936" lon="-4.97042">
        <ele>9.77</ele>
        <time>2021-03-20T16:29:42Z</time>
      </trkpt>
      <trkpt lat="56.0093" lon="-4.96954">
        <ele>10.94</ele>
        <time>2021-03-20T16:29:47Z</time>
      </trkpt>
      <trkpt lat="56.00921" lon="-4.96903">
        <ele>10.34</ele>
        <time>2021-03-20T16:29:52Z</time>
      </trkpt>
      <trkpt lat="56.00907" lon="-4.96843">
        <ele>9.32</ele>
        <time>2021-03-20T16:29:57Z</time>
      </trkpt>
      <trkpt lat="56.00871" lon="-4.96716">
        <ele>11.4</ele>
        <time>2021-03-20T16:30:03Z</time>
      </trkpt>
      <trkpt lat="56.00818" lon="-4.96517">
        <ele>13.15</ele>
        <time>2021-03-20T16:30:08Z</time>
      </trkpt>
      <trkpt lat="56.00801" lon="-4.96468">
        <ele>15.28</ele>
        <time>2021-03-20T16:30:13Z</time>
      </trkpt>
      <trkpt lat="56.0079" lon="-4.96442">
        <ele>17.06</ele>
        <time>2021-03-20T16:30:18Z</time>
      </trkpt>
      <trkpt lat="56.00775" lon="-4.96412">
        <ele>18.29</ele>
        <time>2021-03-20T16:30:23Z</time>
      </trkpt>
      <trkpt lat="56.00743" lon="-4.96364">
        <ele>17.6</ele>
        <time>2021-03-20T16:30:29Z</time>
      </trkpt>
      <trkpt lat="56.00691" lon="-4.96322">
        <ele>10.92</ele>
        <time>2021-03-20T16:30:34Z</time>
      </trkpt>
      <trkpt lat="56.00625" lon="-4.96289">
        <ele>5.36</ele>
        <time>2021-03-20T16:30:39Z</time>
      </trkpt>
      <trkpt lat="56.00591" lon="-4.96276">
        <ele>4.28</ele>
        <time>2021-03-20T16:30:44Z</time>
      </trkpt>
      <trkpt lat="56.00557" lon="-4.96266">
        <ele>4</ele>
        <time>2021-03-20T16:30:49Z</time>
      </trkpt>
      <trkpt lat="56.00531" lon="-4.96268">
        <ele>4</ele>
        <time>2021-03-20T16:30:55Z</time>
      </trkpt>
      <trkpt lat="56.00506" lon="-4.96276">
        <ele>4</ele>
        <time>2021-03-20T16:31:00Z</time>
      </trkpt>
      <trkpt lat="56.00484" lon="-4.9629">
        <ele>4</ele>
        <time>2021-03-20T16:31:05Z</time>
      </trkpt>
      <trkpt lat="56.00457" lon="-4.96315">
        <ele>4.54</ele>
        <time>2021-03-20T16:31:10Z</time>
      </trkpt>
      <trkpt lat="56.00433" lon="-4.96348">
        <ele>5.31</ele>
        <time>2021-03-20T16:31:15Z</time>
      </trkpt>
      <trkpt lat="56.00413" lon="-4.9639">
        <ele>5</ele>
        <time>2021-03-20T16:31:20Z</time>
      </trkpt>
      <trkpt lat="56.00401" lon="-4.96424">
        <ele>5</ele>
        <time>2021-03-20T16:31:26Z</time>
      </trkpt>
      <trkpt lat="56.00389" lon="-4.96475">
        <ele>5</ele>
        <time>2021-03-20T16:31:31Z</time>
      </trkpt>
      <trkpt lat="56.00382" lon="-4.96523">
        <ele>5.83</ele>
        <time>2021-03-20T16:31:36Z</time>
      </trkpt>
      <trkpt lat="56.00379" lon="-4.96601">
        <ele>7</ele>
        <time>2021-03-20T16:31:41Z</time>
      </trkpt>
      <trkpt lat="56.0038" lon="-4.96719">
        <ele>5.63</ele>
        <time>2021-03-20T16:31:46Z</time>
      </trkpt>
      <trkpt lat="56.00379" lon="-4.96786">
        <ele>4.7</ele>
        <time>2021-03-20T16:31:52Z</time>
      </trkpt>
      <trkpt lat="56.0037" lon="-4.96881">
        <ele>5</ele>
        <time>2021-03-20T16:31:57Z</time>
      </trkpt>
      <trkpt lat="56.00362" lon="-4.96935">
        <ele>5</ele>
        <time>2021-03-20T16:32:02Z</time>
      </trkpt>
      <trkpt lat="56.00346" lon="-4.97007">
        <ele>5.12</ele>
        <time>2021-03-20T16:32:07Z</time>
      </trkpt>
      <trkpt lat="56.00314" lon="-4.97111">
        <ele>7</ele>
        <time>2021-03-20T16:32:12Z</time>
      </trkpt>
      <trkpt lat="56.00261" lon="-4.9726">
        <ele>10.61</ele>
        <time>2021-03-20T16:32:18Z</time>
      </trkpt>
      <trkpt lat="56.00248" lon="-4.97288">
        <ele>10.94</ele>
        <time>2021-03-20T16:32:23Z</time>
      </trkpt>
      <trkpt lat="56.0023" lon="-4.97318">
        <ele>11</ele>
        <time>2021-03-20T16:32:28Z</time>
      </trkpt>
      <trkpt lat="56.00201" lon="-4.97355">
        <ele>10.06</ele>
        <time>2021-03-20T16:32:33Z</time>
      </trkpt>
      <trkpt lat="56.00185" lon="-4.9737">
        <ele>9.88</ele>
        <time>2021-03-20T16:32:38Z</time>
      </trkpt>
      <trkpt lat="56.00158" lon="-4.97387">
        <ele>9</ele>
        <time>2021-03-20T16:32:43Z</time>
      </trkpt>
      <trkpt lat="56.00118" lon="-4.97398">
        <ele>8.24</ele>
        <time>2021-03-20T16:32:49Z</time>
      </trkpt>
      <trkpt lat="56.00078" lon="-4.97398">
        <ele>7.32</ele>
        <time>2021-03-20T16:32:54Z</time>
      </trkpt>
      <trkpt lat="56.00039" lon="-4.97391">
        <ele>7.08</ele>
        <time>2021-03-20T16:32:59Z</time>
      </trkpt>
      <trkpt lat="55.99997" lon="-4.97378">
        <ele>6.1</ele>
        <time>2021-03-20T16:33:04Z</time>
      </trkpt>
      <trkpt lat="55.99895" lon="-4.97307">
        <ele>7.77</ele>
        <time>2021-03-20T16:33:09Z</time>
      </trkpt>
      <trkpt lat="55.99857" lon="-4.97283">
        <ele>7.69</ele>
        <time>2021-03-20T16:33:15Z</time>
      </trkpt>
      <trkpt lat="55.99823" lon="-4.97268">
        <ele>7</ele>
        <time>2021-03-20T16:33:20Z</time>
      </trkpt>
      <trkpt lat="55.99791" lon="-4.97262">
        <ele>7.53</ele>
        <time>2021-03-20T16:33:25Z</time>
      </trkpt>
      <trkpt lat="55.99756" lon="-4.97262">
        <ele>8.78</ele>
        <time>2021-03-20T16:33:30Z</time>
      </trkpt>
      <trkpt lat="55.99634" lon="-4.97283">
        <ele>11.86</ele>
        <time>2021-03-20T16:33:35Z</time>
      </trkpt>
      <trkpt lat="55.99613" lon="-4.97283">
        <ele>11.25</ele>
        <time>2021-03-20T16:33:41Z</time>
      </trkpt>
      <trkpt lat="55.99582" lon="-4.97272">
        <ele>10</ele>
        <time>2021-03-20T16:33:46Z</time>
      </trkpt>
      <trkpt lat="55.99547" lon="-4.9725">
        <ele>10</ele>
        <time>2021-03-20T16:33:51Z</time>
      </trkpt>
      <trkpt lat="55.99522" lon="-4.9722">
        <ele>9.18</ele>
        <time>2021-03-20T16:33:56Z</time>
      </trkpt>
      <trkpt lat="55.99473" lon="-4.97138">
        <ele>7.03</ele>
        <time>2021-03-20T16:34:01Z</time>
      </trkpt>
      <trkpt lat="55.99264" lon="-4.96774">
        <ele>6.87</ele>
        <time>2021-03-20T16:34:06Z</time>
      </trkpt>
      <trkpt lat="55.98972" lon="-4.96171">
        <ele>7.17</ele>
        <time>2021-03-20T16:34:12Z</time>
      </trkpt>
      <trkpt lat="55.98826" lon="-4.95894">
        <ele>9.56</ele>
        <time>2021-03-20T16:34:17Z</time>
      </trkpt>
      <trkpt lat="55.98591" lon="-4.95488">
        <ele>6.46</ele>
        <time>2021-03-20T16:34:22Z</time>
      </trkpt>
      <trkpt lat="55.98452" lon="-4.95322">
        <ele>6.8</ele>
        <time>2021-03-20T16:34:27Z</time>
      </trkpt>
      <trkpt lat="55.98271" lon="-4.95045">
        <ele>8.71</ele>
        <time>2021-03-20T16:34:32Z</time>
      </trkpt>
      <trkpt lat="55.98245" lon="-4.95008">
        <ele>7.43</ele>
        <time>2021-03-20T16:34:38Z</time>
      </trkpt>
      <trkpt lat="55.98159" lon="-4.949">
        <ele>8.51</ele>
        <time>2021-03-20T16:34:43Z</time>
      </trkpt>
      <trkpt lat="55.9814" lon="-4.9487">
        <ele>9.24</ele>
        <time>2021-03-20T16:34:48Z</time>
      </trkpt>
      <trkpt lat="55.98104" lon="-4.94822">
        <ele>10.21</ele>
        <time>2021-03-20T16:34:53Z</time>
      </trkpt>
      <trkpt lat="55.98036" lon="-4.94742">
        <ele>13.92</ele>
        <time>2021-03-20T16:34:58Z</time>
      </trkpt>
      <trkpt lat="55.97978" lon="-4.94649">
        <ele>13.99</ele>
        <time>2021-03-20T16:35:04Z</time>
      </trkpt>
      <trkpt lat="55.97929" lon="-4.94596">
        <ele>16.15</ele>
        <time>2021-03-20T16:35:09Z</time>
      </trkpt>
      <trkpt lat="55.97935" lon="-4.94582">
        <ele>15.64</ele>
        <time>2021-03-20T16:35:11Z</time>
      </trkpt>
      <trkpt lat="55.97928" lon="-4.94559">
        <ele>15.32</ele>
        <time>2021-03-20T16:35:14Z</time>
      </trkpt>
      <trkpt lat="55.97916" lon="-4.94491">
        <ele>15.7</ele>
        <time>2021-03-20T16:35:18Z</time>
      </trkpt>
      <trkpt lat="55.97911" lon="-4.94431">
        <ele>14.61</ele>
        <time>2021-03-20T16:35:22Z</time>
      </trkpt>
      <trkpt lat="55.97913" lon="-4.94365">
        <ele>14.27</ele>
        <time>2021-03-20T16:35:25Z</time>
      </trkpt>
      <trkpt lat="55.9792" lon="-4.94272">
        <ele>14.95</ele>
        <time>2021-03-20T16:35:29Z</time>
      </trkpt>
      <trkpt lat="55.97946" lon="-4.94236">
        <ele>14.37</ele>
        <time>2021-03-20T16:35:32Z</time>
      </trkpt>
      <trkpt lat="55.97963" lon="-4.94205">
        <ele>14.91</ele>
        <time>2021-03-20T16:35:36Z</time>
      </trkpt>
      <trkpt lat="55.97985" lon="-4.94131">
        <ele>18.49</ele>
        <time>2021-03-20T16:35:39Z</time>
      </trkpt>
      <trkpt lat="55.98006" lon="-4.94086">
        <ele>18.16</ele>
        <time>2021-03-20T16:35:42Z</time>
      </trkpt>
      <trkpt lat="55.98029" lon="-4.94065">
        <ele>14.6</ele>
        <time>2021-03-20T16:35:45Z</time>
      </trkpt>
      <trkpt lat="55.98059" lon="-4.94057">
        <ele>7.68</ele>
        <time>2021-03-20T16:35:49Z</time>
      </trkpt>
      <trkpt lat="55.9809" lon="-4.94052">
        <ele>7.79</ele>
        <time>2021-03-20T16:35:52Z</time>
      </trkpt>
      <trkpt lat="55.98081" lon="-4.94015">
        <ele>4.94</ele>
        <time>2021-03-20T16:35:56Z</time>
      </trkpt>
      <trkpt lat="55.98078" lon="-4.93968">
        <ele>3.97</ele>
        <time>2021-03-20T16:36:01Z</time>
      </trkpt>
      <trkpt lat="55.98082" lon="-4.93905">
        <ele>2.76</ele>
        <time>2021-03-20T16:36:05Z</time>
      </trkpt>
      <trkpt lat="55.98078" lon="-4.93798">
        <ele>13.65</ele>
        <time>2021-03-20T16:36:09Z</time>
      </trkpt>
      <trkpt lat="55.98073" lon="-4.93736">
        <ele>10.75</ele>
        <time>2021-03-20T16:36:13Z</time>
      </trkpt>
      <trkpt lat="55.98052" lon="-4.93661">
        <ele>2.55</ele>
        <time>2021-03-20T16:36:18Z</time>
      </trkpt>
      <trkpt lat="55.98046" lon="-4.93629">
        <ele>4.18</ele>
        <time>2021-03-20T16:36:22Z</time>
      </trkpt>
      <trkpt lat="55.98037" lon="-4.93558">
        <ele>6.85</ele>
        <time>2021-03-20T16:36:26Z</time>
      </trkpt>
      <trkpt lat="55.98046" lon="-4.9351">
        <ele>4.76</ele>
        <time>2021-03-20T16:36:31Z</time>
      </trkpt>
      <trkpt lat="55.98072" lon="-4.93431">
        <ele>9.11</ele>
        <time>2021-03-20T16:36:35Z</time>
      </trkpt>
      <trkpt lat="55.98105" lon="-4.93355">
        <ele>9.22</ele>
        <time>2021-03-20T16:36:39Z</time>
      </trkpt>
      <trkpt lat="55.98117" lon="-4.93317">
        <ele>8.58</ele>
        <time>2021-03-20T16:36:44Z</time>
      </trkpt>
      <trkpt lat="55.98127" lon="-4.93267">
        <ele>8.02</ele>
        <time>2021-03-20T16:36:48Z</time>
      </trkpt>
      <trkpt lat="55.98142" lon="-4.93221">
        <ele>5.79</ele>
        <time>2021-03-20T16:36:52Z</time>
      </trkpt>
      <trkpt lat="55.98176" lon="-4.93138">
        <ele>3.3</ele>
        <time>2021-03-20T16:36:56Z</time>
      </trkpt>
      <trkpt lat="55.98178" lon="-4.93127">
        <ele>3.19</ele>
        <time>2021-03-20T16:37:01Z</time>
      </trkpt>
      <trkpt lat="55.98177" lon="-4.9312">
        <ele>3.24</ele>
        <time>2021-03-20T16:37:05Z</time>
      </trkpt>
      <trkpt lat="55.98042" lon="-4.92986">
        <ele>6.95</ele>
        <time>2021-03-20T16:37:09Z</time>
      </trkpt>
      <trkpt lat="55.98016" lon="-4.92944">
        <ele>6.64</ele>
        <time>2021-03-20T16:37:14Z</time>
      </trkpt>
      <trkpt lat="55.98008" lon="-4.92921">
        <ele>7.03</ele>
        <time>2021-03-20T16:37:18Z</time>
      </trkpt>
      <trkpt lat="55.98002" lon="-4.92894">
        <ele>6.79</ele>
        <time>2021-03-20T16:37:22Z</time>
      </trkpt>
      <trkpt lat="55.97967" lon="-4.92669">
        <ele>7.18</ele>
        <time>2021-03-20T16:37:27Z</time>
      </trkpt>
      <trkpt lat="55.97944" lon="-4.92612">
        <ele>5.13</ele>
        <time>2021-03-20T16:37:31Z</time>
      </trkpt>
      <trkpt lat="55.97847" lon="-4.92494">
        <ele>6.28</ele>
        <time>2021-03-20T16:37:35Z</time>
      </trkpt>
      <trkpt lat="55.97827" lon="-4.92458">
        <ele>7.05</ele>
        <time>2021-03-20T16:37:39Z</time>
      </trkpt>
      <trkpt lat="55.97808" lon="-4.92415">
        <ele>8.41</ele>
        <time>2021-03-20T16:37:44Z</time>
      </trkpt>
      <trkpt lat="55.97696" lon="-4.92074">
        <ele>5.74</ele>
        <time>2021-03-20T16:37:48Z</time>
      </trkpt>
      <trkpt lat="55.97678" lon="-4.91882">
        <ele>9.72</ele>
        <time>2021-03-20T16:37:52Z</time>
      </trkpt>
      <trkpt lat="55.97637" lon="-4.91663">
        <ele>4.35</ele>
        <time>2021-03-20T16:37:57Z</time>
      </trkpt>
      <trkpt lat="55.97621" lon="-4.91613">
        <ele>5.38</ele>
        <time>2021-03-20T16:38:01Z</time>
      </trkpt>
      <trkpt lat="55.97559" lon="-4.9149">
        <ele>6.3</ele>
        <time>2021-03-20T16:38:05Z</time>
      </trkpt>
      <trkpt lat="55.97504" lon="-4.91376">
        <ele>8.61</ele>
        <time>2021-03-20T16:38:10Z</time>
      </trkpt>
      <trkpt lat="55.97469" lon="-4.9132">
        <ele>11.38</ele>
        <time>2021-03-20T16:38:14Z</time>
      </trkpt>
      <trkpt lat="55.97423" lon="-4.91266">
        <ele>9.43</ele>
        <time>2021-03-20T16:38:18Z</time>
      </trkpt>
      <trkpt lat="55.97394" lon="-4.91246">
        <ele>10.23</ele>
        <time>2021-03-20T16:38:22Z</time>
      </trkpt>
      <trkpt lat="55.97374" lon="-4.91226">
        <ele>9.52</ele>
        <time>2021-03-20T16:38:27Z</time>
      </trkpt>
      <trkpt lat="55.97361" lon="-4.9121">
        <ele>9.13</ele>
        <time>2021-03-20T16:38:31Z</time>
      </trkpt>
      <trkpt lat="55.97314" lon="-4.91125">
        <ele>6.43</ele>
        <time>2021-03-20T16:38:35Z</time>
      </trkpt>
      <trkpt lat="55.97303" lon="-4.91108">
        <ele>6.09</ele>
        <time>2021-03-20T16:38:40Z</time>
      </trkpt>
      <trkpt lat="55.97149" lon="-4.91013">
        <ele>7.23</ele>
        <time>2021-03-20T16:38:44Z</time>
      </trkpt>
      <trkpt lat="55.97072" lon="-4.91015">
        <ele>8.9</ele>
        <time>2021-03-20T16:38:48Z</time>
      </trkpt>
      <trkpt lat="55.97055" lon="-4.91004">
        <ele>9.33</ele>
        <time>2021-03-20T16:38:53Z</time>
      </trkpt>
      <trkpt lat="55.9705" lon="-4.90996">
        <ele>9.6</ele>
        <time>2021-03-20T16:38:57Z</time>
      </trkpt>
      <trkpt lat="55.97042" lon="-4.90981">
        <ele>9.55</ele>
        <time>2021-03-20T16:39:01Z</time>
      </trkpt>
      <trkpt lat="55.97033" lon="-4.90955">
        <ele>8.84</ele>
        <time>2021-03-20T16:39:05Z</time>
      </trkpt>
      <trkpt lat="55.97042" lon="-4.90946">
        <ele>6.62</ele>
        <time>2021-03-20T16:41:08Z</time>
      </trkpt>
      <trkpt lat="55.97047" lon="-4.90944">
        <ele>5.55</ele>
        <time>2021-03-20T16:43:10Z</time>
      </trkpt>
      <trkpt lat="55.97077" lon="-4.90908">
        <ele>1.12</ele>
        <time>2021-03-20T16:45:12Z</time>
      </trkpt>
      <trkpt lat="55.97082" lon="-4.90891">
        <ele>0.15</ele>
        <time>2021-03-20T16:47:14Z</time>
      </trkpt>
      <trkpt lat="55.97108" lon="-4.90862">
        <ele>1.2</ele>
        <time>2021-03-20T16:49:16Z</time>
      </trkpt>
      <trkpt lat="55.97144" lon="-4.90825">
        <ele>-0.13</ele>
        <time>2021-03-20T16:51:18Z</time>
      </trkpt>
      <trkpt lat="55.97164" lon="-4.90773">
        <ele>-0.28</ele>
        <time>2021-03-20T16:53:20Z</time>
      </trkpt>
      <trkpt lat="55.97182" lon="-4.90727">
        <ele>-0.17</ele>
        <time>2021-03-20T16:55:22Z</time>
      </trkpt>
      <trkpt lat="55.97195" lon="-4.90659">
        <ele>-0.02</ele>
        <time>2021-03-20T16:57:24Z</time>
      </trkpt>
      <trkpt lat="55.97191" lon="-4.90583">
        <ele>0.14</ele>
        <time>2021-03-20T16:59:26Z</time>
      </trkpt>
      <trkpt lat="55.95244" lon="-4.85336">
        <ele>12.3</ele>
        <time>2021-03-20T17:01:28Z</time>
      </trkpt>
      <trkpt lat="55.95217" lon="-4.85256">
        <ele>12.36</ele>
        <time>2021-03-20T17:03:30Z</time>
      </trkpt>
      <trkpt lat="55.952" lon="-4.85257">
        <ele>12.38</ele>
        <time>2021-03-20T17:05:32Z</time>
      </trkpt>
      <trkpt lat="55.95179" lon="-4.85293">
        <ele>12.47</ele>
        <time>2021-03-20T17:07:34Z</time>
      </trkpt>
      <trkpt lat="55.95142" lon="-4.85346">
        <ele>3.51</ele>
        <time>2021-03-20T17:09:36Z</time>
      </trkpt>
      <trkpt lat="55.95118" lon="-4.85271">
        <ele>8.99</ele>
        <time>2021-03-20T17:09:45Z</time>
      </trkpt>
      <trkpt lat="55.95097" lon="-4.85238">
        <ele>10.81</ele>
        <time>2021-03-20T17:09:54Z</time>
      </trkpt>
      <trkpt lat="55.95089" lon="-4.8516">
        <ele>10.63</ele>
        <time>2021-03-20T17:10:04Z</time>
      </trkpt>
      <trkpt lat="55.95089" lon="-4.85133">
        <ele>10.17</ele>
        <time>2021-03-20T17:10:14Z</time>
      </trkpt>
      <trkpt lat="55.95093" lon="-4.85077">
        <ele>8.78</ele>
        <time>2021-03-20T17:10:24Z</time>
      </trkpt>
      <trkpt lat="55.95101" lon="-4.85029">
        <ele>9.48</ele>
        <time>2021-03-20T17:10:33Z</time>
      </trkpt>
      <trkpt lat="55.95122" lon="-4.84924">
        <ele>10.31</ele>
        <time>2021-03-20T17:10:43Z</time>
      </trkpt>
      <trkpt lat="55.9519" lon="-4.84621">
        <ele>9.94</ele>
        <time>2021-03-20T17:10:53Z</time>
      </trkpt>
      <trkpt lat="55.95203" lon="-4.84502">
        <ele>8.8</ele>
        <time>2021-03-20T17:11:03Z</time>
      </trkpt>
      <trkpt lat="55.95229" lon="-4.84387">
        <ele>9.17</ele>
        <time>2021-03-20T17:11:12Z</time>
      </trkpt>
      <trkpt lat="55.95275" lon="-4.8424">
        <ele>5.94</ele>
        <time>2021-03-20T17:11:22Z</time>
      </trkpt>
      <trkpt lat="55.95299" lon="-4.84115">
        <ele>5.11</ele>
        <time>2021-03-20T17:11:32Z</time>
      </trkpt>
      <trkpt lat="55.95325" lon="-4.84006">
        <ele>5.67</ele>
        <time>2021-03-20T17:11:42Z</time>
      </trkpt>
      <trkpt lat="55.95397" lon="-4.83819">
        <ele>4.98</ele>
        <time>2021-03-20T17:11:51Z</time>
      </trkpt>
      <trkpt lat="55.95408" lon="-4.83779">
        <ele>6.16</ele>
        <time>2021-03-20T17:12:01Z</time>
      </trkpt>
      <trkpt lat="55.95514" lon="-4.83137">
        <ele>5.62</ele>
        <time>2021-03-20T17:12:11Z</time>
      </trkpt>
      <trkpt lat="55.95519" lon="-4.83112">
        <ele>6.91</ele>
        <time>2021-03-20T17:12:21Z</time>
      </trkpt>
      <trkpt lat="55.95529" lon="-4.8308">
        <ele>7.13</ele>
        <time>2021-03-20T17:12:31Z</time>
      </trkpt>
      <trkpt lat="55.95561" lon="-4.8301">
        <ele>6.19</ele>
        <time>2021-03-20T17:12:40Z</time>
      </trkpt>
      <trkpt lat="55.95723" lon="-4.82714">
        <ele>4.55</ele>
        <time>2021-03-20T17:12:50Z</time>
      </trkpt>
      <trkpt lat="55.95848" lon="-4.82494">
        <ele>9.11</ele>
        <time>2021-03-20T17:13:00Z</time>
      </trkpt>
      <trkpt lat="55.95909" lon="-4.82397">
        <ele>10.36</ele>
        <time>2021-03-20T17:13:10Z</time>
      </trkpt>
      <trkpt lat="55.96001" lon="-4.82286">
        <ele>10.06</ele>
        <time>2021-03-20T17:13:19Z</time>
      </trkpt>
      <trkpt lat="55.96031" lon="-4.82261">
        <ele>10.06</ele>
        <time>2021-03-20T17:13:29Z</time>
      </trkpt>
      <trkpt lat="55.96038" lon="-4.82251">
        <ele>10.2</ele>
        <time>2021-03-20T17:13:39Z</time>
      </trkpt>
      <trkpt lat="55.96085" lon="-4.82171">
        <ele>12.45</ele>
        <time>2021-03-20T17:13:49Z</time>
      </trkpt>
      <trkpt lat="55.96104" lon="-4.8216">
        <ele>10.47</ele>
        <time>2021-03-20T17:13:59Z</time>
      </trkpt>
      <trkpt lat="55.96114" lon="-4.82159">
        <ele>9.36</ele>
        <time>2021-03-20T17:14:08Z</time>
      </trkpt>
      <trkpt lat="55.96133" lon="-4.82149">
        <ele>8.69</ele>
        <time>2021-03-20T17:14:18Z</time>
      </trkpt>
      <trkpt lat="55.96147" lon="-4.82138">
        <ele>8.78</ele>
        <time>2021-03-20T17:14:28Z</time>
      </trkpt>
      <trkpt lat="55.96163" lon="-4.82113">
        <ele>8.48</ele>
        <time>2021-03-20T17:14:38Z</time>
      </trkpt>
      <trkpt lat="55.9618" lon="-4.82083">
        <ele>10.48</ele>
        <time>2021-03-20T17:14:47Z</time>
      </trkpt>
      <trkpt lat="55.96195" lon="-4.82052">
        <ele>12.13</ele>
        <time>2021-03-20T17:14:57Z</time>
      </trkpt>
      <trkpt lat="55.96209" lon="-4.82005">
        <ele>12.73</ele>
        <time>2021-03-20T17:15:07Z</time>
      </trkpt>
      <trkpt lat="55.96215" lon="-4.81974">
        <ele>13.05</ele>
        <time>2021-03-20T17:15:17Z</time>
      </trkpt>
      <trkpt lat="55.96219" lon="-4.8194">
        <ele>7.26</ele>
        <time>2021-03-20T17:15:27Z</time>
      </trkpt>
      <trkpt lat="55.96223" lon="-4.81875">
        <ele>4.91</ele>
        <time>2021-03-20T17:15:36Z</time>
      </trkpt>
      <trkpt lat="55.96223" lon="-4.81855">
        <ele>4.95</ele>
        <time>2021-03-20T17:15:46Z</time>
      </trkpt>
      <trkpt lat="55.96219" lon="-4.81833">
        <ele>5.68</ele>
        <time>2021-03-20T17:15:56Z</time>
      </trkpt>
      <trkpt lat="55.96211" lon="-4.81815">
        <ele>7.78</ele>
        <time>2021-03-20T17:16:06Z</time>
      </trkpt>
      <trkpt lat="55.96173" lon="-4.81783">
        <ele>11.88</ele>
        <time>2021-03-20T17:16:15Z</time>
      </trkpt>
      <trkpt lat="55.96133" lon="-4.81724">
        <ele>7.37</ele>
        <time>2021-03-20T17:16:25Z</time>
      </trkpt>
      <trkpt lat="55.9612" lon="-4.81708">
        <ele>7.33</ele>
        <time>2021-03-20T17:16:35Z</time>
      </trkpt>
      <trkpt lat="55.96027" lon="-4.81654">
        <ele>7.01</ele>
        <time>2021-03-20T17:16:45Z</time>
      </trkpt>
      <trkpt lat="55.95989" lon="-4.81628">
        <ele>7.01</ele>
        <time>2021-03-20T17:16:54Z</time>
      </trkpt>
      <trkpt lat="55.95961" lon="-4.81605">
        <ele>7.72</ele>
        <time>2021-03-20T17:17:04Z</time>
      </trkpt>
      <trkpt lat="55.95876" lon="-4.81525">
        <ele>9.3</ele>
        <time>2021-03-20T17:17:14Z</time>
      </trkpt>
      <trkpt lat="55.95828" lon="-4.81473">
        <ele>8.44</ele>
        <time>2021-03-20T17:17:24Z</time>
      </trkpt>
      <trkpt lat="55.95789" lon="-4.81401">
        <ele>8.03</ele>
        <time>2021-03-20T17:17:34Z</time>
      </trkpt>
      <trkpt lat="55.95669" lon="-4.81165">
        <ele>5.92</ele>
        <time>2021-03-20T17:17:43Z</time>
      </trkpt>
      <trkpt lat="55.95651" lon="-4.81139">
        <ele>8.86</ele>
        <time>2021-03-20T17:17:53Z</time>
      </trkpt>
      <trkpt lat="55.95625" lon="-4.81113">
        <ele>15.68</ele>
        <time>2021-03-20T17:18:03Z</time>
      </trkpt>
      <trkpt lat="55.95565" lon="-4.81073">
        <ele>19.38</ele>
        <time>2021-03-20T17:18:13Z</time>
      </trkpt>
      <trkpt lat="55.95555" lon="-4.81058">
        <ele>17.27</ele>
        <time>2021-03-20T17:18:22Z</time>
      </trkpt>
      <trkpt lat="55.95549" lon="-4.81041">
        <ele>16.6</ele>
        <time>2021-03-20T17:18:32Z</time>
      </trkpt>
      <trkpt lat="55.95548" lon="-4.81023">
        <ele>16.18</ele>
        <time>2021-03-20T17:18:42Z</time>
      </trkpt>
      <trkpt lat="55.95581" lon="-4.8079">
        <ele>9.95</ele>
        <time>2021-03-20T17:18:52Z</time>
      </trkpt>
      <trkpt lat="55.95622" lon="-4.80487">
        <ele>6.6</ele>
        <time>2021-03-20T17:19:02Z</time>
      </trkpt>
      <trkpt lat="55.95657" lon="-4.80263">
        <ele>4.93</ele>
        <time>2021-03-20T17:19:11Z</time>
      </trkpt>
      <trkpt lat="55.95667" lon="-4.80224">
        <ele>5.84</ele>
        <time>2021-03-20T17:19:21Z</time>
      </trkpt>
      <trkpt lat="55.95682" lon="-4.80186">
        <ele>5.22</ele>
        <time>2021-03-20T17:19:31Z</time>
      </trkpt>
      <trkpt lat="55.9571" lon="-4.80129">
        <ele>5.96</ele>
        <time>2021-03-20T17:19:41Z</time>
      </trkpt>
      <trkpt lat="55.96104" lon="-4.79462">
        <ele>11</ele>
        <time>2021-03-20T17:19:50Z</time>
      </trkpt>
      <trkpt lat="55.96149" lon="-4.79375">
        <ele>10.03</ele>
        <time>2021-03-20T17:20:00Z</time>
      </trkpt>
      <trkpt lat="55.96175" lon="-4.79314">
        <ele>11.33</ele>
        <time>2021-03-20T17:20:10Z</time>
      </trkpt>
      <trkpt lat="55.96188" lon="-4.79273">
        <ele>13.11</ele>
        <time>2021-03-20T17:20:20Z</time>
      </trkpt>
      <trkpt lat="55.96194" lon="-4.79251">
        <ele>13.11</ele>
        <time>2021-03-20T17:20:30Z</time>
      </trkpt>
      <trkpt lat="55.962" lon="-4.79213">
        <ele>14.17</ele>
        <time>2021-03-20T17:20:39Z</time>
      </trkpt>
      <trkpt lat="55.96204" lon="-4.79175">
        <ele>14.36</ele>
        <time>2021-03-20T17:20:49Z</time>
      </trkpt>
      <trkpt lat="55.96206" lon="-4.79125">
        <ele>14.4</ele>
        <time>2021-03-20T17:20:59Z</time>
      </trkpt>
      <trkpt lat="55.96205" lon="-4.79104">
        <ele>14.54</ele>
        <time>2021-03-20T17:21:09Z</time>
      </trkpt>
      <trkpt lat="55.96181" lon="-4.78779">
        <ele>14.48</ele>
        <time>2021-03-20T17:21:18Z</time>
      </trkpt>
      <trkpt lat="55.96157" lon="-4.78481">
        <ele>12.78</ele>
        <time>2021-03-20T17:21:28Z</time>
      </trkpt>
      <trkpt lat="55.96151" lon="-4.78437">
        <ele>12</ele>
        <time>2021-03-20T17:21:38Z</time>
      </trkpt>
      <trkpt lat="55.95952" lon="-4.77674">
        <ele>8.56</ele>
        <time>2021-03-20T17:21:48Z</time>
      </trkpt>
      <trkpt lat="55.95899" lon="-4.77464">
        <ele>8.5</ele>
        <time>2021-03-20T17:21:57Z</time>
      </trkpt>
      <trkpt lat="55.95873" lon="-4.77368">
        <ele>8.9</ele>
        <time>2021-03-20T17:22:07Z</time>
      </trkpt>
      <trkpt lat="55.95856" lon="-4.77331">
        <ele>9.35</ele>
        <time>2021-03-20T17:22:17Z</time>
      </trkpt>
      <trkpt lat="55.95833" lon="-4.77291">
        <ele>10.52</ele>
        <time>2021-03-20T17:22:27Z</time>
      </trkpt>
      <trkpt lat="55.95503" lon="-4.76826">
        <ele>9.56</ele>
        <time>2021-03-20T17:22:37Z</time>
      </trkpt>
      <trkpt lat="55.95449" lon="-4.76736">
        <ele>8.35</ele>
        <time>2021-03-20T17:22:46Z</time>
      </trkpt>
      <trkpt lat="55.95391" lon="-4.76622">
        <ele>8.3</ele>
        <time>2021-03-20T17:22:56Z</time>
      </trkpt>
      <trkpt lat="55.95252" lon="-4.76331">
        <ele>8.94</ele>
        <time>2021-03-20T17:23:06Z</time>
      </trkpt>
      <trkpt lat="55.95245" lon="-4.76311">
        <ele>9.19</ele>
        <time>2021-03-20T17:23:16Z</time>
      </trkpt>
      <trkpt lat="55.95225" lon="-4.76212">
        <ele>9.54</ele>
        <time>2021-03-20T17:23:25Z</time>
      </trkpt>
      <trkpt lat="55.95217" lon="-4.76183">
        <ele>8.76</ele>
        <time>2021-03-20T17:23:35Z</time>
      </trkpt>
      <trkpt lat="55.95203" lon="-4.76151">
        <ele>8.69</ele>
        <time>2021-03-20T17:23:45Z</time>
      </trkpt>
      <trkpt lat="55.95185" lon="-4.76126">
        <ele>9</ele>
        <time>2021-03-20T17:23:55Z</time>
      </trkpt>
      <trkpt lat="55.95233" lon="-4.76023">
        <ele>6.24</ele>
        <time>2021-03-20T17:24:06Z</time>
      </trkpt>
      <trkpt lat="55.95188" lon="-4.75955">
        <ele>9.09</ele>
        <time>2021-03-20T17:24:14Z</time>
      </trkpt>
      <trkpt lat="55.95175" lon="-4.7594">
        <ele>8.84</ele>
        <time>2021-03-20T17:24:21Z</time>
      </trkpt>
      <trkpt lat="55.95153" lon="-4.75924">
        <ele>8.26</ele>
        <time>2021-03-20T17:24:29Z</time>
      </trkpt>
      <trkpt lat="55.95119" lon="-4.75904">
        <ele>7.56</ele>
        <time>2021-03-20T17:24:36Z</time>
      </trkpt>
      <trkpt lat="55.95036" lon="-4.75775">
        <ele>8.05</ele>
        <time>2021-03-20T17:24:44Z</time>
      </trkpt>
      <trkpt lat="55.95089" lon="-4.75705">
        <ele>6.2</ele>
        <time>2021-03-20T17:24:49Z</time>
      </trkpt>
      <trkpt lat="55.95095" lon="-4.75694">
        <ele>6.41</ele>
        <time>2021-03-20T17:24:54Z</time>
      </trkpt>
      <trkpt lat="55.95097" lon="-4.75683">
        <ele>6.5</ele>
        <time>2021-03-20T17:24:59Z</time>
      </trkpt>
      <trkpt lat="55.95098" lon="-4.75669">
        <ele>6.51</ele>
        <time>2021-03-20T17:25:05Z</time>
      </trkpt>
      <trkpt lat="55.95096" lon="-4.75654">
        <ele>6.44</ele>
        <time>2021-03-20T17:25:10Z</time>
      </trkpt>
      <trkpt lat="55.95092" lon="-4.75645">
        <ele>6.3</ele>
        <time>2021-03-20T17:25:15Z</time>
      </trkpt>
      <trkpt lat="55.94872" lon="-4.7535">
        <ele>5</ele>
        <time>2021-03-20T17:25:20Z</time>
      </trkpt>
      <trkpt lat="55.94855" lon="-4.75323">
        <ele>5</ele>
        <time>2021-03-20T17:25:25Z</time>
      </trkpt>
      <trkpt lat="55.94831" lon="-4.75271">
        <ele>4.94</ele>
        <time>2021-03-20T17:25:31Z</time>
      </trkpt>
      <trkpt lat="55.94807" lon="-4.75208">
        <ele>6</ele>
        <time>2021-03-20T17:25:36Z</time>
      </trkpt>
      <trkpt lat="55.94801" lon="-4.75198">
        <ele>5.84</ele>
        <time>2021-03-20T17:25:41Z</time>
      </trkpt>
      <trkpt lat="55.94792" lon="-4.75193">
        <ele>5.56</ele>
        <time>2021-03-20T17:25:46Z</time>
      </trkpt>
      <trkpt lat="55.94779" lon="-4.75194">
        <ele>5.07</ele>
        <time>2021-03-20T17:25:51Z</time>
      </trkpt>
      <trkpt lat="55.94709" lon="-4.75222">
        <ele>5.47</ele>
        <time>2021-03-20T17:25:57Z</time>
      </trkpt>
      <trkpt lat="55.94687" lon="-4.75162">
        <ele>7</ele>
        <time>2021-03-20T17:26:05Z</time>
      </trkpt>
      <trkpt lat="55.94646" lon="-4.75079">
        <ele>5.96</ele>
        <time>2021-03-20T17:26:14Z</time>
      </trkpt>
      <trkpt lat="55.94602" lon="-4.75018">
        <ele>5.66</ele>
        <time>2021-03-20T17:26:23Z</time>
      </trkpt>
      <trkpt lat="55.9456" lon="-4.74954">
        <ele>5.83</ele>
        <time>2021-03-20T17:26:32Z</time>
      </trkpt>
      <trkpt lat="55.94486" lon="-4.74783">
        <ele>4.68</ele>
        <time>2021-03-20T17:26:41Z</time>
      </trkpt>
      <trkpt lat="55.94431" lon="-4.74855">
        <ele>6.79</ele>
        <time>2021-03-20T17:26:46Z</time>
      </trkpt>
      <trkpt lat="55.94419" lon="-4.74885">
        <ele>7</ele>
        <time>2021-03-20T17:26:52Z</time>
      </trkpt>
      <trkpt lat="55.94413" lon="-4.74887">
        <ele>7.26</ele>
        <time>2021-03-20T17:26:55Z</time>
      </trkpt>
      <trkpt lat="55.94409" lon="-4.74897">
        <ele>7.87</ele>
        <time>2021-03-20T17:26:57Z</time>
      </trkpt>
      <trkpt lat="55.94408" lon="-4.74904">
        <ele>8.18</ele>
        <time>2021-03-20T17:26:59Z</time>
      </trkpt>
      <trkpt lat="55.9436" lon="-4.74939">
        <ele>11.85</ele>
        <time>2021-03-20T17:27:01Z</time>
      </trkpt>
      <trkpt lat="55.94293" lon="-4.75002">
        <ele>17.32</ele>
        <time>2021-03-20T17:27:08Z</time>
      </trkpt>
      <trkpt lat="55.94235" lon="-4.7506">
        <ele>23.11</ele>
        <time>2021-03-20T17:27:14Z</time>
      </trkpt>
      <trkpt lat="55.9421" lon="-4.75076">
        <ele>25.19</ele>
        <time>2021-03-20T17:27:21Z</time>
      </trkpt>
      <trkpt lat="55.94185" lon="-4.75086">
        <ele>28.05</ele>
        <time>2021-03-20T17:27:27Z</time>
      </trkpt>
      <trkpt lat="55.94176" lon="-4.75045">
        <ele>27.3</ele>
        <time>2021-03-20T17:27:50Z</time>
      </trkpt>
      <trkpt lat="55.94022" lon="-4.74539">
        <ele>42.15</ele>
        <time>2021-03-20T17:28:13Z</time>
      </trkpt>
      <trkpt lat="55.9395" lon="-4.74605">
        <ele>47.19</ele>
        <time>2021-03-20T17:28:17Z</time>
      </trkpt>
      <trkpt lat="55.93935" lon="-4.74615">
        <ele>46.78</ele>
        <time>2021-03-20T17:28:21Z</time>
      </trkpt>
      <trkpt lat="55.93925" lon="-4.74611">
        <ele>46.99</ele>
        <time>2021-03-20T17:28:25Z</time>
      </trkpt>
      <trkpt lat="55.93912" lon="-4.74597">
        <ele>48.29</ele>
        <time>2021-03-20T17:28:29Z</time>
      </trkpt>
      <trkpt lat="55.93869" lon="-4.74519">
        <ele>55.41</ele>
        <time>2021-03-20T17:28:33Z</time>
      </trkpt>
      <trkpt lat="55.93837" lon="-4.74474">
        <ele>58.91</ele>
        <time>2021-03-20T17:28:37Z</time>
      </trkpt>
      <trkpt lat="55.93782" lon="-4.74472">
        <ele>60.69</ele>
        <time>2021-03-20T17:28:41Z</time>
      </trkpt>
      <trkpt lat="55.9377" lon="-4.74464">
        <ele>62.08</ele>
        <time>2021-03-20T17:28:45Z</time>
      </trkpt>
      <trkpt lat="55.9375" lon="-4.74447">
        <ele>63.91</ele>
        <time>2021-03-20T17:28:49Z</time>
      </trkpt>
      <trkpt lat="55.93538" lon="-4.74197">
        <ele>77.24</ele>
        <time>2021-03-20T17:28:54Z</time>
      </trkpt>
      <trkpt lat="55.9345" lon="-4.74065">
        <ele>78.95</ele>
        <time>2021-03-20T17:28:58Z</time>
      </trkpt>
      <trkpt lat="55.93432" lon="-4.74036">
        <ele>81.32</ele>
        <time>2021-03-20T17:29:02Z</time>
      </trkpt>
      <trkpt lat="55.93414" lon="-4.73984">
        <ele>82.51</ele>
        <time>2021-03-20T17:29:06Z</time>
      </trkpt>
      <trkpt lat="55.93354" lon="-4.73709">
        <ele>89.59</ele>
        <time>2021-03-20T17:29:10Z</time>
      </trkpt>
      <trkpt lat="55.93292" lon="-4.73377">
        <ele>97.59</ele>
        <time>2021-03-20T17:29:14Z</time>
      </trkpt>
      <trkpt lat="55.93202" lon="-4.72871">
        <ele>117.14</ele>
        <time>2021-03-20T17:29:18Z</time>
      </trkpt>
      <trkpt lat="55.93178" lon="-4.72754">
        <ele>123.95</ele>
        <time>2021-03-20T17:29:22Z</time>
      </trkpt>
      <trkpt lat="55.93169" lon="-4.72688">
        <ele>125.51</ele>
        <time>2021-03-20T17:29:26Z</time>
      </trkpt>
      <trkpt lat="55.93161" lon="-4.72581">
        <ele>128.65</ele>
        <time>2021-03-20T17:29:30Z</time>
      </trkpt>
      <trkpt lat="55.93162" lon="-4.7231">
        <ele>131.65</ele>
        <time>2021-03-20T17:29:34Z</time>
      </trkpt>
      <trkpt lat="55.93154" lon="-4.72217">
        <ele>134.17</ele>
        <time>2021-03-20T17:29:38Z</time>
      </trkpt>
      <trkpt lat="55.93119" lon="-4.72012">
        <ele>142.44</ele>
        <time>2021-03-20T17:29:42Z</time>
      </trkpt>
      <trkpt lat="55.9307" lon="-4.71831">
        <ele>149.36</ele>
        <time>2021-03-20T17:29:46Z</time>
      </trkpt>
      <trkpt lat="55.93063" lon="-4.71723">
        <ele>152.93</ele>
        <time>2021-03-20T17:29:51Z</time>
      </trkpt>
      <trkpt lat="55.93055" lon="-4.71663">
        <ele>157.14</ele>
        <time>2021-03-20T17:29:55Z</time>
      </trkpt>
      <trkpt lat="55.93028" lon="-4.71563">
        <ele>160.22</ele>
        <time>2021-03-20T17:29:59Z</time>
      </trkpt>
      <trkpt lat="55.93009" lon="-4.71478">
        <ele>166.22</ele>
        <time>2021-03-20T17:30:03Z</time>
      </trkpt>
      <trkpt lat="55.92994" lon="-4.71397">
        <ele>170.5</ele>
        <time>2021-03-20T17:30:07Z</time>
      </trkpt>
      <trkpt lat="55.9298" lon="-4.7135">
        <ele>173.01</ele>
        <time>2021-03-20T17:30:11Z</time>
      </trkpt>
      <trkpt lat="55.92887" lon="-4.71144">
        <ele>174.55</ele>
        <time>2021-03-20T17:30:15Z</time>
      </trkpt>
      <trkpt lat="55.92846" lon="-4.71073">
        <ele>179.6</ele>
        <time>2021-03-20T17:30:19Z</time>
      </trkpt>
      <trkpt lat="55.92803" lon="-4.71035">
        <ele>183.61</ele>
        <time>2021-03-20T17:30:23Z</time>
      </trkpt>
      <trkpt lat="55.92777" lon="-4.71019">
        <ele>185.41</ele>
        <time>2021-03-20T17:30:27Z</time>
      </trkpt>
      <trkpt lat="55.92753" lon="-4.7101">
        <ele>186.47</ele>
        <time>2021-03-20T17:30:31Z</time>
      </trkpt>
      <trkpt lat="55.92726" lon="-4.71007">
        <ele>187.38</ele>
        <time>2021-03-20T17:30:35Z</time>
      </trkpt>
      <trkpt lat="55.92702" lon="-4.7101">
        <ele>187.69</ele>
        <time>2021-03-20T17:30:39Z</time>
      </trkpt>
      <trkpt lat="55.92659" lon="-4.71032">
        <ele>190.14</ele>
        <time>2021-03-20T17:30:43Z</time>
      </trkpt>
      <trkpt lat="55.92613" lon="-4.71069">
        <ele>191.02</ele>
        <time>2021-03-20T17:30:48Z</time>
      </trkpt>
      <trkpt lat="55.92564" lon="-4.71115">
        <ele>194.45</ele>
        <time>2021-03-20T17:30:52Z</time>
      </trkpt>
      <trkpt lat="55.92531" lon="-4.71138">
        <ele>195.99</ele>
        <time>2021-03-20T17:30:56Z</time>
      </trkpt>
      <trkpt lat="55.92415" lon="-4.71177">
        <ele>198.3</ele>
        <time>2021-03-20T17:31:00Z</time>
      </trkpt>
      <trkpt lat="55.92176" lon="-4.71259">
        <ele>202.67</ele>
        <time>2021-03-20T17:31:04Z</time>
      </trkpt>
      <trkpt lat="55.92127" lon="-4.71278">
        <ele>201.58</ele>
        <time>2021-03-20T17:31:08Z</time>
      </trkpt>
      <trkpt lat="55.92068" lon="-4.71289">
        <ele>202.19</ele>
        <time>2021-03-20T17:31:12Z</time>
      </trkpt>
      <trkpt lat="55.92036" lon="-4.71284">
        <ele>203.74</ele>
        <time>2021-03-20T17:31:16Z</time>
      </trkpt>
      <trkpt lat="55.91919" lon="-4.71238">
        <ele>205.44</ele>
        <time>2021-03-20T17:31:20Z</time>
      </trkpt>
      <trkpt lat="55.91787" lon="-4.71181">
        <ele>207.2</ele>
        <time>2021-03-20T17:31:24Z</time>
      </trkpt>
      <trkpt lat="55.91733" lon="-4.71155">
        <ele>208.18</ele>
        <time>2021-03-20T17:31:28Z</time>
      </trkpt>
      <trkpt lat="55.91673" lon="-4.71119">
        <ele>208.27</ele>
        <time>2021-03-20T17:31:32Z</time>
      </trkpt>
      <trkpt lat="55.91643" lon="-4.71097">
        <ele>209.67</ele>
        <time>2021-03-20T17:31:36Z</time>
      </trkpt>
      <trkpt lat="55.91582" lon="-4.71001">
        <ele>209.93</ele>
        <time>2021-03-20T17:31:40Z</time>
      </trkpt>
      <trkpt lat="55.91545" lon="-4.70948">
        <ele>208.12</ele>
        <time>2021-03-20T17:31:45Z</time>
      </trkpt>
      <trkpt lat="55.91527" lon="-4.70926">
        <ele>208</ele>
        <time>2021-03-20T17:31:49Z</time>
      </trkpt>
      <trkpt lat="55.91482" lon="-4.7091">
        <ele>207.44</ele>
        <time>2021-03-20T17:31:53Z</time>
      </trkpt>
      <trkpt lat="55.91395" lon="-4.70859">
        <ele>200.25</ele>
        <time>2021-03-20T17:31:57Z</time>
      </trkpt>
      <trkpt lat="55.91374" lon="-4.70857">
        <ele>198.62</ele>
        <time>2021-03-20T17:32:01Z</time>
      </trkpt>
      <trkpt lat="55.91252" lon="-4.7087">
        <ele>193.74</ele>
        <time>2021-03-20T17:32:05Z</time>
      </trkpt>
      <trkpt lat="55.91208" lon="-4.70878">
        <ele>190.2</ele>
        <time>2021-03-20T17:32:09Z</time>
      </trkpt>
      <trkpt lat="55.91179" lon="-4.70887">
        <ele>188.74</ele>
        <time>2021-03-20T17:32:13Z</time>
      </trkpt>
      <trkpt lat="55.91152" lon="-4.70899">
        <ele>187.15</ele>
        <time>2021-03-20T17:32:17Z</time>
      </trkpt>
      <trkpt lat="55.91135" lon="-4.70902">
        <ele>186.02</ele>
        <time>2021-03-20T17:32:21Z</time>
      </trkpt>
      <trkpt lat="55.91109" lon="-4.70891">
        <ele>185.98</ele>
        <time>2021-03-20T17:32:25Z</time>
      </trkpt>
      <trkpt lat="55.91061" lon="-4.70851">
        <ele>181.45</ele>
        <time>2021-03-20T17:32:29Z</time>
      </trkpt>
      <trkpt lat="55.91022" lon="-4.70825">
        <ele>179.35</ele>
        <time>2021-03-20T17:32:33Z</time>
      </trkpt>
      <trkpt lat="55.91003" lon="-4.70816">
        <ele>178.14</ele>
        <time>2021-03-20T17:32:38Z</time>
      </trkpt>
      <trkpt lat="55.90992" lon="-4.70814">
        <ele>177.26</ele>
        <time>2021-03-20T17:32:42Z</time>
      </trkpt>
      <trkpt lat="55.90985" lon="-4.70816">
        <ele>176.54</ele>
        <time>2021-03-20T17:32:46Z</time>
      </trkpt>
      <trkpt lat="55.90976" lon="-4.70824">
        <ele>176.01</ele>
        <time>2021-03-20T17:32:50Z</time>
      </trkpt>
      <trkpt lat="55.90969" lon="-4.70834">
        <ele>175.71</ele>
        <time>2021-03-20T17:32:54Z</time>
      </trkpt>
      <trkpt lat="55.90959" lon="-4.70859">
        <ele>175.46</ele>
        <time>2021-03-20T17:32:58Z</time>
      </trkpt>
      <trkpt lat="55.90949" lon="-4.70877">
        <ele>174.44</ele>
        <time>2021-03-20T17:33:02Z</time>
      </trkpt>
      <trkpt lat="55.90938" lon="-4.70887">
        <ele>173.52</ele>
        <time>2021-03-20T17:33:06Z</time>
      </trkpt>
      <trkpt lat="55.90926" lon="-4.70899">
        <ele>172.98</ele>
        <time>2021-03-20T17:33:10Z</time>
      </trkpt>
      <trkpt lat="55.90911" lon="-4.70906">
        <ele>172.4</ele>
        <time>2021-03-20T17:33:14Z</time>
      </trkpt>
      <trkpt lat="55.90892" lon="-4.70909">
        <ele>171.85</ele>
        <time>2021-03-20T17:33:18Z</time>
      </trkpt>
      <trkpt lat="55.90877" lon="-4.70903">
        <ele>170.38</ele>
        <time>2021-03-20T17:33:22Z</time>
      </trkpt>
      <trkpt lat="55.90818" lon="-4.7087">
        <ele>164.91</ele>
        <time>2021-03-20T17:33:26Z</time>
      </trkpt>
      <trkpt lat="55.90755" lon="-4.70862">
        <ele>160.5</ele>
        <time>2021-03-20T17:33:30Z</time>
      </trkpt>
      <trkpt lat="55.90733" lon="-4.70852">
        <ele>158.59</ele>
        <time>2021-03-20T17:33:35Z</time>
      </trkpt>
      <trkpt lat="55.90701" lon="-4.70827">
        <ele>156.06</ele>
        <time>2021-03-20T17:33:39Z</time>
      </trkpt>
      <trkpt lat="55.90651" lon="-4.70777">
        <ele>153.41</ele>
        <time>2021-03-20T17:33:43Z</time>
      </trkpt>
      <trkpt lat="55.90535" lon="-4.70648">
        <ele>150.27</ele>
        <time>2021-03-20T17:33:47Z</time>
      </trkpt>
      <trkpt lat="55.90504" lon="-4.70615">
        <ele>149.15</ele>
        <time>2021-03-20T17:33:51Z</time>
      </trkpt>
      <trkpt lat="55.90427" lon="-4.70545">
        <ele>148</ele>
        <time>2021-03-20T17:33:55Z</time>
      </trkpt>
      <trkpt lat="55.90233" lon="-4.70337">
        <ele>144.65</ele>
        <time>2021-03-20T17:33:59Z</time>
      </trkpt>
      <trkpt lat="55.90195" lon="-4.70286">
        <ele>144.04</ele>
        <time>2021-03-20T17:34:03Z</time>
      </trkpt>
      <trkpt lat="55.90181" lon="-4.7026">
        <ele>144.14</ele>
        <time>2021-03-20T17:34:07Z</time>
      </trkpt>
      <trkpt lat="55.90088" lon="-4.7013">
        <ele>145.15</ele>
        <time>2021-03-20T17:34:11Z</time>
      </trkpt>
      <trkpt lat="55.90025" lon="-4.70063">
        <ele>150.9</ele>
        <time>2021-03-20T17:34:15Z</time>
      </trkpt>
      <trkpt lat="55.89794" lon="-4.69787">
        <ele>159.95</ele>
        <time>2021-03-20T17:34:19Z</time>
      </trkpt>
      <trkpt lat="55.89767" lon="-4.69736">
        <ele>158.41</ele>
        <time>2021-03-20T17:34:23Z</time>
      </trkpt>
      <trkpt lat="55.89702" lon="-4.69587">
        <ele>157.28</ele>
        <time>2021-03-20T17:34:27Z</time>
      </trkpt>
      <trkpt lat="55.89683" lon="-4.6953">
        <ele>157.6</ele>
        <time>2021-03-20T17:34:32Z</time>
      </trkpt>
      <trkpt lat="55.89658" lon="-4.69465">
        <ele>156.65</ele>
        <time>2021-03-20T17:34:36Z</time>
      </trkpt>
      <trkpt lat="55.89608" lon="-4.69348">
        <ele>155.15</ele>
        <time>2021-03-20T17:34:40Z</time>
      </trkpt>
      <trkpt lat="55.89547" lon="-4.69223">
        <ele>147.11</ele>
        <time>2021-03-20T17:34:44Z</time>
      </trkpt>
      <trkpt lat="55.89514" lon="-4.69183">
        <ele>144.28</ele>
        <time>2021-03-20T17:34:48Z</time>
      </trkpt>
      <trkpt lat="55.89495" lon="-4.69172">
        <ele>143.16</ele>
        <time>2021-03-20T17:34:52Z</time>
      </trkpt>
      <trkpt lat="55.89321" lon="-4.69119">
        <ele>138.72</ele>
        <time>2021-03-20T17:34:56Z</time>
      </trkpt>
      <trkpt lat="55.89302" lon="-4.69117">
        <ele>138.9</ele>
        <time>2021-03-20T17:35:00Z</time>
      </trkpt>
      <trkpt lat="55.89257" lon="-4.69121">
        <ele>140.53</ele>
        <time>2021-03-20T17:35:04Z</time>
      </trkpt>
      <trkpt lat="55.8924" lon="-4.69118">
        <ele>140.92</ele>
        <time>2021-03-20T17:35:08Z</time>
      </trkpt>
      <trkpt lat="55.89218" lon="-4.69109">
        <ele>140.67</ele>
        <time>2021-03-20T17:35:12Z</time>
      </trkpt>
      <trkpt lat="55.89197" lon="-4.69092">
        <ele>140.32</ele>
        <time>2021-03-20T17:35:16Z</time>
      </trkpt>
      <trkpt lat="55.8918" lon="-4.6907">
        <ele>140.36</ele>
        <time>2021-03-20T17:35:20Z</time>
      </trkpt>
      <trkpt lat="55.89164" lon="-4.69035">
        <ele>140.16</ele>
        <time>2021-03-20T17:35:24Z</time>
      </trkpt>
      <trkpt lat="55.89141" lon="-4.68954">
        <ele>136.9</ele>
        <time>2021-03-20T17:35:29Z</time>
      </trkpt>
      <trkpt lat="55.89128" lon="-4.68918">
        <ele>135.42</ele>
        <time>2021-03-20T17:35:33Z</time>
      </trkpt>
      <trkpt lat="55.89109" lon="-4.68874">
        <ele>133.73</ele>
        <time>2021-03-20T17:35:37Z</time>
      </trkpt>
      <trkpt lat="55.89094" lon="-4.68823">
        <ele>131.88</ele>
        <time>2021-03-20T17:35:41Z</time>
      </trkpt>
      <trkpt lat="55.89072" lon="-4.68737">
        <ele>127.69</ele>
        <time>2021-03-20T17:35:45Z</time>
      </trkpt>
      <trkpt lat="55.89063" lon="-4.68688">
        <ele>127.27</ele>
        <time>2021-03-20T17:35:49Z</time>
      </trkpt>
      <trkpt lat="55.8905" lon="-4.68587">
        <ele>124.92</ele>
        <time>2021-03-20T17:35:53Z</time>
      </trkpt>
      <trkpt lat="55.89039" lon="-4.68508">
        <ele>122.01</ele>
        <time>2021-03-20T17:35:57Z</time>
      </trkpt>
      <trkpt lat="55.89026" lon="-4.6846">
        <ele>121.56</ele>
        <time>2021-03-20T17:36:01Z</time>
      </trkpt>
      <trkpt lat="55.88986" lon="-4.68357">
        <ele>118.84</ele>
        <time>2021-03-20T17:36:05Z</time>
      </trkpt>
      <trkpt lat="55.88976" lon="-4.6832">
        <ele>118</ele>
        <time>2021-03-20T17:36:09Z</time>
      </trkpt>
      <trkpt lat="55.88969" lon="-4.68283">
        <ele>117.17</ele>
        <time>2021-03-20T17:36:13Z</time>
      </trkpt>
      <trkpt lat="55.88964" lon="-4.68249">
        <ele>117</ele>
        <time>2021-03-20T17:36:17Z</time>
      </trkpt>
      <trkpt lat="55.88963" lon="-4.68198">
        <ele>117</ele>
        <time>2021-03-20T17:36:21Z</time>
      </trkpt>
      <trkpt lat="55.8897" lon="-4.68101">
        <ele>118.82</ele>
        <time>2021-03-20T17:36:26Z</time>
      </trkpt>
      <trkpt lat="55.88971" lon="-4.68051">
        <ele>119.81</ele>
        <time>2021-03-20T17:36:30Z</time>
      </trkpt>
      <trkpt lat="55.88967" lon="-4.67962">
        <ele>120.81</ele>
        <time>2021-03-20T17:36:34Z</time>
      </trkpt>
      <trkpt lat="55.88961" lon="-4.67939">
        <ele>121.03</ele>
        <time>2021-03-20T17:36:38Z</time>
      </trkpt>
      <trkpt lat="55.88955" lon="-4.67921">
        <ele>120.97</ele>
        <time>2021-03-20T17:36:42Z</time>
      </trkpt>
      <trkpt lat="55.88945" lon="-4.67904">
        <ele>120.56</ele>
        <time>2021-03-20T17:36:46Z</time>
      </trkpt>
      <trkpt lat="55.88922" lon="-4.67879">
        <ele>118.14</ele>
        <time>2021-03-20T17:36:50Z</time>
      </trkpt>
      <trkpt lat="55.88911" lon="-4.67863">
        <ele>117.38</ele>
        <time>2021-03-20T17:36:54Z</time>
      </trkpt>
      <trkpt lat="55.88901" lon="-4.67836">
        <ele>116.74</ele>
        <time>2021-03-20T17:36:58Z</time>
      </trkpt>
      <trkpt lat="55.88802" lon="-4.67527">
        <ele>116.78</ele>
        <time>2021-03-20T17:37:02Z</time>
      </trkpt>
      <trkpt lat="55.88725" lon="-4.67314">
        <ele>117.2</ele>
        <time>2021-03-20T17:37:06Z</time>
      </trkpt>
      <trkpt lat="55.88612" lon="-4.66968">
        <ele>112.22</ele>
        <time>2021-03-20T17:37:10Z</time>
      </trkpt>
      <trkpt lat="55.88602" lon="-4.66928">
        <ele>112.06</ele>
        <time>2021-03-20T17:37:14Z</time>
      </trkpt>
      <trkpt lat="55.88584" lon="-4.66654">
        <ele>114.02</ele>
        <time>2021-03-20T17:37:18Z</time>
      </trkpt>
      <trkpt lat="55.8857" lon="-4.66555">
        <ele>114.53</ele>
        <time>2021-03-20T17:37:23Z</time>
      </trkpt>
      <trkpt lat="55.88509" lon="-4.66354">
        <ele>116.56</ele>
        <time>2021-03-20T17:37:27Z</time>
      </trkpt>
      <trkpt lat="55.88473" lon="-4.66285">
        <ele>117.75</ele>
        <time>2021-03-20T17:37:31Z</time>
      </trkpt>
      <trkpt lat="55.88431" lon="-4.66135">
        <ele>118.63</ele>
        <time>2021-03-20T17:37:35Z</time>
      </trkpt>
      <trkpt lat="55.88419" lon="-4.66072">
        <ele>121.25</ele>
        <time>2021-03-20T17:37:39Z</time>
      </trkpt>
      <trkpt lat="55.88387" lon="-4.66002">
        <ele>120.92</ele>
        <time>2021-03-20T17:37:43Z</time>
      </trkpt>
      <trkpt lat="55.88376" lon="-4.65954">
        <ele>119.89</ele>
        <time>2021-03-20T17:37:47Z</time>
      </trkpt>
      <trkpt lat="55.88364" lon="-4.65833">
        <ele>119</ele>
        <time>2021-03-20T17:37:51Z</time>
      </trkpt>
      <trkpt lat="55.88373" lon="-4.65705">
        <ele>119.14</ele>
        <time>2021-03-20T17:37:55Z</time>
      </trkpt>
      <trkpt lat="55.88388" lon="-4.65626">
        <ele>119.49</ele>
        <time>2021-03-20T17:37:59Z</time>
      </trkpt>
      <trkpt lat="55.88388" lon="-4.65524">
        <ele>118.88</ele>
        <time>2021-03-20T17:38:03Z</time>
      </trkpt>
      <trkpt lat="55.88394" lon="-4.65443">
        <ele>117.17</ele>
        <time>2021-03-20T17:38:07Z</time>
      </trkpt>
      <trkpt lat="55.88432" lon="-4.65282">
        <ele>116.08</ele>
        <time>2021-03-20T17:38:11Z</time>
      </trkpt>
      <trkpt lat="55.88454" lon="-4.65125">
        <ele>109.83</ele>
        <time>2021-03-20T17:38:15Z</time>
      </trkpt>
      <trkpt lat="55.88497" lon="-4.6497">
        <ele>105.79</ele>
        <time>2021-03-20T17:38:20Z</time>
      </trkpt>
      <trkpt lat="55.88501" lon="-4.6494">
        <ele>104.88</ele>
        <time>2021-03-20T17:38:24Z</time>
      </trkpt>
      <trkpt lat="55.88495" lon="-4.64916">
        <ele>103.8</ele>
        <time>2021-03-20T17:38:28Z</time>
      </trkpt>
      <trkpt lat="55.88467" lon="-4.6488">
        <ele>100.49</ele>
        <time>2021-03-20T17:38:32Z</time>
      </trkpt>
      <trkpt lat="55.88456" lon="-4.64857">
        <ele>99.09</ele>
        <time>2021-03-20T17:38:36Z</time>
      </trkpt>
      <trkpt lat="55.88452" lon="-4.64837">
        <ele>97.58</ele>
        <time>2021-03-20T17:38:40Z</time>
      </trkpt>
      <trkpt lat="55.88478" lon="-4.64558">
        <ele>89.69</ele>
        <time>2021-03-20T17:38:44Z</time>
      </trkpt>
      <trkpt lat="55.88384" lon="-4.64611">
        <ele>88.18</ele>
        <time>2021-03-20T17:38:47Z</time>
      </trkpt>
      <trkpt lat="55.88366" lon="-4.64617">
        <ele>88.85</ele>
        <time>2021-03-20T17:38:51Z</time>
      </trkpt>
      <trkpt lat="55.88346" lon="-4.64615">
        <ele>90.01</ele>
        <time>2021-03-20T17:38:54Z</time>
      </trkpt>
      <trkpt lat="55.88303" lon="-4.64597">
        <ele>92.35</ele>
        <time>2021-03-20T17:38:58Z</time>
      </trkpt>
      <trkpt lat="55.88189" lon="-4.64566">
        <ele>88.2</ele>
        <time>2021-03-20T17:39:01Z</time>
      </trkpt>
      <trkpt lat="55.88144" lon="-4.64577">
        <ele>85.28</ele>
        <time>2021-03-20T17:39:05Z</time>
      </trkpt>
      <trkpt lat="55.88111" lon="-4.64589">
        <ele>84.01</ele>
        <time>2021-03-20T17:39:08Z</time>
      </trkpt>
      <trkpt lat="55.88086" lon="-4.64603">
        <ele>83.1</ele>
        <time>2021-03-20T17:39:12Z</time>
      </trkpt>
      <trkpt lat="55.88017" lon="-4.64616">
        <ele>80.86</ele>
        <time>2021-03-20T17:39:15Z</time>
      </trkpt>
      <trkpt lat="55.87961" lon="-4.64624">
        <ele>79.74</ele>
        <time>2021-03-20T17:39:18Z</time>
      </trkpt>
      <trkpt lat="55.87752" lon="-4.64631">
        <ele>77.02</ele>
        <time>2021-03-20T17:39:22Z</time>
      </trkpt>
      <trkpt lat="55.87703" lon="-4.64651">
        <ele>75</ele>
        <time>2021-03-20T17:39:25Z</time>
      </trkpt>
      <trkpt lat="55.87644" lon="-4.64668">
        <ele>72.34</ele>
        <time>2021-03-20T17:39:29Z</time>
      </trkpt>
      <trkpt lat="55.87582" lon="-4.64677">
        <ele>69.4</ele>
        <time>2021-03-20T17:39:32Z</time>
      </trkpt>
      <trkpt lat="55.8757" lon="-4.64683">
        <ele>70.04</ele>
        <time>2021-03-20T17:39:36Z</time>
      </trkpt>
      <trkpt lat="55.87554" lon="-4.64703">
        <ele>71.05</ele>
        <time>2021-03-20T17:39:39Z</time>
      </trkpt>
      <trkpt lat="55.87547" lon="-4.64703">
        <ele>71.29</ele>
        <time>2021-03-20T17:39:43Z</time>
      </trkpt>
      <trkpt lat="55.87539" lon="-4.64698">
        <ele>71.6</ele>
        <time>2021-03-20T17:39:46Z</time>
      </trkpt>
      <trkpt lat="55.87528" lon="-4.64684">
        <ele>71.61</ele>
        <time>2021-03-20T17:39:49Z</time>
      </trkpt>
      <trkpt lat="55.87504" lon="-4.64641">
        <ele>71</ele>
        <time>2021-03-20T17:39:53Z</time>
      </trkpt>
      <trkpt lat="55.87478" lon="-4.64612">
        <ele>70.81</ele>
        <time>2021-03-20T17:39:56Z</time>
      </trkpt>
      <trkpt lat="55.8745" lon="-4.64587">
        <ele>72.5</ele>
        <time>2021-03-20T17:40:00Z</time>
      </trkpt>
      <trkpt lat="55.87398" lon="-4.64551">
        <ele>73.77</ele>
        <time>2021-03-20T17:40:03Z</time>
      </trkpt>
      <trkpt lat="55.87199" lon="-4.6446">
        <ele>81.79</ele>
        <time>2021-03-20T17:40:07Z</time>
      </trkpt>
      <trkpt lat="55.87061" lon="-4.64456">
        <ele>84.08</ele>
        <time>2021-03-20T17:40:10Z</time>
      </trkpt>
      <trkpt lat="55.86948" lon="-4.64384">
        <ele>83.14</ele>
        <time>2021-03-20T17:40:14Z</time>
      </trkpt>
      <trkpt lat="55.86908" lon="-4.64329">
        <ele>82.12</ele>
        <time>2021-03-20T17:40:17Z</time>
      </trkpt>
      <trkpt lat="55.86882" lon="-4.64314">
        <ele>80.52</ele>
        <time>2021-03-20T17:40:20Z</time>
      </trkpt>
      <trkpt lat="55.86801" lon="-4.6431">
        <ele>81.19</ele>
        <time>2021-03-20T17:40:24Z</time>
      </trkpt>
      <trkpt lat="55.86773" lon="-4.64306">
        <ele>82.36</ele>
        <time>2021-03-20T17:40:27Z</time>
      </trkpt>
      <trkpt lat="55.86762" lon="-4.64297">
        <ele>82.86</ele>
        <time>2021-03-20T17:40:31Z</time>
      </trkpt>
      <trkpt lat="55.86735" lon="-4.64253">
        <ele>83.1</ele>
        <time>2021-03-20T17:40:34Z</time>
      </trkpt>
      <trkpt lat="55.86719" lon="-4.64246">
        <ele>84.23</ele>
        <time>2021-03-20T17:40:38Z</time>
      </trkpt>
      <trkpt lat="55.86691" lon="-4.64246">
        <ele>86.1</ele>
        <time>2021-03-20T17:40:41Z</time>
      </trkpt>
      <trkpt lat="55.86681" lon="-4.64239">
        <ele>86.29</ele>
        <time>2021-03-20T17:40:44Z</time>
      </trkpt>
      <trkpt lat="55.86668" lon="-4.64222">
        <ele>86</ele>
        <time>2021-03-20T17:40:48Z</time>
      </trkpt>
      <trkpt lat="55.86658" lon="-4.64201">
        <ele>85.54</ele>
        <time>2021-03-20T17:40:51Z</time>
      </trkpt>
      <trkpt lat="55.86593" lon="-4.64042">
        <ele>84.28</ele>
        <time>2021-03-20T17:40:55Z</time>
      </trkpt>
      <trkpt lat="55.86581" lon="-4.64005">
        <ele>85.2</ele>
        <time>2021-03-20T17:40:58Z</time>
      </trkpt>
      <trkpt lat="55.86573" lon="-4.63987">
        <ele>85.28</ele>
        <time>2021-03-20T17:41:02Z</time>
      </trkpt>
      <trkpt lat="55.86563" lon="-4.63974">
        <ele>85.53</ele>
        <time>2021-03-20T17:41:05Z</time>
      </trkpt>
      <trkpt lat="55.86542" lon="-4.63957">
        <ele>85.15</ele>
        <time>2021-03-20T17:41:09Z</time>
      </trkpt>
      <trkpt lat="55.86462" lon="-4.6386">
        <ele>80.54</ele>
        <time>2021-03-20T17:41:12Z</time>
      </trkpt>
      <trkpt lat="55.86445" lon="-4.63843">
        <ele>79.35</ele>
        <time>2021-03-20T17:41:15Z</time>
      </trkpt>
      <trkpt lat="55.86404" lon="-4.63821">
        <ele>80.02</ele>
        <time>2021-03-20T17:41:19Z</time>
      </trkpt>
      <trkpt lat="55.8638" lon="-4.63805">
        <ele>79.64</ele>
        <time>2021-03-20T17:41:22Z</time>
      </trkpt>
      <trkpt lat="55.86346" lon="-4.63764">
        <ele>76.96</ele>
        <time>2021-03-20T17:41:26Z</time>
      </trkpt>
      <trkpt lat="55.86305" lon="-4.63725">
        <ele>73.22</ele>
        <time>2021-03-20T17:41:29Z</time>
      </trkpt>
      <trkpt lat="55.86268" lon="-4.6368">
        <ele>71.85</ele>
        <time>2021-03-20T17:41:33Z</time>
      </trkpt>
      <trkpt lat="55.86258" lon="-4.63672">
        <ele>71.89</ele>
        <time>2021-03-20T17:41:36Z</time>
      </trkpt>
      <trkpt lat="55.86197" lon="-4.63633">
        <ele>73.78</ele>
        <time>2021-03-20T17:41:40Z</time>
      </trkpt>
      <trkpt lat="55.86142" lon="-4.63584">
        <ele>73.89</ele>
        <time>2021-03-20T17:41:43Z</time>
      </trkpt>
      <trkpt lat="55.86114" lon="-4.63553">
        <ele>73.91</ele>
        <time>2021-03-20T17:41:46Z</time>
      </trkpt>
      <trkpt lat="55.86014" lon="-4.63424">
        <ele>80.75</ele>
        <time>2021-03-20T17:41:50Z</time>
      </trkpt>
      <trkpt lat="55.86001" lon="-4.6341">
        <ele>81.72</ele>
        <time>2021-03-20T17:41:53Z</time>
      </trkpt>
      <trkpt lat="55.8597" lon="-4.63389">
        <ele>85.09</ele>
        <time>2021-03-20T17:41:57Z</time>
      </trkpt>
      <trkpt lat="55.85863" lon="-4.63292">
        <ele>95.5</ele>
        <time>2021-03-20T17:42:00Z</time>
      </trkpt>
      <trkpt lat="55.85797" lon="-4.63211">
        <ele>102.94</ele>
        <time>2021-03-20T17:42:04Z</time>
      </trkpt>
      <trkpt lat="55.85783" lon="-4.63172">
        <ele>105.83</ele>
        <time>2021-03-20T17:42:07Z</time>
      </trkpt>
      <trkpt lat="55.85785" lon="-4.63127">
        <ele>105.19</ele>
        <time>2021-03-20T17:42:10Z</time>
      </trkpt>
      <trkpt lat="55.85783" lon="-4.63085">
        <ele>104.27</ele>
        <time>2021-03-20T17:42:14Z</time>
      </trkpt>
      <trkpt lat="55.85771" lon="-4.63045">
        <ele>104.49</ele>
        <time>2021-03-20T17:42:17Z</time>
      </trkpt>
      <trkpt lat="55.85667" lon="-4.62849">
        <ele>106.53</ele>
        <time>2021-03-20T17:42:21Z</time>
      </trkpt>
      <trkpt lat="55.85616" lon="-4.62765">
        <ele>116.61</ele>
        <time>2021-03-20T17:42:24Z</time>
      </trkpt>
      <trkpt lat="55.85568" lon="-4.62697">
        <ele>120.02</ele>
        <time>2021-03-20T17:42:28Z</time>
      </trkpt>
      <trkpt lat="55.85512" lon="-4.62635">
        <ele>134.05</ele>
        <time>2021-03-20T17:42:31Z</time>
      </trkpt>
      <trkpt lat="55.85444" lon="-4.62495">
        <ele>138.61</ele>
        <time>2021-03-20T17:42:35Z</time>
      </trkpt>
      <trkpt lat="55.85426" lon="-4.62472">
        <ele>136.3</ele>
        <time>2021-03-20T17:42:38Z</time>
      </trkpt>
      <trkpt lat="55.85414" lon="-4.62462">
        <ele>135.33</ele>
        <time>2021-03-20T17:42:41Z</time>
      </trkpt>
      <trkpt lat="55.8539" lon="-4.62467">
        <ele>136.6</ele>
        <time>2021-03-20T17:42:45Z</time>
      </trkpt>
      <trkpt lat="55.85361" lon="-4.62499">
        <ele>138.97</ele>
        <time>2021-03-20T17:42:48Z</time>
      </trkpt>
      <trkpt lat="55.85336" lon="-4.62546">
        <ele>142.27</ele>
        <time>2021-03-20T17:42:52Z</time>
      </trkpt>
      <trkpt lat="55.85305" lon="-4.62706">
        <ele>151.5</ele>
        <time>2021-03-20T17:42:55Z</time>
      </trkpt>
      <trkpt lat="55.85298" lon="-4.62721">
        <ele>152.51</ele>
        <time>2021-03-20T17:42:59Z</time>
      </trkpt>
      <trkpt lat="55.85286" lon="-4.62734">
        <ele>153.51</ele>
        <time>2021-03-20T17:43:02Z</time>
      </trkpt>
      <trkpt lat="55.85267" lon="-4.62742">
        <ele>154.1</ele>
        <time>2021-03-20T17:43:06Z</time>
      </trkpt>
      <trkpt lat="55.85207" lon="-4.62743">
        <ele>154.13</ele>
        <time>2021-03-20T17:43:09Z</time>
      </trkpt>
      <trkpt lat="55.85044" lon="-4.62764">
        <ele>153.29</ele>
        <time>2021-03-20T17:43:12Z</time>
      </trkpt>
      <trkpt lat="55.84943" lon="-4.62784">
        <ele>150.66</ele>
        <time>2021-03-20T17:43:16Z</time>
      </trkpt>
      <trkpt lat="55.84778" lon="-4.6285">
        <ele>149.62</ele>
        <time>2021-03-20T17:43:19Z</time>
      </trkpt>
      <trkpt lat="55.84744" lon="-4.62866">
        <ele>152.57</ele>
        <time>2021-03-20T17:43:23Z</time>
      </trkpt>
      <trkpt lat="55.84659" lon="-4.62955">
        <ele>156.63</ele>
        <time>2021-03-20T17:43:26Z</time>
      </trkpt>
      <trkpt lat="55.84493" lon="-4.63073">
        <ele>157.99</ele>
        <time>2021-03-20T17:43:30Z</time>
      </trkpt>
      <trkpt lat="55.84456" lon="-4.63096">
        <ele>158.46</ele>
        <time>2021-03-20T17:43:33Z</time>
      </trkpt>
      <trkpt lat="55.84342" lon="-4.6316">
        <ele>156.84</ele>
        <time>2021-03-20T17:43:37Z</time>
      </trkpt>
      <trkpt lat="55.84312" lon="-4.63171">
        <ele>156.09</ele>
        <time>2021-03-20T17:43:40Z</time>
      </trkpt>
      <trkpt lat="55.84264" lon="-4.63181">
        <ele>155.5</ele>
        <time>2021-03-20T17:43:43Z</time>
      </trkpt>
      <trkpt lat="55.8416" lon="-4.63193">
        <ele>158.35</ele>
        <time>2021-03-20T17:43:47Z</time>
      </trkpt>
      <trkpt lat="55.8413" lon="-4.63191">
        <ele>159.56</ele>
        <time>2021-03-20T17:43:50Z</time>
      </trkpt>
      <trkpt lat="55.84112" lon="-4.63181">
        <ele>160.46</ele>
        <time>2021-03-20T17:43:54Z</time>
      </trkpt>
      <trkpt lat="55.83989" lon="-4.63084">
        <ele>159</ele>
        <time>2021-03-20T17:43:57Z</time>
      </trkpt>
      <trkpt lat="55.83955" lon="-4.63064">
        <ele>159.19</ele>
        <time>2021-03-20T17:44:01Z</time>
      </trkpt>
      <trkpt lat="55.8393" lon="-4.63055">
        <ele>159.51</ele>
        <time>2021-03-20T17:44:04Z</time>
      </trkpt>
      <trkpt lat="55.83898" lon="-4.63047">
        <ele>160.37</ele>
        <time>2021-03-20T17:44:07Z</time>
      </trkpt>
      <trkpt lat="55.83765" lon="-4.63031">
        <ele>165.05</ele>
        <time>2021-03-20T17:44:11Z</time>
      </trkpt>
      <trkpt lat="55.83714" lon="-4.63031">
        <ele>168</ele>
        <time>2021-03-20T17:44:14Z</time>
      </trkpt>
      <trkpt lat="55.83364" lon="-4.62951">
        <ele>169.95</ele>
        <time>2021-03-20T17:44:18Z</time>
      </trkpt>
      <trkpt lat="55.83171" lon="-4.62865">
        <ele>175.04</ele>
        <time>2021-03-20T17:44:21Z</time>
      </trkpt>
      <trkpt lat="55.8294" lon="-4.62676">
        <ele>172.83</ele>
        <time>2021-03-20T17:44:25Z</time>
      </trkpt>
      <trkpt lat="55.82835" lon="-4.62689">
        <ele>172.24</ele>
        <time>2021-03-20T17:44:28Z</time>
      </trkpt>
      <trkpt lat="55.82678" lon="-4.62587">
        <ele>167.4</ele>
        <time>2021-03-20T17:44:32Z</time>
      </trkpt>
      <trkpt lat="55.82666" lon="-4.62584">
        <ele>166.92</ele>
        <time>2021-03-20T17:44:35Z</time>
      </trkpt>
      <trkpt lat="55.82653" lon="-4.62585">
        <ele>166.04</ele>
        <time>2021-03-20T17:44:38Z</time>
      </trkpt>
      <trkpt lat="55.8264" lon="-4.62591">
        <ele>165.07</ele>
        <time>2021-03-20T17:44:42Z</time>
      </trkpt>
      <trkpt lat="55.82585" lon="-4.62629">
        <ele>164.71</ele>
        <time>2021-03-20T17:44:45Z</time>
      </trkpt>
      <trkpt lat="55.8252" lon="-4.62658">
        <ele>165.69</ele>
        <time>2021-03-20T17:44:49Z</time>
      </trkpt>
      <trkpt lat="55.82467" lon="-4.62676">
        <ele>166.16</ele>
        <time>2021-03-20T17:44:52Z</time>
      </trkpt>
      <trkpt lat="55.82409" lon="-4.62691">
        <ele>164.62</ele>
        <time>2021-03-20T17:44:56Z</time>
      </trkpt>
      <trkpt lat="55.8237" lon="-4.62691">
        <ele>162.55</ele>
        <time>2021-03-20T17:44:59Z</time>
      </trkpt>
      <trkpt lat="55.82355" lon="-4.62698">
        <ele>161.93</ele>
        <time>2021-03-20T17:45:03Z</time>
      </trkpt>
      <trkpt lat="55.82241" lon="-4.62827">
        <ele>163</ele>
        <time>2021-03-20T17:45:06Z</time>
      </trkpt>
      <trkpt lat="55.82143" lon="-4.62911">
        <ele>164.79</ele>
        <time>2021-03-20T17:45:09Z</time>
      </trkpt>
      <trkpt lat="55.8211" lon="-4.6293">
        <ele>163.93</ele>
        <time>2021-03-20T17:45:13Z</time>
      </trkpt>
      <trkpt lat="55.82084" lon="-4.62936">
        <ele>162.05</ele>
        <time>2021-03-20T17:45:16Z</time>
      </trkpt>
      <trkpt lat="55.82044" lon="-4.62936">
        <ele>158.04</ele>
        <time>2021-03-20T17:45:20Z</time>
      </trkpt>
      <trkpt lat="55.82001" lon="-4.62928">
        <ele>156.18</ele>
        <time>2021-03-20T17:45:23Z</time>
      </trkpt>
      <trkpt lat="55.81959" lon="-4.62912">
        <ele>154.28</ele>
        <time>2021-03-20T17:45:27Z</time>
      </trkpt>
      <trkpt lat="55.81922" lon="-4.62893">
        <ele>150.62</ele>
        <time>2021-03-20T17:45:30Z</time>
      </trkpt>
      <trkpt lat="55.81892" lon="-4.62867">
        <ele>148.93</ele>
        <time>2021-03-20T17:45:34Z</time>
      </trkpt>
      <trkpt lat="55.8187" lon="-4.62838">
        <ele>148.61</ele>
        <time>2021-03-20T17:45:37Z</time>
      </trkpt>
      <trkpt lat="55.81838" lon="-4.62788">
        <ele>147.14</ele>
        <time>2021-03-20T17:45:40Z</time>
      </trkpt>
      <trkpt lat="55.81761" lon="-4.62737">
        <ele>136.62</ele>
        <time>2021-03-20T17:45:44Z</time>
      </trkpt>
      <trkpt lat="55.81623" lon="-4.62642">
        <ele>128.11</ele>
        <time>2021-03-20T17:45:47Z</time>
      </trkpt>
      <trkpt lat="55.81428" lon="-4.62491">
        <ele>122.21</ele>
        <time>2021-03-20T17:45:51Z</time>
      </trkpt>
      <trkpt lat="55.81398" lon="-4.6247">
        <ele>123.71</ele>
        <time>2021-03-20T17:45:54Z</time>
      </trkpt>
      <trkpt lat="55.81363" lon="-4.62502">
        <ele>123</ele>
        <time>2021-03-20T17:45:58Z</time>
      </trkpt>
      <trkpt lat="55.8134" lon="-4.62551">
        <ele>118.74</ele>
        <time>2021-03-20T17:46:01Z</time>
      </trkpt>
      <trkpt lat="55.81225" lon="-4.62669">
        <ele>112.2</ele>
        <time>2021-03-20T17:46:04Z</time>
      </trkpt>
      <trkpt lat="55.81114" lon="-4.62738">
        <ele>108.06</ele>
        <time>2021-03-20T17:46:08Z</time>
      </trkpt>
      <trkpt lat="55.8105" lon="-4.62745">
        <ele>106.81</ele>
        <time>2021-03-20T17:46:11Z</time>
      </trkpt>
      <trkpt lat="55.80999" lon="-4.62722">
        <ele>105</ele>
        <time>2021-03-20T17:46:15Z</time>
      </trkpt>
      <trkpt lat="55.80982" lon="-4.62696">
        <ele>105</ele>
        <time>2021-03-20T17:46:18Z</time>
      </trkpt>
      <trkpt lat="55.80934" lon="-4.6267">
        <ele>105.13</ele>
        <time>2021-03-20T17:46:22Z</time>
      </trkpt>
      <trkpt lat="55.80862" lon="-4.62676">
        <ele>106.01</ele>
        <time>2021-03-20T17:46:25Z</time>
      </trkpt>
      <trkpt lat="55.80771" lon="-4.62693">
        <ele>97.2</ele>
        <time>2021-03-20T17:46:29Z</time>
      </trkpt>
      <trkpt lat="55.80666" lon="-4.62775">
        <ele>91</ele>
        <time>2021-03-20T17:46:32Z</time>
      </trkpt>
      <trkpt lat="55.80648" lon="-4.62768">
        <ele>91</ele>
        <time>2021-03-20T17:46:34Z</time>
      </trkpt>
      <trkpt lat="55.80621" lon="-4.62722">
        <ele>90</ele>
        <time>2021-03-20T17:46:35Z</time>
      </trkpt>
      <trkpt lat="55.80601" lon="-4.62759">
        <ele>92.05</ele>
        <time>2021-03-20T17:46:40Z</time>
      </trkpt>
      <trkpt lat="55.80584" lon="-4.6277">
        <ele>93.65</ele>
        <time>2021-03-20T17:46:45Z</time>
      </trkpt>
      <trkpt lat="55.80581" lon="-4.62779">
        <ele>93.88</ele>
        <time>2021-03-20T17:46:50Z</time>
      </trkpt>
      <trkpt lat="55.80585" lon="-4.62819">
        <ele>94.9</ele>
        <time>2021-03-20T17:46:54Z</time>
      </trkpt>
      <trkpt lat="55.80569" lon="-4.62867">
        <ele>92.88</ele>
        <time>2021-03-20T17:46:59Z</time>
      </trkpt>
      <trkpt lat="55.8056" lon="-4.62886">
        <ele>92.17</ele>
        <time>2021-03-20T17:47:04Z</time>
      </trkpt>
      <trkpt lat="55.80521" lon="-4.62925">
        <ele>90.08</ele>
        <time>2021-03-20T17:47:09Z</time>
      </trkpt>
      <trkpt lat="55.80512" lon="-4.62944">
        <ele>90.55</ele>
        <time>2021-03-20T17:47:14Z</time>
      </trkpt>
      <trkpt lat="55.80447" lon="-4.63002">
        <ele>90.75</ele>
        <time>2021-03-20T17:47:19Z</time>
      </trkpt>
      <trkpt lat="55.80397" lon="-4.63092">
        <ele>83.51</ele>
        <time>2021-03-20T17:47:23Z</time>
      </trkpt>
      <trkpt lat="55.80362" lon="-4.63187">
        <ele>75.85</ele>
        <time>2021-03-20T17:47:28Z</time>
      </trkpt>
      <trkpt lat="55.80345" lon="-4.6322">
        <ele>73.92</ele>
        <time>2021-03-20T17:47:33Z</time>
      </trkpt>
      <trkpt lat="55.80334" lon="-4.63259">
        <ele>72.59</ele>
        <time>2021-03-20T17:47:38Z</time>
      </trkpt>
      <trkpt lat="55.80316" lon="-4.63294">
        <ele>71.55</ele>
        <time>2021-03-20T17:47:43Z</time>
      </trkpt>
      <trkpt lat="55.80277" lon="-4.63354">
        <ele>70.55</ele>
        <time>2021-03-20T17:47:48Z</time>
      </trkpt>
      <trkpt lat="55.80236" lon="-4.63394">
        <ele>70.47</ele>
        <time>2021-03-20T17:47:53Z</time>
      </trkpt>
      <trkpt lat="55.80136" lon="-4.63515">
        <ele>61.14</ele>
        <time>2021-03-20T17:47:57Z</time>
      </trkpt>
      <trkpt lat="55.80105" lon="-4.63556">
        <ele>54.54</ele>
        <time>2021-03-20T17:48:02Z</time>
      </trkpt>
      <trkpt lat="55.80076" lon="-4.63544">
        <ele>54.54</ele>
        <time>2021-03-20T17:48:07Z</time>
      </trkpt>
      <trkpt lat="55.80055" lon="-4.63549">
        <ele>54.78</ele>
        <time>2021-03-20T17:48:12Z</time>
      </trkpt>
      <trkpt lat="55.8003" lon="-4.63565">
        <ele>55.12</ele>
        <time>2021-03-20T17:48:17Z</time>
      </trkpt>
      <trkpt lat="55.79905" lon="-4.63544">
        <ele>47.78</ele>
        <time>2021-03-20T17:48:22Z</time>
      </trkpt>
      <trkpt lat="55.79893" lon="-4.63647">
        <ele>45.6</ele>
        <time>2021-03-20T17:48:28Z</time>
      </trkpt>
      <trkpt lat="55.79737" lon="-4.6362">
        <ele>38.48</ele>
        <time>2021-03-20T17:48:37Z</time>
      </trkpt>
      <trkpt lat="55.79593" lon="-4.6374">
        <ele>37</ele>
        <time>2021-03-20T17:48:46Z</time>
      </trkpt>
      <trkpt lat="55.79576" lon="-4.63766">
        <ele>37</ele>
        <time>2021-03-20T17:48:54Z</time>
      </trkpt>
      <trkpt lat="55.79526" lon="-4.63723">
        <ele>36.94</ele>
        <time>2021-03-20T17:49:03Z</time>
      </trkpt>
      <trkpt lat="55.795" lon="-4.63716">
        <ele>35.98</ele>
        <time>2021-03-20T17:49:11Z</time>
      </trkpt>
      <trkpt lat="55.79398" lon="-4.63699">
        <ele>36.67</ele>
        <time>2021-03-20T17:49:20Z</time>
      </trkpt>
      <trkpt lat="55.79372" lon="-4.63668">
        <ele>37.94</ele>
        <time>2021-03-20T17:49:28Z</time>
      </trkpt>
      <trkpt lat="55.79344" lon="-4.6362">
        <ele>35.68</ele>
        <time>2021-03-20T17:49:37Z</time>
      </trkpt>
      <trkpt lat="55.79267" lon="-4.63615">
        <ele>38.55</ele>
        <time>2021-03-20T17:49:46Z</time>
      </trkpt>
      <trkpt lat="55.79265" lon="-4.63629">
        <ele>39.42</ele>
        <time>2021-03-20T17:49:49Z</time>
      </trkpt>
      <trkpt lat="55.79259" lon="-4.63651">
        <ele>41.32</ele>
        <time>2021-03-20T17:49:53Z</time>
      </trkpt>
      <trkpt lat="55.79226" lon="-4.63732">
        <ele>41.65</ele>
        <time>2021-03-20T17:49:56Z</time>
      </trkpt>
      <trkpt lat="55.79217" lon="-4.6376">
        <ele>41.39</ele>
        <time>2021-03-20T17:49:59Z</time>
      </trkpt>
      <trkpt lat="55.79202" lon="-4.63794">
        <ele>41.64</ele>
        <time>2021-03-20T17:50:03Z</time>
      </trkpt>
      <trkpt lat="55.79179" lon="-4.63837">
        <ele>43.6</ele>
        <time>2021-03-20T17:50:06Z</time>
      </trkpt>
      <trkpt lat="55.79162" lon="-4.63859">
        <ele>44.56</ele>
        <time>2021-03-20T17:50:10Z</time>
      </trkpt>
      <trkpt lat="55.79146" lon="-4.63874">
        <ele>46.26</ele>
        <time>2021-03-20T17:50:13Z</time>
      </trkpt>
      <trkpt lat="55.79071" lon="-4.63917">
        <ele>52</ele>
        <time>2021-03-20T17:50:17Z</time>
      </trkpt>
      <trkpt lat="55.79043" lon="-4.63928">
        <ele>52.45</ele>
        <time>2021-03-20T17:50:20Z</time>
      </trkpt>
      <trkpt lat="55.78973" lon="-4.63926">
        <ele>52.69</ele>
        <time>2021-03-20T17:50:23Z</time>
      </trkpt>
      <trkpt lat="55.78934" lon="-4.63932">
        <ele>51.05</ele>
        <time>2021-03-20T17:50:27Z</time>
      </trkpt>
      <trkpt lat="55.78833" lon="-4.63964">
        <ele>50.28</ele>
        <time>2021-03-20T17:50:30Z</time>
      </trkpt>
      <trkpt lat="55.78639" lon="-4.64098">
        <ele>48</ele>
        <time>2021-03-20T17:50:34Z</time>
      </trkpt>
      <trkpt lat="55.78572" lon="-4.64153">
        <ele>47</ele>
        <time>2021-03-20T17:50:37Z</time>
      </trkpt>
      <trkpt lat="55.78495" lon="-4.64205">
        <ele>48.17</ele>
        <time>2021-03-20T17:50:41Z</time>
      </trkpt>
      <trkpt lat="55.7848" lon="-4.64218">
        <ele>48.72</ele>
        <time>2021-03-20T17:50:44Z</time>
      </trkpt>
      <trkpt lat="55.78469" lon="-4.6423">
        <ele>48.6</ele>
        <time>2021-03-20T17:50:47Z</time>
      </trkpt>
      <trkpt lat="55.78446" lon="-4.64272">
        <ele>47.01</ele>
        <time>2021-03-20T17:50:51Z</time>
      </trkpt>
      <trkpt lat="55.78434" lon="-4.64285">
        <ele>47.28</ele>
        <time>2021-03-20T17:50:54Z</time>
      </trkpt>
      <trkpt lat="55.7842" lon="-4.64292">
        <ele>47.5</ele>
        <time>2021-03-20T17:50:58Z</time>
      </trkpt>
      <trkpt lat="55.78389" lon="-4.64288">
        <ele>47.01</ele>
        <time>2021-03-20T17:51:01Z</time>
      </trkpt>
      <trkpt lat="55.78365" lon="-4.64294">
        <ele>47</ele>
        <time>2021-03-20T17:51:05Z</time>
      </trkpt>
      <trkpt lat="55.78336" lon="-4.6431">
        <ele>46.09</ele>
        <time>2021-03-20T17:51:08Z</time>
      </trkpt>
      <trkpt lat="55.78307" lon="-4.6433">
        <ele>45.06</ele>
        <time>2021-03-20T17:51:12Z</time>
      </trkpt>
      <trkpt lat="55.78236" lon="-4.64392">
        <ele>42.66</ele>
        <time>2021-03-20T17:51:15Z</time>
      </trkpt>
      <trkpt lat="55.78177" lon="-4.64448">
        <ele>42.28</ele>
        <time>2021-03-20T17:51:18Z</time>
      </trkpt>
      <trkpt lat="55.78138" lon="-4.64493">
        <ele>44</ele>
        <time>2021-03-20T17:51:22Z</time>
      </trkpt>
      <trkpt lat="55.78088" lon="-4.64563">
        <ele>44.48</ele>
        <time>2021-03-20T17:51:25Z</time>
      </trkpt>
      <trkpt lat="55.78077" lon="-4.6458">
        <ele>46.21</ele>
        <time>2021-03-20T17:51:29Z</time>
      </trkpt>
      <trkpt lat="55.78019" lon="-4.64695">
        <ele>51.67</ele>
        <time>2021-03-20T17:51:32Z</time>
      </trkpt>
      <trkpt lat="55.77965" lon="-4.64834">
        <ele>50.81</ele>
        <time>2021-03-20T17:51:36Z</time>
      </trkpt>
      <trkpt lat="55.77918" lon="-4.6495">
        <ele>55.47</ele>
        <time>2021-03-20T17:51:39Z</time>
      </trkpt>
      <trkpt lat="55.77888" lon="-4.65015">
        <ele>57.56</ele>
        <time>2021-03-20T17:51:42Z</time>
      </trkpt>
      <trkpt lat="55.77864" lon="-4.65045">
        <ele>59.5</ele>
        <time>2021-03-20T17:51:46Z</time>
      </trkpt>
      <trkpt lat="55.77822" lon="-4.65079">
        <ele>64.84</ele>
        <time>2021-03-20T17:51:49Z</time>
      </trkpt>
      <trkpt lat="55.77801" lon="-4.65105">
        <ele>66</ele>
        <time>2021-03-20T17:51:53Z</time>
      </trkpt>
      <trkpt lat="55.77739" lon="-4.65212">
        <ele>67.39</ele>
        <time>2021-03-20T17:51:56Z</time>
      </trkpt>
      <trkpt lat="55.77714" lon="-4.65247">
        <ele>67.11</ele>
        <time>2021-03-20T17:52:00Z</time>
      </trkpt>
      <trkpt lat="55.77688" lon="-4.65274">
        <ele>66.14</ele>
        <time>2021-03-20T17:52:03Z</time>
      </trkpt>
      <trkpt lat="55.7763" lon="-4.65315">
        <ele>64</ele>
        <time>2021-03-20T17:52:06Z</time>
      </trkpt>
      <trkpt lat="55.77518" lon="-4.65383">
        <ele>64.36</ele>
        <time>2021-03-20T17:52:10Z</time>
      </trkpt>
      <trkpt lat="55.77323" lon="-4.65468">
        <ele>61.69</ele>
        <time>2021-03-20T17:52:13Z</time>
      </trkpt>
      <trkpt lat="55.77288" lon="-4.65501">
        <ele>59.97</ele>
        <time>2021-03-20T17:52:17Z</time>
      </trkpt>
      <trkpt lat="55.7716" lon="-4.65611">
        <ele>60</ele>
        <time>2021-03-20T17:52:20Z</time>
      </trkpt>
      <trkpt lat="55.76977" lon="-4.65851">
        <ele>56.63</ele>
        <time>2021-03-20T17:52:24Z</time>
      </trkpt>
      <trkpt lat="55.76776" lon="-4.6592">
        <ele>44.93</ele>
        <time>2021-03-20T17:52:27Z</time>
      </trkpt>
      <trkpt lat="55.76678" lon="-4.6556">
        <ele>41.35</ele>
        <time>2021-03-20T17:52:34Z</time>
      </trkpt>
      <trkpt lat="55.76402" lon="-4.65304">
        <ele>33</ele>
        <time>2021-03-20T17:52:40Z</time>
      </trkpt>
      <trkpt lat="55.76327" lon="-4.65137">
        <ele>32.29</ele>
        <time>2021-03-20T17:52:47Z</time>
      </trkpt>
      <trkpt lat="55.76243" lon="-4.64865">
        <ele>32.24</ele>
        <time>2021-03-20T17:52:53Z</time>
      </trkpt>
      <trkpt lat="55.76225" lon="-4.6483">
        <ele>31.99</ele>
        <time>2021-03-20T17:53:00Z</time>
      </trkpt>
      <trkpt lat="55.76199" lon="-4.64828">
        <ele>34.73</ele>
        <time>2021-03-20T17:53:06Z</time>
      </trkpt>
      <trkpt lat="55.76108" lon="-4.64901">
        <ele>35.13</ele>
        <time>2021-03-20T17:53:13Z</time>
      </trkpt>
      <trkpt lat="55.76103" lon="-4.64903">
        <ele>34.98</ele>
        <time>2021-03-20T17:53:20Z</time>
      </trkpt>
      <trkpt lat="55.76098" lon="-4.649">
        <ele>35.22</ele>
        <time>2021-03-20T17:53:26Z</time>
      </trkpt>
      <trkpt lat="55.76089" lon="-4.64866">
        <ele>37.44</ele>
        <time>2021-03-20T17:53:33Z</time>
      </trkpt>
      <trkpt lat="55.7609" lon="-4.64856">
        <ele>38.27</ele>
        <time>2021-03-20T17:53:39Z</time>
      </trkpt>
      <trkpt lat="55.76093" lon="-4.64848">
        <ele>38.88</ele>
        <time>2021-03-20T17:53:46Z</time>
      </trkpt>
      <trkpt lat="55.76172" lon="-4.64772">
        <ele>40.97</ele>
        <time>2021-03-20T17:53:52Z</time>
      </trkpt>
      <trkpt lat="55.76181" lon="-4.64734">
        <ele>43.76</ele>
        <time>2021-03-20T17:53:59Z</time>
      </trkpt>
      <trkpt lat="55.76175" lon="-4.64693">
        <ele>46.92</ele>
        <time>2021-03-20T17:54:05Z</time>
      </trkpt>
      <trkpt lat="55.76135" lon="-4.64607">
        <ele>54.15</ele>
        <time>2021-03-20T17:54:12Z</time>
      </trkpt>
      <trkpt lat="55.76112" lon="-4.64538">
        <ele>54.99</ele>
        <time>2021-03-20T17:54:18Z</time>
      </trkpt>
      <trkpt lat="55.76017" lon="-4.64161">
        <ele>54.1</ele>
        <time>2021-03-20T17:54:25Z</time>
      </trkpt>
      <trkpt lat="55.75957" lon="-4.63965">
        <ele>61.57</ele>
        <time>2021-03-20T17:54:32Z</time>
      </trkpt>
      <trkpt lat="55.75938" lon="-4.63932">
        <ele>60.78</ele>
        <time>2021-03-20T17:54:38Z</time>
      </trkpt>
      <trkpt lat="55.75909" lon="-4.6392">
        <ele>59.74</ele>
        <time>2021-03-20T17:54:45Z</time>
      </trkpt>
      <trkpt lat="55.75832" lon="-4.6395">
        <ele>57.99</ele>
        <time>2021-03-20T17:54:51Z</time>
      </trkpt>
      <trkpt lat="55.75799" lon="-4.6394">
        <ele>58</ele>
        <time>2021-03-20T17:54:58Z</time>
      </trkpt>
      <trkpt lat="55.75752" lon="-4.6384">
        <ele>59.74</ele>
        <time>2021-03-20T17:55:04Z</time>
      </trkpt>
      <trkpt lat="55.75692" lon="-4.63806">
        <ele>62.9</ele>
        <time>2021-03-20T17:55:11Z</time>
      </trkpt>
      <trkpt lat="55.75649" lon="-4.63741">
        <ele>65.68</ele>
        <time>2021-03-20T17:55:17Z</time>
      </trkpt>
      <trkpt lat="55.75599" lon="-4.63722">
        <ele>69.35</ele>
        <time>2021-03-20T17:55:24Z</time>
      </trkpt>
      <trkpt lat="55.75333" lon="-4.63456">
        <ele>82.14</ele>
        <time>2021-03-20T17:55:31Z</time>
      </trkpt>
      <trkpt lat="55.75277" lon="-4.63383">
        <ele>83.18</ele>
        <time>2021-03-20T17:55:37Z</time>
      </trkpt>
      <trkpt lat="55.75247" lon="-4.63307">
        <ele>84.96</ele>
        <time>2021-03-20T17:55:44Z</time>
      </trkpt>
      <trkpt lat="55.75236" lon="-4.63321">
        <ele>84.44</ele>
        <time>2021-03-20T17:55:45Z</time>
      </trkpt>
      <trkpt lat="55.7522" lon="-4.63332">
        <ele>84.14</ele>
        <time>2021-03-20T17:55:47Z</time>
      </trkpt>
      <trkpt lat="55.75207" lon="-4.63334">
        <ele>84.54</ele>
        <time>2021-03-20T17:55:49Z</time>
      </trkpt>
      <trkpt lat="55.7519" lon="-4.6333">
        <ele>85.11</ele>
        <time>2021-03-20T17:55:51Z</time>
      </trkpt>
      <trkpt lat="55.75172" lon="-4.63318">
        <ele>85.56</ele>
        <time>2021-03-20T17:55:53Z</time>
      </trkpt>
      <trkpt lat="55.75143" lon="-4.63286">
        <ele>87.29</ele>
        <time>2021-03-20T17:55:55Z</time>
      </trkpt>
      <trkpt lat="55.75112" lon="-4.63264">
        <ele>91.39</ele>
        <time>2021-03-20T17:55:57Z</time>
      </trkpt>
      <trkpt lat="55.75091" lon="-4.63251">
        <ele>92.69</ele>
        <time>2021-03-20T17:55:58Z</time>
      </trkpt>
      <trkpt lat="55.7508" lon="-4.6325">
        <ele>92.99</ele>
        <time>2021-03-20T17:56:00Z</time>
      </trkpt>
      <trkpt lat="55.75071" lon="-4.63254">
        <ele>92.87</ele>
        <time>2021-03-20T17:56:02Z</time>
      </trkpt>
      <trkpt lat="55.7506" lon="-4.63262">
        <ele>92.57</ele>
        <time>2021-03-20T17:56:04Z</time>
      </trkpt>
      <trkpt lat="55.75044" lon="-4.63284">
        <ele>91.63</ele>
        <time>2021-03-20T17:56:06Z</time>
      </trkpt>
      <trkpt lat="55.75034" lon="-4.63312">
        <ele>90.75</ele>
        <time>2021-03-20T17:56:08Z</time>
      </trkpt>
      <trkpt lat="55.75029" lon="-4.63328">
        <ele>90.93</ele>
        <time>2021-03-20T17:56:09Z</time>
      </trkpt>
      <trkpt lat="55.75003" lon="-4.63307">
        <ele>94.54</ele>
        <time>2021-03-20T17:56:14Z</time>
      </trkpt>
      <trkpt lat="55.74991" lon="-4.63283">
        <ele>96.58</ele>
        <time>2021-03-20T17:56:19Z</time>
      </trkpt>
      <trkpt lat="55.74983" lon="-4.63274">
        <ele>98.13</ele>
        <time>2021-03-20T17:56:24Z</time>
      </trkpt>
      <trkpt lat="55.74903" lon="-4.63234">
        <ele>104.86</ele>
        <time>2021-03-20T17:56:29Z</time>
      </trkpt>
      <trkpt lat="55.74897" lon="-4.63225">
        <ele>105.6</ele>
        <time>2021-03-20T17:56:33Z</time>
      </trkpt>
      <trkpt lat="55.74875" lon="-4.63163">
        <ele>108</ele>
        <time>2021-03-20T17:56:38Z</time>
      </trkpt>
      <trkpt lat="55.74847" lon="-4.63074">
        <ele>108.34</ele>
        <time>2021-03-20T17:56:43Z</time>
      </trkpt>
      <trkpt lat="55.7483" lon="-4.63054">
        <ele>108.14</ele>
        <time>2021-03-20T17:56:48Z</time>
      </trkpt>
      <trkpt lat="55.74806" lon="-4.63033">
        <ele>108.98</ele>
        <time>2021-03-20T17:56:52Z</time>
      </trkpt>
      <trkpt lat="55.74646" lon="-4.62921">
        <ele>104.03</ele>
        <time>2021-03-20T17:56:57Z</time>
      </trkpt>
      <trkpt lat="55.74633" lon="-4.62948">
        <ele>104</ele>
        <time>2021-03-20T17:56:59Z</time>
      </trkpt>
      <trkpt lat="55.74622" lon="-4.62936">
        <ele>103.81</ele>
        <time>2021-03-20T17:57:04Z</time>
      </trkpt>
      <trkpt lat="55.74584" lon="-4.62933">
        <ele>102.01</ele>
        <time>2021-03-20T17:57:08Z</time>
      </trkpt>
      <trkpt lat="55.74564" lon="-4.62925">
        <ele>100.59</ele>
        <time>2021-03-20T17:57:13Z</time>
      </trkpt>
      <trkpt lat="55.74545" lon="-4.62906">
        <ele>99.6</ele>
        <time>2021-03-20T17:57:18Z</time>
      </trkpt>
      <trkpt lat="55.74529" lon="-4.62878">
        <ele>99.05</ele>
        <time>2021-03-20T17:57:23Z</time>
      </trkpt>
      <trkpt lat="55.74485" lon="-4.62767">
        <ele>95.21</ele>
        <time>2021-03-20T17:57:27Z</time>
      </trkpt>
      <trkpt lat="55.74454" lon="-4.62712">
        <ele>96.47</ele>
        <time>2021-03-20T17:57:32Z</time>
      </trkpt>
      <trkpt lat="55.74426" lon="-4.62673">
        <ele>95.6</ele>
        <time>2021-03-20T17:57:37Z</time>
      </trkpt>
      <trkpt lat="55.74403" lon="-4.62645">
        <ele>97.57</ele>
        <time>2021-03-20T17:57:42Z</time>
      </trkpt>
      <trkpt lat="55.74369" lon="-4.62615">
        <ele>100.99</ele>
        <time>2021-03-20T17:57:46Z</time>
      </trkpt>
      <trkpt lat="55.74344" lon="-4.62597">
        <ele>99.71</ele>
        <time>2021-03-20T17:57:51Z</time>
      </trkpt>
      <trkpt lat="55.74288" lon="-4.62566">
        <ele>96.62</ele>
        <time>2021-03-20T17:57:56Z</time>
      </trkpt>
      <trkpt lat="55.7426" lon="-4.62555">
        <ele>95.67</ele>
        <time>2021-03-20T17:58:01Z</time>
      </trkpt>
      <trkpt lat="55.74225" lon="-4.62548">
        <ele>93.19</ele>
        <time>2021-03-20T17:58:05Z</time>
      </trkpt>
      <trkpt lat="55.74205" lon="-4.62552">
        <ele>92.39</ele>
        <time>2021-03-20T17:58:10Z</time>
      </trkpt>
      <trkpt lat="55.74097" lon="-4.62593">
        <ele>87.99</ele>
        <time>2021-03-20T17:58:15Z</time>
      </trkpt>
      <trkpt lat="55.74066" lon="-4.62591">
        <ele>86.37</ele>
        <time>2021-03-20T17:58:20Z</time>
      </trkpt>
      <trkpt lat="55.74029" lon="-4.62565">
        <ele>86.33</ele>
        <time>2021-03-20T17:58:25Z</time>
      </trkpt>
      <trkpt lat="55.73974" lon="-4.62499">
        <ele>84.08</ele>
        <time>2021-03-20T17:58:29Z</time>
      </trkpt>
      <trkpt lat="55.73935" lon="-4.62428">
        <ele>89.9</ele>
        <time>2021-03-20T17:58:34Z</time>
      </trkpt>
      <trkpt lat="55.73812" lon="-4.62064">
        <ele>106.23</ele>
        <time>2021-03-20T17:58:39Z</time>
      </trkpt>
      <trkpt lat="55.7379" lon="-4.62048">
        <ele>107.55</ele>
        <time>2021-03-20T17:58:44Z</time>
      </trkpt>
      <trkpt lat="55.73757" lon="-4.62034">
        <ele>108</ele>
        <time>2021-03-20T17:58:48Z</time>
      </trkpt>
      <trkpt lat="55.73653" lon="-4.61827">
        <ele>105.51</ele>
        <time>2021-03-20T17:58:53Z</time>
      </trkpt>
      <trkpt lat="55.73615" lon="-4.61762">
        <ele>105.15</ele>
        <time>2021-03-20T17:58:58Z</time>
      </trkpt>
      <trkpt lat="55.73582" lon="-4.61744">
        <ele>105.2</ele>
        <time>2021-03-20T17:59:03Z</time>
      </trkpt>
      <trkpt lat="55.73541" lon="-4.61689">
        <ele>105.49</ele>
        <time>2021-03-20T17:59:07Z</time>
      </trkpt>
      <trkpt lat="55.73479" lon="-4.61666">
        <ele>102.98</ele>
        <time>2021-03-20T17:59:12Z</time>
      </trkpt>
      <trkpt lat="55.73392" lon="-4.61503">
        <ele>99.79</ele>
        <time>2021-03-20T17:59:17Z</time>
      </trkpt>
      <trkpt lat="55.73311" lon="-4.61273">
        <ele>103</ele>
        <time>2021-03-20T17:59:22Z</time>
      </trkpt>
      <trkpt lat="55.73233" lon="-4.61032">
        <ele>102.6</ele>
        <time>2021-03-20T17:59:26Z</time>
      </trkpt>
      <trkpt lat="55.73167" lon="-4.60834">
        <ele>101</ele>
        <time>2021-03-20T17:59:31Z</time>
      </trkpt>
      <trkpt lat="55.73116" lon="-4.60665">
        <ele>100.82</ele>
        <time>2021-03-20T17:59:36Z</time>
      </trkpt>
      <trkpt lat="55.72957" lon="-4.60372">
        <ele>100.53</ele>
        <time>2021-03-20T17:59:41Z</time>
      </trkpt>
      <trkpt lat="55.72907" lon="-4.60283">
        <ele>99.19</ele>
        <time>2021-03-20T17:59:46Z</time>
      </trkpt>
      <trkpt lat="55.72894" lon="-4.60242">
        <ele>99</ele>
        <time>2021-03-20T17:59:50Z</time>
      </trkpt>
      <trkpt lat="55.72897" lon="-4.60206">
        <ele>99</ele>
        <time>2021-03-20T17:59:55Z</time>
      </trkpt>
      <trkpt lat="55.72912" lon="-4.6015">
        <ele>99.84</ele>
        <time>2021-03-20T18:00:00Z</time>
      </trkpt>
      <trkpt lat="55.72818" lon="-4.59942">
        <ele>89.24</ele>
        <time>2021-03-20T18:00:04Z</time>
      </trkpt>
      <trkpt lat="55.72813" lon="-4.59903">
        <ele>87.56</ele>
        <time>2021-03-20T18:00:08Z</time>
      </trkpt>
      <trkpt lat="55.72819" lon="-4.59769">
        <ele>86.1</ele>
        <time>2021-03-20T18:00:12Z</time>
      </trkpt>
      <trkpt lat="55.72817" lon="-4.59756">
        <ele>86.26</ele>
        <time>2021-03-20T18:00:16Z</time>
      </trkpt>
      <trkpt lat="55.72806" lon="-4.59732">
        <ele>86.65</ele>
        <time>2021-03-20T18:00:20Z</time>
      </trkpt>
      <trkpt lat="55.72768" lon="-4.59695">
        <ele>89.96</ele>
        <time>2021-03-20T18:00:24Z</time>
      </trkpt>
      <trkpt lat="55.72731" lon="-4.59642">
        <ele>93.31</ele>
        <time>2021-03-20T18:00:28Z</time>
      </trkpt>
      <trkpt lat="55.72678" lon="-4.59487">
        <ele>103.82</ele>
        <time>2021-03-20T18:00:32Z</time>
      </trkpt>
      <trkpt lat="55.72605" lon="-4.59316">
        <ele>105</ele>
        <time>2021-03-20T18:00:36Z</time>
      </trkpt>
      <trkpt lat="55.72482" lon="-4.59215">
        <ele>110.9</ele>
        <time>2021-03-20T18:00:40Z</time>
      </trkpt>
      <trkpt lat="55.72393" lon="-4.59021">
        <ele>121.93</ele>
        <time>2021-03-20T18:00:44Z</time>
      </trkpt>
      <trkpt lat="55.7237" lon="-4.5894">
        <ele>122.76</ele>
        <time>2021-03-20T18:00:48Z</time>
      </trkpt>
      <trkpt lat="55.72368" lon="-4.58914">
        <ele>121.58</ele>
        <time>2021-03-20T18:00:52Z</time>
      </trkpt>
      <trkpt lat="55.72347" lon="-4.58824">
        <ele>115.17</ele>
        <time>2021-03-20T18:00:56Z</time>
      </trkpt>
      <trkpt lat="55.72311" lon="-4.58713">
        <ele>112.13</ele>
        <time>2021-03-20T18:01:00Z</time>
      </trkpt>
      <trkpt lat="55.72216" lon="-4.58549">
        <ele>118.54</ele>
        <time>2021-03-20T18:01:05Z</time>
      </trkpt>
      <trkpt lat="55.72197" lon="-4.58372">
        <ele>112.89</ele>
        <time>2021-03-20T18:01:09Z</time>
      </trkpt>
      <trkpt lat="55.72175" lon="-4.58258">
        <ele>108.55</ele>
        <time>2021-03-20T18:01:13Z</time>
      </trkpt>
      <trkpt lat="55.72065" lon="-4.57816">
        <ele>90.64</ele>
        <time>2021-03-20T18:01:17Z</time>
      </trkpt>
      <trkpt lat="55.72061" lon="-4.57776">
        <ele>90.05</ele>
        <time>2021-03-20T18:01:21Z</time>
      </trkpt>
      <trkpt lat="55.72056" lon="-4.57717">
        <ele>92.17</ele>
        <time>2021-03-20T18:01:25Z</time>
      </trkpt>
      <trkpt lat="55.7205" lon="-4.57674">
        <ele>93.92</ele>
        <time>2021-03-20T18:01:29Z</time>
      </trkpt>
      <trkpt lat="55.71933" lon="-4.57392">
        <ele>91</ele>
        <time>2021-03-20T18:01:33Z</time>
      </trkpt>
      <trkpt lat="55.71801" lon="-4.57543">
        <ele>89</ele>
        <time>2021-03-20T18:01:42Z</time>
      </trkpt>
      <trkpt lat="55.71712" lon="-4.57653">
        <ele>87.23</ele>
        <time>2021-03-20T18:01:51Z</time>
      </trkpt>
      <trkpt lat="55.71589" lon="-4.57796">
        <ele>83.2</ele>
        <time>2021-03-20T18:02:00Z</time>
      </trkpt>
      <trkpt lat="55.71168" lon="-4.58302">
        <ele>86.83</ele>
        <time>2021-03-20T18:02:09Z</time>
      </trkpt>
      <trkpt lat="55.71122" lon="-4.58354">
        <ele>85.54</ele>
        <time>2021-03-20T18:02:17Z</time>
      </trkpt>
      <trkpt lat="55.71015" lon="-4.5844">
        <ele>87.46</ele>
        <time>2021-03-20T18:02:26Z</time>
      </trkpt>
      <trkpt lat="55.70907" lon="-4.58509">
        <ele>88.89</ele>
        <time>2021-03-20T18:02:35Z</time>
      </trkpt>
      <trkpt lat="55.70795" lon="-4.58589">
        <ele>89.39</ele>
        <time>2021-03-20T18:02:44Z</time>
      </trkpt>
      <trkpt lat="55.70688" lon="-4.58671">
        <ele>91.67</ele>
        <time>2021-03-20T18:02:53Z</time>
      </trkpt>
      <trkpt lat="55.69972" lon="-4.5937">
        <ele>91.29</ele>
        <time>2021-03-20T18:03:02Z</time>
      </trkpt>
      <trkpt lat="55.69873" lon="-4.59481">
        <ele>90.43</ele>
        <time>2021-03-20T18:03:11Z</time>
      </trkpt>
      <trkpt lat="55.69492" lon="-4.59953">
        <ele>84.49</ele>
        <time>2021-03-20T18:03:20Z</time>
      </trkpt>
      <trkpt lat="55.69392" lon="-4.60053">
        <ele>85.9</ele>
        <time>2021-03-20T18:03:29Z</time>
      </trkpt>
      <trkpt lat="55.6935" lon="-4.60087">
        <ele>83.61</ele>
        <time>2021-03-20T18:03:38Z</time>
      </trkpt>
      <trkpt lat="55.69111" lon="-4.60265">
        <ele>82.54</ele>
        <time>2021-03-20T18:03:47Z</time>
      </trkpt>
      <trkpt lat="55.68951" lon="-4.60389">
        <ele>82.23</ele>
        <time>2021-03-20T18:03:56Z</time>
      </trkpt>
      <trkpt lat="55.68929" lon="-4.60402">
        <ele>82</ele>
        <time>2021-03-20T18:04:04Z</time>
      </trkpt>
      <trkpt lat="55.68895" lon="-4.60416">
        <ele>80.46</ele>
        <time>2021-03-20T18:04:13Z</time>
      </trkpt>
      <trkpt lat="55.68799" lon="-4.60441">
        <ele>76</ele>
        <time>2021-03-20T18:04:22Z</time>
      </trkpt>
      <trkpt lat="55.68732" lon="-4.60453">
        <ele>75.7</ele>
        <time>2021-03-20T18:04:31Z</time>
      </trkpt>
      <trkpt lat="55.68675" lon="-4.60466">
        <ele>75.91</ele>
        <time>2021-03-20T18:04:40Z</time>
      </trkpt>
      <trkpt lat="55.68443" lon="-4.60551">
        <ele>70.69</ele>
        <time>2021-03-20T18:04:49Z</time>
      </trkpt>
      <trkpt lat="55.68374" lon="-4.60566">
        <ele>71.19</ele>
        <time>2021-03-20T18:04:58Z</time>
      </trkpt>
      <trkpt lat="55.68285" lon="-4.6056">
        <ele>71.82</ele>
        <time>2021-03-20T18:05:07Z</time>
      </trkpt>
      <trkpt lat="55.67676" lon="-4.60472">
        <ele>78.69</ele>
        <time>2021-03-20T18:05:16Z</time>
      </trkpt>
      <trkpt lat="55.67577" lon="-4.60488">
        <ele>76</ele>
        <time>2021-03-20T18:05:25Z</time>
      </trkpt>
      <trkpt lat="55.67484" lon="-4.60566">
        <ele>74.63</ele>
        <time>2021-03-20T18:05:34Z</time>
      </trkpt>
      <trkpt lat="55.67399" lon="-4.60661">
        <ele>78</ele>
        <time>2021-03-20T18:05:43Z</time>
      </trkpt>
      <trkpt lat="55.67357" lon="-4.60715">
        <ele>78</ele>
        <time>2021-03-20T18:05:51Z</time>
      </trkpt>
      <trkpt lat="55.67105" lon="-4.6108">
        <ele>79.77</ele>
        <time>2021-03-20T18:06:00Z</time>
      </trkpt>
      <trkpt lat="55.67072" lon="-4.61119">
        <ele>80.79</ele>
        <time>2021-03-20T18:06:09Z</time>
      </trkpt>
      <trkpt lat="55.67008" lon="-4.61173">
        <ele>78.73</ele>
        <time>2021-03-20T18:06:18Z</time>
      </trkpt>
      <trkpt lat="55.66979" lon="-4.61187">
        <ele>78.73</ele>
        <time>2021-03-20T18:06:27Z</time>
      </trkpt>
      <trkpt lat="55.6692" lon="-4.61205">
        <ele>77.93</ele>
        <time>2021-03-20T18:06:36Z</time>
      </trkpt>
      <trkpt lat="55.66877" lon="-4.61213">
        <ele>76.37</ele>
        <time>2021-03-20T18:06:45Z</time>
      </trkpt>
      <trkpt lat="55.66669" lon="-4.61262">
        <ele>73.04</ele>
        <time>2021-03-20T18:06:54Z</time>
      </trkpt>
      <trkpt lat="55.66449" lon="-4.61307">
        <ele>68.14</ele>
        <time>2021-03-20T18:07:03Z</time>
      </trkpt>
      <trkpt lat="55.66256" lon="-4.61341">
        <ele>61.94</ele>
        <time>2021-03-20T18:07:12Z</time>
      </trkpt>
      <trkpt lat="55.6622" lon="-4.61344">
        <ele>61.61</ele>
        <time>2021-03-20T18:07:21Z</time>
      </trkpt>
      <trkpt lat="55.6618" lon="-4.61187">
        <ele>62.52</ele>
        <time>2021-03-20T18:07:29Z</time>
      </trkpt>
      <trkpt lat="55.6608" lon="-4.60991">
        <ele>60</ele>
        <time>2021-03-20T18:07:38Z</time>
      </trkpt>
      <trkpt lat="55.66025" lon="-4.60866">
        <ele>61</ele>
        <time>2021-03-20T18:07:47Z</time>
      </trkpt>
      <trkpt lat="55.66023" lon="-4.60837">
        <ele>61.85</ele>
        <time>2021-03-20T18:07:55Z</time>
      </trkpt>
      <trkpt lat="55.66036" lon="-4.60802">
        <ele>61.71</ele>
        <time>2021-03-20T18:08:04Z</time>
      </trkpt>
      <trkpt lat="55.66024" lon="-4.60735">
        <ele>62</ele>
        <time>2021-03-20T18:08:10Z</time>
      </trkpt>
      <trkpt lat="55.66005" lon="-4.60457">
        <ele>62.63</ele>
        <time>2021-03-20T18:08:16Z</time>
      </trkpt>
      <trkpt lat="55.66002" lon="-4.60438">
        <ele>61.85</ele>
        <time>2021-03-20T18:08:21Z</time>
      </trkpt>
      <trkpt lat="55.65993" lon="-4.60426">
        <ele>61.01</ele>
        <time>2021-03-20T18:08:27Z</time>
      </trkpt>
      <trkpt lat="55.6587" lon="-4.60319">
        <ele>58.31</ele>
        <time>2021-03-20T18:08:33Z</time>
      </trkpt>
      <trkpt lat="55.65814" lon="-4.60239">
        <ele>60.1</ele>
        <time>2021-03-20T18:08:39Z</time>
      </trkpt>
      <trkpt lat="55.65754" lon="-4.60134">
        <ele>61.03</ele>
        <time>2021-03-20T18:08:45Z</time>
      </trkpt>
      <trkpt lat="55.65704" lon="-4.60035">
        <ele>62</ele>
        <time>2021-03-20T18:08:50Z</time>
      </trkpt>
      <trkpt lat="55.65651" lon="-4.59946">
        <ele>61</ele>
        <time>2021-03-20T18:08:56Z</time>
      </trkpt>
      <trkpt lat="55.65613" lon="-4.59862">
        <ele>61.92</ele>
        <time>2021-03-20T18:09:02Z</time>
      </trkpt>
      <trkpt lat="55.6557" lon="-4.5978">
        <ele>60</ele>
        <time>2021-03-20T18:09:08Z</time>
      </trkpt>
      <trkpt lat="55.65486" lon="-4.59631">
        <ele>60.85</ele>
        <time>2021-03-20T18:09:14Z</time>
      </trkpt>
      <trkpt lat="55.65463" lon="-4.59567">
        <ele>60.6</ele>
        <time>2021-03-20T18:09:19Z</time>
      </trkpt>
      <trkpt lat="55.65454" lon="-4.59515">
        <ele>60.65</ele>
        <time>2021-03-20T18:09:25Z</time>
      </trkpt>
      <trkpt lat="55.65451" lon="-4.59429">
        <ele>61.78</ele>
        <time>2021-03-20T18:09:31Z</time>
      </trkpt>
      <trkpt lat="55.65429" lon="-4.59224">
        <ele>61.92</ele>
        <time>2021-03-20T18:09:37Z</time>
      </trkpt>
      <trkpt lat="55.65408" lon="-4.5908">
        <ele>61.88</ele>
        <time>2021-03-20T18:09:43Z</time>
      </trkpt>
      <trkpt lat="55.65381" lon="-4.58907">
        <ele>59</ele>
        <time>2021-03-20T18:09:49Z</time>
      </trkpt>
      <trkpt lat="55.65361" lon="-4.58825">
        <ele>57.98</ele>
        <time>2021-03-20T18:09:54Z</time>
      </trkpt>
      <trkpt lat="55.6534" lon="-4.58769">
        <ele>55.47</ele>
        <time>2021-03-20T18:10:00Z</time>
      </trkpt>
      <trkpt lat="55.65316" lon="-4.58727">
        <ele>54.36</ele>
        <time>2021-03-20T18:10:06Z</time>
      </trkpt>
      <trkpt lat="55.65285" lon="-4.58703">
        <ele>53.24</ele>
        <time>2021-03-20T18:10:12Z</time>
      </trkpt>
      <trkpt lat="55.65171" lon="-4.58673">
        <ele>50.24</ele>
        <time>2021-03-20T18:10:18Z</time>
      </trkpt>
      <trkpt lat="55.65161" lon="-4.58673">
        <ele>49.58</ele>
        <time>2021-03-20T18:10:23Z</time>
      </trkpt>
      <trkpt lat="55.6488" lon="-4.58725">
        <ele>48</ele>
        <time>2021-03-20T18:10:29Z</time>
      </trkpt>
      <trkpt lat="55.64872" lon="-4.58717">
        <ele>48</ele>
        <time>2021-03-20T18:10:35Z</time>
      </trkpt>
      <trkpt lat="55.64865" lon="-4.58704">
        <ele>48</ele>
        <time>2021-03-20T18:10:41Z</time>
      </trkpt>
      <trkpt lat="55.64811" lon="-4.58464">
        <ele>46.75</ele>
        <time>2021-03-20T18:10:47Z</time>
      </trkpt>
      <trkpt lat="55.64794" lon="-4.58432">
        <ele>44.72</ele>
        <time>2021-03-20T18:10:52Z</time>
      </trkpt>
      <trkpt lat="55.64787" lon="-4.58404">
        <ele>43.18</ele>
        <time>2021-03-20T18:10:58Z</time>
      </trkpt>
      <trkpt lat="55.64776" lon="-4.58391">
        <ele>41.99</ele>
        <time>2021-03-20T18:11:04Z</time>
      </trkpt>
      <trkpt lat="55.64755" lon="-4.58401">
        <ele>41.59</ele>
        <time>2021-03-20T18:11:10Z</time>
      </trkpt>
      <trkpt lat="55.64735" lon="-4.58404">
        <ele>41.8</ele>
        <time>2021-03-20T18:11:16Z</time>
      </trkpt>
      <trkpt lat="55.64704" lon="-4.58402">
        <ele>42.64</ele>
        <time>2021-03-20T18:11:22Z</time>
      </trkpt>
      <trkpt lat="55.64682" lon="-4.58392">
        <ele>43</ele>
        <time>2021-03-20T18:11:27Z</time>
      </trkpt>
      <trkpt lat="55.64667" lon="-4.58366">
        <ele>43</ele>
        <time>2021-03-20T18:11:33Z</time>
      </trkpt>
      <trkpt lat="55.64628" lon="-4.58256">
        <ele>44.4</ele>
        <time>2021-03-20T18:11:39Z</time>
      </trkpt>
      <trkpt lat="55.64621" lon="-4.58218">
        <ele>44.65</ele>
        <time>2021-03-20T18:11:45Z</time>
      </trkpt>
      <trkpt lat="55.64619" lon="-4.58149">
        <ele>44.45</ele>
        <time>2021-03-20T18:11:51Z</time>
      </trkpt>
      <trkpt lat="55.64612" lon="-4.58122">
        <ele>45.5</ele>
        <time>2021-03-20T18:11:56Z</time>
      </trkpt>
      <trkpt lat="55.64603" lon="-4.58115">
        <ele>45.85</ele>
        <time>2021-03-20T18:12:02Z</time>
      </trkpt>
      <trkpt lat="55.6454" lon="-4.58103">
        <ele>45.12</ele>
        <time>2021-03-20T18:12:08Z</time>
      </trkpt>
      <trkpt lat="55.64492" lon="-4.58127">
        <ele>45.69</ele>
        <time>2021-03-20T18:12:14Z</time>
      </trkpt>
      <trkpt lat="55.64473" lon="-4.58132">
        <ele>45.99</ele>
        <time>2021-03-20T18:12:20Z</time>
      </trkpt>
      <trkpt lat="55.64438" lon="-4.58135">
        <ele>46.12</ele>
        <time>2021-03-20T18:12:25Z</time>
      </trkpt>
      <trkpt lat="55.64423" lon="-4.58133">
        <ele>46.2</ele>
        <time>2021-03-20T18:12:31Z</time>
      </trkpt>
      <trkpt lat="55.6441" lon="-4.58125">
        <ele>46.49</ele>
        <time>2021-03-20T18:12:37Z</time>
      </trkpt>
      <trkpt lat="55.64366" lon="-4.58083">
        <ele>47</ele>
        <time>2021-03-20T18:12:43Z</time>
      </trkpt>
      <trkpt lat="55.6435" lon="-4.58052">
        <ele>47</ele>
        <time>2021-03-20T18:12:49Z</time>
      </trkpt>
      <trkpt lat="55.64299" lon="-4.58148">
        <ele>44.51</ele>
        <time>2021-03-20T18:12:54Z</time>
      </trkpt>
      <trkpt lat="55.64176" lon="-4.58455">
        <ele>40.07</ele>
        <time>2021-03-20T18:13:00Z</time>
      </trkpt>
      <trkpt lat="55.64138" lon="-4.58569">
        <ele>38.96</ele>
        <time>2021-03-20T18:13:05Z</time>
      </trkpt>
      <trkpt lat="55.64091" lon="-4.58757">
        <ele>37.27</ele>
        <time>2021-03-20T18:13:11Z</time>
      </trkpt>
      <trkpt lat="55.64019" lon="-4.58991">
        <ele>39</ele>
        <time>2021-03-20T18:13:16Z</time>
      </trkpt>
      <trkpt lat="55.63912" lon="-4.59362">
        <ele>45.83</ele>
        <time>2021-03-20T18:13:22Z</time>
      </trkpt>
      <trkpt lat="55.63897" lon="-4.5942">
        <ele>45</ele>
        <time>2021-03-20T18:13:27Z</time>
      </trkpt>
      <trkpt lat="55.63866" lon="-4.5951">
        <ele>45.82</ele>
        <time>2021-03-20T18:13:33Z</time>
      </trkpt>
      <trkpt lat="55.63753" lon="-4.59391">
        <ele>44.12</ele>
        <time>2021-03-20T18:13:43Z</time>
      </trkpt>
      <trkpt lat="55.63704" lon="-4.59374">
        <ele>41.65</ele>
        <time>2021-03-20T18:13:53Z</time>
      </trkpt>
      <trkpt lat="55.63649" lon="-4.59385">
        <ele>39.92</ele>
        <time>2021-03-20T18:14:03Z</time>
      </trkpt>
      <trkpt lat="55.63578" lon="-4.5941">
        <ele>42</ele>
        <time>2021-03-20T18:14:13Z</time>
      </trkpt>
      <trkpt lat="55.63546" lon="-4.59398">
        <ele>41.88</ele>
        <time>2021-03-20T18:14:23Z</time>
      </trkpt>
      <trkpt lat="55.63422" lon="-4.59333">
        <ele>36</ele>
        <time>2021-03-20T18:14:32Z</time>
      </trkpt>
      <trkpt lat="55.6333" lon="-4.59348">
        <ele>36.45</ele>
        <time>2021-03-20T18:14:42Z</time>
      </trkpt>
      <trkpt lat="55.63265" lon="-4.59347">
        <ele>34.51</ele>
        <time>2021-03-20T18:14:52Z</time>
      </trkpt>
      <trkpt lat="55.63088" lon="-4.59369">
        <ele>27.5</ele>
        <time>2021-03-20T18:15:02Z</time>
      </trkpt>
      <trkpt lat="55.63062" lon="-4.59367">
        <ele>25.44</ele>
        <time>2021-03-20T18:15:12Z</time>
      </trkpt>
      <trkpt lat="55.63035" lon="-4.59353">
        <ele>25.07</ele>
        <time>2021-03-20T18:15:22Z</time>
      </trkpt>
      <trkpt lat="55.62999" lon="-4.59326">
        <ele>25</ele>
        <time>2021-03-20T18:15:32Z</time>
      </trkpt>
      <trkpt lat="55.6297" lon="-4.59283">
        <ele>24.99</ele>
        <time>2021-03-20T18:15:42Z</time>
      </trkpt>
      <trkpt lat="55.6289" lon="-4.59218">
        <ele>24.04</ele>
        <time>2021-03-20T18:15:52Z</time>
      </trkpt>
      <trkpt lat="55.62803" lon="-4.59167">
        <ele>25</ele>
        <time>2021-03-20T18:16:02Z</time>
      </trkpt>
      <trkpt lat="55.62782" lon="-4.59171">
        <ele>24.84</ele>
        <time>2021-03-20T18:16:12Z</time>
      </trkpt>
      <trkpt lat="55.62742" lon="-4.59191">
        <ele>25.29</ele>
        <time>2021-03-20T18:16:22Z</time>
      </trkpt>
      <trkpt lat="55.62708" lon="-4.59192">
        <ele>27.01</ele>
        <time>2021-03-20T18:16:32Z</time>
      </trkpt>
      <trkpt lat="55.62683" lon="-4.59197">
        <ele>28.8</ele>
        <time>2021-03-20T18:16:42Z</time>
      </trkpt>
      <trkpt lat="55.62595" lon="-4.5921">
        <ele>33.58</ele>
        <time>2021-03-20T18:16:52Z</time>
      </trkpt>
      <trkpt lat="55.62541" lon="-4.59222">
        <ele>35</ele>
        <time>2021-03-20T18:17:02Z</time>
      </trkpt>
      <trkpt lat="55.62334" lon="-4.59249">
        <ele>28.05</ele>
        <time>2021-03-20T18:17:12Z</time>
      </trkpt>
      <trkpt lat="55.62317" lon="-4.59237">
        <ele>27.89</ele>
        <time>2021-03-20T18:17:21Z</time>
      </trkpt>
      <trkpt lat="55.62214" lon="-4.59117">
        <ele>30.79</ele>
        <time>2021-03-20T18:17:31Z</time>
      </trkpt>
      <trkpt lat="55.62177" lon="-4.59096">
        <ele>30.37</ele>
        <time>2021-03-20T18:17:41Z</time>
      </trkpt>
      <trkpt lat="55.61801" lon="-4.59045">
        <ele>26.82</ele>
        <time>2021-03-20T18:17:51Z</time>
      </trkpt>
      <trkpt lat="55.61613" lon="-4.59014">
        <ele>23</ele>
        <time>2021-03-20T18:18:01Z</time>
      </trkpt>
      <trkpt lat="55.61582" lon="-4.58998">
        <ele>23.03</ele>
        <time>2021-03-20T18:18:11Z</time>
      </trkpt>
      <trkpt lat="55.61552" lon="-4.58972">
        <ele>24.24</ele>
        <time>2021-03-20T18:18:21Z</time>
      </trkpt>
      <trkpt lat="55.61502" lon="-4.58903">
        <ele>27.45</ele>
        <time>2021-03-20T18:18:31Z</time>
      </trkpt>
      <trkpt lat="55.61489" lon="-4.58893">
        <ele>27.14</ele>
        <time>2021-03-20T18:18:41Z</time>
      </trkpt>
      <trkpt lat="55.61387" lon="-4.58841">
        <ele>22.95</ele>
        <time>2021-03-20T18:18:51Z</time>
      </trkpt>
      <trkpt lat="55.61371" lon="-4.59009">
        <ele>24.04</ele>
        <time>2021-03-20T18:18:59Z</time>
      </trkpt>
      <trkpt lat="55.61371" lon="-4.59048">
        <ele>24.73</ele>
        <time>2021-03-20T18:19:08Z</time>
      </trkpt>
      <trkpt lat="55.61377" lon="-4.5909">
        <ele>25.14</ele>
        <time>2021-03-20T18:19:16Z</time>
      </trkpt>
      <trkpt lat="55.61391" lon="-4.5917">
        <ele>26.13</ele>
        <time>2021-03-20T18:19:24Z</time>
      </trkpt>
      <trkpt lat="55.61397" lon="-4.5923">
        <ele>26.53</ele>
        <time>2021-03-20T18:19:33Z</time>
      </trkpt>
      <trkpt lat="55.61398" lon="-4.5927">
        <ele>26.34</ele>
        <time>2021-03-20T18:19:41Z</time>
      </trkpt>
      <trkpt lat="55.61347" lon="-4.59641">
        <ele>29.5</ele>
        <time>2021-03-20T18:19:50Z</time>
      </trkpt>
      <trkpt lat="55.61324" lon="-4.59799">
        <ele>26.9</ele>
        <time>2021-03-20T18:19:58Z</time>
      </trkpt>
      <trkpt lat="55.61302" lon="-4.59973">
        <ele>26.27</ele>
        <time>2021-03-20T18:20:06Z</time>
      </trkpt>
      <trkpt lat="55.61255" lon="-4.60301">
        <ele>30.86</ele>
        <time>2021-03-20T18:20:15Z</time>
      </trkpt>
      <trkpt lat="55.61253" lon="-4.60357">
        <ele>31.89</ele>
        <time>2021-03-20T18:20:23Z</time>
      </trkpt>
      <trkpt lat="55.61245" lon="-4.60361">
        <ele>32</ele>
        <time>2021-03-20T18:20:26Z</time>
      </trkpt>
      <trkpt lat="55.61241" lon="-4.60366">
        <ele>32</ele>
        <time>2021-03-20T18:20:30Z</time>
      </trkpt>
      <trkpt lat="55.61239" lon="-4.60372">
        <ele>32</ele>
        <time>2021-03-20T18:20:33Z</time>
      </trkpt>
      <trkpt lat="55.61237" lon="-4.60382">
        <ele>32</ele>
        <time>2021-03-20T18:20:37Z</time>
      </trkpt>
      <trkpt lat="55.61241" lon="-4.60397">
        <ele>32.19</ele>
        <time>2021-03-20T18:20:40Z</time>
      </trkpt>
      <trkpt lat="55.61249" lon="-4.60405">
        <ele>32.55</ele>
        <time>2021-03-20T18:20:43Z</time>
      </trkpt>
      <trkpt lat="55.61241" lon="-4.60609">
        <ele>30.74</ele>
        <time>2021-03-20T18:20:47Z</time>
      </trkpt>
      <trkpt lat="55.61236" lon="-4.6067">
        <ele>31.05</ele>
        <time>2021-03-20T18:20:50Z</time>
      </trkpt>
      <trkpt lat="55.61222" lon="-4.60781">
        <ele>33.11</ele>
        <time>2021-03-20T18:20:53Z</time>
      </trkpt>
      <trkpt lat="55.6121" lon="-4.60931">
        <ele>34.86</ele>
        <time>2021-03-20T18:20:57Z</time>
      </trkpt>
      <trkpt lat="55.612" lon="-4.61009">
        <ele>34.3</ele>
        <time>2021-03-20T18:21:00Z</time>
      </trkpt>
      <trkpt lat="55.61164" lon="-4.61148">
        <ele>29.77</ele>
        <time>2021-03-20T18:21:04Z</time>
      </trkpt>
      <trkpt lat="55.61139" lon="-4.61236">
        <ele>30.01</ele>
        <time>2021-03-20T18:21:07Z</time>
      </trkpt>
      <trkpt lat="55.61121" lon="-4.61285">
        <ele>30.63</ele>
        <time>2021-03-20T18:21:10Z</time>
      </trkpt>
      <trkpt lat="55.611" lon="-4.61322">
        <ele>30.6</ele>
        <time>2021-03-20T18:21:14Z</time>
      </trkpt>
      <trkpt lat="55.61081" lon="-4.61361">
        <ele>29.91</ele>
        <time>2021-03-20T18:21:17Z</time>
      </trkpt>
      <trkpt lat="55.60982" lon="-4.61694">
        <ele>27.63</ele>
        <time>2021-03-20T18:21:20Z</time>
      </trkpt>
      <trkpt lat="55.60954" lon="-4.61769">
        <ele>26.34</ele>
        <time>2021-03-20T18:21:24Z</time>
      </trkpt>
      <trkpt lat="55.60906" lon="-4.61706">
        <ele>27</ele>
        <time>2021-03-20T18:21:29Z</time>
      </trkpt>
      <trkpt lat="55.60689" lon="-4.61327">
        <ele>20</ele>
        <time>2021-03-20T18:21:35Z</time>
      </trkpt>
      <trkpt lat="55.60605" lon="-4.61185">
        <ele>20.5</ele>
        <time>2021-03-20T18:21:41Z</time>
      </trkpt>
      <trkpt lat="55.60584" lon="-4.61153">
        <ele>21</ele>
        <time>2021-03-20T18:21:46Z</time>
      </trkpt>
      <trkpt lat="55.60556" lon="-4.61119">
        <ele>21.02</ele>
        <time>2021-03-20T18:21:52Z</time>
      </trkpt>
      <trkpt lat="55.6054" lon="-4.61104">
        <ele>18.59</ele>
        <time>2021-03-20T18:21:58Z</time>
      </trkpt>
      <trkpt lat="55.60512" lon="-4.61092">
        <ele>14.46</ele>
        <time>2021-03-20T18:22:03Z</time>
      </trkpt>
      <trkpt lat="55.60407" lon="-4.61063">
        <ele>9.52</ele>
        <time>2021-03-20T18:22:09Z</time>
      </trkpt>
      <trkpt lat="55.60389" lon="-4.61053">
        <ele>10.01</ele>
        <time>2021-03-20T18:22:15Z</time>
      </trkpt>
      <trkpt lat="55.60371" lon="-4.61038">
        <ele>10.64</ele>
        <time>2021-03-20T18:22:20Z</time>
      </trkpt>
      <trkpt lat="55.6035" lon="-4.61012">
        <ele>11.39</ele>
        <time>2021-03-20T18:22:26Z</time>
      </trkpt>
      <trkpt lat="55.60333" lon="-4.60984">
        <ele>12.02</ele>
        <time>2021-03-20T18:22:32Z</time>
      </trkpt>
      <trkpt lat="55.60314" lon="-4.60944">
        <ele>11.69</ele>
        <time>2021-03-20T18:22:37Z</time>
      </trkpt>
      <trkpt lat="55.60278" lon="-4.60835">
        <ele>11.07</ele>
        <time>2021-03-20T18:22:43Z</time>
      </trkpt>
      <trkpt lat="55.60263" lon="-4.60807">
        <ele>11.53</ele>
        <time>2021-03-20T18:22:49Z</time>
      </trkpt>
      <trkpt lat="55.60247" lon="-4.60789">
        <ele>12.16</ele>
        <time>2021-03-20T18:22:54Z</time>
      </trkpt>
      <trkpt lat="55.60159" lon="-4.60707">
        <ele>19.26</ele>
        <time>2021-03-20T18:23:00Z</time>
      </trkpt>
      <trkpt lat="55.60093" lon="-4.60639">
        <ele>18.33</ele>
        <time>2021-03-20T18:23:06Z</time>
      </trkpt>
      <trkpt lat="55.6005" lon="-4.60617">
        <ele>19.01</ele>
        <time>2021-03-20T18:23:11Z</time>
      </trkpt>
      <trkpt lat="55.59965" lon="-4.60584">
        <ele>20</ele>
        <time>2021-03-20T18:23:17Z</time>
      </trkpt>
      <trkpt lat="55.59684" lon="-4.6053">
        <ele>19.09</ele>
        <time>2021-03-20T18:23:23Z</time>
      </trkpt>
      <trkpt lat="55.59595" lon="-4.60517">
        <ele>20.42</ele>
        <time>2021-03-20T18:23:28Z</time>
      </trkpt>
      <trkpt lat="55.59566" lon="-4.6051">
        <ele>21.77</ele>
        <time>2021-03-20T18:23:34Z</time>
      </trkpt>
      <trkpt lat="55.59517" lon="-4.60479">
        <ele>20.16</ele>
        <time>2021-03-20T18:23:40Z</time>
      </trkpt>
      <trkpt lat="55.59461" lon="-4.60413">
        <ele>19.51</ele>
        <time>2021-03-20T18:23:46Z</time>
      </trkpt>
      <trkpt lat="55.59437" lon="-4.6038">
        <ele>19</ele>
        <time>2021-03-20T18:23:51Z</time>
      </trkpt>
      <trkpt lat="55.59417" lon="-4.60357">
        <ele>19.14</ele>
        <time>2021-03-20T18:23:57Z</time>
      </trkpt>
      <trkpt lat="55.59384" lon="-4.60312">
        <ele>21</ele>
        <time>2021-03-20T18:24:03Z</time>
      </trkpt>
      <trkpt lat="55.5936" lon="-4.60289">
        <ele>21.59</ele>
        <time>2021-03-20T18:24:08Z</time>
      </trkpt>
      <trkpt lat="55.58892" lon="-4.60131">
        <ele>26.4</ele>
        <time>2021-03-20T18:24:14Z</time>
      </trkpt>
      <trkpt lat="55.58213" lon="-4.59908">
        <ele>31.31</ele>
        <time>2021-03-20T18:24:20Z</time>
      </trkpt>
      <trkpt lat="55.58206" lon="-4.59937">
        <ele>31</ele>
        <time>2021-03-20T18:24:21Z</time>
      </trkpt>
      <trkpt lat="55.58135" lon="-4.5989">
        <ele>32.77</ele>
        <time>2021-03-20T18:24:31Z</time>
      </trkpt>
      <trkpt lat="55.58117" lon="-4.59876">
        <ele>32.58</ele>
        <time>2021-03-20T18:24:40Z</time>
      </trkpt>
      <trkpt lat="55.57995" lon="-4.59732">
        <ele>35.53</ele>
        <time>2021-03-20T18:24:49Z</time>
      </trkpt>
      <trkpt lat="55.57928" lon="-4.59661">
        <ele>35</ele>
        <time>2021-03-20T18:24:59Z</time>
      </trkpt>
      <trkpt lat="55.57843" lon="-4.59551">
        <ele>36.49</ele>
        <time>2021-03-20T18:25:08Z</time>
      </trkpt>
      <trkpt lat="55.57781" lon="-4.59467">
        <ele>37</ele>
        <time>2021-03-20T18:25:17Z</time>
      </trkpt>
      <trkpt lat="55.57612" lon="-4.5936">
        <ele>36.03</ele>
        <time>2021-03-20T18:25:27Z</time>
      </trkpt>
      <trkpt lat="55.57475" lon="-4.5926">
        <ele>42.9</ele>
        <time>2021-03-20T18:25:36Z</time>
      </trkpt>
      <trkpt lat="55.57427" lon="-4.59216">
        <ele>40.77</ele>
        <time>2021-03-20T18:25:45Z</time>
      </trkpt>
      <trkpt lat="55.57407" lon="-4.59183">
        <ele>39.44</ele>
        <time>2021-03-20T18:25:55Z</time>
      </trkpt>
      <trkpt lat="55.57325" lon="-4.59173">
        <ele>37.46</ele>
        <time>2021-03-20T18:26:00Z</time>
      </trkpt>
      <trkpt lat="55.57308" lon="-4.59175">
        <ele>37.94</ele>
        <time>2021-03-20T18:26:05Z</time>
      </trkpt>
      <trkpt lat="55.57292" lon="-4.59182">
        <ele>38.95</ele>
        <time>2021-03-20T18:26:10Z</time>
      </trkpt>
      <trkpt lat="55.57278" lon="-4.59193">
        <ele>39.97</ele>
        <time>2021-03-20T18:26:16Z</time>
      </trkpt>
      <trkpt lat="55.57256" lon="-4.59224">
        <ele>41.63</ele>
        <time>2021-03-20T18:26:21Z</time>
      </trkpt>
      <trkpt lat="55.57236" lon="-4.59263">
        <ele>44.76</ele>
        <time>2021-03-20T18:26:26Z</time>
      </trkpt>
      <trkpt lat="55.56967" lon="-4.59852">
        <ele>80.75</ele>
        <time>2021-03-20T18:26:31Z</time>
      </trkpt>
      <trkpt lat="55.56937" lon="-4.59902">
        <ele>84.08</ele>
        <time>2021-03-20T18:26:36Z</time>
      </trkpt>
      <trkpt lat="55.56903" lon="-4.59943">
        <ele>85.07</ele>
        <time>2021-03-20T18:26:42Z</time>
      </trkpt>
      <trkpt lat="55.56873" lon="-4.59986">
        <ele>83.86</ele>
        <time>2021-03-20T18:26:47Z</time>
      </trkpt>
      <trkpt lat="55.56837" lon="-4.60023">
        <ele>84.86</ele>
        <time>2021-03-20T18:26:52Z</time>
      </trkpt>
      <trkpt lat="55.56816" lon="-4.60033">
        <ele>85.44</ele>
        <time>2021-03-20T18:26:57Z</time>
      </trkpt>
      <trkpt lat="55.56786" lon="-4.6004">
        <ele>85.88</ele>
        <time>2021-03-20T18:27:02Z</time>
      </trkpt>
      <trkpt lat="55.56764" lon="-4.60056">
        <ele>86.5</ele>
        <time>2021-03-20T18:27:08Z</time>
      </trkpt>
      <trkpt lat="55.5673" lon="-4.60088">
        <ele>89.15</ele>
        <time>2021-03-20T18:27:13Z</time>
      </trkpt>
      <trkpt lat="55.56694" lon="-4.60116">
        <ele>92.31</ele>
        <time>2021-03-20T18:27:18Z</time>
      </trkpt>
      <trkpt lat="55.56674" lon="-4.60124">
        <ele>95.77</ele>
        <time>2021-03-20T18:27:23Z</time>
      </trkpt>
      <trkpt lat="55.56655" lon="-4.60127">
        <ele>97.86</ele>
        <time>2021-03-20T18:27:28Z</time>
      </trkpt>
      <trkpt lat="55.56626" lon="-4.6014">
        <ele>99.18</ele>
        <time>2021-03-20T18:27:34Z</time>
      </trkpt>
      <trkpt lat="55.56606" lon="-4.60153">
        <ele>98.73</ele>
        <time>2021-03-20T18:27:39Z</time>
      </trkpt>
      <trkpt lat="55.56585" lon="-4.60171">
        <ele>99.54</ele>
        <time>2021-03-20T18:27:44Z</time>
      </trkpt>
      <trkpt lat="55.56547" lon="-4.60186">
        <ele>101.04</ele>
        <time>2021-03-20T18:27:49Z</time>
      </trkpt>
      <trkpt lat="55.56514" lon="-4.60206">
        <ele>102.21</ele>
        <time>2021-03-20T18:27:54Z</time>
      </trkpt>
      <trkpt lat="55.56456" lon="-4.60268">
        <ele>103.58</ele>
        <time>2021-03-20T18:28:00Z</time>
      </trkpt>
      <trkpt lat="55.56427" lon="-4.60312">
        <ele>103.65</ele>
        <time>2021-03-20T18:28:05Z</time>
      </trkpt>
      <trkpt lat="55.56399" lon="-4.60362">
        <ele>103.51</ele>
        <time>2021-03-20T18:28:10Z</time>
      </trkpt>
      <trkpt lat="55.56373" lon="-4.60416">
        <ele>103.28</ele>
        <time>2021-03-20T18:28:15Z</time>
      </trkpt>
      <trkpt lat="55.56341" lon="-4.6046">
        <ele>104.81</ele>
        <time>2021-03-20T18:28:20Z</time>
      </trkpt>
      <trkpt lat="55.56296" lon="-4.60508">
        <ele>111.25</ele>
        <time>2021-03-20T18:28:26Z</time>
      </trkpt>
      <trkpt lat="55.5627" lon="-4.60541">
        <ele>115.24</ele>
        <time>2021-03-20T18:28:31Z</time>
      </trkpt>
      <trkpt lat="55.56257" lon="-4.60578">
        <ele>118.37</ele>
        <time>2021-03-20T18:28:36Z</time>
      </trkpt>
      <trkpt lat="55.56237" lon="-4.60621">
        <ele>120.34</ele>
        <time>2021-03-20T18:28:41Z</time>
      </trkpt>
      <trkpt lat="55.56204" lon="-4.60658">
        <ele>123.19</ele>
        <time>2021-03-20T18:28:46Z</time>
      </trkpt>
      <trkpt lat="55.56096" lon="-4.60809">
        <ele>125.36</ele>
        <time>2021-03-20T18:28:52Z</time>
      </trkpt>
      <trkpt lat="55.55904" lon="-4.61122">
        <ele>110.2</ele>
        <time>2021-03-20T18:28:57Z</time>
      </trkpt>
      <trkpt lat="55.55806" lon="-4.61232">
        <ele>103.32</ele>
        <time>2021-03-20T18:29:02Z</time>
      </trkpt>
      <trkpt lat="55.55779" lon="-4.61272">
        <ele>101.36</ele>
        <time>2021-03-20T18:29:07Z</time>
      </trkpt>
      <trkpt lat="55.5566" lon="-4.61577">
        <ele>78.7</ele>
        <time>2021-03-20T18:29:12Z</time>
      </trkpt>
      <trkpt lat="55.55632" lon="-4.6163">
        <ele>76.66</ele>
        <time>2021-03-20T18:29:18Z</time>
      </trkpt>
      <trkpt lat="55.55597" lon="-4.61659">
        <ele>74.54</ele>
        <time>2021-03-20T18:29:23Z</time>
      </trkpt>
      <trkpt lat="55.55559" lon="-4.61683">
        <ele>72.21</ele>
        <time>2021-03-20T18:29:28Z</time>
      </trkpt>
      <trkpt lat="55.5548" lon="-4.61725">
        <ele>67.18</ele>
        <time>2021-03-20T18:29:33Z</time>
      </trkpt>
      <trkpt lat="55.5541" lon="-4.6179">
        <ele>64.6</ele>
        <time>2021-03-20T18:29:38Z</time>
      </trkpt>
      <trkpt lat="55.55217" lon="-4.6196">
        <ele>45.05</ele>
        <time>2021-03-20T18:29:44Z</time>
      </trkpt>
      <trkpt lat="55.5517" lon="-4.62013">
        <ele>40.75</ele>
        <time>2021-03-20T18:29:49Z</time>
      </trkpt>
      <trkpt lat="55.5512" lon="-4.62082">
        <ele>36.28</ele>
        <time>2021-03-20T18:29:54Z</time>
      </trkpt>
      <trkpt lat="55.55075" lon="-4.62144">
        <ele>31.71</ele>
        <time>2021-03-20T18:29:59Z</time>
      </trkpt>
      <trkpt lat="55.54939" lon="-4.62297">
        <ele>23.11</ele>
        <time>2021-03-20T18:30:04Z</time>
      </trkpt>
      <trkpt lat="55.54927" lon="-4.62336">
        <ele>22.26</ele>
        <time>2021-03-20T18:30:10Z</time>
      </trkpt>
      <trkpt lat="55.54895" lon="-4.62424">
        <ele>18.23</ele>
        <time>2021-03-20T18:30:15Z</time>
      </trkpt>
      <trkpt lat="55.54878" lon="-4.62466">
        <ele>17.7</ele>
        <time>2021-03-20T18:30:20Z</time>
      </trkpt>
      <trkpt lat="55.54893" lon="-4.62485">
        <ele>18.14</ele>
        <time>2021-03-20T18:30:22Z</time>
      </trkpt>
      <trkpt lat="55.54897" lon="-4.62475">
        <ele>18.49</ele>
        <time>2021-03-20T18:30:23Z</time>
      </trkpt>
    </trkseg>
  </trk>
</gpx>